<?xml version="1.0" encoding="UTF-8"?>
<gpx version="1.1" creator="https://www.youtrack.es" xsi:schemaLocation="http://www.topografix.com/GPX/1/1 http://www.topografix.com/GPX/1/1/gpx.xsd http://www.garmin.com/xmlschemas/GpxExtensions/v3 http://www.garmin.com/xmlschemas/GpxExtensionsv3.xsd http://www.garmin.com/xmlschemas/TrackPointExtension/v1 http://www.garmin.com/xmlschemas/TrackPointExtensionv1.xsd" xmlns:gpxtpx="http://www.garmin.com/xmlschemas/TrackPointExtension/v1" xmlns:gpxx="http://www.garmin.com/xmlschemas/GpxExtensions/v3" xmlns:xsi="http://www.w3.org/2001/XMLSchema-instance">
  <metadata>
    <link href="https://www.youtrack.es">
      <text>YouTrack.es</text>
    </link>
    <time>2026-05-09T00:27:21Z</time>
  </metadata>
  <trk>
    <src>https://www.youtrack.es</src>
    <link href="https://www.youtrack.es/ruta/4570-huesca-full">
      <text>YouTrack.es</text>
    </link>
    <trkseg>
      <trkpt lat="42.1016750" lon="-0.6916500">
        <ele>391.8</ele>
        <time>2019-03-16T09:51:46Z</time>
      </trkpt>
      <trkpt lat="42.1016750" lon="-0.6916500">
        <ele>391.8</ele>
        <time>2019-03-16T09:51:48Z</time>
      </trkpt>
      <trkpt lat="42.1016750" lon="-0.6916500">
        <ele>392.2</ele>
        <time>2019-03-16T09:51:52Z</time>
      </trkpt>
      <trkpt lat="42.1016930" lon="-0.6913800">
        <ele>392.6</ele>
        <time>2019-03-16T09:51:56Z</time>
      </trkpt>
      <trkpt lat="42.1017180" lon="-0.6910510">
        <ele>392.2</ele>
        <time>2019-03-16T09:52:00Z</time>
      </trkpt>
      <trkpt lat="42.1017450" lon="-0.6907200">
        <ele>391.8</ele>
        <time>2019-03-16T09:52:04Z</time>
      </trkpt>
      <trkpt lat="42.1017550" lon="-0.6904160">
        <ele>392.4</ele>
        <time>2019-03-16T09:52:08Z</time>
      </trkpt>
      <trkpt lat="42.1017830" lon="-0.6900960">
        <ele>392.2</ele>
        <time>2019-03-16T09:52:12Z</time>
      </trkpt>
      <trkpt lat="42.1018050" lon="-0.6897330">
        <ele>392.4</ele>
        <time>2019-03-16T09:52:16Z</time>
      </trkpt>
      <trkpt lat="42.1018300" lon="-0.6893560">
        <ele>392.0</ele>
        <time>2019-03-16T09:52:20Z</time>
      </trkpt>
      <trkpt lat="42.1018510" lon="-0.6889760">
        <ele>392.0</ele>
        <time>2019-03-16T09:52:24Z</time>
      </trkpt>
      <trkpt lat="42.1018800" lon="-0.6885950">
        <ele>391.6</ele>
        <time>2019-03-16T09:52:28Z</time>
      </trkpt>
      <trkpt lat="42.1019030" lon="-0.6882060">
        <ele>392.4</ele>
        <time>2019-03-16T09:52:32Z</time>
      </trkpt>
      <trkpt lat="42.1019260" lon="-0.6878150">
        <ele>392.4</ele>
        <time>2019-03-16T09:52:36Z</time>
      </trkpt>
      <trkpt lat="42.1019480" lon="-0.6874330">
        <ele>392.0</ele>
        <time>2019-03-16T09:52:40Z</time>
      </trkpt>
      <trkpt lat="42.1019730" lon="-0.6870580">
        <ele>392.4</ele>
        <time>2019-03-16T09:52:44Z</time>
      </trkpt>
      <trkpt lat="42.1020110" lon="-0.6866950">
        <ele>392.4</ele>
        <time>2019-03-16T09:52:48Z</time>
      </trkpt>
      <trkpt lat="42.1020850" lon="-0.6863260">
        <ele>392.4</ele>
        <time>2019-03-16T09:52:52Z</time>
      </trkpt>
      <trkpt lat="42.1022100" lon="-0.6859600">
        <ele>393.0</ele>
        <time>2019-03-16T09:52:56Z</time>
      </trkpt>
      <trkpt lat="42.1023860" lon="-0.6856150">
        <ele>392.8</ele>
        <time>2019-03-16T09:53:00Z</time>
      </trkpt>
      <trkpt lat="42.1026080" lon="-0.6853010">
        <ele>392.4</ele>
        <time>2019-03-16T09:53:04Z</time>
      </trkpt>
      <trkpt lat="42.1028280" lon="-0.6849860">
        <ele>392.4</ele>
        <time>2019-03-16T09:53:08Z</time>
      </trkpt>
      <trkpt lat="42.1030100" lon="-0.6846330">
        <ele>392.8</ele>
        <time>2019-03-16T09:53:12Z</time>
      </trkpt>
      <trkpt lat="42.1030880" lon="-0.6842060">
        <ele>392.6</ele>
        <time>2019-03-16T09:53:16Z</time>
      </trkpt>
      <trkpt lat="42.1030410" lon="-0.6837680">
        <ele>393.0</ele>
        <time>2019-03-16T09:53:20Z</time>
      </trkpt>
      <trkpt lat="42.1028630" lon="-0.6833950">
        <ele>392.8</ele>
        <time>2019-03-16T09:53:24Z</time>
      </trkpt>
      <trkpt lat="42.1025960" lon="-0.6831280">
        <ele>392.8</ele>
        <time>2019-03-16T09:53:28Z</time>
      </trkpt>
      <trkpt lat="42.1023060" lon="-0.6829000">
        <ele>392.4</ele>
        <time>2019-03-16T09:53:32Z</time>
      </trkpt>
      <trkpt lat="42.1019730" lon="-0.6827950">
        <ele>392.6</ele>
        <time>2019-03-16T09:53:36Z</time>
      </trkpt>
      <trkpt lat="42.1016430" lon="-0.6826580">
        <ele>392.4</ele>
        <time>2019-03-16T09:53:40Z</time>
      </trkpt>
      <trkpt lat="42.1013780" lon="-0.6823680">
        <ele>391.2</ele>
        <time>2019-03-16T09:53:44Z</time>
      </trkpt>
      <trkpt lat="42.1012200" lon="-0.6819610">
        <ele>393.2</ele>
        <time>2019-03-16T09:53:48Z</time>
      </trkpt>
      <trkpt lat="42.1012100" lon="-0.6815080">
        <ele>392.2</ele>
        <time>2019-03-16T09:53:52Z</time>
      </trkpt>
      <trkpt lat="42.1013330" lon="-0.6810810">
        <ele>392.0</ele>
        <time>2019-03-16T09:53:56Z</time>
      </trkpt>
      <trkpt lat="42.1014450" lon="-0.6806460">
        <ele>392.4</ele>
        <time>2019-03-16T09:54:00Z</time>
      </trkpt>
      <trkpt lat="42.1015630" lon="-0.6802110">
        <ele>392.6</ele>
        <time>2019-03-16T09:54:04Z</time>
      </trkpt>
      <trkpt lat="42.1016950" lon="-0.6797830">
        <ele>392.4</ele>
        <time>2019-03-16T09:54:08Z</time>
      </trkpt>
      <trkpt lat="42.1018250" lon="-0.6793530">
        <ele>392.4</ele>
        <time>2019-03-16T09:54:12Z</time>
      </trkpt>
      <trkpt lat="42.1019510" lon="-0.6789310">
        <ele>392.0</ele>
        <time>2019-03-16T09:54:16Z</time>
      </trkpt>
      <trkpt lat="42.1020710" lon="-0.6785150">
        <ele>392.6</ele>
        <time>2019-03-16T09:54:20Z</time>
      </trkpt>
      <trkpt lat="42.1021930" lon="-0.6781000">
        <ele>391.8</ele>
        <time>2019-03-16T09:54:24Z</time>
      </trkpt>
      <trkpt lat="42.1023110" lon="-0.6776880">
        <ele>392.4</ele>
        <time>2019-03-16T09:54:28Z</time>
      </trkpt>
      <trkpt lat="42.1024330" lon="-0.6772810">
        <ele>391.8</ele>
        <time>2019-03-16T09:54:32Z</time>
      </trkpt>
      <trkpt lat="42.1025480" lon="-0.6768680">
        <ele>392.4</ele>
        <time>2019-03-16T09:54:36Z</time>
      </trkpt>
      <trkpt lat="42.1026730" lon="-0.6764560">
        <ele>392.6</ele>
        <time>2019-03-16T09:54:40Z</time>
      </trkpt>
      <trkpt lat="42.1027950" lon="-0.6760450">
        <ele>391.8</ele>
        <time>2019-03-16T09:54:44Z</time>
      </trkpt>
      <trkpt lat="42.1029180" lon="-0.6756300">
        <ele>392.4</ele>
        <time>2019-03-16T09:54:48Z</time>
      </trkpt>
      <trkpt lat="42.1030360" lon="-0.6752130">
        <ele>392.6</ele>
        <time>2019-03-16T09:54:52Z</time>
      </trkpt>
      <trkpt lat="42.1031600" lon="-0.6748030">
        <ele>392.0</ele>
        <time>2019-03-16T09:54:56Z</time>
      </trkpt>
      <trkpt lat="42.1032800" lon="-0.6743850">
        <ele>392.2</ele>
        <time>2019-03-16T09:55:00Z</time>
      </trkpt>
      <trkpt lat="42.1034030" lon="-0.6739730">
        <ele>392.0</ele>
        <time>2019-03-16T09:55:04Z</time>
      </trkpt>
      <trkpt lat="42.1035200" lon="-0.6735630">
        <ele>392.0</ele>
        <time>2019-03-16T09:55:08Z</time>
      </trkpt>
      <trkpt lat="42.1036410" lon="-0.6731550">
        <ele>392.6</ele>
        <time>2019-03-16T09:55:12Z</time>
      </trkpt>
      <trkpt lat="42.1038050" lon="-0.6727780">
        <ele>393.4</ele>
        <time>2019-03-16T09:55:16Z</time>
      </trkpt>
      <trkpt lat="42.1040630" lon="-0.6725030">
        <ele>392.6</ele>
        <time>2019-03-16T09:55:20Z</time>
      </trkpt>
      <trkpt lat="42.1043660" lon="-0.6723330">
        <ele>392.6</ele>
        <time>2019-03-16T09:55:24Z</time>
      </trkpt>
      <trkpt lat="42.1046810" lon="-0.6722060">
        <ele>392.0</ele>
        <time>2019-03-16T09:55:28Z</time>
      </trkpt>
      <trkpt lat="42.1050010" lon="-0.6720800">
        <ele>391.8</ele>
        <time>2019-03-16T09:55:32Z</time>
      </trkpt>
      <trkpt lat="42.1053250" lon="-0.6719650">
        <ele>392.4</ele>
        <time>2019-03-16T09:55:36Z</time>
      </trkpt>
      <trkpt lat="42.1056480" lon="-0.6718360">
        <ele>392.0</ele>
        <time>2019-03-16T09:55:40Z</time>
      </trkpt>
      <trkpt lat="42.1059700" lon="-0.6717060">
        <ele>391.8</ele>
        <time>2019-03-16T09:55:44Z</time>
      </trkpt>
      <trkpt lat="42.1062960" lon="-0.6715880">
        <ele>392.8</ele>
        <time>2019-03-16T09:55:48Z</time>
      </trkpt>
      <trkpt lat="42.1066200" lon="-0.6714450">
        <ele>392.2</ele>
        <time>2019-03-16T09:55:52Z</time>
      </trkpt>
      <trkpt lat="42.1069410" lon="-0.6713200">
        <ele>392.4</ele>
        <time>2019-03-16T09:55:56Z</time>
      </trkpt>
      <trkpt lat="42.1072610" lon="-0.6711950">
        <ele>392.4</ele>
        <time>2019-03-16T09:56:00Z</time>
      </trkpt>
      <trkpt lat="42.1075780" lon="-0.6710610">
        <ele>392.4</ele>
        <time>2019-03-16T09:56:04Z</time>
      </trkpt>
      <trkpt lat="42.1078830" lon="-0.6708910">
        <ele>392.6</ele>
        <time>2019-03-16T09:56:08Z</time>
      </trkpt>
      <trkpt lat="42.1081650" lon="-0.6706550">
        <ele>392.6</ele>
        <time>2019-03-16T09:56:12Z</time>
      </trkpt>
      <trkpt lat="42.1084250" lon="-0.6703710">
        <ele>392.6</ele>
        <time>2019-03-16T09:56:16Z</time>
      </trkpt>
      <trkpt lat="42.1086650" lon="-0.6700580">
        <ele>392.4</ele>
        <time>2019-03-16T09:56:20Z</time>
      </trkpt>
      <trkpt lat="42.1089100" lon="-0.6697530">
        <ele>393.0</ele>
        <time>2019-03-16T09:56:24Z</time>
      </trkpt>
      <trkpt lat="42.1091300" lon="-0.6694130">
        <ele>393.0</ele>
        <time>2019-03-16T09:56:28Z</time>
      </trkpt>
      <trkpt lat="42.1092250" lon="-0.6689760">
        <ele>393.6</ele>
        <time>2019-03-16T09:56:32Z</time>
      </trkpt>
      <trkpt lat="42.1092650" lon="-0.6685100">
        <ele>392.8</ele>
        <time>2019-03-16T09:56:36Z</time>
      </trkpt>
      <trkpt lat="42.1093000" lon="-0.6680410">
        <ele>392.0</ele>
        <time>2019-03-16T09:56:40Z</time>
      </trkpt>
      <trkpt lat="42.1093380" lon="-0.6675730">
        <ele>392.2</ele>
        <time>2019-03-16T09:56:44Z</time>
      </trkpt>
      <trkpt lat="42.1093780" lon="-0.6671110">
        <ele>392.4</ele>
        <time>2019-03-16T09:56:48Z</time>
      </trkpt>
      <trkpt lat="42.1094130" lon="-0.6666450">
        <ele>392.0</ele>
        <time>2019-03-16T09:56:52Z</time>
      </trkpt>
      <trkpt lat="42.1094530" lon="-0.6661760">
        <ele>392.4</ele>
        <time>2019-03-16T09:56:56Z</time>
      </trkpt>
      <trkpt lat="42.1094850" lon="-0.6657000">
        <ele>392.4</ele>
        <time>2019-03-16T09:57:00Z</time>
      </trkpt>
      <trkpt lat="42.1095350" lon="-0.6652280">
        <ele>392.4</ele>
        <time>2019-03-16T09:57:04Z</time>
      </trkpt>
      <trkpt lat="42.1095700" lon="-0.6647550">
        <ele>391.8</ele>
        <time>2019-03-16T09:57:08Z</time>
      </trkpt>
      <trkpt lat="42.1096080" lon="-0.6642830">
        <ele>392.2</ele>
        <time>2019-03-16T09:57:12Z</time>
      </trkpt>
      <trkpt lat="42.1096450" lon="-0.6638160">
        <ele>392.4</ele>
        <time>2019-03-16T09:57:16Z</time>
      </trkpt>
      <trkpt lat="42.1096830" lon="-0.6633550">
        <ele>392.0</ele>
        <time>2019-03-16T09:57:20Z</time>
      </trkpt>
      <trkpt lat="42.1097180" lon="-0.6628980">
        <ele>393.0</ele>
        <time>2019-03-16T09:57:24Z</time>
      </trkpt>
      <trkpt lat="42.1097530" lon="-0.6624410">
        <ele>392.8</ele>
        <time>2019-03-16T09:57:28Z</time>
      </trkpt>
      <trkpt lat="42.1097960" lon="-0.6619810">
        <ele>392.8</ele>
        <time>2019-03-16T09:57:32Z</time>
      </trkpt>
      <trkpt lat="42.1098280" lon="-0.6615150">
        <ele>393.0</ele>
        <time>2019-03-16T09:57:36Z</time>
      </trkpt>
      <trkpt lat="42.1098600" lon="-0.6610450">
        <ele>393.0</ele>
        <time>2019-03-16T09:57:40Z</time>
      </trkpt>
      <trkpt lat="42.1098980" lon="-0.6605760">
        <ele>393.2</ele>
        <time>2019-03-16T09:57:44Z</time>
      </trkpt>
      <trkpt lat="42.1099260" lon="-0.6601060">
        <ele>393.0</ele>
        <time>2019-03-16T09:57:48Z</time>
      </trkpt>
      <trkpt lat="42.1098500" lon="-0.6596410">
        <ele>392.8</ele>
        <time>2019-03-16T09:57:52Z</time>
      </trkpt>
      <trkpt lat="42.1097200" lon="-0.6591950">
        <ele>393.2</ele>
        <time>2019-03-16T09:57:56Z</time>
      </trkpt>
      <trkpt lat="42.1095910" lon="-0.6587450">
        <ele>393.6</ele>
        <time>2019-03-16T09:58:00Z</time>
      </trkpt>
      <trkpt lat="42.1094550" lon="-0.6582960">
        <ele>392.8</ele>
        <time>2019-03-16T09:58:04Z</time>
      </trkpt>
      <trkpt lat="42.1093210" lon="-0.6578480">
        <ele>392.8</ele>
        <time>2019-03-16T09:58:08Z</time>
      </trkpt>
      <trkpt lat="42.1092200" lon="-0.6574260">
        <ele>392.8</ele>
        <time>2019-03-16T09:58:12Z</time>
      </trkpt>
      <trkpt lat="42.1091080" lon="-0.6570380">
        <ele>393.6</ele>
        <time>2019-03-16T09:58:16Z</time>
      </trkpt>
      <trkpt lat="42.1090010" lon="-0.6566850">
        <ele>393.6</ele>
        <time>2019-03-16T09:58:20Z</time>
      </trkpt>
      <trkpt lat="42.1089610" lon="-0.6564510">
        <ele>393.2</ele>
        <time>2019-03-16T09:58:24Z</time>
      </trkpt>
      <trkpt lat="42.1089610" lon="-0.6564510">
        <ele>393.8</ele>
        <time>2019-03-16T09:58:28Z</time>
      </trkpt>
      <trkpt lat="42.1089510" lon="-0.6564180">
        <ele>393.2</ele>
        <time>2019-03-16T09:58:32Z</time>
      </trkpt>
      <trkpt lat="42.1089060" lon="-0.6563880">
        <ele>393.6</ele>
        <time>2019-03-16T09:58:36Z</time>
      </trkpt>
      <trkpt lat="42.1088360" lon="-0.6563710">
        <ele>393.4</ele>
        <time>2019-03-16T09:58:40Z</time>
      </trkpt>
      <trkpt lat="42.1086750" lon="-0.6564110">
        <ele>393.0</ele>
        <time>2019-03-16T09:58:44Z</time>
      </trkpt>
      <trkpt lat="42.1084210" lon="-0.6563480">
        <ele>392.4</ele>
        <time>2019-03-16T09:58:48Z</time>
      </trkpt>
      <trkpt lat="42.1081860" lon="-0.6561030">
        <ele>390.4</ele>
        <time>2019-03-16T09:58:52Z</time>
      </trkpt>
      <trkpt lat="42.1078980" lon="-0.6558430">
        <ele>386.6</ele>
        <time>2019-03-16T09:58:56Z</time>
      </trkpt>
      <trkpt lat="42.1074900" lon="-0.6557000">
        <ele>385.4</ele>
        <time>2019-03-16T09:59:00Z</time>
      </trkpt>
      <trkpt lat="42.1070930" lon="-0.6559250">
        <ele>384.8</ele>
        <time>2019-03-16T09:59:04Z</time>
      </trkpt>
      <trkpt lat="42.1068300" lon="-0.6563910">
        <ele>384.4</ele>
        <time>2019-03-16T09:59:08Z</time>
      </trkpt>
      <trkpt lat="42.1065810" lon="-0.6568660">
        <ele>383.6</ele>
        <time>2019-03-16T09:59:12Z</time>
      </trkpt>
      <trkpt lat="42.1063330" lon="-0.6573280">
        <ele>384.0</ele>
        <time>2019-03-16T09:59:16Z</time>
      </trkpt>
      <trkpt lat="42.1060880" lon="-0.6577750">
        <ele>382.6</ele>
        <time>2019-03-16T09:59:20Z</time>
      </trkpt>
      <trkpt lat="42.1057710" lon="-0.6581330">
        <ele>382.6</ele>
        <time>2019-03-16T09:59:24Z</time>
      </trkpt>
      <trkpt lat="42.1054480" lon="-0.6584960">
        <ele>381.2</ele>
        <time>2019-03-16T09:59:28Z</time>
      </trkpt>
      <trkpt lat="42.1051350" lon="-0.6589080">
        <ele>381.4</ele>
        <time>2019-03-16T09:59:32Z</time>
      </trkpt>
      <trkpt lat="42.1047810" lon="-0.6592800">
        <ele>380.4</ele>
        <time>2019-03-16T09:59:36Z</time>
      </trkpt>
      <trkpt lat="42.1044150" lon="-0.6596380">
        <ele>378.8</ele>
        <time>2019-03-16T09:59:40Z</time>
      </trkpt>
      <trkpt lat="42.1040430" lon="-0.6599810">
        <ele>378.2</ele>
        <time>2019-03-16T09:59:44Z</time>
      </trkpt>
      <trkpt lat="42.1036780" lon="-0.6603030">
        <ele>378.2</ele>
        <time>2019-03-16T09:59:48Z</time>
      </trkpt>
      <trkpt lat="42.1033300" lon="-0.6606200">
        <ele>379.0</ele>
        <time>2019-03-16T09:59:52Z</time>
      </trkpt>
      <trkpt lat="42.1029950" lon="-0.6609280">
        <ele>378.8</ele>
        <time>2019-03-16T09:59:56Z</time>
      </trkpt>
      <trkpt lat="42.1026800" lon="-0.6612250">
        <ele>378.2</ele>
        <time>2019-03-16T10:00:00Z</time>
      </trkpt>
      <trkpt lat="42.1023900" lon="-0.6614980">
        <ele>378.8</ele>
        <time>2019-03-16T10:00:04Z</time>
      </trkpt>
      <trkpt lat="42.1021060" lon="-0.6617560">
        <ele>379.0</ele>
        <time>2019-03-16T10:00:08Z</time>
      </trkpt>
      <trkpt lat="42.1018330" lon="-0.6620580">
        <ele>378.8</ele>
        <time>2019-03-16T10:00:12Z</time>
      </trkpt>
      <trkpt lat="42.1015530" lon="-0.6623850">
        <ele>378.4</ele>
        <time>2019-03-16T10:00:16Z</time>
      </trkpt>
      <trkpt lat="42.1012710" lon="-0.6627200">
        <ele>377.8</ele>
        <time>2019-03-16T10:00:20Z</time>
      </trkpt>
      <trkpt lat="42.1009930" lon="-0.6630560">
        <ele>376.6</ele>
        <time>2019-03-16T10:00:24Z</time>
      </trkpt>
      <trkpt lat="42.1007080" lon="-0.6633910">
        <ele>375.6</ele>
        <time>2019-03-16T10:00:28Z</time>
      </trkpt>
      <trkpt lat="42.1004280" lon="-0.6637360">
        <ele>375.0</ele>
        <time>2019-03-16T10:00:32Z</time>
      </trkpt>
      <trkpt lat="42.1001450" lon="-0.6640730">
        <ele>374.4</ele>
        <time>2019-03-16T10:00:36Z</time>
      </trkpt>
      <trkpt lat="42.0998610" lon="-0.6644150">
        <ele>374.2</ele>
        <time>2019-03-16T10:00:40Z</time>
      </trkpt>
      <trkpt lat="42.0995880" lon="-0.6647400">
        <ele>373.2</ele>
        <time>2019-03-16T10:00:44Z</time>
      </trkpt>
      <trkpt lat="42.0993130" lon="-0.6650610">
        <ele>373.4</ele>
        <time>2019-03-16T10:00:48Z</time>
      </trkpt>
      <trkpt lat="42.0990380" lon="-0.6653830">
        <ele>372.0</ele>
        <time>2019-03-16T10:00:52Z</time>
      </trkpt>
      <trkpt lat="42.0987830" lon="-0.6657260">
        <ele>372.2</ele>
        <time>2019-03-16T10:00:56Z</time>
      </trkpt>
      <trkpt lat="42.0986160" lon="-0.6661060">
        <ele>372.4</ele>
        <time>2019-03-16T10:01:00Z</time>
      </trkpt>
      <trkpt lat="42.0985100" lon="-0.6664050">
        <ele>371.8</ele>
        <time>2019-03-16T10:01:04Z</time>
      </trkpt>
      <trkpt lat="42.0983610" lon="-0.6663680">
        <ele>369.6</ele>
        <time>2019-03-16T10:01:08Z</time>
      </trkpt>
      <trkpt lat="42.0981280" lon="-0.6661430">
        <ele>369.6</ele>
        <time>2019-03-16T10:01:12Z</time>
      </trkpt>
      <trkpt lat="42.0978230" lon="-0.6659660">
        <ele>369.4</ele>
        <time>2019-03-16T10:01:16Z</time>
      </trkpt>
      <trkpt lat="42.0974800" lon="-0.6658430">
        <ele>369.4</ele>
        <time>2019-03-16T10:01:20Z</time>
      </trkpt>
      <trkpt lat="42.0971210" lon="-0.6658080">
        <ele>369.2</ele>
        <time>2019-03-16T10:01:24Z</time>
      </trkpt>
      <trkpt lat="42.0967660" lon="-0.6658830">
        <ele>370.0</ele>
        <time>2019-03-16T10:01:28Z</time>
      </trkpt>
      <trkpt lat="42.0964280" lon="-0.6660630">
        <ele>369.6</ele>
        <time>2019-03-16T10:01:32Z</time>
      </trkpt>
      <trkpt lat="42.0961210" lon="-0.6663360">
        <ele>369.4</ele>
        <time>2019-03-16T10:01:36Z</time>
      </trkpt>
      <trkpt lat="42.0958260" lon="-0.6666550">
        <ele>369.4</ele>
        <time>2019-03-16T10:01:40Z</time>
      </trkpt>
      <trkpt lat="42.0955350" lon="-0.6669600">
        <ele>369.4</ele>
        <time>2019-03-16T10:01:44Z</time>
      </trkpt>
      <trkpt lat="42.0952510" lon="-0.6672560">
        <ele>369.6</ele>
        <time>2019-03-16T10:01:48Z</time>
      </trkpt>
      <trkpt lat="42.0949760" lon="-0.6675580">
        <ele>370.8</ele>
        <time>2019-03-16T10:01:52Z</time>
      </trkpt>
      <trkpt lat="42.0946960" lon="-0.6678480">
        <ele>370.2</ele>
        <time>2019-03-16T10:01:56Z</time>
      </trkpt>
      <trkpt lat="42.0944230" lon="-0.6681460">
        <ele>369.6</ele>
        <time>2019-03-16T10:02:00Z</time>
      </trkpt>
      <trkpt lat="42.0941460" lon="-0.6684310">
        <ele>370.0</ele>
        <time>2019-03-16T10:02:04Z</time>
      </trkpt>
      <trkpt lat="42.0938700" lon="-0.6687280">
        <ele>370.0</ele>
        <time>2019-03-16T10:02:08Z</time>
      </trkpt>
      <trkpt lat="42.0935930" lon="-0.6690130">
        <ele>369.2</ele>
        <time>2019-03-16T10:02:12Z</time>
      </trkpt>
      <trkpt lat="42.0933080" lon="-0.6692850">
        <ele>370.0</ele>
        <time>2019-03-16T10:02:16Z</time>
      </trkpt>
      <trkpt lat="42.0929930" lon="-0.6694850">
        <ele>369.8</ele>
        <time>2019-03-16T10:02:20Z</time>
      </trkpt>
      <trkpt lat="42.0926650" lon="-0.6696180">
        <ele>369.6</ele>
        <time>2019-03-16T10:02:24Z</time>
      </trkpt>
      <trkpt lat="42.0923210" lon="-0.6696550">
        <ele>370.0</ele>
        <time>2019-03-16T10:02:28Z</time>
      </trkpt>
      <trkpt lat="42.0919760" lon="-0.6696400">
        <ele>370.4</ele>
        <time>2019-03-16T10:02:32Z</time>
      </trkpt>
      <trkpt lat="42.0916660" lon="-0.6696930">
        <ele>371.4</ele>
        <time>2019-03-16T10:02:36Z</time>
      </trkpt>
      <trkpt lat="42.0914080" lon="-0.6698010">
        <ele>371.4</ele>
        <time>2019-03-16T10:02:40Z</time>
      </trkpt>
      <trkpt lat="42.0911280" lon="-0.6699080">
        <ele>370.2</ele>
        <time>2019-03-16T10:02:44Z</time>
      </trkpt>
      <trkpt lat="42.0908100" lon="-0.6700960">
        <ele>370.0</ele>
        <time>2019-03-16T10:02:48Z</time>
      </trkpt>
      <trkpt lat="42.0905100" lon="-0.6703450">
        <ele>370.6</ele>
        <time>2019-03-16T10:02:52Z</time>
      </trkpt>
      <trkpt lat="42.0902130" lon="-0.6705910">
        <ele>370.4</ele>
        <time>2019-03-16T10:02:56Z</time>
      </trkpt>
      <trkpt lat="42.0898980" lon="-0.6707950">
        <ele>370.0</ele>
        <time>2019-03-16T10:03:00Z</time>
      </trkpt>
      <trkpt lat="42.0895680" lon="-0.6709380">
        <ele>370.4</ele>
        <time>2019-03-16T10:03:04Z</time>
      </trkpt>
      <trkpt lat="42.0892200" lon="-0.6710200">
        <ele>370.2</ele>
        <time>2019-03-16T10:03:08Z</time>
      </trkpt>
      <trkpt lat="42.0888660" lon="-0.6710330">
        <ele>369.6</ele>
        <time>2019-03-16T10:03:12Z</time>
      </trkpt>
      <trkpt lat="42.0885160" lon="-0.6709800">
        <ele>369.4</ele>
        <time>2019-03-16T10:03:16Z</time>
      </trkpt>
      <trkpt lat="42.0881760" lon="-0.6708500">
        <ele>369.6</ele>
        <time>2019-03-16T10:03:20Z</time>
      </trkpt>
      <trkpt lat="42.0878550" lon="-0.6706500">
        <ele>370.2</ele>
        <time>2019-03-16T10:03:24Z</time>
      </trkpt>
      <trkpt lat="42.0875410" lon="-0.6704100">
        <ele>369.8</ele>
        <time>2019-03-16T10:03:28Z</time>
      </trkpt>
      <trkpt lat="42.0872210" lon="-0.6701960">
        <ele>370.0</ele>
        <time>2019-03-16T10:03:32Z</time>
      </trkpt>
      <trkpt lat="42.0868710" lon="-0.6700830">
        <ele>370.2</ele>
        <time>2019-03-16T10:03:36Z</time>
      </trkpt>
      <trkpt lat="42.0865060" lon="-0.6700680">
        <ele>369.8</ele>
        <time>2019-03-16T10:03:40Z</time>
      </trkpt>
      <trkpt lat="42.0861500" lon="-0.6701730">
        <ele>370.0</ele>
        <time>2019-03-16T10:03:44Z</time>
      </trkpt>
      <trkpt lat="42.0858230" lon="-0.6703800">
        <ele>370.0</ele>
        <time>2019-03-16T10:03:48Z</time>
      </trkpt>
      <trkpt lat="42.0855360" lon="-0.6706730">
        <ele>370.0</ele>
        <time>2019-03-16T10:03:52Z</time>
      </trkpt>
      <trkpt lat="42.0852960" lon="-0.6710380">
        <ele>370.2</ele>
        <time>2019-03-16T10:03:56Z</time>
      </trkpt>
      <trkpt lat="42.0850830" lon="-0.6714250">
        <ele>369.8</ele>
        <time>2019-03-16T10:04:00Z</time>
      </trkpt>
      <trkpt lat="42.0850130" lon="-0.6718860">
        <ele>370.2</ele>
        <time>2019-03-16T10:04:04Z</time>
      </trkpt>
      <trkpt lat="42.0847100" lon="-0.6720960">
        <ele>369.8</ele>
        <time>2019-03-16T10:04:08Z</time>
      </trkpt>
      <trkpt lat="42.0843830" lon="-0.6722830">
        <ele>370.6</ele>
        <time>2019-03-16T10:04:12Z</time>
      </trkpt>
      <trkpt lat="42.0840630" lon="-0.6725110">
        <ele>369.8</ele>
        <time>2019-03-16T10:04:16Z</time>
      </trkpt>
      <trkpt lat="42.0837150" lon="-0.6726550">
        <ele>369.2</ele>
        <time>2019-03-16T10:04:20Z</time>
      </trkpt>
      <trkpt lat="42.0833630" lon="-0.6727310">
        <ele>372.2</ele>
        <time>2019-03-16T10:04:24Z</time>
      </trkpt>
      <trkpt lat="42.0830500" lon="-0.6727460">
        <ele>370.0</ele>
        <time>2019-03-16T10:04:28Z</time>
      </trkpt>
      <trkpt lat="42.0826860" lon="-0.6726600">
        <ele>369.8</ele>
        <time>2019-03-16T10:04:32Z</time>
      </trkpt>
      <trkpt lat="42.0823110" lon="-0.6726450">
        <ele>369.6</ele>
        <time>2019-03-16T10:04:36Z</time>
      </trkpt>
      <trkpt lat="42.0819450" lon="-0.6726210">
        <ele>370.0</ele>
        <time>2019-03-16T10:04:40Z</time>
      </trkpt>
      <trkpt lat="42.0815800" lon="-0.6725980">
        <ele>370.6</ele>
        <time>2019-03-16T10:04:44Z</time>
      </trkpt>
      <trkpt lat="42.0812160" lon="-0.6725760">
        <ele>370.0</ele>
        <time>2019-03-16T10:04:48Z</time>
      </trkpt>
      <trkpt lat="42.0808530" lon="-0.6725580">
        <ele>370.0</ele>
        <time>2019-03-16T10:04:52Z</time>
      </trkpt>
      <trkpt lat="42.0804860" lon="-0.6725510">
        <ele>370.4</ele>
        <time>2019-03-16T10:04:56Z</time>
      </trkpt>
      <trkpt lat="42.0801200" lon="-0.6725460">
        <ele>370.0</ele>
        <time>2019-03-16T10:05:00Z</time>
      </trkpt>
      <trkpt lat="42.0797500" lon="-0.6724960">
        <ele>370.6</ele>
        <time>2019-03-16T10:05:04Z</time>
      </trkpt>
      <trkpt lat="42.0793810" lon="-0.6724680">
        <ele>370.4</ele>
        <time>2019-03-16T10:05:08Z</time>
      </trkpt>
      <trkpt lat="42.0790110" lon="-0.6723960">
        <ele>370.0</ele>
        <time>2019-03-16T10:05:12Z</time>
      </trkpt>
      <trkpt lat="42.0786550" lon="-0.6722400">
        <ele>370.2</ele>
        <time>2019-03-16T10:05:16Z</time>
      </trkpt>
      <trkpt lat="42.0783260" lon="-0.6719780">
        <ele>370.2</ele>
        <time>2019-03-16T10:05:20Z</time>
      </trkpt>
      <trkpt lat="42.0780350" lon="-0.6716260">
        <ele>370.6</ele>
        <time>2019-03-16T10:05:24Z</time>
      </trkpt>
      <trkpt lat="42.0778010" lon="-0.6712060">
        <ele>369.4</ele>
        <time>2019-03-16T10:05:28Z</time>
      </trkpt>
      <trkpt lat="42.0775950" lon="-0.6707550">
        <ele>370.2</ele>
        <time>2019-03-16T10:05:32Z</time>
      </trkpt>
      <trkpt lat="42.0774130" lon="-0.6702980">
        <ele>370.0</ele>
        <time>2019-03-16T10:05:36Z</time>
      </trkpt>
      <trkpt lat="42.0772150" lon="-0.6698710">
        <ele>370.0</ele>
        <time>2019-03-16T10:05:40Z</time>
      </trkpt>
      <trkpt lat="42.0770150" lon="-0.6694700">
        <ele>370.2</ele>
        <time>2019-03-16T10:05:44Z</time>
      </trkpt>
      <trkpt lat="42.0768050" lon="-0.6690860">
        <ele>370.6</ele>
        <time>2019-03-16T10:05:48Z</time>
      </trkpt>
      <trkpt lat="42.0765650" lon="-0.6687310">
        <ele>370.0</ele>
        <time>2019-03-16T10:05:52Z</time>
      </trkpt>
      <trkpt lat="42.0763050" lon="-0.6684160">
        <ele>370.0</ele>
        <time>2019-03-16T10:05:56Z</time>
      </trkpt>
      <trkpt lat="42.0760280" lon="-0.6681460">
        <ele>370.4</ele>
        <time>2019-03-16T10:06:00Z</time>
      </trkpt>
      <trkpt lat="42.0757260" lon="-0.6679230">
        <ele>370.6</ele>
        <time>2019-03-16T10:06:04Z</time>
      </trkpt>
      <trkpt lat="42.0754080" lon="-0.6677230">
        <ele>370.6</ele>
        <time>2019-03-16T10:06:08Z</time>
      </trkpt>
      <trkpt lat="42.0750710" lon="-0.6675600">
        <ele>370.4</ele>
        <time>2019-03-16T10:06:12Z</time>
      </trkpt>
      <trkpt lat="42.0747330" lon="-0.6673860">
        <ele>370.4</ele>
        <time>2019-03-16T10:06:16Z</time>
      </trkpt>
      <trkpt lat="42.0743830" lon="-0.6672430">
        <ele>370.8</ele>
        <time>2019-03-16T10:06:20Z</time>
      </trkpt>
      <trkpt lat="42.0740330" lon="-0.6670810">
        <ele>370.2</ele>
        <time>2019-03-16T10:06:24Z</time>
      </trkpt>
      <trkpt lat="42.0736830" lon="-0.6669200">
        <ele>370.6</ele>
        <time>2019-03-16T10:06:28Z</time>
      </trkpt>
      <trkpt lat="42.0733280" lon="-0.6667630">
        <ele>370.6</ele>
        <time>2019-03-16T10:06:32Z</time>
      </trkpt>
      <trkpt lat="42.0729780" lon="-0.6665980">
        <ele>370.0</ele>
        <time>2019-03-16T10:06:36Z</time>
      </trkpt>
      <trkpt lat="42.0726300" lon="-0.6664400">
        <ele>370.4</ele>
        <time>2019-03-16T10:06:40Z</time>
      </trkpt>
      <trkpt lat="42.0722860" lon="-0.6662950">
        <ele>369.8</ele>
        <time>2019-03-16T10:06:44Z</time>
      </trkpt>
      <trkpt lat="42.0719530" lon="-0.6661230">
        <ele>370.4</ele>
        <time>2019-03-16T10:06:48Z</time>
      </trkpt>
      <trkpt lat="42.0716160" lon="-0.6659800">
        <ele>370.0</ele>
        <time>2019-03-16T10:06:52Z</time>
      </trkpt>
      <trkpt lat="42.0712780" lon="-0.6658280">
        <ele>370.2</ele>
        <time>2019-03-16T10:06:56Z</time>
      </trkpt>
      <trkpt lat="42.0709410" lon="-0.6656750">
        <ele>370.2</ele>
        <time>2019-03-16T10:07:00Z</time>
      </trkpt>
      <trkpt lat="42.0706030" lon="-0.6655110">
        <ele>370.2</ele>
        <time>2019-03-16T10:07:04Z</time>
      </trkpt>
      <trkpt lat="42.0702650" lon="-0.6653500">
        <ele>370.2</ele>
        <time>2019-03-16T10:07:08Z</time>
      </trkpt>
      <trkpt lat="42.0699300" lon="-0.6651960">
        <ele>370.4</ele>
        <time>2019-03-16T10:07:12Z</time>
      </trkpt>
      <trkpt lat="42.0695910" lon="-0.6650430">
        <ele>370.2</ele>
        <time>2019-03-16T10:07:16Z</time>
      </trkpt>
      <trkpt lat="42.0692550" lon="-0.6648680">
        <ele>370.4</ele>
        <time>2019-03-16T10:07:20Z</time>
      </trkpt>
      <trkpt lat="42.0689400" lon="-0.6646280">
        <ele>370.2</ele>
        <time>2019-03-16T10:07:24Z</time>
      </trkpt>
      <trkpt lat="42.0686550" lon="-0.6643330">
        <ele>370.2</ele>
        <time>2019-03-16T10:07:28Z</time>
      </trkpt>
      <trkpt lat="42.0684110" lon="-0.6639830">
        <ele>370.2</ele>
        <time>2019-03-16T10:07:32Z</time>
      </trkpt>
      <trkpt lat="42.0682030" lon="-0.6635930">
        <ele>370.4</ele>
        <time>2019-03-16T10:07:36Z</time>
      </trkpt>
      <trkpt lat="42.0680400" lon="-0.6631630">
        <ele>370.2</ele>
        <time>2019-03-16T10:07:40Z</time>
      </trkpt>
      <trkpt lat="42.0679150" lon="-0.6627180">
        <ele>370.4</ele>
        <time>2019-03-16T10:07:44Z</time>
      </trkpt>
      <trkpt lat="42.0677960" lon="-0.6622750">
        <ele>370.2</ele>
        <time>2019-03-16T10:07:48Z</time>
      </trkpt>
      <trkpt lat="42.0676810" lon="-0.6618380">
        <ele>369.8</ele>
        <time>2019-03-16T10:07:52Z</time>
      </trkpt>
      <trkpt lat="42.0675650" lon="-0.6614010">
        <ele>370.0</ele>
        <time>2019-03-16T10:07:56Z</time>
      </trkpt>
      <trkpt lat="42.0674500" lon="-0.6609730">
        <ele>369.8</ele>
        <time>2019-03-16T10:08:00Z</time>
      </trkpt>
      <trkpt lat="42.0673380" lon="-0.6605500">
        <ele>370.0</ele>
        <time>2019-03-16T10:08:04Z</time>
      </trkpt>
      <trkpt lat="42.0672250" lon="-0.6601350">
        <ele>370.4</ele>
        <time>2019-03-16T10:08:08Z</time>
      </trkpt>
      <trkpt lat="42.0671080" lon="-0.6597210">
        <ele>370.6</ele>
        <time>2019-03-16T10:08:12Z</time>
      </trkpt>
      <trkpt lat="42.0670000" lon="-0.6593010">
        <ele>370.2</ele>
        <time>2019-03-16T10:08:16Z</time>
      </trkpt>
      <trkpt lat="42.0668730" lon="-0.6588780">
        <ele>370.4</ele>
        <time>2019-03-16T10:08:20Z</time>
      </trkpt>
      <trkpt lat="42.0667600" lon="-0.6584460">
        <ele>370.6</ele>
        <time>2019-03-16T10:08:24Z</time>
      </trkpt>
      <trkpt lat="42.0666450" lon="-0.6580510">
        <ele>370.4</ele>
        <time>2019-03-16T10:08:28Z</time>
      </trkpt>
      <trkpt lat="42.0664610" lon="-0.6578610">
        <ele>370.6</ele>
        <time>2019-03-16T10:08:32Z</time>
      </trkpt>
      <trkpt lat="42.0663530" lon="-0.6576650">
        <ele>370.8</ele>
        <time>2019-03-16T10:08:36Z</time>
      </trkpt>
      <trkpt lat="42.0662830" lon="-0.6574410">
        <ele>370.8</ele>
        <time>2019-03-16T10:08:40Z</time>
      </trkpt>
      <trkpt lat="42.0662400" lon="-0.6572710">
        <ele>371.0</ele>
        <time>2019-03-16T10:08:44Z</time>
      </trkpt>
      <trkpt lat="42.0661980" lon="-0.6571030">
        <ele>371.2</ele>
        <time>2019-03-16T10:08:48Z</time>
      </trkpt>
      <trkpt lat="42.0661750" lon="-0.6569410">
        <ele>370.8</ele>
        <time>2019-03-16T10:08:52Z</time>
      </trkpt>
      <trkpt lat="42.0662050" lon="-0.6569150">
        <ele>371.4</ele>
        <time>2019-03-16T10:08:56Z</time>
      </trkpt>
      <trkpt lat="42.0662050" lon="-0.6570330">
        <ele>371.0</ele>
        <time>2019-03-16T10:09:00Z</time>
      </trkpt>
      <trkpt lat="42.0662250" lon="-0.6571360">
        <ele>371.0</ele>
        <time>2019-03-16T10:09:04Z</time>
      </trkpt>
      <trkpt lat="42.0662510" lon="-0.6572660">
        <ele>371.0</ele>
        <time>2019-03-16T10:09:08Z</time>
      </trkpt>
      <trkpt lat="42.0662410" lon="-0.6574160">
        <ele>370.2</ele>
        <time>2019-03-16T10:09:12Z</time>
      </trkpt>
      <trkpt lat="42.0661160" lon="-0.6575280">
        <ele>368.8</ele>
        <time>2019-03-16T10:09:16Z</time>
      </trkpt>
      <trkpt lat="42.0658750" lon="-0.6576700">
        <ele>369.0</ele>
        <time>2019-03-16T10:09:20Z</time>
      </trkpt>
      <trkpt lat="42.0656050" lon="-0.6578400">
        <ele>368.2</ele>
        <time>2019-03-16T10:09:24Z</time>
      </trkpt>
      <trkpt lat="42.0653100" lon="-0.6580210">
        <ele>367.6</ele>
        <time>2019-03-16T10:09:28Z</time>
      </trkpt>
      <trkpt lat="42.0650060" lon="-0.6581750">
        <ele>367.4</ele>
        <time>2019-03-16T10:09:32Z</time>
      </trkpt>
      <trkpt lat="42.0647030" lon="-0.6583230">
        <ele>366.6</ele>
        <time>2019-03-16T10:09:36Z</time>
      </trkpt>
      <trkpt lat="42.0644010" lon="-0.6584850">
        <ele>367.2</ele>
        <time>2019-03-16T10:09:40Z</time>
      </trkpt>
      <trkpt lat="42.0640960" lon="-0.6586250">
        <ele>367.6</ele>
        <time>2019-03-16T10:09:44Z</time>
      </trkpt>
      <trkpt lat="42.0637830" lon="-0.6587210">
        <ele>367.0</ele>
        <time>2019-03-16T10:09:48Z</time>
      </trkpt>
      <trkpt lat="42.0634560" lon="-0.6587210">
        <ele>367.8</ele>
        <time>2019-03-16T10:09:52Z</time>
      </trkpt>
      <trkpt lat="42.0631410" lon="-0.6586060">
        <ele>366.4</ele>
        <time>2019-03-16T10:09:56Z</time>
      </trkpt>
      <trkpt lat="42.0628710" lon="-0.6583910">
        <ele>367.8</ele>
        <time>2019-03-16T10:10:00Z</time>
      </trkpt>
      <trkpt lat="42.0626260" lon="-0.6582460">
        <ele>368.2</ele>
        <time>2019-03-16T10:10:04Z</time>
      </trkpt>
      <trkpt lat="42.0624280" lon="-0.6583450">
        <ele>368.6</ele>
        <time>2019-03-16T10:10:08Z</time>
      </trkpt>
      <trkpt lat="42.0623450" lon="-0.6584110">
        <ele>368.8</ele>
        <time>2019-03-16T10:10:12Z</time>
      </trkpt>
      <trkpt lat="42.0623210" lon="-0.6584800">
        <ele>368.8</ele>
        <time>2019-03-16T10:10:16Z</time>
      </trkpt>
      <trkpt lat="42.0623430" lon="-0.6585030">
        <ele>368.4</ele>
        <time>2019-03-16T10:10:20Z</time>
      </trkpt>
      <trkpt lat="42.0623850" lon="-0.6584850">
        <ele>367.6</ele>
        <time>2019-03-16T10:10:24Z</time>
      </trkpt>
      <trkpt lat="42.0624030" lon="-0.6583880">
        <ele>368.2</ele>
        <time>2019-03-16T10:10:28Z</time>
      </trkpt>
      <trkpt lat="42.0624850" lon="-0.6582750">
        <ele>368.2</ele>
        <time>2019-03-16T10:10:32Z</time>
      </trkpt>
      <trkpt lat="42.0626510" lon="-0.6582180">
        <ele>367.6</ele>
        <time>2019-03-16T10:10:36Z</time>
      </trkpt>
      <trkpt lat="42.0628610" lon="-0.6583660">
        <ele>367.8</ele>
        <time>2019-03-16T10:10:40Z</time>
      </trkpt>
      <trkpt lat="42.0631050" lon="-0.6585700">
        <ele>368.2</ele>
        <time>2019-03-16T10:10:44Z</time>
      </trkpt>
      <trkpt lat="42.0633830" lon="-0.6586960">
        <ele>368.2</ele>
        <time>2019-03-16T10:10:48Z</time>
      </trkpt>
      <trkpt lat="42.0636810" lon="-0.6587210">
        <ele>368.0</ele>
        <time>2019-03-16T10:10:52Z</time>
      </trkpt>
      <trkpt lat="42.0639800" lon="-0.6586550">
        <ele>366.8</ele>
        <time>2019-03-16T10:10:56Z</time>
      </trkpt>
      <trkpt lat="42.0642760" lon="-0.6585300">
        <ele>367.6</ele>
        <time>2019-03-16T10:11:00Z</time>
      </trkpt>
      <trkpt lat="42.0645760" lon="-0.6583850">
        <ele>368.2</ele>
        <time>2019-03-16T10:11:04Z</time>
      </trkpt>
      <trkpt lat="42.0648830" lon="-0.6582250">
        <ele>368.2</ele>
        <time>2019-03-16T10:11:08Z</time>
      </trkpt>
      <trkpt lat="42.0651880" lon="-0.6580760">
        <ele>367.2</ele>
        <time>2019-03-16T10:11:12Z</time>
      </trkpt>
      <trkpt lat="42.0654860" lon="-0.6579110">
        <ele>368.8</ele>
        <time>2019-03-16T10:11:16Z</time>
      </trkpt>
      <trkpt lat="42.0657680" lon="-0.6577250">
        <ele>369.4</ele>
        <time>2019-03-16T10:11:20Z</time>
      </trkpt>
      <trkpt lat="42.0660350" lon="-0.6575910">
        <ele>370.8</ele>
        <time>2019-03-16T10:11:24Z</time>
      </trkpt>
      <trkpt lat="42.0662280" lon="-0.6574730">
        <ele>371.0</ele>
        <time>2019-03-16T10:11:28Z</time>
      </trkpt>
      <trkpt lat="42.0662450" lon="-0.6572900">
        <ele>371.0</ele>
        <time>2019-03-16T10:11:32Z</time>
      </trkpt>
      <trkpt lat="42.0661250" lon="-0.6571780">
        <ele>369.8</ele>
        <time>2019-03-16T10:11:36Z</time>
      </trkpt>
      <trkpt lat="42.0658950" lon="-0.6573310">
        <ele>368.2</ele>
        <time>2019-03-16T10:11:40Z</time>
      </trkpt>
      <trkpt lat="42.0656060" lon="-0.6574910">
        <ele>366.4</ele>
        <time>2019-03-16T10:11:44Z</time>
      </trkpt>
      <trkpt lat="42.0652900" lon="-0.6576660">
        <ele>366.0</ele>
        <time>2019-03-16T10:11:48Z</time>
      </trkpt>
      <trkpt lat="42.0649550" lon="-0.6578330">
        <ele>366.8</ele>
        <time>2019-03-16T10:11:52Z</time>
      </trkpt>
      <trkpt lat="42.0646260" lon="-0.6580130">
        <ele>364.4</ele>
        <time>2019-03-16T10:11:56Z</time>
      </trkpt>
      <trkpt lat="42.0643000" lon="-0.6581800">
        <ele>365.8</ele>
        <time>2019-03-16T10:12:00Z</time>
      </trkpt>
      <trkpt lat="42.0639660" lon="-0.6582700">
        <ele>365.0</ele>
        <time>2019-03-16T10:12:04Z</time>
      </trkpt>
      <trkpt lat="42.0636310" lon="-0.6582350">
        <ele>364.0</ele>
        <time>2019-03-16T10:12:08Z</time>
      </trkpt>
      <trkpt lat="42.0633160" lon="-0.6580700">
        <ele>364.8</ele>
        <time>2019-03-16T10:12:12Z</time>
      </trkpt>
      <trkpt lat="42.0630500" lon="-0.6578060">
        <ele>365.4</ele>
        <time>2019-03-16T10:12:16Z</time>
      </trkpt>
      <trkpt lat="42.0628510" lon="-0.6574760">
        <ele>365.0</ele>
        <time>2019-03-16T10:12:20Z</time>
      </trkpt>
      <trkpt lat="42.0627110" lon="-0.6570930">
        <ele>364.8</ele>
        <time>2019-03-16T10:12:24Z</time>
      </trkpt>
      <trkpt lat="42.0625950" lon="-0.6566880">
        <ele>365.2</ele>
        <time>2019-03-16T10:12:28Z</time>
      </trkpt>
      <trkpt lat="42.0624800" lon="-0.6562780">
        <ele>365.2</ele>
        <time>2019-03-16T10:12:32Z</time>
      </trkpt>
      <trkpt lat="42.0623610" lon="-0.6558630">
        <ele>365.2</ele>
        <time>2019-03-16T10:12:36Z</time>
      </trkpt>
      <trkpt lat="42.0622310" lon="-0.6554550">
        <ele>364.6</ele>
        <time>2019-03-16T10:12:40Z</time>
      </trkpt>
      <trkpt lat="42.0620880" lon="-0.6550550">
        <ele>364.6</ele>
        <time>2019-03-16T10:12:44Z</time>
      </trkpt>
      <trkpt lat="42.0619580" lon="-0.6546530">
        <ele>364.0</ele>
        <time>2019-03-16T10:12:48Z</time>
      </trkpt>
      <trkpt lat="42.0618230" lon="-0.6542630">
        <ele>364.0</ele>
        <time>2019-03-16T10:12:52Z</time>
      </trkpt>
      <trkpt lat="42.0616760" lon="-0.6538560">
        <ele>363.0</ele>
        <time>2019-03-16T10:12:56Z</time>
      </trkpt>
      <trkpt lat="42.0615210" lon="-0.6534410">
        <ele>362.2</ele>
        <time>2019-03-16T10:13:00Z</time>
      </trkpt>
      <trkpt lat="42.0613510" lon="-0.6530430">
        <ele>362.8</ele>
        <time>2019-03-16T10:13:04Z</time>
      </trkpt>
      <trkpt lat="42.0611600" lon="-0.6526730">
        <ele>362.0</ele>
        <time>2019-03-16T10:13:08Z</time>
      </trkpt>
      <trkpt lat="42.0609410" lon="-0.6523330">
        <ele>362.0</ele>
        <time>2019-03-16T10:13:12Z</time>
      </trkpt>
      <trkpt lat="42.0607380" lon="-0.6519750">
        <ele>362.4</ele>
        <time>2019-03-16T10:13:16Z</time>
      </trkpt>
      <trkpt lat="42.0605310" lon="-0.6516160">
        <ele>362.0</ele>
        <time>2019-03-16T10:13:20Z</time>
      </trkpt>
      <trkpt lat="42.0603150" lon="-0.6512660">
        <ele>361.4</ele>
        <time>2019-03-16T10:13:24Z</time>
      </trkpt>
      <trkpt lat="42.0600880" lon="-0.6509200">
        <ele>361.4</ele>
        <time>2019-03-16T10:13:28Z</time>
      </trkpt>
      <trkpt lat="42.0598360" lon="-0.6506100">
        <ele>361.0</ele>
        <time>2019-03-16T10:13:32Z</time>
      </trkpt>
      <trkpt lat="42.0595680" lon="-0.6503410">
        <ele>361.6</ele>
        <time>2019-03-16T10:13:36Z</time>
      </trkpt>
      <trkpt lat="42.0592850" lon="-0.6501150">
        <ele>361.4</ele>
        <time>2019-03-16T10:13:40Z</time>
      </trkpt>
      <trkpt lat="42.0590000" lon="-0.6499050">
        <ele>361.4</ele>
        <time>2019-03-16T10:13:44Z</time>
      </trkpt>
      <trkpt lat="42.0587060" lon="-0.6496960">
        <ele>361.0</ele>
        <time>2019-03-16T10:13:48Z</time>
      </trkpt>
      <trkpt lat="42.0584110" lon="-0.6494880">
        <ele>361.0</ele>
        <time>2019-03-16T10:13:52Z</time>
      </trkpt>
      <trkpt lat="42.0581200" lon="-0.6492750">
        <ele>361.0</ele>
        <time>2019-03-16T10:13:56Z</time>
      </trkpt>
      <trkpt lat="42.0578210" lon="-0.6490600">
        <ele>361.0</ele>
        <time>2019-03-16T10:14:00Z</time>
      </trkpt>
      <trkpt lat="42.0575160" lon="-0.6488380">
        <ele>360.6</ele>
        <time>2019-03-16T10:14:04Z</time>
      </trkpt>
      <trkpt lat="42.0572110" lon="-0.6486350">
        <ele>360.2</ele>
        <time>2019-03-16T10:14:08Z</time>
      </trkpt>
      <trkpt lat="42.0569030" lon="-0.6484560">
        <ele>360.4</ele>
        <time>2019-03-16T10:14:12Z</time>
      </trkpt>
      <trkpt lat="42.0565900" lon="-0.6483400">
        <ele>362.2</ele>
        <time>2019-03-16T10:14:16Z</time>
      </trkpt>
      <trkpt lat="42.0563030" lon="-0.6482760">
        <ele>363.6</ele>
        <time>2019-03-16T10:14:20Z</time>
      </trkpt>
      <trkpt lat="42.0559950" lon="-0.6482300">
        <ele>363.6</ele>
        <time>2019-03-16T10:14:24Z</time>
      </trkpt>
      <trkpt lat="42.0556680" lon="-0.6481830">
        <ele>362.6</ele>
        <time>2019-03-16T10:14:28Z</time>
      </trkpt>
      <trkpt lat="42.0553310" lon="-0.6481350">
        <ele>363.0</ele>
        <time>2019-03-16T10:14:32Z</time>
      </trkpt>
      <trkpt lat="42.0549980" lon="-0.6481000">
        <ele>362.8</ele>
        <time>2019-03-16T10:14:36Z</time>
      </trkpt>
      <trkpt lat="42.0546650" lon="-0.6480480">
        <ele>362.4</ele>
        <time>2019-03-16T10:14:40Z</time>
      </trkpt>
      <trkpt lat="42.0543230" lon="-0.6480150">
        <ele>362.0</ele>
        <time>2019-03-16T10:14:44Z</time>
      </trkpt>
      <trkpt lat="42.0539850" lon="-0.6479780">
        <ele>362.2</ele>
        <time>2019-03-16T10:14:48Z</time>
      </trkpt>
      <trkpt lat="42.0536450" lon="-0.6479380">
        <ele>362.6</ele>
        <time>2019-03-16T10:14:52Z</time>
      </trkpt>
      <trkpt lat="42.0533010" lon="-0.6479300">
        <ele>363.2</ele>
        <time>2019-03-16T10:14:56Z</time>
      </trkpt>
      <trkpt lat="42.0529760" lon="-0.6479580">
        <ele>362.8</ele>
        <time>2019-03-16T10:15:00Z</time>
      </trkpt>
      <trkpt lat="42.0526580" lon="-0.6480360">
        <ele>363.0</ele>
        <time>2019-03-16T10:15:04Z</time>
      </trkpt>
      <trkpt lat="42.0523450" lon="-0.6481350">
        <ele>363.0</ele>
        <time>2019-03-16T10:15:08Z</time>
      </trkpt>
      <trkpt lat="42.0520280" lon="-0.6482300">
        <ele>363.0</ele>
        <time>2019-03-16T10:15:12Z</time>
      </trkpt>
      <trkpt lat="42.0517100" lon="-0.6483410">
        <ele>362.6</ele>
        <time>2019-03-16T10:15:16Z</time>
      </trkpt>
      <trkpt lat="42.0514010" lon="-0.6484980">
        <ele>362.2</ele>
        <time>2019-03-16T10:15:20Z</time>
      </trkpt>
      <trkpt lat="42.0510910" lon="-0.6486630">
        <ele>362.6</ele>
        <time>2019-03-16T10:15:24Z</time>
      </trkpt>
      <trkpt lat="42.0507860" lon="-0.6488110">
        <ele>364.4</ele>
        <time>2019-03-16T10:15:28Z</time>
      </trkpt>
      <trkpt lat="42.0505680" lon="-0.6490210">
        <ele>367.2</ele>
        <time>2019-03-16T10:15:32Z</time>
      </trkpt>
      <trkpt lat="42.0503710" lon="-0.6492380">
        <ele>367.4</ele>
        <time>2019-03-16T10:15:36Z</time>
      </trkpt>
      <trkpt lat="42.0501610" lon="-0.6495150">
        <ele>367.0</ele>
        <time>2019-03-16T10:15:40Z</time>
      </trkpt>
      <trkpt lat="42.0499750" lon="-0.6498410">
        <ele>366.0</ele>
        <time>2019-03-16T10:15:44Z</time>
      </trkpt>
      <trkpt lat="42.0497860" lon="-0.6501650">
        <ele>366.2</ele>
        <time>2019-03-16T10:15:48Z</time>
      </trkpt>
      <trkpt lat="42.0496030" lon="-0.6505030">
        <ele>366.2</ele>
        <time>2019-03-16T10:15:52Z</time>
      </trkpt>
      <trkpt lat="42.0493950" lon="-0.6508110">
        <ele>366.8</ele>
        <time>2019-03-16T10:15:56Z</time>
      </trkpt>
      <trkpt lat="42.0491360" lon="-0.6510210">
        <ele>367.0</ele>
        <time>2019-03-16T10:16:00Z</time>
      </trkpt>
      <trkpt lat="42.0488300" lon="-0.6510980">
        <ele>366.6</ele>
        <time>2019-03-16T10:16:04Z</time>
      </trkpt>
      <trkpt lat="42.0484930" lon="-0.6510630">
        <ele>366.8</ele>
        <time>2019-03-16T10:16:08Z</time>
      </trkpt>
      <trkpt lat="42.0481680" lon="-0.6509550">
        <ele>366.2</ele>
        <time>2019-03-16T10:16:12Z</time>
      </trkpt>
      <trkpt lat="42.0478450" lon="-0.6508450">
        <ele>366.8</ele>
        <time>2019-03-16T10:16:16Z</time>
      </trkpt>
      <trkpt lat="42.0475250" lon="-0.6507260">
        <ele>366.6</ele>
        <time>2019-03-16T10:16:20Z</time>
      </trkpt>
      <trkpt lat="42.0472010" lon="-0.6506300">
        <ele>366.2</ele>
        <time>2019-03-16T10:16:24Z</time>
      </trkpt>
      <trkpt lat="42.0468930" lon="-0.6504600">
        <ele>366.0</ele>
        <time>2019-03-16T10:16:28Z</time>
      </trkpt>
      <trkpt lat="42.0466380" lon="-0.6501600">
        <ele>363.8</ele>
        <time>2019-03-16T10:16:32Z</time>
      </trkpt>
      <trkpt lat="42.0464010" lon="-0.6498080">
        <ele>363.4</ele>
        <time>2019-03-16T10:16:36Z</time>
      </trkpt>
      <trkpt lat="42.0461580" lon="-0.6494350">
        <ele>362.0</ele>
        <time>2019-03-16T10:16:40Z</time>
      </trkpt>
      <trkpt lat="42.0459200" lon="-0.6490500">
        <ele>361.6</ele>
        <time>2019-03-16T10:16:44Z</time>
      </trkpt>
      <trkpt lat="42.0456810" lon="-0.6486860">
        <ele>361.6</ele>
        <time>2019-03-16T10:16:48Z</time>
      </trkpt>
      <trkpt lat="42.0454150" lon="-0.6483760">
        <ele>361.6</ele>
        <time>2019-03-16T10:16:52Z</time>
      </trkpt>
      <trkpt lat="42.0451160" lon="-0.6481310">
        <ele>362.0</ele>
        <time>2019-03-16T10:16:56Z</time>
      </trkpt>
      <trkpt lat="42.0447930" lon="-0.6479980">
        <ele>363.6</ele>
        <time>2019-03-16T10:17:00Z</time>
      </trkpt>
      <trkpt lat="42.0444700" lon="-0.6479260">
        <ele>363.8</ele>
        <time>2019-03-16T10:17:04Z</time>
      </trkpt>
      <trkpt lat="42.0441260" lon="-0.6479350">
        <ele>362.2</ele>
        <time>2019-03-16T10:17:08Z</time>
      </trkpt>
      <trkpt lat="42.0437700" lon="-0.6479710">
        <ele>362.6</ele>
        <time>2019-03-16T10:17:12Z</time>
      </trkpt>
      <trkpt lat="42.0434030" lon="-0.6479850">
        <ele>362.0</ele>
        <time>2019-03-16T10:17:16Z</time>
      </trkpt>
      <trkpt lat="42.0430450" lon="-0.6479950">
        <ele>361.8</ele>
        <time>2019-03-16T10:17:20Z</time>
      </trkpt>
      <trkpt lat="42.0426930" lon="-0.6479580">
        <ele>361.2</ele>
        <time>2019-03-16T10:17:24Z</time>
      </trkpt>
      <trkpt lat="42.0423460" lon="-0.6479410">
        <ele>361.4</ele>
        <time>2019-03-16T10:17:28Z</time>
      </trkpt>
      <trkpt lat="42.0420060" lon="-0.6479180">
        <ele>361.6</ele>
        <time>2019-03-16T10:17:32Z</time>
      </trkpt>
      <trkpt lat="42.0416660" lon="-0.6478960">
        <ele>362.4</ele>
        <time>2019-03-16T10:17:36Z</time>
      </trkpt>
      <trkpt lat="42.0413260" lon="-0.6478700">
        <ele>361.2</ele>
        <time>2019-03-16T10:17:40Z</time>
      </trkpt>
      <trkpt lat="42.0409750" lon="-0.6478510">
        <ele>361.8</ele>
        <time>2019-03-16T10:17:44Z</time>
      </trkpt>
      <trkpt lat="42.0406300" lon="-0.6478500">
        <ele>362.8</ele>
        <time>2019-03-16T10:17:48Z</time>
      </trkpt>
      <trkpt lat="42.0403000" lon="-0.6478810">
        <ele>362.6</ele>
        <time>2019-03-16T10:17:52Z</time>
      </trkpt>
      <trkpt lat="42.0399650" lon="-0.6479800">
        <ele>362.8</ele>
        <time>2019-03-16T10:17:56Z</time>
      </trkpt>
      <trkpt lat="42.0396260" lon="-0.6480660">
        <ele>362.4</ele>
        <time>2019-03-16T10:18:00Z</time>
      </trkpt>
      <trkpt lat="42.0392900" lon="-0.6481150">
        <ele>361.8</ele>
        <time>2019-03-16T10:18:04Z</time>
      </trkpt>
      <trkpt lat="42.0389430" lon="-0.6480530">
        <ele>361.8</ele>
        <time>2019-03-16T10:18:08Z</time>
      </trkpt>
      <trkpt lat="42.0386030" lon="-0.6479510">
        <ele>362.4</ele>
        <time>2019-03-16T10:18:12Z</time>
      </trkpt>
      <trkpt lat="42.0382750" lon="-0.6477910">
        <ele>361.8</ele>
        <time>2019-03-16T10:18:16Z</time>
      </trkpt>
      <trkpt lat="42.0379700" lon="-0.6475610">
        <ele>361.6</ele>
        <time>2019-03-16T10:18:20Z</time>
      </trkpt>
      <trkpt lat="42.0376800" lon="-0.6473000">
        <ele>361.8</ele>
        <time>2019-03-16T10:18:24Z</time>
      </trkpt>
      <trkpt lat="42.0374050" lon="-0.6470250">
        <ele>362.0</ele>
        <time>2019-03-16T10:18:28Z</time>
      </trkpt>
      <trkpt lat="42.0371160" lon="-0.6467700">
        <ele>361.2</ele>
        <time>2019-03-16T10:18:32Z</time>
      </trkpt>
      <trkpt lat="42.0368360" lon="-0.6465060">
        <ele>361.2</ele>
        <time>2019-03-16T10:18:36Z</time>
      </trkpt>
      <trkpt lat="42.0365660" lon="-0.6462530">
        <ele>361.4</ele>
        <time>2019-03-16T10:18:40Z</time>
      </trkpt>
      <trkpt lat="42.0363030" lon="-0.6459950">
        <ele>361.2</ele>
        <time>2019-03-16T10:18:44Z</time>
      </trkpt>
      <trkpt lat="42.0360360" lon="-0.6457410">
        <ele>361.2</ele>
        <time>2019-03-16T10:18:48Z</time>
      </trkpt>
      <trkpt lat="42.0357630" lon="-0.6455010">
        <ele>361.6</ele>
        <time>2019-03-16T10:18:52Z</time>
      </trkpt>
      <trkpt lat="42.0354880" lon="-0.6452500">
        <ele>361.4</ele>
        <time>2019-03-16T10:18:56Z</time>
      </trkpt>
      <trkpt lat="42.0352030" lon="-0.6449980">
        <ele>360.6</ele>
        <time>2019-03-16T10:19:00Z</time>
      </trkpt>
      <trkpt lat="42.0348880" lon="-0.6447800">
        <ele>360.0</ele>
        <time>2019-03-16T10:19:04Z</time>
      </trkpt>
      <trkpt lat="42.0345450" lon="-0.6446230">
        <ele>360.6</ele>
        <time>2019-03-16T10:19:08Z</time>
      </trkpt>
      <trkpt lat="42.0342000" lon="-0.6445280">
        <ele>361.2</ele>
        <time>2019-03-16T10:19:12Z</time>
      </trkpt>
      <trkpt lat="42.0338480" lon="-0.6444880">
        <ele>361.4</ele>
        <time>2019-03-16T10:19:16Z</time>
      </trkpt>
      <trkpt lat="42.0334950" lon="-0.6445160">
        <ele>361.0</ele>
        <time>2019-03-16T10:19:20Z</time>
      </trkpt>
      <trkpt lat="42.0331450" lon="-0.6445950">
        <ele>361.0</ele>
        <time>2019-03-16T10:19:24Z</time>
      </trkpt>
      <trkpt lat="42.0328030" lon="-0.6447250">
        <ele>362.0</ele>
        <time>2019-03-16T10:19:28Z</time>
      </trkpt>
      <trkpt lat="42.0324760" lon="-0.6449010">
        <ele>362.0</ele>
        <time>2019-03-16T10:19:32Z</time>
      </trkpt>
      <trkpt lat="42.0321460" lon="-0.6450210">
        <ele>361.4</ele>
        <time>2019-03-16T10:19:36Z</time>
      </trkpt>
      <trkpt lat="42.0318200" lon="-0.6450950">
        <ele>361.8</ele>
        <time>2019-03-16T10:19:40Z</time>
      </trkpt>
      <trkpt lat="42.0314910" lon="-0.6451210">
        <ele>361.2</ele>
        <time>2019-03-16T10:19:44Z</time>
      </trkpt>
      <trkpt lat="42.0311610" lon="-0.6450860">
        <ele>361.6</ele>
        <time>2019-03-16T10:19:48Z</time>
      </trkpt>
      <trkpt lat="42.0308400" lon="-0.6450180">
        <ele>361.8</ele>
        <time>2019-03-16T10:19:52Z</time>
      </trkpt>
      <trkpt lat="42.0305150" lon="-0.6449750">
        <ele>361.2</ele>
        <time>2019-03-16T10:19:56Z</time>
      </trkpt>
      <trkpt lat="42.0301900" lon="-0.6449980">
        <ele>361.0</ele>
        <time>2019-03-16T10:20:00Z</time>
      </trkpt>
      <trkpt lat="42.0298630" lon="-0.6450460">
        <ele>360.6</ele>
        <time>2019-03-16T10:20:04Z</time>
      </trkpt>
      <trkpt lat="42.0295430" lon="-0.6451250">
        <ele>361.6</ele>
        <time>2019-03-16T10:20:08Z</time>
      </trkpt>
      <trkpt lat="42.0292230" lon="-0.6452080">
        <ele>361.2</ele>
        <time>2019-03-16T10:20:12Z</time>
      </trkpt>
      <trkpt lat="42.0289050" lon="-0.6452930">
        <ele>361.0</ele>
        <time>2019-03-16T10:20:16Z</time>
      </trkpt>
      <trkpt lat="42.0285860" lon="-0.6453760">
        <ele>360.6</ele>
        <time>2019-03-16T10:20:20Z</time>
      </trkpt>
      <trkpt lat="42.0282650" lon="-0.6454560">
        <ele>360.8</ele>
        <time>2019-03-16T10:20:24Z</time>
      </trkpt>
      <trkpt lat="42.0279330" lon="-0.6455300">
        <ele>360.8</ele>
        <time>2019-03-16T10:20:28Z</time>
      </trkpt>
      <trkpt lat="42.0275800" lon="-0.6455530">
        <ele>359.8</ele>
        <time>2019-03-16T10:20:32Z</time>
      </trkpt>
      <trkpt lat="42.0272230" lon="-0.6455510">
        <ele>360.6</ele>
        <time>2019-03-16T10:20:36Z</time>
      </trkpt>
      <trkpt lat="42.0268750" lon="-0.6455750">
        <ele>359.6</ele>
        <time>2019-03-16T10:20:40Z</time>
      </trkpt>
      <trkpt lat="42.0265380" lon="-0.6455980">
        <ele>361.0</ele>
        <time>2019-03-16T10:20:44Z</time>
      </trkpt>
      <trkpt lat="42.0262130" lon="-0.6456100">
        <ele>361.2</ele>
        <time>2019-03-16T10:20:48Z</time>
      </trkpt>
      <trkpt lat="42.0258880" lon="-0.6456230">
        <ele>361.6</ele>
        <time>2019-03-16T10:20:52Z</time>
      </trkpt>
      <trkpt lat="42.0255530" lon="-0.6456360">
        <ele>361.4</ele>
        <time>2019-03-16T10:20:56Z</time>
      </trkpt>
      <trkpt lat="42.0252100" lon="-0.6456400">
        <ele>361.4</ele>
        <time>2019-03-16T10:21:00Z</time>
      </trkpt>
      <trkpt lat="42.0248650" lon="-0.6456910">
        <ele>361.2</ele>
        <time>2019-03-16T10:21:04Z</time>
      </trkpt>
      <trkpt lat="42.0245200" lon="-0.6457880">
        <ele>361.8</ele>
        <time>2019-03-16T10:21:08Z</time>
      </trkpt>
      <trkpt lat="42.0241880" lon="-0.6459480">
        <ele>361.8</ele>
        <time>2019-03-16T10:21:12Z</time>
      </trkpt>
      <trkpt lat="42.0238680" lon="-0.6461530">
        <ele>361.6</ele>
        <time>2019-03-16T10:21:16Z</time>
      </trkpt>
      <trkpt lat="42.0235750" lon="-0.6464180">
        <ele>361.8</ele>
        <time>2019-03-16T10:21:20Z</time>
      </trkpt>
      <trkpt lat="42.0233080" lon="-0.6467360">
        <ele>361.2</ele>
        <time>2019-03-16T10:21:24Z</time>
      </trkpt>
      <trkpt lat="42.0230710" lon="-0.6471000">
        <ele>361.2</ele>
        <time>2019-03-16T10:21:28Z</time>
      </trkpt>
      <trkpt lat="42.0228580" lon="-0.6474910">
        <ele>361.4</ele>
        <time>2019-03-16T10:21:32Z</time>
      </trkpt>
      <trkpt lat="42.0226780" lon="-0.6479110">
        <ele>361.8</ele>
        <time>2019-03-16T10:21:36Z</time>
      </trkpt>
      <trkpt lat="42.0225130" lon="-0.6483280">
        <ele>361.8</ele>
        <time>2019-03-16T10:21:40Z</time>
      </trkpt>
      <trkpt lat="42.0223410" lon="-0.6487400">
        <ele>362.2</ele>
        <time>2019-03-16T10:21:44Z</time>
      </trkpt>
      <trkpt lat="42.0221710" lon="-0.6491580">
        <ele>361.6</ele>
        <time>2019-03-16T10:21:48Z</time>
      </trkpt>
      <trkpt lat="42.0219960" lon="-0.6495780">
        <ele>360.0</ele>
        <time>2019-03-16T10:21:52Z</time>
      </trkpt>
      <trkpt lat="42.0218080" lon="-0.6500350">
        <ele>359.4</ele>
        <time>2019-03-16T10:21:56Z</time>
      </trkpt>
      <trkpt lat="42.0216030" lon="-0.6505130">
        <ele>357.2</ele>
        <time>2019-03-16T10:22:00Z</time>
      </trkpt>
      <trkpt lat="42.0213880" lon="-0.6509450">
        <ele>359.0</ele>
        <time>2019-03-16T10:22:04Z</time>
      </trkpt>
      <trkpt lat="42.0211360" lon="-0.6513000">
        <ele>359.2</ele>
        <time>2019-03-16T10:22:08Z</time>
      </trkpt>
      <trkpt lat="42.0208560" lon="-0.6515860">
        <ele>359.2</ele>
        <time>2019-03-16T10:22:12Z</time>
      </trkpt>
      <trkpt lat="42.0205510" lon="-0.6518200">
        <ele>359.0</ele>
        <time>2019-03-16T10:22:16Z</time>
      </trkpt>
      <trkpt lat="42.0202450" lon="-0.6520200">
        <ele>360.6</ele>
        <time>2019-03-16T10:22:20Z</time>
      </trkpt>
      <trkpt lat="42.0199400" lon="-0.6521780">
        <ele>361.8</ele>
        <time>2019-03-16T10:22:24Z</time>
      </trkpt>
      <trkpt lat="42.0196300" lon="-0.6523580">
        <ele>361.6</ele>
        <time>2019-03-16T10:22:28Z</time>
      </trkpt>
      <trkpt lat="42.0193080" lon="-0.6525300">
        <ele>360.8</ele>
        <time>2019-03-16T10:22:32Z</time>
      </trkpt>
      <trkpt lat="42.0189950" lon="-0.6527430">
        <ele>361.2</ele>
        <time>2019-03-16T10:22:36Z</time>
      </trkpt>
      <trkpt lat="42.0186880" lon="-0.6529760">
        <ele>361.2</ele>
        <time>2019-03-16T10:22:40Z</time>
      </trkpt>
      <trkpt lat="42.0183710" lon="-0.6532180">
        <ele>360.0</ele>
        <time>2019-03-16T10:22:44Z</time>
      </trkpt>
      <trkpt lat="42.0180530" lon="-0.6534900">
        <ele>359.4</ele>
        <time>2019-03-16T10:22:48Z</time>
      </trkpt>
      <trkpt lat="42.0177330" lon="-0.6537460">
        <ele>358.4</ele>
        <time>2019-03-16T10:22:52Z</time>
      </trkpt>
      <trkpt lat="42.0174230" lon="-0.6540050">
        <ele>359.6</ele>
        <time>2019-03-16T10:22:56Z</time>
      </trkpt>
      <trkpt lat="42.0171180" lon="-0.6542580">
        <ele>359.6</ele>
        <time>2019-03-16T10:23:00Z</time>
      </trkpt>
      <trkpt lat="42.0168330" lon="-0.6545100">
        <ele>360.2</ele>
        <time>2019-03-16T10:23:04Z</time>
      </trkpt>
      <trkpt lat="42.0165350" lon="-0.6547360">
        <ele>360.6</ele>
        <time>2019-03-16T10:23:08Z</time>
      </trkpt>
      <trkpt lat="42.0162280" lon="-0.6549780">
        <ele>360.2</ele>
        <time>2019-03-16T10:23:12Z</time>
      </trkpt>
      <trkpt lat="42.0159080" lon="-0.6552410">
        <ele>359.4</ele>
        <time>2019-03-16T10:23:16Z</time>
      </trkpt>
      <trkpt lat="42.0155800" lon="-0.6555280">
        <ele>359.0</ele>
        <time>2019-03-16T10:23:20Z</time>
      </trkpt>
      <trkpt lat="42.0152550" lon="-0.6557930">
        <ele>359.8</ele>
        <time>2019-03-16T10:23:24Z</time>
      </trkpt>
      <trkpt lat="42.0149250" lon="-0.6560610">
        <ele>357.8</ele>
        <time>2019-03-16T10:23:28Z</time>
      </trkpt>
      <trkpt lat="42.0145910" lon="-0.6563950">
        <ele>357.6</ele>
        <time>2019-03-16T10:23:32Z</time>
      </trkpt>
      <trkpt lat="42.0143180" lon="-0.6568060">
        <ele>356.8</ele>
        <time>2019-03-16T10:23:36Z</time>
      </trkpt>
      <trkpt lat="42.0140880" lon="-0.6572310">
        <ele>358.2</ele>
        <time>2019-03-16T10:23:40Z</time>
      </trkpt>
      <trkpt lat="42.0139180" lon="-0.6576700">
        <ele>360.2</ele>
        <time>2019-03-16T10:23:44Z</time>
      </trkpt>
      <trkpt lat="42.0137830" lon="-0.6580850">
        <ele>360.4</ele>
        <time>2019-03-16T10:23:48Z</time>
      </trkpt>
      <trkpt lat="42.0136450" lon="-0.6585080">
        <ele>360.0</ele>
        <time>2019-03-16T10:23:52Z</time>
      </trkpt>
      <trkpt lat="42.0135010" lon="-0.6589580">
        <ele>359.2</ele>
        <time>2019-03-16T10:23:56Z</time>
      </trkpt>
      <trkpt lat="42.0133550" lon="-0.6594410">
        <ele>356.6</ele>
        <time>2019-03-16T10:24:00Z</time>
      </trkpt>
      <trkpt lat="42.0131980" lon="-0.6599550">
        <ele>356.0</ele>
        <time>2019-03-16T10:24:04Z</time>
      </trkpt>
      <trkpt lat="42.0130300" lon="-0.6604660">
        <ele>354.8</ele>
        <time>2019-03-16T10:24:08Z</time>
      </trkpt>
      <trkpt lat="42.0128510" lon="-0.6609700">
        <ele>355.0</ele>
        <time>2019-03-16T10:24:12Z</time>
      </trkpt>
      <trkpt lat="42.0126230" lon="-0.6614060">
        <ele>356.0</ele>
        <time>2019-03-16T10:24:16Z</time>
      </trkpt>
      <trkpt lat="42.0123710" lon="-0.6617500">
        <ele>358.6</ele>
        <time>2019-03-16T10:24:20Z</time>
      </trkpt>
      <trkpt lat="42.0121230" lon="-0.6620210">
        <ele>359.0</ele>
        <time>2019-03-16T10:24:24Z</time>
      </trkpt>
      <trkpt lat="42.0118510" lon="-0.6622530">
        <ele>359.8</ele>
        <time>2019-03-16T10:24:28Z</time>
      </trkpt>
      <trkpt lat="42.0115480" lon="-0.6624310">
        <ele>359.4</ele>
        <time>2019-03-16T10:24:32Z</time>
      </trkpt>
      <trkpt lat="42.0112380" lon="-0.6625500">
        <ele>360.4</ele>
        <time>2019-03-16T10:24:36Z</time>
      </trkpt>
      <trkpt lat="42.0109330" lon="-0.6626350">
        <ele>360.4</ele>
        <time>2019-03-16T10:24:40Z</time>
      </trkpt>
      <trkpt lat="42.0106210" lon="-0.6626530">
        <ele>360.4</ele>
        <time>2019-03-16T10:24:44Z</time>
      </trkpt>
      <trkpt lat="42.0103110" lon="-0.6627000">
        <ele>361.0</ele>
        <time>2019-03-16T10:24:48Z</time>
      </trkpt>
      <trkpt lat="42.0099930" lon="-0.6627200">
        <ele>360.2</ele>
        <time>2019-03-16T10:24:52Z</time>
      </trkpt>
      <trkpt lat="42.0096730" lon="-0.6627480">
        <ele>360.4</ele>
        <time>2019-03-16T10:24:56Z</time>
      </trkpt>
      <trkpt lat="42.0093530" lon="-0.6627780">
        <ele>360.2</ele>
        <time>2019-03-16T10:25:00Z</time>
      </trkpt>
      <trkpt lat="42.0090300" lon="-0.6628110">
        <ele>361.0</ele>
        <time>2019-03-16T10:25:04Z</time>
      </trkpt>
      <trkpt lat="42.0087080" lon="-0.6628410">
        <ele>360.2</ele>
        <time>2019-03-16T10:25:08Z</time>
      </trkpt>
      <trkpt lat="42.0083860" lon="-0.6628650">
        <ele>360.0</ele>
        <time>2019-03-16T10:25:12Z</time>
      </trkpt>
      <trkpt lat="42.0080630" lon="-0.6628930">
        <ele>359.8</ele>
        <time>2019-03-16T10:25:16Z</time>
      </trkpt>
      <trkpt lat="42.0077380" lon="-0.6629180">
        <ele>360.2</ele>
        <time>2019-03-16T10:25:20Z</time>
      </trkpt>
      <trkpt lat="42.0074110" lon="-0.6629480">
        <ele>359.6</ele>
        <time>2019-03-16T10:25:24Z</time>
      </trkpt>
      <trkpt lat="42.0070760" lon="-0.6629760">
        <ele>358.8</ele>
        <time>2019-03-16T10:25:28Z</time>
      </trkpt>
      <trkpt lat="42.0067250" lon="-0.6630100">
        <ele>357.4</ele>
        <time>2019-03-16T10:25:32Z</time>
      </trkpt>
      <trkpt lat="42.0063450" lon="-0.6630510">
        <ele>356.8</ele>
        <time>2019-03-16T10:25:36Z</time>
      </trkpt>
      <trkpt lat="42.0059700" lon="-0.6631180">
        <ele>356.2</ele>
        <time>2019-03-16T10:25:40Z</time>
      </trkpt>
      <trkpt lat="42.0056130" lon="-0.6632000">
        <ele>357.2</ele>
        <time>2019-03-16T10:25:44Z</time>
      </trkpt>
      <trkpt lat="42.0052750" lon="-0.6632960">
        <ele>358.4</ele>
        <time>2019-03-16T10:25:48Z</time>
      </trkpt>
      <trkpt lat="42.0049510" lon="-0.6634100">
        <ele>359.4</ele>
        <time>2019-03-16T10:25:52Z</time>
      </trkpt>
      <trkpt lat="42.0046300" lon="-0.6635260">
        <ele>358.2</ele>
        <time>2019-03-16T10:25:56Z</time>
      </trkpt>
      <trkpt lat="42.0043050" lon="-0.6636580">
        <ele>357.8</ele>
        <time>2019-03-16T10:26:00Z</time>
      </trkpt>
      <trkpt lat="42.0039730" lon="-0.6638300">
        <ele>358.4</ele>
        <time>2019-03-16T10:26:04Z</time>
      </trkpt>
      <trkpt lat="42.0036210" lon="-0.6640050">
        <ele>357.8</ele>
        <time>2019-03-16T10:26:08Z</time>
      </trkpt>
      <trkpt lat="42.0032600" lon="-0.6641760">
        <ele>356.8</ele>
        <time>2019-03-16T10:26:12Z</time>
      </trkpt>
      <trkpt lat="42.0029000" lon="-0.6643430">
        <ele>356.8</ele>
        <time>2019-03-16T10:26:16Z</time>
      </trkpt>
      <trkpt lat="42.0025480" lon="-0.6645030">
        <ele>356.8</ele>
        <time>2019-03-16T10:26:20Z</time>
      </trkpt>
      <trkpt lat="42.0022110" lon="-0.6646950">
        <ele>357.0</ele>
        <time>2019-03-16T10:26:24Z</time>
      </trkpt>
      <trkpt lat="42.0018710" lon="-0.6648560">
        <ele>357.8</ele>
        <time>2019-03-16T10:26:28Z</time>
      </trkpt>
      <trkpt lat="42.0015380" lon="-0.6650150">
        <ele>356.6</ele>
        <time>2019-03-16T10:26:32Z</time>
      </trkpt>
      <trkpt lat="42.0012150" lon="-0.6651730">
        <ele>357.0</ele>
        <time>2019-03-16T10:26:36Z</time>
      </trkpt>
      <trkpt lat="42.0008960" lon="-0.6653480">
        <ele>356.6</ele>
        <time>2019-03-16T10:26:40Z</time>
      </trkpt>
      <trkpt lat="42.0005800" lon="-0.6655150">
        <ele>357.2</ele>
        <time>2019-03-16T10:26:44Z</time>
      </trkpt>
      <trkpt lat="42.0002600" lon="-0.6656550">
        <ele>356.0</ele>
        <time>2019-03-16T10:26:48Z</time>
      </trkpt>
      <trkpt lat="41.9999210" lon="-0.6658400">
        <ele>355.4</ele>
        <time>2019-03-16T10:26:52Z</time>
      </trkpt>
      <trkpt lat="41.9996130" lon="-0.6660880">
        <ele>357.0</ele>
        <time>2019-03-16T10:26:56Z</time>
      </trkpt>
      <trkpt lat="41.9993550" lon="-0.6663330">
        <ele>358.0</ele>
        <time>2019-03-16T10:27:00Z</time>
      </trkpt>
      <trkpt lat="41.9991010" lon="-0.6666230">
        <ele>358.0</ele>
        <time>2019-03-16T10:27:04Z</time>
      </trkpt>
      <trkpt lat="41.9988660" lon="-0.6669750">
        <ele>357.6</ele>
        <time>2019-03-16T10:27:08Z</time>
      </trkpt>
      <trkpt lat="41.9986550" lon="-0.6673550">
        <ele>358.4</ele>
        <time>2019-03-16T10:27:12Z</time>
      </trkpt>
      <trkpt lat="41.9984750" lon="-0.6677350">
        <ele>359.6</ele>
        <time>2019-03-16T10:27:16Z</time>
      </trkpt>
      <trkpt lat="41.9983050" lon="-0.6681080">
        <ele>358.8</ele>
        <time>2019-03-16T10:27:20Z</time>
      </trkpt>
      <trkpt lat="41.9980900" lon="-0.6685060">
        <ele>356.8</ele>
        <time>2019-03-16T10:27:24Z</time>
      </trkpt>
      <trkpt lat="41.9978860" lon="-0.6689250">
        <ele>357.6</ele>
        <time>2019-03-16T10:27:28Z</time>
      </trkpt>
      <trkpt lat="41.9977030" lon="-0.6693060">
        <ele>358.8</ele>
        <time>2019-03-16T10:27:32Z</time>
      </trkpt>
      <trkpt lat="41.9975180" lon="-0.6696780">
        <ele>359.2</ele>
        <time>2019-03-16T10:27:36Z</time>
      </trkpt>
      <trkpt lat="41.9973300" lon="-0.6700700">
        <ele>359.4</ele>
        <time>2019-03-16T10:27:40Z</time>
      </trkpt>
      <trkpt lat="41.9971360" lon="-0.6704700">
        <ele>356.6</ele>
        <time>2019-03-16T10:27:44Z</time>
      </trkpt>
      <trkpt lat="41.9969200" lon="-0.6708980">
        <ele>355.0</ele>
        <time>2019-03-16T10:27:48Z</time>
      </trkpt>
      <trkpt lat="41.9967110" lon="-0.6713330">
        <ele>355.6</ele>
        <time>2019-03-16T10:27:52Z</time>
      </trkpt>
      <trkpt lat="41.9965110" lon="-0.6717550">
        <ele>356.2</ele>
        <time>2019-03-16T10:27:56Z</time>
      </trkpt>
      <trkpt lat="41.9963100" lon="-0.6721660">
        <ele>355.4</ele>
        <time>2019-03-16T10:28:00Z</time>
      </trkpt>
      <trkpt lat="41.9961080" lon="-0.6725800">
        <ele>356.2</ele>
        <time>2019-03-16T10:28:04Z</time>
      </trkpt>
      <trkpt lat="41.9959210" lon="-0.6729850">
        <ele>357.6</ele>
        <time>2019-03-16T10:28:08Z</time>
      </trkpt>
      <trkpt lat="41.9958100" lon="-0.6733400">
        <ele>359.2</ele>
        <time>2019-03-16T10:28:12Z</time>
      </trkpt>
      <trkpt lat="41.9957080" lon="-0.6736880">
        <ele>359.6</ele>
        <time>2019-03-16T10:28:16Z</time>
      </trkpt>
      <trkpt lat="41.9956330" lon="-0.6740760">
        <ele>359.2</ele>
        <time>2019-03-16T10:28:20Z</time>
      </trkpt>
      <trkpt lat="41.9955760" lon="-0.6744810">
        <ele>359.8</ele>
        <time>2019-03-16T10:28:24Z</time>
      </trkpt>
      <trkpt lat="41.9955480" lon="-0.6748850">
        <ele>358.8</ele>
        <time>2019-03-16T10:28:28Z</time>
      </trkpt>
      <trkpt lat="41.9955110" lon="-0.6752880">
        <ele>357.4</ele>
        <time>2019-03-16T10:28:32Z</time>
      </trkpt>
      <trkpt lat="41.9954630" lon="-0.6757280">
        <ele>356.0</ele>
        <time>2019-03-16T10:28:36Z</time>
      </trkpt>
      <trkpt lat="41.9953780" lon="-0.6761630">
        <ele>356.8</ele>
        <time>2019-03-16T10:28:40Z</time>
      </trkpt>
      <trkpt lat="41.9952510" lon="-0.6765480">
        <ele>355.8</ele>
        <time>2019-03-16T10:28:44Z</time>
      </trkpt>
      <trkpt lat="41.9950910" lon="-0.6768730">
        <ele>355.0</ele>
        <time>2019-03-16T10:28:48Z</time>
      </trkpt>
      <trkpt lat="41.9949860" lon="-0.6771600">
        <ele>355.0</ele>
        <time>2019-03-16T10:28:52Z</time>
      </trkpt>
      <trkpt lat="41.9948780" lon="-0.6770900">
        <ele>353.6</ele>
        <time>2019-03-16T10:28:56Z</time>
      </trkpt>
      <trkpt lat="41.9948800" lon="-0.6767850">
        <ele>352.8</ele>
        <time>2019-03-16T10:29:00Z</time>
      </trkpt>
      <trkpt lat="41.9948660" lon="-0.6763880">
        <ele>352.6</ele>
        <time>2019-03-16T10:29:04Z</time>
      </trkpt>
      <trkpt lat="41.9948350" lon="-0.6759430">
        <ele>351.2</ele>
        <time>2019-03-16T10:29:08Z</time>
      </trkpt>
      <trkpt lat="41.9947930" lon="-0.6754860">
        <ele>350.2</ele>
        <time>2019-03-16T10:29:12Z</time>
      </trkpt>
      <trkpt lat="41.9947550" lon="-0.6750150">
        <ele>348.6</ele>
        <time>2019-03-16T10:29:16Z</time>
      </trkpt>
      <trkpt lat="41.9947050" lon="-0.6745300">
        <ele>348.4</ele>
        <time>2019-03-16T10:29:20Z</time>
      </trkpt>
      <trkpt lat="41.9946580" lon="-0.6740310">
        <ele>347.2</ele>
        <time>2019-03-16T10:29:24Z</time>
      </trkpt>
      <trkpt lat="41.9946130" lon="-0.6735180">
        <ele>345.8</ele>
        <time>2019-03-16T10:29:28Z</time>
      </trkpt>
      <trkpt lat="41.9945600" lon="-0.6729980">
        <ele>343.6</ele>
        <time>2019-03-16T10:29:32Z</time>
      </trkpt>
      <trkpt lat="41.9945110" lon="-0.6724700">
        <ele>343.0</ele>
        <time>2019-03-16T10:29:36Z</time>
      </trkpt>
      <trkpt lat="41.9944660" lon="-0.6719460">
        <ele>342.2</ele>
        <time>2019-03-16T10:29:40Z</time>
      </trkpt>
      <trkpt lat="41.9944180" lon="-0.6714260">
        <ele>341.0</ele>
        <time>2019-03-16T10:29:44Z</time>
      </trkpt>
      <trkpt lat="41.9943710" lon="-0.6709000">
        <ele>340.2</ele>
        <time>2019-03-16T10:29:48Z</time>
      </trkpt>
      <trkpt lat="41.9943180" lon="-0.6703700">
        <ele>339.8</ele>
        <time>2019-03-16T10:29:52Z</time>
      </trkpt>
      <trkpt lat="41.9942680" lon="-0.6698460">
        <ele>338.6</ele>
        <time>2019-03-16T10:29:56Z</time>
      </trkpt>
      <trkpt lat="41.9942210" lon="-0.6693250">
        <ele>337.6</ele>
        <time>2019-03-16T10:30:00Z</time>
      </trkpt>
      <trkpt lat="41.9941630" lon="-0.6688160">
        <ele>337.2</ele>
        <time>2019-03-16T10:30:04Z</time>
      </trkpt>
      <trkpt lat="41.9940780" lon="-0.6683100">
        <ele>334.4</ele>
        <time>2019-03-16T10:30:08Z</time>
      </trkpt>
      <trkpt lat="41.9939410" lon="-0.6678410">
        <ele>334.6</ele>
        <time>2019-03-16T10:30:12Z</time>
      </trkpt>
      <trkpt lat="41.9937610" lon="-0.6674100">
        <ele>334.2</ele>
        <time>2019-03-16T10:30:16Z</time>
      </trkpt>
      <trkpt lat="41.9935310" lon="-0.6670360">
        <ele>333.4</ele>
        <time>2019-03-16T10:30:20Z</time>
      </trkpt>
      <trkpt lat="41.9932600" lon="-0.6667330">
        <ele>332.6</ele>
        <time>2019-03-16T10:30:24Z</time>
      </trkpt>
      <trkpt lat="41.9929980" lon="-0.6664700">
        <ele>332.6</ele>
        <time>2019-03-16T10:30:28Z</time>
      </trkpt>
      <trkpt lat="41.9927000" lon="-0.6663860">
        <ele>330.6</ele>
        <time>2019-03-16T10:30:32Z</time>
      </trkpt>
      <trkpt lat="41.9924880" lon="-0.6661000">
        <ele>329.2</ele>
        <time>2019-03-16T10:30:36Z</time>
      </trkpt>
      <trkpt lat="41.9923010" lon="-0.6657950">
        <ele>327.2</ele>
        <time>2019-03-16T10:30:40Z</time>
      </trkpt>
      <trkpt lat="41.9920160" lon="-0.6655150">
        <ele>325.6</ele>
        <time>2019-03-16T10:30:44Z</time>
      </trkpt>
      <trkpt lat="41.9916980" lon="-0.6652050">
        <ele>324.6</ele>
        <time>2019-03-16T10:30:48Z</time>
      </trkpt>
      <trkpt lat="41.9914030" lon="-0.6648880">
        <ele>324.6</ele>
        <time>2019-03-16T10:30:52Z</time>
      </trkpt>
      <trkpt lat="41.9911230" lon="-0.6646580">
        <ele>325.2</ele>
        <time>2019-03-16T10:30:56Z</time>
      </trkpt>
      <trkpt lat="41.9909260" lon="-0.6644480">
        <ele>325.2</ele>
        <time>2019-03-16T10:31:00Z</time>
      </trkpt>
      <trkpt lat="41.9909730" lon="-0.6641550">
        <ele>325.6</ele>
        <time>2019-03-16T10:31:04Z</time>
      </trkpt>
      <trkpt lat="41.9911210" lon="-0.6638600">
        <ele>326.0</ele>
        <time>2019-03-16T10:31:08Z</time>
      </trkpt>
      <trkpt lat="41.9912830" lon="-0.6635360">
        <ele>326.6</ele>
        <time>2019-03-16T10:31:12Z</time>
      </trkpt>
      <trkpt lat="41.9914600" lon="-0.6632030">
        <ele>326.8</ele>
        <time>2019-03-16T10:31:16Z</time>
      </trkpt>
      <trkpt lat="41.9916400" lon="-0.6628580">
        <ele>326.6</ele>
        <time>2019-03-16T10:31:20Z</time>
      </trkpt>
      <trkpt lat="41.9918150" lon="-0.6625230">
        <ele>327.2</ele>
        <time>2019-03-16T10:31:24Z</time>
      </trkpt>
      <trkpt lat="41.9919880" lon="-0.6621880">
        <ele>327.6</ele>
        <time>2019-03-16T10:31:28Z</time>
      </trkpt>
      <trkpt lat="41.9921680" lon="-0.6618500">
        <ele>327.2</ele>
        <time>2019-03-16T10:31:32Z</time>
      </trkpt>
      <trkpt lat="41.9923450" lon="-0.6615080">
        <ele>327.0</ele>
        <time>2019-03-16T10:31:36Z</time>
      </trkpt>
      <trkpt lat="41.9925260" lon="-0.6611610">
        <ele>327.2</ele>
        <time>2019-03-16T10:31:40Z</time>
      </trkpt>
      <trkpt lat="41.9927100" lon="-0.6608100">
        <ele>328.0</ele>
        <time>2019-03-16T10:31:44Z</time>
      </trkpt>
      <trkpt lat="41.9928950" lon="-0.6604600">
        <ele>327.2</ele>
        <time>2019-03-16T10:31:48Z</time>
      </trkpt>
      <trkpt lat="41.9930780" lon="-0.6601110">
        <ele>327.2</ele>
        <time>2019-03-16T10:31:52Z</time>
      </trkpt>
      <trkpt lat="41.9932610" lon="-0.6597630">
        <ele>326.8</ele>
        <time>2019-03-16T10:31:56Z</time>
      </trkpt>
      <trkpt lat="41.9934450" lon="-0.6594150">
        <ele>326.6</ele>
        <time>2019-03-16T10:32:00Z</time>
      </trkpt>
      <trkpt lat="41.9936250" lon="-0.6590710">
        <ele>326.8</ele>
        <time>2019-03-16T10:32:04Z</time>
      </trkpt>
      <trkpt lat="41.9938050" lon="-0.6587300">
        <ele>327.2</ele>
        <time>2019-03-16T10:32:08Z</time>
      </trkpt>
      <trkpt lat="41.9939830" lon="-0.6583930">
        <ele>327.8</ele>
        <time>2019-03-16T10:32:12Z</time>
      </trkpt>
      <trkpt lat="41.9941580" lon="-0.6580510">
        <ele>327.6</ele>
        <time>2019-03-16T10:32:16Z</time>
      </trkpt>
      <trkpt lat="41.9943380" lon="-0.6577110">
        <ele>327.4</ele>
        <time>2019-03-16T10:32:20Z</time>
      </trkpt>
      <trkpt lat="41.9945160" lon="-0.6573730">
        <ele>327.8</ele>
        <time>2019-03-16T10:32:24Z</time>
      </trkpt>
      <trkpt lat="41.9946930" lon="-0.6570350">
        <ele>328.2</ele>
        <time>2019-03-16T10:32:28Z</time>
      </trkpt>
      <trkpt lat="41.9948650" lon="-0.6566930">
        <ele>328.4</ele>
        <time>2019-03-16T10:32:32Z</time>
      </trkpt>
      <trkpt lat="41.9950350" lon="-0.6563530">
        <ele>328.4</ele>
        <time>2019-03-16T10:32:36Z</time>
      </trkpt>
      <trkpt lat="41.9952110" lon="-0.6560230">
        <ele>329.6</ele>
        <time>2019-03-16T10:32:40Z</time>
      </trkpt>
      <trkpt lat="41.9953880" lon="-0.6556930">
        <ele>329.8</ele>
        <time>2019-03-16T10:32:44Z</time>
      </trkpt>
      <trkpt lat="41.9955660" lon="-0.6553560">
        <ele>330.0</ele>
        <time>2019-03-16T10:32:48Z</time>
      </trkpt>
      <trkpt lat="41.9957480" lon="-0.6550250">
        <ele>331.0</ele>
        <time>2019-03-16T10:32:52Z</time>
      </trkpt>
      <trkpt lat="41.9959230" lon="-0.6546860">
        <ele>331.0</ele>
        <time>2019-03-16T10:32:56Z</time>
      </trkpt>
      <trkpt lat="41.9961050" lon="-0.6543580">
        <ele>330.4</ele>
        <time>2019-03-16T10:33:00Z</time>
      </trkpt>
      <trkpt lat="41.9962800" lon="-0.6540250">
        <ele>330.6</ele>
        <time>2019-03-16T10:33:04Z</time>
      </trkpt>
      <trkpt lat="41.9964530" lon="-0.6536910">
        <ele>331.2</ele>
        <time>2019-03-16T10:33:08Z</time>
      </trkpt>
      <trkpt lat="41.9966350" lon="-0.6533610">
        <ele>331.2</ele>
        <time>2019-03-16T10:33:12Z</time>
      </trkpt>
      <trkpt lat="41.9968150" lon="-0.6530300">
        <ele>330.8</ele>
        <time>2019-03-16T10:33:16Z</time>
      </trkpt>
      <trkpt lat="41.9969830" lon="-0.6526960">
        <ele>331.0</ele>
        <time>2019-03-16T10:33:20Z</time>
      </trkpt>
      <trkpt lat="41.9971550" lon="-0.6523610">
        <ele>331.6</ele>
        <time>2019-03-16T10:33:24Z</time>
      </trkpt>
      <trkpt lat="41.9973280" lon="-0.6520230">
        <ele>330.2</ele>
        <time>2019-03-16T10:33:28Z</time>
      </trkpt>
      <trkpt lat="41.9975110" lon="-0.6516860">
        <ele>331.0</ele>
        <time>2019-03-16T10:33:32Z</time>
      </trkpt>
      <trkpt lat="41.9976910" lon="-0.6513460">
        <ele>330.6</ele>
        <time>2019-03-16T10:33:36Z</time>
      </trkpt>
      <trkpt lat="41.9978650" lon="-0.6510050">
        <ele>331.0</ele>
        <time>2019-03-16T10:33:40Z</time>
      </trkpt>
      <trkpt lat="41.9980500" lon="-0.6506710">
        <ele>331.0</ele>
        <time>2019-03-16T10:33:44Z</time>
      </trkpt>
      <trkpt lat="41.9982280" lon="-0.6503280">
        <ele>331.6</ele>
        <time>2019-03-16T10:33:48Z</time>
      </trkpt>
      <trkpt lat="41.9984060" lon="-0.6499780">
        <ele>331.0</ele>
        <time>2019-03-16T10:33:52Z</time>
      </trkpt>
      <trkpt lat="41.9985400" lon="-0.6495950">
        <ele>331.0</ele>
        <time>2019-03-16T10:33:56Z</time>
      </trkpt>
      <trkpt lat="41.9986850" lon="-0.6492160">
        <ele>331.0</ele>
        <time>2019-03-16T10:34:00Z</time>
      </trkpt>
      <trkpt lat="41.9987000" lon="-0.6488460">
        <ele>330.8</ele>
        <time>2019-03-16T10:34:04Z</time>
      </trkpt>
      <trkpt lat="41.9984930" lon="-0.6485910">
        <ele>331.0</ele>
        <time>2019-03-16T10:34:08Z</time>
      </trkpt>
      <trkpt lat="41.9982800" lon="-0.6483360">
        <ele>331.0</ele>
        <time>2019-03-16T10:34:12Z</time>
      </trkpt>
      <trkpt lat="41.9980710" lon="-0.6480830">
        <ele>329.8</ele>
        <time>2019-03-16T10:34:16Z</time>
      </trkpt>
      <trkpt lat="41.9978750" lon="-0.6478560">
        <ele>331.2</ele>
        <time>2019-03-16T10:34:20Z</time>
      </trkpt>
      <trkpt lat="41.9976800" lon="-0.6476480">
        <ele>330.0</ele>
        <time>2019-03-16T10:34:24Z</time>
      </trkpt>
      <trkpt lat="41.9975760" lon="-0.6475150">
        <ele>331.2</ele>
        <time>2019-03-16T10:34:28Z</time>
      </trkpt>
      <trkpt lat="41.9974730" lon="-0.6473800">
        <ele>331.6</ele>
        <time>2019-03-16T10:34:32Z</time>
      </trkpt>
      <trkpt lat="41.9973860" lon="-0.6472860">
        <ele>331.8</ele>
        <time>2019-03-16T10:34:36Z</time>
      </trkpt>
      <trkpt lat="41.9973030" lon="-0.6471810">
        <ele>332.0</ele>
        <time>2019-03-16T10:34:40Z</time>
      </trkpt>
      <trkpt lat="41.9973080" lon="-0.6470680">
        <ele>332.2</ele>
        <time>2019-03-16T10:34:44Z</time>
      </trkpt>
      <trkpt lat="41.9973080" lon="-0.6470680">
        <ele>332.0</ele>
        <time>2019-03-16T10:34:48Z</time>
      </trkpt>
      <trkpt lat="41.9973330" lon="-0.6470450">
        <ele>332.6</ele>
        <time>2019-03-16T10:34:52Z</time>
      </trkpt>
      <trkpt lat="41.9973460" lon="-0.6470630">
        <ele>332.0</ele>
        <time>2019-03-16T10:34:56Z</time>
      </trkpt>
      <trkpt lat="41.9973880" lon="-0.6470830">
        <ele>332.2</ele>
        <time>2019-03-16T10:35:00Z</time>
      </trkpt>
      <trkpt lat="41.9973880" lon="-0.6470830">
        <ele>332.2</ele>
        <time>2019-03-16T10:35:04Z</time>
      </trkpt>
      <trkpt lat="41.9973880" lon="-0.6470830">
        <ele>332.4</ele>
        <time>2019-03-16T10:35:08Z</time>
      </trkpt>
      <trkpt lat="41.9973880" lon="-0.6470830">
        <ele>332.4</ele>
        <time>2019-03-16T10:35:12Z</time>
      </trkpt>
      <trkpt lat="41.9973880" lon="-0.6470830">
        <ele>332.4</ele>
        <time>2019-03-16T10:35:16Z</time>
      </trkpt>
      <trkpt lat="41.9973880" lon="-0.6470830">
        <ele>332.4</ele>
        <time>2019-03-16T10:35:20Z</time>
      </trkpt>
      <trkpt lat="41.9973880" lon="-0.6470830">
        <ele>332.2</ele>
        <time>2019-03-16T10:35:24Z</time>
      </trkpt>
      <trkpt lat="41.9973880" lon="-0.6470830">
        <ele>332.4</ele>
        <time>2019-03-16T10:35:28Z</time>
      </trkpt>
      <trkpt lat="41.9973880" lon="-0.6470830">
        <ele>332.2</ele>
        <time>2019-03-16T10:35:32Z</time>
      </trkpt>
      <trkpt lat="41.9973880" lon="-0.6470830">
        <ele>332.6</ele>
        <time>2019-03-16T10:35:36Z</time>
      </trkpt>
      <trkpt lat="41.9973880" lon="-0.6470830">
        <ele>332.2</ele>
        <time>2019-03-16T10:35:40Z</time>
      </trkpt>
      <trkpt lat="41.9973880" lon="-0.6470830">
        <ele>332.6</ele>
        <time>2019-03-16T10:35:44Z</time>
      </trkpt>
      <trkpt lat="41.9973880" lon="-0.6470830">
        <ele>332.4</ele>
        <time>2019-03-16T10:35:48Z</time>
      </trkpt>
      <trkpt lat="41.9973880" lon="-0.6470830">
        <ele>332.8</ele>
        <time>2019-03-16T10:35:52Z</time>
      </trkpt>
      <trkpt lat="41.9973880" lon="-0.6470830">
        <ele>332.8</ele>
        <time>2019-03-16T10:35:56Z</time>
      </trkpt>
      <trkpt lat="41.9973880" lon="-0.6470830">
        <ele>332.6</ele>
        <time>2019-03-16T10:36:00Z</time>
      </trkpt>
      <trkpt lat="41.9973880" lon="-0.6470830">
        <ele>333.0</ele>
        <time>2019-03-16T10:36:04Z</time>
      </trkpt>
      <trkpt lat="41.9973880" lon="-0.6470830">
        <ele>332.4</ele>
        <time>2019-03-16T10:36:08Z</time>
      </trkpt>
      <trkpt lat="41.9973880" lon="-0.6470830">
        <ele>332.8</ele>
        <time>2019-03-16T10:36:12Z</time>
      </trkpt>
      <trkpt lat="41.9973880" lon="-0.6470830">
        <ele>332.4</ele>
        <time>2019-03-16T10:36:16Z</time>
      </trkpt>
      <trkpt lat="41.9973880" lon="-0.6470830">
        <ele>332.4</ele>
        <time>2019-03-16T10:36:20Z</time>
      </trkpt>
      <trkpt lat="41.9973880" lon="-0.6470830">
        <ele>332.4</ele>
        <time>2019-03-16T10:36:24Z</time>
      </trkpt>
      <trkpt lat="41.9973880" lon="-0.6470830">
        <ele>332.8</ele>
        <time>2019-03-16T10:36:28Z</time>
      </trkpt>
      <trkpt lat="41.9973880" lon="-0.6470830">
        <ele>332.8</ele>
        <time>2019-03-16T10:36:32Z</time>
      </trkpt>
      <trkpt lat="41.9973880" lon="-0.6470830">
        <ele>332.6</ele>
        <time>2019-03-16T10:36:36Z</time>
      </trkpt>
      <trkpt lat="41.9973880" lon="-0.6470830">
        <ele>332.4</ele>
        <time>2019-03-16T10:36:40Z</time>
      </trkpt>
      <trkpt lat="41.9973880" lon="-0.6470830">
        <ele>332.4</ele>
        <time>2019-03-16T10:36:44Z</time>
      </trkpt>
      <trkpt lat="41.9973880" lon="-0.6470830">
        <ele>332.2</ele>
        <time>2019-03-16T10:36:48Z</time>
      </trkpt>
      <trkpt lat="41.9973880" lon="-0.6470830">
        <ele>332.4</ele>
        <time>2019-03-16T10:36:52Z</time>
      </trkpt>
      <trkpt lat="41.9973880" lon="-0.6470830">
        <ele>332.4</ele>
        <time>2019-03-16T10:36:56Z</time>
      </trkpt>
      <trkpt lat="41.9973880" lon="-0.6470830">
        <ele>332.6</ele>
        <time>2019-03-16T10:37:00Z</time>
      </trkpt>
      <trkpt lat="41.9973880" lon="-0.6470830">
        <ele>332.6</ele>
        <time>2019-03-16T10:37:04Z</time>
      </trkpt>
      <trkpt lat="41.9973880" lon="-0.6470830">
        <ele>332.4</ele>
        <time>2019-03-16T10:37:08Z</time>
      </trkpt>
      <trkpt lat="41.9973880" lon="-0.6470830">
        <ele>332.6</ele>
        <time>2019-03-16T10:37:12Z</time>
      </trkpt>
      <trkpt lat="41.9973880" lon="-0.6470830">
        <ele>332.4</ele>
        <time>2019-03-16T10:37:16Z</time>
      </trkpt>
      <trkpt lat="41.9973880" lon="-0.6470830">
        <ele>332.6</ele>
        <time>2019-03-16T10:37:20Z</time>
      </trkpt>
      <trkpt lat="41.9973880" lon="-0.6470830">
        <ele>332.4</ele>
        <time>2019-03-16T10:37:24Z</time>
      </trkpt>
      <trkpt lat="41.9973880" lon="-0.6470830">
        <ele>332.4</ele>
        <time>2019-03-16T10:37:28Z</time>
      </trkpt>
      <trkpt lat="41.9973880" lon="-0.6470830">
        <ele>332.4</ele>
        <time>2019-03-16T10:37:32Z</time>
      </trkpt>
      <trkpt lat="41.9973880" lon="-0.6470830">
        <ele>332.2</ele>
        <time>2019-03-16T10:37:36Z</time>
      </trkpt>
      <trkpt lat="41.9973880" lon="-0.6470830">
        <ele>331.8</ele>
        <time>2019-03-16T10:37:40Z</time>
      </trkpt>
      <trkpt lat="41.9973880" lon="-0.6470830">
        <ele>332.4</ele>
        <time>2019-03-16T10:37:44Z</time>
      </trkpt>
      <trkpt lat="41.9973880" lon="-0.6470830">
        <ele>332.6</ele>
        <time>2019-03-16T10:37:48Z</time>
      </trkpt>
      <trkpt lat="41.9973880" lon="-0.6470830">
        <ele>332.6</ele>
        <time>2019-03-16T10:37:52Z</time>
      </trkpt>
      <trkpt lat="41.9973880" lon="-0.6470830">
        <ele>332.2</ele>
        <time>2019-03-16T10:37:56Z</time>
      </trkpt>
      <trkpt lat="41.9973880" lon="-0.6470830">
        <ele>332.8</ele>
        <time>2019-03-16T10:38:00Z</time>
      </trkpt>
      <trkpt lat="41.9973880" lon="-0.6470830">
        <ele>333.0</ele>
        <time>2019-03-16T10:38:04Z</time>
      </trkpt>
      <trkpt lat="41.9973880" lon="-0.6470830">
        <ele>332.6</ele>
        <time>2019-03-16T10:38:08Z</time>
      </trkpt>
      <trkpt lat="41.9973030" lon="-0.6471410">
        <ele>332.8</ele>
        <time>2019-03-16T10:38:12Z</time>
      </trkpt>
      <trkpt lat="41.9972830" lon="-0.6471300">
        <ele>332.4</ele>
        <time>2019-03-16T10:38:16Z</time>
      </trkpt>
      <trkpt lat="41.9972830" lon="-0.6471300">
        <ele>332.8</ele>
        <time>2019-03-16T10:38:20Z</time>
      </trkpt>
      <trkpt lat="41.9972830" lon="-0.6471300">
        <ele>332.8</ele>
        <time>2019-03-16T10:38:24Z</time>
      </trkpt>
      <trkpt lat="41.9972910" lon="-0.6471000">
        <ele>332.4</ele>
        <time>2019-03-16T10:38:28Z</time>
      </trkpt>
      <trkpt lat="41.9972510" lon="-0.6471560">
        <ele>332.8</ele>
        <time>2019-03-16T10:38:32Z</time>
      </trkpt>
      <trkpt lat="41.9973280" lon="-0.6472830">
        <ele>333.0</ele>
        <time>2019-03-16T10:38:36Z</time>
      </trkpt>
      <trkpt lat="41.9974000" lon="-0.6473130">
        <ele>332.4</ele>
        <time>2019-03-16T10:38:40Z</time>
      </trkpt>
      <trkpt lat="41.9974880" lon="-0.6474380">
        <ele>332.0</ele>
        <time>2019-03-16T10:38:44Z</time>
      </trkpt>
      <trkpt lat="41.9975850" lon="-0.6475680">
        <ele>332.4</ele>
        <time>2019-03-16T10:38:48Z</time>
      </trkpt>
      <trkpt lat="41.9976530" lon="-0.6476580">
        <ele>332.8</ele>
        <time>2019-03-16T10:38:52Z</time>
      </trkpt>
      <trkpt lat="41.9977680" lon="-0.6478150">
        <ele>332.0</ele>
        <time>2019-03-16T10:38:56Z</time>
      </trkpt>
      <trkpt lat="41.9979130" lon="-0.6479360">
        <ele>332.6</ele>
        <time>2019-03-16T10:39:00Z</time>
      </trkpt>
      <trkpt lat="41.9981010" lon="-0.6481050">
        <ele>331.8</ele>
        <time>2019-03-16T10:39:04Z</time>
      </trkpt>
      <trkpt lat="41.9982880" lon="-0.6483110">
        <ele>332.2</ele>
        <time>2019-03-16T10:39:08Z</time>
      </trkpt>
      <trkpt lat="41.9984510" lon="-0.6485360">
        <ele>332.2</ele>
        <time>2019-03-16T10:39:12Z</time>
      </trkpt>
      <trkpt lat="41.9986260" lon="-0.6487600">
        <ele>334.4</ele>
        <time>2019-03-16T10:39:16Z</time>
      </trkpt>
      <trkpt lat="41.9988030" lon="-0.6489310">
        <ele>332.4</ele>
        <time>2019-03-16T10:39:20Z</time>
      </trkpt>
      <trkpt lat="41.9989130" lon="-0.6489530">
        <ele>332.0</ele>
        <time>2019-03-16T10:39:24Z</time>
      </trkpt>
      <trkpt lat="41.9990200" lon="-0.6487810">
        <ele>332.6</ele>
        <time>2019-03-16T10:39:28Z</time>
      </trkpt>
      <trkpt lat="41.9991550" lon="-0.6485260">
        <ele>332.4</ele>
        <time>2019-03-16T10:39:32Z</time>
      </trkpt>
      <trkpt lat="41.9993100" lon="-0.6482480">
        <ele>332.8</ele>
        <time>2019-03-16T10:39:36Z</time>
      </trkpt>
      <trkpt lat="41.9994730" lon="-0.6479430">
        <ele>333.2</ele>
        <time>2019-03-16T10:39:40Z</time>
      </trkpt>
      <trkpt lat="41.9996460" lon="-0.6476230">
        <ele>334.6</ele>
        <time>2019-03-16T10:39:44Z</time>
      </trkpt>
      <trkpt lat="41.9998200" lon="-0.6473000">
        <ele>334.8</ele>
        <time>2019-03-16T10:39:48Z</time>
      </trkpt>
      <trkpt lat="41.9999860" lon="-0.6469800">
        <ele>335.6</ele>
        <time>2019-03-16T10:39:52Z</time>
      </trkpt>
      <trkpt lat="42.0001580" lon="-0.6466510">
        <ele>335.8</ele>
        <time>2019-03-16T10:39:56Z</time>
      </trkpt>
      <trkpt lat="42.0003360" lon="-0.6463200">
        <ele>336.4</ele>
        <time>2019-03-16T10:40:00Z</time>
      </trkpt>
      <trkpt lat="42.0005160" lon="-0.6459730">
        <ele>336.0</ele>
        <time>2019-03-16T10:40:04Z</time>
      </trkpt>
      <trkpt lat="42.0006980" lon="-0.6456180">
        <ele>335.4</ele>
        <time>2019-03-16T10:40:08Z</time>
      </trkpt>
      <trkpt lat="42.0008980" lon="-0.6452460">
        <ele>335.2</ele>
        <time>2019-03-16T10:40:12Z</time>
      </trkpt>
      <trkpt lat="42.0011030" lon="-0.6448680">
        <ele>334.2</ele>
        <time>2019-03-16T10:40:16Z</time>
      </trkpt>
      <trkpt lat="42.0013060" lon="-0.6444860">
        <ele>333.8</ele>
        <time>2019-03-16T10:40:20Z</time>
      </trkpt>
      <trkpt lat="42.0015060" lon="-0.6441080">
        <ele>334.0</ele>
        <time>2019-03-16T10:40:24Z</time>
      </trkpt>
      <trkpt lat="42.0017050" lon="-0.6437380">
        <ele>334.0</ele>
        <time>2019-03-16T10:40:28Z</time>
      </trkpt>
      <trkpt lat="42.0019000" lon="-0.6433800">
        <ele>334.0</ele>
        <time>2019-03-16T10:40:32Z</time>
      </trkpt>
      <trkpt lat="42.0020860" lon="-0.6430180">
        <ele>334.2</ele>
        <time>2019-03-16T10:40:36Z</time>
      </trkpt>
      <trkpt lat="42.0022730" lon="-0.6426750">
        <ele>333.8</ele>
        <time>2019-03-16T10:40:40Z</time>
      </trkpt>
      <trkpt lat="42.0024550" lon="-0.6423310">
        <ele>334.6</ele>
        <time>2019-03-16T10:40:44Z</time>
      </trkpt>
      <trkpt lat="42.0026350" lon="-0.6419910">
        <ele>334.6</ele>
        <time>2019-03-16T10:40:48Z</time>
      </trkpt>
      <trkpt lat="42.0028100" lon="-0.6416530">
        <ele>334.6</ele>
        <time>2019-03-16T10:40:52Z</time>
      </trkpt>
      <trkpt lat="42.0029900" lon="-0.6413200">
        <ele>334.8</ele>
        <time>2019-03-16T10:40:56Z</time>
      </trkpt>
      <trkpt lat="42.0031710" lon="-0.6409810">
        <ele>335.6</ele>
        <time>2019-03-16T10:41:00Z</time>
      </trkpt>
      <trkpt lat="42.0033500" lon="-0.6406400">
        <ele>335.2</ele>
        <time>2019-03-16T10:41:04Z</time>
      </trkpt>
      <trkpt lat="42.0035310" lon="-0.6403030">
        <ele>334.6</ele>
        <time>2019-03-16T10:41:08Z</time>
      </trkpt>
      <trkpt lat="42.0037080" lon="-0.6399650">
        <ele>335.2</ele>
        <time>2019-03-16T10:41:12Z</time>
      </trkpt>
      <trkpt lat="42.0038830" lon="-0.6396230">
        <ele>336.0</ele>
        <time>2019-03-16T10:41:16Z</time>
      </trkpt>
      <trkpt lat="42.0040660" lon="-0.6392850">
        <ele>336.0</ele>
        <time>2019-03-16T10:41:20Z</time>
      </trkpt>
      <trkpt lat="42.0042480" lon="-0.6389350">
        <ele>335.2</ele>
        <time>2019-03-16T10:41:24Z</time>
      </trkpt>
      <trkpt lat="42.0044350" lon="-0.6385830">
        <ele>335.0</ele>
        <time>2019-03-16T10:41:28Z</time>
      </trkpt>
      <trkpt lat="42.0046210" lon="-0.6382330">
        <ele>335.0</ele>
        <time>2019-03-16T10:41:32Z</time>
      </trkpt>
      <trkpt lat="42.0047960" lon="-0.6378780">
        <ele>335.6</ele>
        <time>2019-03-16T10:41:36Z</time>
      </trkpt>
      <trkpt lat="42.0049860" lon="-0.6375360">
        <ele>335.4</ele>
        <time>2019-03-16T10:41:40Z</time>
      </trkpt>
      <trkpt lat="42.0051660" lon="-0.6371930">
        <ele>336.0</ele>
        <time>2019-03-16T10:41:44Z</time>
      </trkpt>
      <trkpt lat="42.0053460" lon="-0.6368550">
        <ele>335.2</ele>
        <time>2019-03-16T10:41:48Z</time>
      </trkpt>
      <trkpt lat="42.0055250" lon="-0.6365150">
        <ele>335.6</ele>
        <time>2019-03-16T10:41:52Z</time>
      </trkpt>
      <trkpt lat="42.0057080" lon="-0.6361750">
        <ele>336.0</ele>
        <time>2019-03-16T10:41:56Z</time>
      </trkpt>
      <trkpt lat="42.0058880" lon="-0.6358300">
        <ele>336.4</ele>
        <time>2019-03-16T10:42:00Z</time>
      </trkpt>
      <trkpt lat="42.0060710" lon="-0.6354900">
        <ele>336.6</ele>
        <time>2019-03-16T10:42:04Z</time>
      </trkpt>
      <trkpt lat="42.0062480" lon="-0.6351500">
        <ele>336.6</ele>
        <time>2019-03-16T10:42:08Z</time>
      </trkpt>
      <trkpt lat="42.0064280" lon="-0.6348150">
        <ele>336.4</ele>
        <time>2019-03-16T10:42:12Z</time>
      </trkpt>
      <trkpt lat="42.0066060" lon="-0.6344760">
        <ele>336.2</ele>
        <time>2019-03-16T10:42:16Z</time>
      </trkpt>
      <trkpt lat="42.0067860" lon="-0.6341400">
        <ele>336.8</ele>
        <time>2019-03-16T10:42:20Z</time>
      </trkpt>
      <trkpt lat="42.0069660" lon="-0.6338030">
        <ele>336.8</ele>
        <time>2019-03-16T10:42:24Z</time>
      </trkpt>
      <trkpt lat="42.0071460" lon="-0.6334650">
        <ele>337.2</ele>
        <time>2019-03-16T10:42:28Z</time>
      </trkpt>
      <trkpt lat="42.0073250" lon="-0.6331200">
        <ele>337.0</ele>
        <time>2019-03-16T10:42:32Z</time>
      </trkpt>
      <trkpt lat="42.0075030" lon="-0.6327760">
        <ele>337.4</ele>
        <time>2019-03-16T10:42:36Z</time>
      </trkpt>
      <trkpt lat="42.0076850" lon="-0.6324350">
        <ele>337.0</ele>
        <time>2019-03-16T10:42:40Z</time>
      </trkpt>
      <trkpt lat="42.0078680" lon="-0.6320910">
        <ele>337.6</ele>
        <time>2019-03-16T10:42:44Z</time>
      </trkpt>
      <trkpt lat="42.0080510" lon="-0.6317510">
        <ele>337.2</ele>
        <time>2019-03-16T10:42:48Z</time>
      </trkpt>
      <trkpt lat="42.0082360" lon="-0.6314100">
        <ele>338.0</ele>
        <time>2019-03-16T10:42:52Z</time>
      </trkpt>
      <trkpt lat="42.0084150" lon="-0.6310610">
        <ele>338.2</ele>
        <time>2019-03-16T10:42:56Z</time>
      </trkpt>
      <trkpt lat="42.0085960" lon="-0.6307100">
        <ele>339.0</ele>
        <time>2019-03-16T10:43:00Z</time>
      </trkpt>
      <trkpt lat="42.0087710" lon="-0.6303580">
        <ele>339.4</ele>
        <time>2019-03-16T10:43:04Z</time>
      </trkpt>
      <trkpt lat="42.0089450" lon="-0.6300100">
        <ele>339.6</ele>
        <time>2019-03-16T10:43:08Z</time>
      </trkpt>
      <trkpt lat="42.0091330" lon="-0.6296610">
        <ele>340.4</ele>
        <time>2019-03-16T10:43:12Z</time>
      </trkpt>
      <trkpt lat="42.0093210" lon="-0.6293130">
        <ele>339.8</ele>
        <time>2019-03-16T10:43:16Z</time>
      </trkpt>
      <trkpt lat="42.0095080" lon="-0.6289630">
        <ele>339.6</ele>
        <time>2019-03-16T10:43:20Z</time>
      </trkpt>
      <trkpt lat="42.0096950" lon="-0.6286200">
        <ele>339.6</ele>
        <time>2019-03-16T10:43:24Z</time>
      </trkpt>
      <trkpt lat="42.0098800" lon="-0.6282730">
        <ele>340.4</ele>
        <time>2019-03-16T10:43:28Z</time>
      </trkpt>
      <trkpt lat="42.0100680" lon="-0.6279300">
        <ele>340.0</ele>
        <time>2019-03-16T10:43:32Z</time>
      </trkpt>
      <trkpt lat="42.0102560" lon="-0.6275830">
        <ele>340.0</ele>
        <time>2019-03-16T10:43:36Z</time>
      </trkpt>
      <trkpt lat="42.0104430" lon="-0.6272300">
        <ele>340.6</ele>
        <time>2019-03-16T10:43:40Z</time>
      </trkpt>
      <trkpt lat="42.0106150" lon="-0.6268960">
        <ele>341.6</ele>
        <time>2019-03-16T10:43:44Z</time>
      </trkpt>
      <trkpt lat="42.0107650" lon="-0.6266080">
        <ele>343.0</ele>
        <time>2019-03-16T10:43:48Z</time>
      </trkpt>
      <trkpt lat="42.0109110" lon="-0.6263360">
        <ele>344.4</ele>
        <time>2019-03-16T10:43:52Z</time>
      </trkpt>
      <trkpt lat="42.0110560" lon="-0.6260660">
        <ele>345.0</ele>
        <time>2019-03-16T10:43:56Z</time>
      </trkpt>
      <trkpt lat="42.0111960" lon="-0.6257910">
        <ele>346.8</ele>
        <time>2019-03-16T10:44:00Z</time>
      </trkpt>
      <trkpt lat="42.0113450" lon="-0.6255180">
        <ele>347.0</ele>
        <time>2019-03-16T10:44:04Z</time>
      </trkpt>
      <trkpt lat="42.0114950" lon="-0.6252360">
        <ele>347.6</ele>
        <time>2019-03-16T10:44:08Z</time>
      </trkpt>
      <trkpt lat="42.0116510" lon="-0.6249360">
        <ele>348.2</ele>
        <time>2019-03-16T10:44:12Z</time>
      </trkpt>
      <trkpt lat="42.0118160" lon="-0.6246260">
        <ele>349.0</ele>
        <time>2019-03-16T10:44:16Z</time>
      </trkpt>
      <trkpt lat="42.0119860" lon="-0.6243060">
        <ele>348.8</ele>
        <time>2019-03-16T10:44:20Z</time>
      </trkpt>
      <trkpt lat="42.0121580" lon="-0.6239750">
        <ele>348.8</ele>
        <time>2019-03-16T10:44:24Z</time>
      </trkpt>
      <trkpt lat="42.0123380" lon="-0.6236380">
        <ele>348.4</ele>
        <time>2019-03-16T10:44:28Z</time>
      </trkpt>
      <trkpt lat="42.0125250" lon="-0.6232950">
        <ele>347.6</ele>
        <time>2019-03-16T10:44:32Z</time>
      </trkpt>
      <trkpt lat="42.0127050" lon="-0.6229460">
        <ele>347.4</ele>
        <time>2019-03-16T10:44:36Z</time>
      </trkpt>
      <trkpt lat="42.0128830" lon="-0.6226060">
        <ele>347.6</ele>
        <time>2019-03-16T10:44:40Z</time>
      </trkpt>
      <trkpt lat="42.0130630" lon="-0.6222750">
        <ele>349.6</ele>
        <time>2019-03-16T10:44:44Z</time>
      </trkpt>
      <trkpt lat="42.0132380" lon="-0.6219430">
        <ele>349.8</ele>
        <time>2019-03-16T10:44:48Z</time>
      </trkpt>
      <trkpt lat="42.0134110" lon="-0.6216130">
        <ele>350.2</ele>
        <time>2019-03-16T10:44:52Z</time>
      </trkpt>
      <trkpt lat="42.0135850" lon="-0.6212860">
        <ele>351.6</ele>
        <time>2019-03-16T10:44:56Z</time>
      </trkpt>
      <trkpt lat="42.0137580" lon="-0.6209530">
        <ele>352.8</ele>
        <time>2019-03-16T10:45:00Z</time>
      </trkpt>
      <trkpt lat="42.0139400" lon="-0.6206200">
        <ele>352.0</ele>
        <time>2019-03-16T10:45:04Z</time>
      </trkpt>
      <trkpt lat="42.0141180" lon="-0.6202850">
        <ele>353.2</ele>
        <time>2019-03-16T10:45:08Z</time>
      </trkpt>
      <trkpt lat="42.0143010" lon="-0.6199430">
        <ele>353.2</ele>
        <time>2019-03-16T10:45:12Z</time>
      </trkpt>
      <trkpt lat="42.0144900" lon="-0.6195910">
        <ele>353.2</ele>
        <time>2019-03-16T10:45:16Z</time>
      </trkpt>
      <trkpt lat="42.0146810" lon="-0.6192330">
        <ele>353.6</ele>
        <time>2019-03-16T10:45:20Z</time>
      </trkpt>
      <trkpt lat="42.0148830" lon="-0.6188660">
        <ele>353.2</ele>
        <time>2019-03-16T10:45:24Z</time>
      </trkpt>
      <trkpt lat="42.0150930" lon="-0.6184810">
        <ele>352.8</ele>
        <time>2019-03-16T10:45:28Z</time>
      </trkpt>
      <trkpt lat="42.0153110" lon="-0.6180760">
        <ele>351.6</ele>
        <time>2019-03-16T10:45:32Z</time>
      </trkpt>
      <trkpt lat="42.0155400" lon="-0.6176560">
        <ele>350.4</ele>
        <time>2019-03-16T10:45:36Z</time>
      </trkpt>
      <trkpt lat="42.0157730" lon="-0.6172280">
        <ele>348.4</ele>
        <time>2019-03-16T10:45:40Z</time>
      </trkpt>
      <trkpt lat="42.0160030" lon="-0.6168010">
        <ele>346.8</ele>
        <time>2019-03-16T10:45:44Z</time>
      </trkpt>
      <trkpt lat="42.0162280" lon="-0.6163900">
        <ele>346.4</ele>
        <time>2019-03-16T10:45:48Z</time>
      </trkpt>
      <trkpt lat="42.0164410" lon="-0.6159910">
        <ele>346.8</ele>
        <time>2019-03-16T10:45:52Z</time>
      </trkpt>
      <trkpt lat="42.0166580" lon="-0.6155960">
        <ele>346.4</ele>
        <time>2019-03-16T10:45:56Z</time>
      </trkpt>
      <trkpt lat="42.0168710" lon="-0.6152010">
        <ele>346.0</ele>
        <time>2019-03-16T10:46:00Z</time>
      </trkpt>
      <trkpt lat="42.0170810" lon="-0.6148150">
        <ele>346.0</ele>
        <time>2019-03-16T10:46:04Z</time>
      </trkpt>
      <trkpt lat="42.0172860" lon="-0.6144350">
        <ele>347.4</ele>
        <time>2019-03-16T10:46:08Z</time>
      </trkpt>
      <trkpt lat="42.0174850" lon="-0.6140680">
        <ele>348.2</ele>
        <time>2019-03-16T10:46:12Z</time>
      </trkpt>
      <trkpt lat="42.0176650" lon="-0.6137230">
        <ele>349.0</ele>
        <time>2019-03-16T10:46:16Z</time>
      </trkpt>
      <trkpt lat="42.0178430" lon="-0.6134030">
        <ele>350.4</ele>
        <time>2019-03-16T10:46:20Z</time>
      </trkpt>
      <trkpt lat="42.0180180" lon="-0.6130950">
        <ele>350.8</ele>
        <time>2019-03-16T10:46:24Z</time>
      </trkpt>
      <trkpt lat="42.0181810" lon="-0.6127780">
        <ele>352.0</ele>
        <time>2019-03-16T10:46:28Z</time>
      </trkpt>
      <trkpt lat="42.0183480" lon="-0.6124600">
        <ele>353.0</ele>
        <time>2019-03-16T10:46:32Z</time>
      </trkpt>
      <trkpt lat="42.0185250" lon="-0.6121430">
        <ele>354.0</ele>
        <time>2019-03-16T10:46:36Z</time>
      </trkpt>
      <trkpt lat="42.0187000" lon="-0.6118280">
        <ele>354.2</ele>
        <time>2019-03-16T10:46:40Z</time>
      </trkpt>
      <trkpt lat="42.0188710" lon="-0.6115060">
        <ele>354.4</ele>
        <time>2019-03-16T10:46:44Z</time>
      </trkpt>
      <trkpt lat="42.0190510" lon="-0.6111830">
        <ele>353.6</ele>
        <time>2019-03-16T10:46:48Z</time>
      </trkpt>
      <trkpt lat="42.0192350" lon="-0.6108510">
        <ele>353.6</ele>
        <time>2019-03-16T10:46:52Z</time>
      </trkpt>
      <trkpt lat="42.0194210" lon="-0.6105150">
        <ele>354.4</ele>
        <time>2019-03-16T10:46:56Z</time>
      </trkpt>
      <trkpt lat="42.0196050" lon="-0.6101730">
        <ele>354.0</ele>
        <time>2019-03-16T10:47:00Z</time>
      </trkpt>
      <trkpt lat="42.0197910" lon="-0.6098350">
        <ele>354.6</ele>
        <time>2019-03-16T10:47:04Z</time>
      </trkpt>
      <trkpt lat="42.0199730" lon="-0.6094960">
        <ele>354.8</ele>
        <time>2019-03-16T10:47:08Z</time>
      </trkpt>
      <trkpt lat="42.0201550" lon="-0.6091560">
        <ele>354.6</ele>
        <time>2019-03-16T10:47:12Z</time>
      </trkpt>
      <trkpt lat="42.0203380" lon="-0.6088310">
        <ele>355.2</ele>
        <time>2019-03-16T10:47:16Z</time>
      </trkpt>
      <trkpt lat="42.0205150" lon="-0.6085060">
        <ele>356.0</ele>
        <time>2019-03-16T10:47:20Z</time>
      </trkpt>
      <trkpt lat="42.0206910" lon="-0.6081930">
        <ele>356.2</ele>
        <time>2019-03-16T10:47:24Z</time>
      </trkpt>
      <trkpt lat="42.0208580" lon="-0.6078800">
        <ele>357.6</ele>
        <time>2019-03-16T10:47:28Z</time>
      </trkpt>
      <trkpt lat="42.0210250" lon="-0.6075760">
        <ele>357.8</ele>
        <time>2019-03-16T10:47:32Z</time>
      </trkpt>
      <trkpt lat="42.0211950" lon="-0.6072710">
        <ele>358.8</ele>
        <time>2019-03-16T10:47:36Z</time>
      </trkpt>
      <trkpt lat="42.0213650" lon="-0.6069630">
        <ele>359.0</ele>
        <time>2019-03-16T10:47:40Z</time>
      </trkpt>
      <trkpt lat="42.0215360" lon="-0.6066480">
        <ele>359.4</ele>
        <time>2019-03-16T10:47:44Z</time>
      </trkpt>
      <trkpt lat="42.0217110" lon="-0.6063250">
        <ele>359.6</ele>
        <time>2019-03-16T10:47:48Z</time>
      </trkpt>
      <trkpt lat="42.0218960" lon="-0.6059910">
        <ele>359.2</ele>
        <time>2019-03-16T10:47:52Z</time>
      </trkpt>
      <trkpt lat="42.0220850" lon="-0.6056500">
        <ele>359.0</ele>
        <time>2019-03-16T10:47:56Z</time>
      </trkpt>
      <trkpt lat="42.0222780" lon="-0.6053030">
        <ele>359.4</ele>
        <time>2019-03-16T10:48:00Z</time>
      </trkpt>
      <trkpt lat="42.0224780" lon="-0.6049460">
        <ele>359.2</ele>
        <time>2019-03-16T10:48:04Z</time>
      </trkpt>
      <trkpt lat="42.0226760" lon="-0.6045860">
        <ele>358.8</ele>
        <time>2019-03-16T10:48:08Z</time>
      </trkpt>
      <trkpt lat="42.0228780" lon="-0.6042180">
        <ele>358.4</ele>
        <time>2019-03-16T10:48:12Z</time>
      </trkpt>
      <trkpt lat="42.0230830" lon="-0.6038500">
        <ele>359.0</ele>
        <time>2019-03-16T10:48:16Z</time>
      </trkpt>
      <trkpt lat="42.0232850" lon="-0.6034850">
        <ele>358.8</ele>
        <time>2019-03-16T10:48:20Z</time>
      </trkpt>
      <trkpt lat="42.0234850" lon="-0.6031260">
        <ele>358.4</ele>
        <time>2019-03-16T10:48:24Z</time>
      </trkpt>
      <trkpt lat="42.0236830" lon="-0.6027700">
        <ele>358.0</ele>
        <time>2019-03-16T10:48:28Z</time>
      </trkpt>
      <trkpt lat="42.0238800" lon="-0.6024100">
        <ele>359.0</ele>
        <time>2019-03-16T10:48:32Z</time>
      </trkpt>
      <trkpt lat="42.0240760" lon="-0.6020550">
        <ele>359.0</ele>
        <time>2019-03-16T10:48:36Z</time>
      </trkpt>
      <trkpt lat="42.0242750" lon="-0.6017060">
        <ele>359.4</ele>
        <time>2019-03-16T10:48:40Z</time>
      </trkpt>
      <trkpt lat="42.0244630" lon="-0.6013510">
        <ele>359.4</ele>
        <time>2019-03-16T10:48:44Z</time>
      </trkpt>
      <trkpt lat="42.0246530" lon="-0.6009960">
        <ele>360.4</ele>
        <time>2019-03-16T10:48:48Z</time>
      </trkpt>
      <trkpt lat="42.0248530" lon="-0.6006460">
        <ele>360.4</ele>
        <time>2019-03-16T10:48:52Z</time>
      </trkpt>
      <trkpt lat="42.0250460" lon="-0.6002910">
        <ele>360.6</ele>
        <time>2019-03-16T10:48:56Z</time>
      </trkpt>
      <trkpt lat="42.0252400" lon="-0.5999430">
        <ele>360.2</ele>
        <time>2019-03-16T10:49:00Z</time>
      </trkpt>
      <trkpt lat="42.0254310" lon="-0.5996000">
        <ele>361.4</ele>
        <time>2019-03-16T10:49:04Z</time>
      </trkpt>
      <trkpt lat="42.0256160" lon="-0.5992610">
        <ele>360.6</ele>
        <time>2019-03-16T10:49:08Z</time>
      </trkpt>
      <trkpt lat="42.0258050" lon="-0.5989210">
        <ele>360.4</ele>
        <time>2019-03-16T10:49:12Z</time>
      </trkpt>
      <trkpt lat="42.0259910" lon="-0.5985850">
        <ele>361.0</ele>
        <time>2019-03-16T10:49:16Z</time>
      </trkpt>
      <trkpt lat="42.0261730" lon="-0.5982550">
        <ele>361.4</ele>
        <time>2019-03-16T10:49:20Z</time>
      </trkpt>
      <trkpt lat="42.0263510" lon="-0.5979250">
        <ele>361.4</ele>
        <time>2019-03-16T10:49:24Z</time>
      </trkpt>
      <trkpt lat="42.0265350" lon="-0.5976030">
        <ele>362.0</ele>
        <time>2019-03-16T10:49:28Z</time>
      </trkpt>
      <trkpt lat="42.0267150" lon="-0.5972750">
        <ele>362.0</ele>
        <time>2019-03-16T10:49:32Z</time>
      </trkpt>
      <trkpt lat="42.0268950" lon="-0.5969450">
        <ele>361.6</ele>
        <time>2019-03-16T10:49:36Z</time>
      </trkpt>
      <trkpt lat="42.0270830" lon="-0.5966110">
        <ele>361.8</ele>
        <time>2019-03-16T10:49:40Z</time>
      </trkpt>
      <trkpt lat="42.0272660" lon="-0.5962760">
        <ele>361.6</ele>
        <time>2019-03-16T10:49:44Z</time>
      </trkpt>
      <trkpt lat="42.0274500" lon="-0.5959410">
        <ele>362.2</ele>
        <time>2019-03-16T10:49:48Z</time>
      </trkpt>
      <trkpt lat="42.0276300" lon="-0.5955980">
        <ele>362.4</ele>
        <time>2019-03-16T10:49:52Z</time>
      </trkpt>
      <trkpt lat="42.0278180" lon="-0.5952730">
        <ele>362.6</ele>
        <time>2019-03-16T10:49:56Z</time>
      </trkpt>
      <trkpt lat="42.0280000" lon="-0.5949450">
        <ele>363.0</ele>
        <time>2019-03-16T10:50:00Z</time>
      </trkpt>
      <trkpt lat="42.0281810" lon="-0.5946210">
        <ele>363.0</ele>
        <time>2019-03-16T10:50:04Z</time>
      </trkpt>
      <trkpt lat="42.0283560" lon="-0.5942960">
        <ele>363.6</ele>
        <time>2019-03-16T10:50:08Z</time>
      </trkpt>
      <trkpt lat="42.0285380" lon="-0.5939700">
        <ele>363.2</ele>
        <time>2019-03-16T10:50:12Z</time>
      </trkpt>
      <trkpt lat="42.0287180" lon="-0.5936410">
        <ele>363.8</ele>
        <time>2019-03-16T10:50:16Z</time>
      </trkpt>
      <trkpt lat="42.0289000" lon="-0.5933160">
        <ele>364.2</ele>
        <time>2019-03-16T10:50:20Z</time>
      </trkpt>
      <trkpt lat="42.0290780" lon="-0.5929830">
        <ele>364.4</ele>
        <time>2019-03-16T10:50:24Z</time>
      </trkpt>
      <trkpt lat="42.0292600" lon="-0.5926610">
        <ele>364.6</ele>
        <time>2019-03-16T10:50:28Z</time>
      </trkpt>
      <trkpt lat="42.0294430" lon="-0.5923360">
        <ele>365.6</ele>
        <time>2019-03-16T10:50:32Z</time>
      </trkpt>
      <trkpt lat="42.0296300" lon="-0.5920010">
        <ele>365.8</ele>
        <time>2019-03-16T10:50:36Z</time>
      </trkpt>
      <trkpt lat="42.0298150" lon="-0.5916650">
        <ele>366.0</ele>
        <time>2019-03-16T10:50:40Z</time>
      </trkpt>
      <trkpt lat="42.0300010" lon="-0.5913260">
        <ele>366.4</ele>
        <time>2019-03-16T10:50:44Z</time>
      </trkpt>
      <trkpt lat="42.0301900" lon="-0.5909800">
        <ele>366.8</ele>
        <time>2019-03-16T10:50:48Z</time>
      </trkpt>
      <trkpt lat="42.0303830" lon="-0.5906380">
        <ele>366.6</ele>
        <time>2019-03-16T10:50:52Z</time>
      </trkpt>
      <trkpt lat="42.0305710" lon="-0.5902780">
        <ele>366.8</ele>
        <time>2019-03-16T10:50:56Z</time>
      </trkpt>
      <trkpt lat="42.0307560" lon="-0.5898980">
        <ele>366.6</ele>
        <time>2019-03-16T10:51:00Z</time>
      </trkpt>
      <trkpt lat="42.0309150" lon="-0.5894930">
        <ele>366.4</ele>
        <time>2019-03-16T10:51:04Z</time>
      </trkpt>
      <trkpt lat="42.0310410" lon="-0.5890680">
        <ele>366.4</ele>
        <time>2019-03-16T10:51:08Z</time>
      </trkpt>
      <trkpt lat="42.0311430" lon="-0.5886260">
        <ele>366.4</ele>
        <time>2019-03-16T10:51:12Z</time>
      </trkpt>
      <trkpt lat="42.0312100" lon="-0.5881800">
        <ele>365.8</ele>
        <time>2019-03-16T10:51:16Z</time>
      </trkpt>
      <trkpt lat="42.0312630" lon="-0.5877400">
        <ele>366.0</ele>
        <time>2019-03-16T10:51:20Z</time>
      </trkpt>
      <trkpt lat="42.0313230" lon="-0.5873200">
        <ele>365.6</ele>
        <time>2019-03-16T10:51:24Z</time>
      </trkpt>
      <trkpt lat="42.0314050" lon="-0.5869180">
        <ele>365.8</ele>
        <time>2019-03-16T10:51:28Z</time>
      </trkpt>
      <trkpt lat="42.0315330" lon="-0.5865380">
        <ele>366.4</ele>
        <time>2019-03-16T10:51:32Z</time>
      </trkpt>
      <trkpt lat="42.0317100" lon="-0.5862010">
        <ele>366.6</ele>
        <time>2019-03-16T10:51:36Z</time>
      </trkpt>
      <trkpt lat="42.0319230" lon="-0.5859110">
        <ele>367.6</ele>
        <time>2019-03-16T10:51:40Z</time>
      </trkpt>
      <trkpt lat="42.0321630" lon="-0.5856730">
        <ele>368.2</ele>
        <time>2019-03-16T10:51:44Z</time>
      </trkpt>
      <trkpt lat="42.0324260" lon="-0.5854910">
        <ele>368.2</ele>
        <time>2019-03-16T10:51:48Z</time>
      </trkpt>
      <trkpt lat="42.0327180" lon="-0.5853330">
        <ele>369.2</ele>
        <time>2019-03-16T10:51:52Z</time>
      </trkpt>
      <trkpt lat="42.0330150" lon="-0.5851830">
        <ele>369.0</ele>
        <time>2019-03-16T10:51:56Z</time>
      </trkpt>
      <trkpt lat="42.0332930" lon="-0.5849880">
        <ele>369.8</ele>
        <time>2019-03-16T10:52:00Z</time>
      </trkpt>
      <trkpt lat="42.0335310" lon="-0.5847300">
        <ele>370.4</ele>
        <time>2019-03-16T10:52:04Z</time>
      </trkpt>
      <trkpt lat="42.0337360" lon="-0.5844330">
        <ele>370.6</ele>
        <time>2019-03-16T10:52:08Z</time>
      </trkpt>
      <trkpt lat="42.0339160" lon="-0.5841150">
        <ele>371.4</ele>
        <time>2019-03-16T10:52:12Z</time>
      </trkpt>
      <trkpt lat="42.0340780" lon="-0.5838060">
        <ele>372.0</ele>
        <time>2019-03-16T10:52:16Z</time>
      </trkpt>
      <trkpt lat="42.0342330" lon="-0.5835250">
        <ele>373.4</ele>
        <time>2019-03-16T10:52:20Z</time>
      </trkpt>
      <trkpt lat="42.0343860" lon="-0.5832410">
        <ele>373.6</ele>
        <time>2019-03-16T10:52:24Z</time>
      </trkpt>
      <trkpt lat="42.0345410" lon="-0.5829600">
        <ele>374.0</ele>
        <time>2019-03-16T10:52:28Z</time>
      </trkpt>
      <trkpt lat="42.0346950" lon="-0.5826750">
        <ele>374.6</ele>
        <time>2019-03-16T10:52:32Z</time>
      </trkpt>
      <trkpt lat="42.0348510" lon="-0.5823860">
        <ele>374.2</ele>
        <time>2019-03-16T10:52:36Z</time>
      </trkpt>
      <trkpt lat="42.0350110" lon="-0.5820980">
        <ele>374.6</ele>
        <time>2019-03-16T10:52:40Z</time>
      </trkpt>
      <trkpt lat="42.0351700" lon="-0.5818080">
        <ele>375.2</ele>
        <time>2019-03-16T10:52:44Z</time>
      </trkpt>
      <trkpt lat="42.0353310" lon="-0.5815200">
        <ele>375.8</ele>
        <time>2019-03-16T10:52:48Z</time>
      </trkpt>
      <trkpt lat="42.0354930" lon="-0.5812310">
        <ele>376.2</ele>
        <time>2019-03-16T10:52:52Z</time>
      </trkpt>
      <trkpt lat="42.0356510" lon="-0.5809380">
        <ele>376.4</ele>
        <time>2019-03-16T10:52:56Z</time>
      </trkpt>
      <trkpt lat="42.0358130" lon="-0.5806430">
        <ele>377.2</ele>
        <time>2019-03-16T10:53:00Z</time>
      </trkpt>
      <trkpt lat="42.0359780" lon="-0.5803430">
        <ele>378.2</ele>
        <time>2019-03-16T10:53:04Z</time>
      </trkpt>
      <trkpt lat="42.0361480" lon="-0.5800380">
        <ele>378.6</ele>
        <time>2019-03-16T10:53:08Z</time>
      </trkpt>
      <trkpt lat="42.0363180" lon="-0.5797310">
        <ele>378.4</ele>
        <time>2019-03-16T10:53:12Z</time>
      </trkpt>
      <trkpt lat="42.0364780" lon="-0.5794250">
        <ele>380.0</ele>
        <time>2019-03-16T10:53:16Z</time>
      </trkpt>
      <trkpt lat="42.0366380" lon="-0.5791300">
        <ele>380.0</ele>
        <time>2019-03-16T10:53:20Z</time>
      </trkpt>
      <trkpt lat="42.0367960" lon="-0.5788330">
        <ele>381.0</ele>
        <time>2019-03-16T10:53:24Z</time>
      </trkpt>
      <trkpt lat="42.0369610" lon="-0.5785380">
        <ele>381.4</ele>
        <time>2019-03-16T10:53:28Z</time>
      </trkpt>
      <trkpt lat="42.0371260" lon="-0.5782300">
        <ele>381.6</ele>
        <time>2019-03-16T10:53:32Z</time>
      </trkpt>
      <trkpt lat="42.0373010" lon="-0.5779100">
        <ele>381.8</ele>
        <time>2019-03-16T10:53:36Z</time>
      </trkpt>
      <trkpt lat="42.0374800" lon="-0.5775910">
        <ele>381.4</ele>
        <time>2019-03-16T10:53:40Z</time>
      </trkpt>
      <trkpt lat="42.0376560" lon="-0.5772780">
        <ele>381.6</ele>
        <time>2019-03-16T10:53:44Z</time>
      </trkpt>
      <trkpt lat="42.0378260" lon="-0.5769580">
        <ele>382.0</ele>
        <time>2019-03-16T10:53:48Z</time>
      </trkpt>
      <trkpt lat="42.0380000" lon="-0.5766360">
        <ele>381.8</ele>
        <time>2019-03-16T10:53:52Z</time>
      </trkpt>
      <trkpt lat="42.0381750" lon="-0.5763150">
        <ele>381.8</ele>
        <time>2019-03-16T10:53:56Z</time>
      </trkpt>
      <trkpt lat="42.0383500" lon="-0.5759900">
        <ele>381.6</ele>
        <time>2019-03-16T10:54:00Z</time>
      </trkpt>
      <trkpt lat="42.0385250" lon="-0.5756630">
        <ele>381.4</ele>
        <time>2019-03-16T10:54:04Z</time>
      </trkpt>
      <trkpt lat="42.0387010" lon="-0.5753380">
        <ele>381.4</ele>
        <time>2019-03-16T10:54:08Z</time>
      </trkpt>
      <trkpt lat="42.0388750" lon="-0.5750150">
        <ele>381.4</ele>
        <time>2019-03-16T10:54:12Z</time>
      </trkpt>
      <trkpt lat="42.0390510" lon="-0.5746910">
        <ele>382.2</ele>
        <time>2019-03-16T10:54:16Z</time>
      </trkpt>
      <trkpt lat="42.0392260" lon="-0.5743680">
        <ele>381.2</ele>
        <time>2019-03-16T10:54:20Z</time>
      </trkpt>
      <trkpt lat="42.0394010" lon="-0.5740450">
        <ele>381.2</ele>
        <time>2019-03-16T10:54:24Z</time>
      </trkpt>
      <trkpt lat="42.0395750" lon="-0.5737200">
        <ele>381.6</ele>
        <time>2019-03-16T10:54:28Z</time>
      </trkpt>
      <trkpt lat="42.0397460" lon="-0.5734060">
        <ele>382.8</ele>
        <time>2019-03-16T10:54:32Z</time>
      </trkpt>
      <trkpt lat="42.0399150" lon="-0.5730910">
        <ele>382.4</ele>
        <time>2019-03-16T10:54:36Z</time>
      </trkpt>
      <trkpt lat="42.0400850" lon="-0.5727780">
        <ele>382.2</ele>
        <time>2019-03-16T10:54:40Z</time>
      </trkpt>
      <trkpt lat="42.0402530" lon="-0.5724700">
        <ele>382.4</ele>
        <time>2019-03-16T10:54:44Z</time>
      </trkpt>
      <trkpt lat="42.0404200" lon="-0.5721600">
        <ele>383.8</ele>
        <time>2019-03-16T10:54:48Z</time>
      </trkpt>
      <trkpt lat="42.0405880" lon="-0.5718500">
        <ele>383.6</ele>
        <time>2019-03-16T10:54:52Z</time>
      </trkpt>
      <trkpt lat="42.0407560" lon="-0.5715360">
        <ele>383.8</ele>
        <time>2019-03-16T10:54:56Z</time>
      </trkpt>
      <trkpt lat="42.0409250" lon="-0.5712210">
        <ele>384.2</ele>
        <time>2019-03-16T10:55:00Z</time>
      </trkpt>
      <trkpt lat="42.0410930" lon="-0.5709030">
        <ele>384.0</ele>
        <time>2019-03-16T10:55:04Z</time>
      </trkpt>
      <trkpt lat="42.0412650" lon="-0.5705960">
        <ele>384.2</ele>
        <time>2019-03-16T10:55:08Z</time>
      </trkpt>
      <trkpt lat="42.0414310" lon="-0.5702780">
        <ele>385.0</ele>
        <time>2019-03-16T10:55:12Z</time>
      </trkpt>
      <trkpt lat="42.0416030" lon="-0.5699610">
        <ele>385.8</ele>
        <time>2019-03-16T10:55:16Z</time>
      </trkpt>
      <trkpt lat="42.0417760" lon="-0.5696480">
        <ele>385.2</ele>
        <time>2019-03-16T10:55:20Z</time>
      </trkpt>
      <trkpt lat="42.0419460" lon="-0.5693280">
        <ele>386.0</ele>
        <time>2019-03-16T10:55:24Z</time>
      </trkpt>
      <trkpt lat="42.0421180" lon="-0.5690050">
        <ele>385.8</ele>
        <time>2019-03-16T10:55:28Z</time>
      </trkpt>
      <trkpt lat="42.0422950" lon="-0.5686860">
        <ele>385.8</ele>
        <time>2019-03-16T10:55:32Z</time>
      </trkpt>
      <trkpt lat="42.0424660" lon="-0.5683630">
        <ele>386.2</ele>
        <time>2019-03-16T10:55:36Z</time>
      </trkpt>
      <trkpt lat="42.0426430" lon="-0.5680430">
        <ele>385.8</ele>
        <time>2019-03-16T10:55:40Z</time>
      </trkpt>
      <trkpt lat="42.0428130" lon="-0.5677130">
        <ele>386.8</ele>
        <time>2019-03-16T10:55:44Z</time>
      </trkpt>
      <trkpt lat="42.0429910" lon="-0.5673860">
        <ele>386.8</ele>
        <time>2019-03-16T10:55:48Z</time>
      </trkpt>
      <trkpt lat="42.0431700" lon="-0.5670550">
        <ele>387.2</ele>
        <time>2019-03-16T10:55:52Z</time>
      </trkpt>
      <trkpt lat="42.0433480" lon="-0.5667150">
        <ele>387.2</ele>
        <time>2019-03-16T10:55:56Z</time>
      </trkpt>
      <trkpt lat="42.0435280" lon="-0.5663850">
        <ele>388.0</ele>
        <time>2019-03-16T10:56:00Z</time>
      </trkpt>
      <trkpt lat="42.0437050" lon="-0.5660550">
        <ele>388.2</ele>
        <time>2019-03-16T10:56:04Z</time>
      </trkpt>
      <trkpt lat="42.0438850" lon="-0.5657310">
        <ele>388.0</ele>
        <time>2019-03-16T10:56:08Z</time>
      </trkpt>
      <trkpt lat="42.0440600" lon="-0.5654030">
        <ele>388.2</ele>
        <time>2019-03-16T10:56:12Z</time>
      </trkpt>
      <trkpt lat="42.0442360" lon="-0.5650750">
        <ele>388.2</ele>
        <time>2019-03-16T10:56:16Z</time>
      </trkpt>
      <trkpt lat="42.0444130" lon="-0.5647510">
        <ele>388.4</ele>
        <time>2019-03-16T10:56:20Z</time>
      </trkpt>
      <trkpt lat="42.0445860" lon="-0.5644310">
        <ele>389.0</ele>
        <time>2019-03-16T10:56:24Z</time>
      </trkpt>
      <trkpt lat="42.0447530" lon="-0.5641130">
        <ele>388.2</ele>
        <time>2019-03-16T10:56:28Z</time>
      </trkpt>
      <trkpt lat="42.0449200" lon="-0.5637980">
        <ele>389.2</ele>
        <time>2019-03-16T10:56:32Z</time>
      </trkpt>
      <trkpt lat="42.0450810" lon="-0.5634960">
        <ele>389.0</ele>
        <time>2019-03-16T10:56:36Z</time>
      </trkpt>
      <trkpt lat="42.0452430" lon="-0.5631960">
        <ele>390.0</ele>
        <time>2019-03-16T10:56:40Z</time>
      </trkpt>
      <trkpt lat="42.0454080" lon="-0.5628910">
        <ele>390.2</ele>
        <time>2019-03-16T10:56:44Z</time>
      </trkpt>
      <trkpt lat="42.0455710" lon="-0.5625830">
        <ele>390.0</ele>
        <time>2019-03-16T10:56:48Z</time>
      </trkpt>
      <trkpt lat="42.0457330" lon="-0.5622700">
        <ele>390.6</ele>
        <time>2019-03-16T10:56:52Z</time>
      </trkpt>
      <trkpt lat="42.0459060" lon="-0.5619610">
        <ele>390.8</ele>
        <time>2019-03-16T10:56:56Z</time>
      </trkpt>
      <trkpt lat="42.0460750" lon="-0.5616480">
        <ele>391.6</ele>
        <time>2019-03-16T10:57:00Z</time>
      </trkpt>
      <trkpt lat="42.0462450" lon="-0.5613300">
        <ele>392.4</ele>
        <time>2019-03-16T10:57:04Z</time>
      </trkpt>
      <trkpt lat="42.0464150" lon="-0.5610100">
        <ele>393.0</ele>
        <time>2019-03-16T10:57:08Z</time>
      </trkpt>
      <trkpt lat="42.0465860" lon="-0.5606910">
        <ele>393.6</ele>
        <time>2019-03-16T10:57:12Z</time>
      </trkpt>
      <trkpt lat="42.0467550" lon="-0.5603730">
        <ele>394.6</ele>
        <time>2019-03-16T10:57:16Z</time>
      </trkpt>
      <trkpt lat="42.0469260" lon="-0.5600560">
        <ele>394.4</ele>
        <time>2019-03-16T10:57:20Z</time>
      </trkpt>
      <trkpt lat="42.0470960" lon="-0.5597430">
        <ele>395.0</ele>
        <time>2019-03-16T10:57:24Z</time>
      </trkpt>
      <trkpt lat="42.0472660" lon="-0.5594310">
        <ele>395.2</ele>
        <time>2019-03-16T10:57:28Z</time>
      </trkpt>
      <trkpt lat="42.0474400" lon="-0.5591230">
        <ele>395.4</ele>
        <time>2019-03-16T10:57:32Z</time>
      </trkpt>
      <trkpt lat="42.0476050" lon="-0.5588110">
        <ele>395.8</ele>
        <time>2019-03-16T10:57:36Z</time>
      </trkpt>
      <trkpt lat="42.0477680" lon="-0.5585050">
        <ele>396.0</ele>
        <time>2019-03-16T10:57:40Z</time>
      </trkpt>
      <trkpt lat="42.0479280" lon="-0.5582030">
        <ele>396.8</ele>
        <time>2019-03-16T10:57:44Z</time>
      </trkpt>
      <trkpt lat="42.0480830" lon="-0.5579200">
        <ele>396.6</ele>
        <time>2019-03-16T10:57:48Z</time>
      </trkpt>
      <trkpt lat="42.0482400" lon="-0.5576260">
        <ele>397.2</ele>
        <time>2019-03-16T10:57:52Z</time>
      </trkpt>
      <trkpt lat="42.0484010" lon="-0.5573250">
        <ele>397.4</ele>
        <time>2019-03-16T10:57:56Z</time>
      </trkpt>
      <trkpt lat="42.0485610" lon="-0.5570230">
        <ele>397.4</ele>
        <time>2019-03-16T10:58:00Z</time>
      </trkpt>
      <trkpt lat="42.0487260" lon="-0.5567110">
        <ele>397.6</ele>
        <time>2019-03-16T10:58:04Z</time>
      </trkpt>
      <trkpt lat="42.0488950" lon="-0.5564030">
        <ele>398.0</ele>
        <time>2019-03-16T10:58:08Z</time>
      </trkpt>
      <trkpt lat="42.0490660" lon="-0.5560980">
        <ele>398.6</ele>
        <time>2019-03-16T10:58:12Z</time>
      </trkpt>
      <trkpt lat="42.0492300" lon="-0.5557830">
        <ele>398.2</ele>
        <time>2019-03-16T10:58:16Z</time>
      </trkpt>
      <trkpt lat="42.0493960" lon="-0.5554710">
        <ele>398.6</ele>
        <time>2019-03-16T10:58:20Z</time>
      </trkpt>
      <trkpt lat="42.0495630" lon="-0.5551580">
        <ele>399.4</ele>
        <time>2019-03-16T10:58:24Z</time>
      </trkpt>
      <trkpt lat="42.0497330" lon="-0.5548450">
        <ele>399.0</ele>
        <time>2019-03-16T10:58:28Z</time>
      </trkpt>
      <trkpt lat="42.0499050" lon="-0.5545260">
        <ele>398.8</ele>
        <time>2019-03-16T10:58:32Z</time>
      </trkpt>
      <trkpt lat="42.0500750" lon="-0.5542000">
        <ele>399.6</ele>
        <time>2019-03-16T10:58:36Z</time>
      </trkpt>
      <trkpt lat="42.0502560" lon="-0.5538760">
        <ele>400.0</ele>
        <time>2019-03-16T10:58:40Z</time>
      </trkpt>
      <trkpt lat="42.0504310" lon="-0.5535510">
        <ele>400.4</ele>
        <time>2019-03-16T10:58:44Z</time>
      </trkpt>
      <trkpt lat="42.0506010" lon="-0.5532280">
        <ele>400.2</ele>
        <time>2019-03-16T10:58:48Z</time>
      </trkpt>
      <trkpt lat="42.0507750" lon="-0.5529060">
        <ele>401.0</ele>
        <time>2019-03-16T10:58:52Z</time>
      </trkpt>
      <trkpt lat="42.0509480" lon="-0.5525880">
        <ele>401.8</ele>
        <time>2019-03-16T10:58:56Z</time>
      </trkpt>
      <trkpt lat="42.0511200" lon="-0.5522700">
        <ele>401.0</ele>
        <time>2019-03-16T10:59:00Z</time>
      </trkpt>
      <trkpt lat="42.0512900" lon="-0.5519530">
        <ele>401.6</ele>
        <time>2019-03-16T10:59:04Z</time>
      </trkpt>
      <trkpt lat="42.0514600" lon="-0.5516400">
        <ele>402.4</ele>
        <time>2019-03-16T10:59:08Z</time>
      </trkpt>
      <trkpt lat="42.0516280" lon="-0.5513250">
        <ele>402.4</ele>
        <time>2019-03-16T10:59:12Z</time>
      </trkpt>
      <trkpt lat="42.0517950" lon="-0.5510100">
        <ele>402.6</ele>
        <time>2019-03-16T10:59:16Z</time>
      </trkpt>
      <trkpt lat="42.0519650" lon="-0.5506960">
        <ele>403.2</ele>
        <time>2019-03-16T10:59:20Z</time>
      </trkpt>
      <trkpt lat="42.0521310" lon="-0.5503780">
        <ele>402.6</ele>
        <time>2019-03-16T10:59:24Z</time>
      </trkpt>
      <trkpt lat="42.0523050" lon="-0.5500660">
        <ele>402.8</ele>
        <time>2019-03-16T10:59:28Z</time>
      </trkpt>
      <trkpt lat="42.0524710" lon="-0.5497510">
        <ele>402.2</ele>
        <time>2019-03-16T10:59:32Z</time>
      </trkpt>
      <trkpt lat="42.0526380" lon="-0.5494410">
        <ele>402.6</ele>
        <time>2019-03-16T10:59:36Z</time>
      </trkpt>
      <trkpt lat="42.0528100" lon="-0.5491260">
        <ele>402.8</ele>
        <time>2019-03-16T10:59:40Z</time>
      </trkpt>
      <trkpt lat="42.0529750" lon="-0.5488080">
        <ele>403.0</ele>
        <time>2019-03-16T10:59:44Z</time>
      </trkpt>
      <trkpt lat="42.0531380" lon="-0.5485080">
        <ele>402.8</ele>
        <time>2019-03-16T10:59:48Z</time>
      </trkpt>
      <trkpt lat="42.0532800" lon="-0.5482260">
        <ele>404.2</ele>
        <time>2019-03-16T10:59:52Z</time>
      </trkpt>
      <trkpt lat="42.0534280" lon="-0.5479600">
        <ele>404.4</ele>
        <time>2019-03-16T10:59:56Z</time>
      </trkpt>
      <trkpt lat="42.0535730" lon="-0.5476860">
        <ele>405.2</ele>
        <time>2019-03-16T11:00:00Z</time>
      </trkpt>
      <trkpt lat="42.0537200" lon="-0.5474180">
        <ele>406.8</ele>
        <time>2019-03-16T11:00:04Z</time>
      </trkpt>
      <trkpt lat="42.0538630" lon="-0.5471530">
        <ele>407.2</ele>
        <time>2019-03-16T11:00:08Z</time>
      </trkpt>
      <trkpt lat="42.0540010" lon="-0.5468850">
        <ele>409.4</ele>
        <time>2019-03-16T11:00:12Z</time>
      </trkpt>
      <trkpt lat="42.0541530" lon="-0.5466180">
        <ele>409.8</ele>
        <time>2019-03-16T11:00:16Z</time>
      </trkpt>
      <trkpt lat="42.0542960" lon="-0.5463450">
        <ele>411.0</ele>
        <time>2019-03-16T11:00:20Z</time>
      </trkpt>
      <trkpt lat="42.0544480" lon="-0.5460710">
        <ele>412.2</ele>
        <time>2019-03-16T11:00:24Z</time>
      </trkpt>
      <trkpt lat="42.0545930" lon="-0.5457860">
        <ele>412.4</ele>
        <time>2019-03-16T11:00:28Z</time>
      </trkpt>
      <trkpt lat="42.0547510" lon="-0.5455130">
        <ele>413.0</ele>
        <time>2019-03-16T11:00:32Z</time>
      </trkpt>
      <trkpt lat="42.0549110" lon="-0.5452330">
        <ele>413.4</ele>
        <time>2019-03-16T11:00:36Z</time>
      </trkpt>
      <trkpt lat="42.0550580" lon="-0.5449360">
        <ele>414.2</ele>
        <time>2019-03-16T11:00:40Z</time>
      </trkpt>
      <trkpt lat="42.0552160" lon="-0.5446510">
        <ele>415.2</ele>
        <time>2019-03-16T11:00:44Z</time>
      </trkpt>
      <trkpt lat="42.0553660" lon="-0.5443750">
        <ele>415.6</ele>
        <time>2019-03-16T11:00:48Z</time>
      </trkpt>
      <trkpt lat="42.0555210" lon="-0.5441030">
        <ele>416.6</ele>
        <time>2019-03-16T11:00:52Z</time>
      </trkpt>
      <trkpt lat="42.0556850" lon="-0.5438360">
        <ele>416.6</ele>
        <time>2019-03-16T11:00:56Z</time>
      </trkpt>
      <trkpt lat="42.0558450" lon="-0.5435680">
        <ele>417.6</ele>
        <time>2019-03-16T11:01:00Z</time>
      </trkpt>
      <trkpt lat="42.0560080" lon="-0.5433110">
        <ele>418.0</ele>
        <time>2019-03-16T11:01:04Z</time>
      </trkpt>
      <trkpt lat="42.0561730" lon="-0.5430660">
        <ele>419.4</ele>
        <time>2019-03-16T11:01:08Z</time>
      </trkpt>
      <trkpt lat="42.0563400" lon="-0.5428210">
        <ele>420.2</ele>
        <time>2019-03-16T11:01:12Z</time>
      </trkpt>
      <trkpt lat="42.0565110" lon="-0.5425850">
        <ele>420.8</ele>
        <time>2019-03-16T11:01:16Z</time>
      </trkpt>
      <trkpt lat="42.0566900" lon="-0.5423730">
        <ele>421.2</ele>
        <time>2019-03-16T11:01:20Z</time>
      </trkpt>
      <trkpt lat="42.0568830" lon="-0.5421910">
        <ele>422.2</ele>
        <time>2019-03-16T11:01:24Z</time>
      </trkpt>
      <trkpt lat="42.0570850" lon="-0.5420350">
        <ele>423.8</ele>
        <time>2019-03-16T11:01:28Z</time>
      </trkpt>
      <trkpt lat="42.0572950" lon="-0.5419100">
        <ele>425.2</ele>
        <time>2019-03-16T11:01:32Z</time>
      </trkpt>
      <trkpt lat="42.0575110" lon="-0.5418150">
        <ele>425.8</ele>
        <time>2019-03-16T11:01:36Z</time>
      </trkpt>
      <trkpt lat="42.0577400" lon="-0.5417460">
        <ele>427.2</ele>
        <time>2019-03-16T11:01:40Z</time>
      </trkpt>
      <trkpt lat="42.0579730" lon="-0.5416930">
        <ele>426.4</ele>
        <time>2019-03-16T11:01:44Z</time>
      </trkpt>
      <trkpt lat="42.0582100" lon="-0.5416550">
        <ele>428.0</ele>
        <time>2019-03-16T11:01:48Z</time>
      </trkpt>
      <trkpt lat="42.0584460" lon="-0.5416160">
        <ele>428.0</ele>
        <time>2019-03-16T11:01:52Z</time>
      </trkpt>
      <trkpt lat="42.0586780" lon="-0.5415830">
        <ele>429.0</ele>
        <time>2019-03-16T11:01:56Z</time>
      </trkpt>
      <trkpt lat="42.0589100" lon="-0.5415250">
        <ele>429.8</ele>
        <time>2019-03-16T11:02:00Z</time>
      </trkpt>
      <trkpt lat="42.0591410" lon="-0.5414560">
        <ele>430.8</ele>
        <time>2019-03-16T11:02:04Z</time>
      </trkpt>
      <trkpt lat="42.0593680" lon="-0.5413600">
        <ele>431.6</ele>
        <time>2019-03-16T11:02:08Z</time>
      </trkpt>
      <trkpt lat="42.0595860" lon="-0.5412310">
        <ele>432.4</ele>
        <time>2019-03-16T11:02:12Z</time>
      </trkpt>
      <trkpt lat="42.0597900" lon="-0.5410750">
        <ele>433.8</ele>
        <time>2019-03-16T11:02:16Z</time>
      </trkpt>
      <trkpt lat="42.0599830" lon="-0.5409000">
        <ele>434.6</ele>
        <time>2019-03-16T11:02:20Z</time>
      </trkpt>
      <trkpt lat="42.0601630" lon="-0.5407060">
        <ele>435.2</ele>
        <time>2019-03-16T11:02:24Z</time>
      </trkpt>
      <trkpt lat="42.0603400" lon="-0.5405080">
        <ele>435.8</ele>
        <time>2019-03-16T11:02:28Z</time>
      </trkpt>
      <trkpt lat="42.0605110" lon="-0.5402930">
        <ele>436.6</ele>
        <time>2019-03-16T11:02:32Z</time>
      </trkpt>
      <trkpt lat="42.0606880" lon="-0.5400900">
        <ele>437.4</ele>
        <time>2019-03-16T11:02:36Z</time>
      </trkpt>
      <trkpt lat="42.0608610" lon="-0.5398810">
        <ele>438.4</ele>
        <time>2019-03-16T11:02:40Z</time>
      </trkpt>
      <trkpt lat="42.0610200" lon="-0.5396530">
        <ele>438.8</ele>
        <time>2019-03-16T11:02:44Z</time>
      </trkpt>
      <trkpt lat="42.0611610" lon="-0.5394100">
        <ele>439.6</ele>
        <time>2019-03-16T11:02:48Z</time>
      </trkpt>
      <trkpt lat="42.0613000" lon="-0.5391730">
        <ele>439.6</ele>
        <time>2019-03-16T11:02:52Z</time>
      </trkpt>
      <trkpt lat="42.0614080" lon="-0.5389250">
        <ele>439.6</ele>
        <time>2019-03-16T11:02:56Z</time>
      </trkpt>
      <trkpt lat="42.0615210" lon="-0.5386630">
        <ele>440.2</ele>
        <time>2019-03-16T11:03:00Z</time>
      </trkpt>
      <trkpt lat="42.0616180" lon="-0.5383900">
        <ele>441.8</ele>
        <time>2019-03-16T11:03:04Z</time>
      </trkpt>
      <trkpt lat="42.0617200" lon="-0.5381130">
        <ele>442.0</ele>
        <time>2019-03-16T11:03:08Z</time>
      </trkpt>
      <trkpt lat="42.0618210" lon="-0.5378360">
        <ele>442.8</ele>
        <time>2019-03-16T11:03:12Z</time>
      </trkpt>
      <trkpt lat="42.0619460" lon="-0.5375780">
        <ele>443.8</ele>
        <time>2019-03-16T11:03:16Z</time>
      </trkpt>
      <trkpt lat="42.0620880" lon="-0.5373210">
        <ele>444.2</ele>
        <time>2019-03-16T11:03:20Z</time>
      </trkpt>
      <trkpt lat="42.0622550" lon="-0.5370850">
        <ele>445.0</ele>
        <time>2019-03-16T11:03:24Z</time>
      </trkpt>
      <trkpt lat="42.0624410" lon="-0.5368760">
        <ele>446.2</ele>
        <time>2019-03-16T11:03:28Z</time>
      </trkpt>
      <trkpt lat="42.0626430" lon="-0.5366930">
        <ele>447.6</ele>
        <time>2019-03-16T11:03:32Z</time>
      </trkpt>
      <trkpt lat="42.0628500" lon="-0.5365180">
        <ele>447.8</ele>
        <time>2019-03-16T11:03:36Z</time>
      </trkpt>
      <trkpt lat="42.0630600" lon="-0.5363650">
        <ele>448.4</ele>
        <time>2019-03-16T11:03:40Z</time>
      </trkpt>
      <trkpt lat="42.0632760" lon="-0.5362150">
        <ele>449.2</ele>
        <time>2019-03-16T11:03:44Z</time>
      </trkpt>
      <trkpt lat="42.0634880" lon="-0.5360510">
        <ele>449.8</ele>
        <time>2019-03-16T11:03:48Z</time>
      </trkpt>
      <trkpt lat="42.0636810" lon="-0.5358550">
        <ele>451.0</ele>
        <time>2019-03-16T11:03:52Z</time>
      </trkpt>
      <trkpt lat="42.0638610" lon="-0.5356480">
        <ele>452.0</ele>
        <time>2019-03-16T11:03:56Z</time>
      </trkpt>
      <trkpt lat="42.0640300" lon="-0.5354150">
        <ele>453.0</ele>
        <time>2019-03-16T11:04:00Z</time>
      </trkpt>
      <trkpt lat="42.0641750" lon="-0.5351610">
        <ele>453.8</ele>
        <time>2019-03-16T11:04:04Z</time>
      </trkpt>
      <trkpt lat="42.0642900" lon="-0.5348860">
        <ele>455.0</ele>
        <time>2019-03-16T11:04:08Z</time>
      </trkpt>
      <trkpt lat="42.0643880" lon="-0.5346000">
        <ele>455.4</ele>
        <time>2019-03-16T11:04:12Z</time>
      </trkpt>
      <trkpt lat="42.0644550" lon="-0.5343110">
        <ele>456.2</ele>
        <time>2019-03-16T11:04:16Z</time>
      </trkpt>
      <trkpt lat="42.0645100" lon="-0.5340280">
        <ele>457.4</ele>
        <time>2019-03-16T11:04:20Z</time>
      </trkpt>
      <trkpt lat="42.0645650" lon="-0.5337380">
        <ele>457.6</ele>
        <time>2019-03-16T11:04:24Z</time>
      </trkpt>
      <trkpt lat="42.0646260" lon="-0.5334480">
        <ele>458.4</ele>
        <time>2019-03-16T11:04:28Z</time>
      </trkpt>
      <trkpt lat="42.0646980" lon="-0.5331580">
        <ele>459.2</ele>
        <time>2019-03-16T11:04:32Z</time>
      </trkpt>
      <trkpt lat="42.0647780" lon="-0.5328760">
        <ele>460.4</ele>
        <time>2019-03-16T11:04:36Z</time>
      </trkpt>
      <trkpt lat="42.0648880" lon="-0.5326060">
        <ele>460.6</ele>
        <time>2019-03-16T11:04:40Z</time>
      </trkpt>
      <trkpt lat="42.0650160" lon="-0.5323530">
        <ele>461.0</ele>
        <time>2019-03-16T11:04:44Z</time>
      </trkpt>
      <trkpt lat="42.0651560" lon="-0.5321130">
        <ele>463.0</ele>
        <time>2019-03-16T11:04:48Z</time>
      </trkpt>
      <trkpt lat="42.0653150" lon="-0.5318960">
        <ele>464.0</ele>
        <time>2019-03-16T11:04:52Z</time>
      </trkpt>
      <trkpt lat="42.0655000" lon="-0.5317130">
        <ele>464.4</ele>
        <time>2019-03-16T11:04:56Z</time>
      </trkpt>
      <trkpt lat="42.0656710" lon="-0.5315150">
        <ele>465.4</ele>
        <time>2019-03-16T11:05:00Z</time>
      </trkpt>
      <trkpt lat="42.0658480" lon="-0.5313330">
        <ele>466.2</ele>
        <time>2019-03-16T11:05:04Z</time>
      </trkpt>
      <trkpt lat="42.0660180" lon="-0.5311500">
        <ele>466.8</ele>
        <time>2019-03-16T11:05:08Z</time>
      </trkpt>
      <trkpt lat="42.0661850" lon="-0.5309560">
        <ele>466.8</ele>
        <time>2019-03-16T11:05:12Z</time>
      </trkpt>
      <trkpt lat="42.0663430" lon="-0.5307610">
        <ele>468.2</ele>
        <time>2019-03-16T11:05:16Z</time>
      </trkpt>
      <trkpt lat="42.0664900" lon="-0.5305500">
        <ele>469.2</ele>
        <time>2019-03-16T11:05:20Z</time>
      </trkpt>
      <trkpt lat="42.0666160" lon="-0.5303250">
        <ele>469.8</ele>
        <time>2019-03-16T11:05:24Z</time>
      </trkpt>
      <trkpt lat="42.0667300" lon="-0.5300910">
        <ele>470.8</ele>
        <time>2019-03-16T11:05:28Z</time>
      </trkpt>
      <trkpt lat="42.0668380" lon="-0.5298510">
        <ele>471.2</ele>
        <time>2019-03-16T11:05:32Z</time>
      </trkpt>
      <trkpt lat="42.0669300" lon="-0.5296010">
        <ele>472.6</ele>
        <time>2019-03-16T11:05:36Z</time>
      </trkpt>
      <trkpt lat="42.0670400" lon="-0.5293610">
        <ele>472.4</ele>
        <time>2019-03-16T11:05:40Z</time>
      </trkpt>
      <trkpt lat="42.0671450" lon="-0.5291130">
        <ele>473.8</ele>
        <time>2019-03-16T11:05:44Z</time>
      </trkpt>
      <trkpt lat="42.0672410" lon="-0.5288610">
        <ele>474.2</ele>
        <time>2019-03-16T11:05:48Z</time>
      </trkpt>
      <trkpt lat="42.0673410" lon="-0.5286200">
        <ele>475.2</ele>
        <time>2019-03-16T11:05:52Z</time>
      </trkpt>
      <trkpt lat="42.0674460" lon="-0.5283810">
        <ele>475.8</ele>
        <time>2019-03-16T11:05:56Z</time>
      </trkpt>
      <trkpt lat="42.0675530" lon="-0.5281300">
        <ele>475.8</ele>
        <time>2019-03-16T11:06:00Z</time>
      </trkpt>
      <trkpt lat="42.0676660" lon="-0.5278630">
        <ele>476.4</ele>
        <time>2019-03-16T11:06:04Z</time>
      </trkpt>
      <trkpt lat="42.0677780" lon="-0.5275810">
        <ele>477.4</ele>
        <time>2019-03-16T11:06:08Z</time>
      </trkpt>
      <trkpt lat="42.0678950" lon="-0.5272910">
        <ele>476.8</ele>
        <time>2019-03-16T11:06:12Z</time>
      </trkpt>
      <trkpt lat="42.0680160" lon="-0.5270100">
        <ele>477.6</ele>
        <time>2019-03-16T11:06:16Z</time>
      </trkpt>
      <trkpt lat="42.0681360" lon="-0.5267280">
        <ele>478.6</ele>
        <time>2019-03-16T11:06:20Z</time>
      </trkpt>
      <trkpt lat="42.0682480" lon="-0.5264400">
        <ele>479.4</ele>
        <time>2019-03-16T11:06:24Z</time>
      </trkpt>
      <trkpt lat="42.0683680" lon="-0.5261630">
        <ele>480.4</ele>
        <time>2019-03-16T11:06:28Z</time>
      </trkpt>
      <trkpt lat="42.0684830" lon="-0.5258850">
        <ele>481.2</ele>
        <time>2019-03-16T11:06:32Z</time>
      </trkpt>
      <trkpt lat="42.0686000" lon="-0.5256130">
        <ele>481.4</ele>
        <time>2019-03-16T11:06:36Z</time>
      </trkpt>
      <trkpt lat="42.0687080" lon="-0.5253400">
        <ele>481.6</ele>
        <time>2019-03-16T11:06:40Z</time>
      </trkpt>
      <trkpt lat="42.0688160" lon="-0.5250680">
        <ele>481.6</ele>
        <time>2019-03-16T11:06:44Z</time>
      </trkpt>
      <trkpt lat="42.0689380" lon="-0.5247910">
        <ele>482.0</ele>
        <time>2019-03-16T11:06:48Z</time>
      </trkpt>
      <trkpt lat="42.0690600" lon="-0.5245060">
        <ele>482.2</ele>
        <time>2019-03-16T11:06:52Z</time>
      </trkpt>
      <trkpt lat="42.0691830" lon="-0.5242160">
        <ele>483.0</ele>
        <time>2019-03-16T11:06:56Z</time>
      </trkpt>
      <trkpt lat="42.0692980" lon="-0.5239210">
        <ele>483.6</ele>
        <time>2019-03-16T11:07:00Z</time>
      </trkpt>
      <trkpt lat="42.0694210" lon="-0.5236360">
        <ele>484.2</ele>
        <time>2019-03-16T11:07:04Z</time>
      </trkpt>
      <trkpt lat="42.0695410" lon="-0.5233480">
        <ele>484.8</ele>
        <time>2019-03-16T11:07:08Z</time>
      </trkpt>
      <trkpt lat="42.0696560" lon="-0.5230510">
        <ele>484.6</ele>
        <time>2019-03-16T11:07:12Z</time>
      </trkpt>
      <trkpt lat="42.0697760" lon="-0.5227580">
        <ele>485.6</ele>
        <time>2019-03-16T11:07:16Z</time>
      </trkpt>
      <trkpt lat="42.0699100" lon="-0.5224650">
        <ele>485.8</ele>
        <time>2019-03-16T11:07:20Z</time>
      </trkpt>
      <trkpt lat="42.0700350" lon="-0.5221650">
        <ele>485.6</ele>
        <time>2019-03-16T11:07:24Z</time>
      </trkpt>
      <trkpt lat="42.0701580" lon="-0.5218630">
        <ele>485.8</ele>
        <time>2019-03-16T11:07:28Z</time>
      </trkpt>
      <trkpt lat="42.0702810" lon="-0.5215630">
        <ele>486.2</ele>
        <time>2019-03-16T11:07:32Z</time>
      </trkpt>
      <trkpt lat="42.0703960" lon="-0.5212530">
        <ele>486.8</ele>
        <time>2019-03-16T11:07:36Z</time>
      </trkpt>
      <trkpt lat="42.0705000" lon="-0.5209310">
        <ele>487.4</ele>
        <time>2019-03-16T11:07:40Z</time>
      </trkpt>
      <trkpt lat="42.0705710" lon="-0.5205980">
        <ele>487.2</ele>
        <time>2019-03-16T11:07:44Z</time>
      </trkpt>
      <trkpt lat="42.0706230" lon="-0.5202580">
        <ele>487.6</ele>
        <time>2019-03-16T11:07:48Z</time>
      </trkpt>
      <trkpt lat="42.0706480" lon="-0.5199200">
        <ele>489.8</ele>
        <time>2019-03-16T11:07:52Z</time>
      </trkpt>
      <trkpt lat="42.0706600" lon="-0.5195910">
        <ele>490.0</ele>
        <time>2019-03-16T11:07:56Z</time>
      </trkpt>
      <trkpt lat="42.0706450" lon="-0.5192830">
        <ele>490.0</ele>
        <time>2019-03-16T11:08:00Z</time>
      </trkpt>
      <trkpt lat="42.0706230" lon="-0.5189650">
        <ele>490.4</ele>
        <time>2019-03-16T11:08:04Z</time>
      </trkpt>
      <trkpt lat="42.0705910" lon="-0.5186400">
        <ele>491.4</ele>
        <time>2019-03-16T11:08:08Z</time>
      </trkpt>
      <trkpt lat="42.0705610" lon="-0.5183010">
        <ele>491.8</ele>
        <time>2019-03-16T11:08:12Z</time>
      </trkpt>
      <trkpt lat="42.0705350" lon="-0.5179600">
        <ele>492.6</ele>
        <time>2019-03-16T11:08:16Z</time>
      </trkpt>
      <trkpt lat="42.0705000" lon="-0.5176210">
        <ele>493.2</ele>
        <time>2019-03-16T11:08:20Z</time>
      </trkpt>
      <trkpt lat="42.0704700" lon="-0.5172780">
        <ele>494.0</ele>
        <time>2019-03-16T11:08:24Z</time>
      </trkpt>
      <trkpt lat="42.0704350" lon="-0.5169400">
        <ele>494.6</ele>
        <time>2019-03-16T11:08:28Z</time>
      </trkpt>
      <trkpt lat="42.0704080" lon="-0.5166010">
        <ele>495.0</ele>
        <time>2019-03-16T11:08:32Z</time>
      </trkpt>
      <trkpt lat="42.0703810" lon="-0.5162600">
        <ele>496.2</ele>
        <time>2019-03-16T11:08:36Z</time>
      </trkpt>
      <trkpt lat="42.0703510" lon="-0.5159150">
        <ele>495.8</ele>
        <time>2019-03-16T11:08:40Z</time>
      </trkpt>
      <trkpt lat="42.0703210" lon="-0.5155660">
        <ele>496.8</ele>
        <time>2019-03-16T11:08:44Z</time>
      </trkpt>
      <trkpt lat="42.0702830" lon="-0.5152180">
        <ele>497.2</ele>
        <time>2019-03-16T11:08:48Z</time>
      </trkpt>
      <trkpt lat="42.0702600" lon="-0.5148630">
        <ele>497.8</ele>
        <time>2019-03-16T11:08:52Z</time>
      </trkpt>
      <trkpt lat="42.0702310" lon="-0.5145050">
        <ele>498.4</ele>
        <time>2019-03-16T11:08:56Z</time>
      </trkpt>
      <trkpt lat="42.0702000" lon="-0.5141410">
        <ele>498.0</ele>
        <time>2019-03-16T11:09:00Z</time>
      </trkpt>
      <trkpt lat="42.0701680" lon="-0.5137750">
        <ele>498.2</ele>
        <time>2019-03-16T11:09:04Z</time>
      </trkpt>
      <trkpt lat="42.0701380" lon="-0.5134100">
        <ele>499.2</ele>
        <time>2019-03-16T11:09:08Z</time>
      </trkpt>
      <trkpt lat="42.0701050" lon="-0.5130410">
        <ele>499.0</ele>
        <time>2019-03-16T11:09:12Z</time>
      </trkpt>
      <trkpt lat="42.0700730" lon="-0.5126650">
        <ele>498.4</ele>
        <time>2019-03-16T11:09:16Z</time>
      </trkpt>
      <trkpt lat="42.0700360" lon="-0.5122930">
        <ele>499.6</ele>
        <time>2019-03-16T11:09:20Z</time>
      </trkpt>
      <trkpt lat="42.0700110" lon="-0.5119200">
        <ele>499.4</ele>
        <time>2019-03-16T11:09:24Z</time>
      </trkpt>
      <trkpt lat="42.0700050" lon="-0.5115430">
        <ele>499.8</ele>
        <time>2019-03-16T11:09:28Z</time>
      </trkpt>
      <trkpt lat="42.0700330" lon="-0.5111710">
        <ele>500.4</ele>
        <time>2019-03-16T11:09:32Z</time>
      </trkpt>
      <trkpt lat="42.0700910" lon="-0.5108110">
        <ele>500.2</ele>
        <time>2019-03-16T11:09:36Z</time>
      </trkpt>
      <trkpt lat="42.0701830" lon="-0.5104710">
        <ele>499.2</ele>
        <time>2019-03-16T11:09:40Z</time>
      </trkpt>
      <trkpt lat="42.0702980" lon="-0.5101150">
        <ele>500.0</ele>
        <time>2019-03-16T11:09:44Z</time>
      </trkpt>
      <trkpt lat="42.0704430" lon="-0.5097700">
        <ele>499.0</ele>
        <time>2019-03-16T11:09:48Z</time>
      </trkpt>
      <trkpt lat="42.0705930" lon="-0.5094200">
        <ele>499.4</ele>
        <time>2019-03-16T11:09:52Z</time>
      </trkpt>
      <trkpt lat="42.0707350" lon="-0.5090830">
        <ele>499.2</ele>
        <time>2019-03-16T11:09:56Z</time>
      </trkpt>
      <trkpt lat="42.0708660" lon="-0.5087610">
        <ele>498.6</ele>
        <time>2019-03-16T11:10:00Z</time>
      </trkpt>
      <trkpt lat="42.0710100" lon="-0.5084200">
        <ele>497.4</ele>
        <time>2019-03-16T11:10:04Z</time>
      </trkpt>
      <trkpt lat="42.0711550" lon="-0.5080500">
        <ele>497.0</ele>
        <time>2019-03-16T11:10:08Z</time>
      </trkpt>
      <trkpt lat="42.0713110" lon="-0.5076500">
        <ele>495.4</ele>
        <time>2019-03-16T11:10:12Z</time>
      </trkpt>
      <trkpt lat="42.0714680" lon="-0.5072200">
        <ele>495.2</ele>
        <time>2019-03-16T11:10:16Z</time>
      </trkpt>
      <trkpt lat="42.0716210" lon="-0.5067700">
        <ele>493.8</ele>
        <time>2019-03-16T11:10:20Z</time>
      </trkpt>
      <trkpt lat="42.0717810" lon="-0.5063130">
        <ele>491.8</ele>
        <time>2019-03-16T11:10:24Z</time>
      </trkpt>
      <trkpt lat="42.0719550" lon="-0.5058310">
        <ele>490.4</ele>
        <time>2019-03-16T11:10:28Z</time>
      </trkpt>
      <trkpt lat="42.0721450" lon="-0.5053330">
        <ele>487.8</ele>
        <time>2019-03-16T11:10:32Z</time>
      </trkpt>
      <trkpt lat="42.0723550" lon="-0.5048330">
        <ele>485.4</ele>
        <time>2019-03-16T11:10:36Z</time>
      </trkpt>
      <trkpt lat="42.0725810" lon="-0.5043310">
        <ele>482.8</ele>
        <time>2019-03-16T11:10:40Z</time>
      </trkpt>
      <trkpt lat="42.0728260" lon="-0.5038130">
        <ele>479.8</ele>
        <time>2019-03-16T11:10:44Z</time>
      </trkpt>
      <trkpt lat="42.0730930" lon="-0.5032860">
        <ele>477.4</ele>
        <time>2019-03-16T11:10:48Z</time>
      </trkpt>
      <trkpt lat="42.0733780" lon="-0.5027530">
        <ele>473.2</ele>
        <time>2019-03-16T11:10:52Z</time>
      </trkpt>
      <trkpt lat="42.0736650" lon="-0.5022130">
        <ele>470.4</ele>
        <time>2019-03-16T11:10:56Z</time>
      </trkpt>
      <trkpt lat="42.0739580" lon="-0.5016550">
        <ele>466.8</ele>
        <time>2019-03-16T11:11:00Z</time>
      </trkpt>
      <trkpt lat="42.0742610" lon="-0.5010810">
        <ele>462.4</ele>
        <time>2019-03-16T11:11:04Z</time>
      </trkpt>
      <trkpt lat="42.0745660" lon="-0.5005000">
        <ele>457.6</ele>
        <time>2019-03-16T11:11:08Z</time>
      </trkpt>
      <trkpt lat="42.0748700" lon="-0.4999360">
        <ele>456.8</ele>
        <time>2019-03-16T11:11:12Z</time>
      </trkpt>
      <trkpt lat="42.0751810" lon="-0.4994350">
        <ele>456.2</ele>
        <time>2019-03-16T11:11:16Z</time>
      </trkpt>
      <trkpt lat="42.0755330" lon="-0.4990210">
        <ele>455.0</ele>
        <time>2019-03-16T11:11:20Z</time>
      </trkpt>
      <trkpt lat="42.0759300" lon="-0.4987150">
        <ele>453.4</ele>
        <time>2019-03-16T11:11:24Z</time>
      </trkpt>
      <trkpt lat="42.0763460" lon="-0.4984560">
        <ele>451.8</ele>
        <time>2019-03-16T11:11:28Z</time>
      </trkpt>
      <trkpt lat="42.0767510" lon="-0.4982080">
        <ele>451.2</ele>
        <time>2019-03-16T11:11:32Z</time>
      </trkpt>
      <trkpt lat="42.0771350" lon="-0.4979710">
        <ele>449.4</ele>
        <time>2019-03-16T11:11:36Z</time>
      </trkpt>
      <trkpt lat="42.0775000" lon="-0.4977480">
        <ele>449.8</ele>
        <time>2019-03-16T11:11:40Z</time>
      </trkpt>
      <trkpt lat="42.0778450" lon="-0.4975230">
        <ele>449.8</ele>
        <time>2019-03-16T11:11:44Z</time>
      </trkpt>
      <trkpt lat="42.0781630" lon="-0.4972730">
        <ele>449.6</ele>
        <time>2019-03-16T11:11:48Z</time>
      </trkpt>
      <trkpt lat="42.0784450" lon="-0.4969530">
        <ele>449.6</ele>
        <time>2019-03-16T11:11:52Z</time>
      </trkpt>
      <trkpt lat="42.0786910" lon="-0.4965780">
        <ele>449.4</ele>
        <time>2019-03-16T11:11:56Z</time>
      </trkpt>
      <trkpt lat="42.0788980" lon="-0.4961560">
        <ele>448.2</ele>
        <time>2019-03-16T11:12:00Z</time>
      </trkpt>
      <trkpt lat="42.0791010" lon="-0.4957210">
        <ele>448.0</ele>
        <time>2019-03-16T11:12:04Z</time>
      </trkpt>
      <trkpt lat="42.0792960" lon="-0.4952900">
        <ele>448.2</ele>
        <time>2019-03-16T11:12:08Z</time>
      </trkpt>
      <trkpt lat="42.0794880" lon="-0.4948860">
        <ele>449.6</ele>
        <time>2019-03-16T11:12:12Z</time>
      </trkpt>
      <trkpt lat="42.0796860" lon="-0.4944980">
        <ele>448.2</ele>
        <time>2019-03-16T11:12:16Z</time>
      </trkpt>
      <trkpt lat="42.0799330" lon="-0.4941380">
        <ele>447.6</ele>
        <time>2019-03-16T11:12:20Z</time>
      </trkpt>
      <trkpt lat="42.0802200" lon="-0.4938250">
        <ele>445.6</ele>
        <time>2019-03-16T11:12:24Z</time>
      </trkpt>
      <trkpt lat="42.0805400" lon="-0.4935850">
        <ele>446.0</ele>
        <time>2019-03-16T11:12:28Z</time>
      </trkpt>
      <trkpt lat="42.0808880" lon="-0.4933960">
        <ele>443.2</ele>
        <time>2019-03-16T11:12:32Z</time>
      </trkpt>
      <trkpt lat="42.0812450" lon="-0.4932180">
        <ele>441.0</ele>
        <time>2019-03-16T11:12:36Z</time>
      </trkpt>
      <trkpt lat="42.0816080" lon="-0.4930360">
        <ele>439.6</ele>
        <time>2019-03-16T11:12:40Z</time>
      </trkpt>
      <trkpt lat="42.0819760" lon="-0.4928530">
        <ele>438.2</ele>
        <time>2019-03-16T11:12:44Z</time>
      </trkpt>
      <trkpt lat="42.0823530" lon="-0.4926700">
        <ele>438.0</ele>
        <time>2019-03-16T11:12:48Z</time>
      </trkpt>
      <trkpt lat="42.0827380" lon="-0.4925000">
        <ele>437.4</ele>
        <time>2019-03-16T11:12:52Z</time>
      </trkpt>
      <trkpt lat="42.0831230" lon="-0.4923460">
        <ele>436.8</ele>
        <time>2019-03-16T11:12:56Z</time>
      </trkpt>
      <trkpt lat="42.0835100" lon="-0.4922100">
        <ele>436.8</ele>
        <time>2019-03-16T11:13:00Z</time>
      </trkpt>
      <trkpt lat="42.0838880" lon="-0.4920900">
        <ele>435.2</ele>
        <time>2019-03-16T11:13:04Z</time>
      </trkpt>
      <trkpt lat="42.0842600" lon="-0.4919780">
        <ele>435.8</ele>
        <time>2019-03-16T11:13:08Z</time>
      </trkpt>
      <trkpt lat="42.0846250" lon="-0.4918600">
        <ele>434.4</ele>
        <time>2019-03-16T11:13:12Z</time>
      </trkpt>
      <trkpt lat="42.0849800" lon="-0.4916980">
        <ele>434.0</ele>
        <time>2019-03-16T11:13:16Z</time>
      </trkpt>
      <trkpt lat="42.0853110" lon="-0.4914410">
        <ele>434.6</ele>
        <time>2019-03-16T11:13:20Z</time>
      </trkpt>
      <trkpt lat="42.0856180" lon="-0.4911060">
        <ele>433.2</ele>
        <time>2019-03-16T11:13:24Z</time>
      </trkpt>
      <trkpt lat="42.0858880" lon="-0.4906760">
        <ele>431.0</ele>
        <time>2019-03-16T11:13:28Z</time>
      </trkpt>
      <trkpt lat="42.0861000" lon="-0.4901760">
        <ele>428.2</ele>
        <time>2019-03-16T11:13:32Z</time>
      </trkpt>
      <trkpt lat="42.0862680" lon="-0.4896360">
        <ele>427.4</ele>
        <time>2019-03-16T11:13:36Z</time>
      </trkpt>
      <trkpt lat="42.0864260" lon="-0.4890910">
        <ele>425.4</ele>
        <time>2019-03-16T11:13:40Z</time>
      </trkpt>
      <trkpt lat="42.0865880" lon="-0.4885550">
        <ele>424.2</ele>
        <time>2019-03-16T11:13:44Z</time>
      </trkpt>
      <trkpt lat="42.0867580" lon="-0.4880280">
        <ele>423.0</ele>
        <time>2019-03-16T11:13:48Z</time>
      </trkpt>
      <trkpt lat="42.0869310" lon="-0.4875160">
        <ele>422.0</ele>
        <time>2019-03-16T11:13:52Z</time>
      </trkpt>
      <trkpt lat="42.0871110" lon="-0.4870200">
        <ele>422.0</ele>
        <time>2019-03-16T11:13:56Z</time>
      </trkpt>
      <trkpt lat="42.0873010" lon="-0.4865230">
        <ele>421.0</ele>
        <time>2019-03-16T11:14:00Z</time>
      </trkpt>
      <trkpt lat="42.0874910" lon="-0.4860180">
        <ele>420.2</ele>
        <time>2019-03-16T11:14:04Z</time>
      </trkpt>
      <trkpt lat="42.0876830" lon="-0.4855180">
        <ele>419.8</ele>
        <time>2019-03-16T11:14:08Z</time>
      </trkpt>
      <trkpt lat="42.0878710" lon="-0.4850200">
        <ele>417.8</ele>
        <time>2019-03-16T11:14:12Z</time>
      </trkpt>
      <trkpt lat="42.0880550" lon="-0.4845300">
        <ele>417.4</ele>
        <time>2019-03-16T11:14:16Z</time>
      </trkpt>
      <trkpt lat="42.0882360" lon="-0.4840550">
        <ele>416.2</ele>
        <time>2019-03-16T11:14:20Z</time>
      </trkpt>
      <trkpt lat="42.0884010" lon="-0.4835880">
        <ele>416.4</ele>
        <time>2019-03-16T11:14:24Z</time>
      </trkpt>
      <trkpt lat="42.0885660" lon="-0.4831310">
        <ele>416.0</ele>
        <time>2019-03-16T11:14:28Z</time>
      </trkpt>
      <trkpt lat="42.0887210" lon="-0.4826650">
        <ele>415.6</ele>
        <time>2019-03-16T11:14:32Z</time>
      </trkpt>
      <trkpt lat="42.0888260" lon="-0.4821760">
        <ele>414.6</ele>
        <time>2019-03-16T11:14:36Z</time>
      </trkpt>
      <trkpt lat="42.0888750" lon="-0.4816960">
        <ele>415.2</ele>
        <time>2019-03-16T11:14:40Z</time>
      </trkpt>
      <trkpt lat="42.0888630" lon="-0.4812180">
        <ele>414.8</ele>
        <time>2019-03-16T11:14:44Z</time>
      </trkpt>
      <trkpt lat="42.0888150" lon="-0.4807350">
        <ele>414.6</ele>
        <time>2019-03-16T11:14:48Z</time>
      </trkpt>
      <trkpt lat="42.0887810" lon="-0.4802380">
        <ele>413.0</ele>
        <time>2019-03-16T11:14:52Z</time>
      </trkpt>
      <trkpt lat="42.0888030" lon="-0.4797110">
        <ele>410.6</ele>
        <time>2019-03-16T11:14:56Z</time>
      </trkpt>
      <trkpt lat="42.0889360" lon="-0.4791760">
        <ele>408.8</ele>
        <time>2019-03-16T11:15:00Z</time>
      </trkpt>
      <trkpt lat="42.0891950" lon="-0.4787100">
        <ele>405.6</ele>
        <time>2019-03-16T11:15:04Z</time>
      </trkpt>
      <trkpt lat="42.0895110" lon="-0.4783110">
        <ele>403.4</ele>
        <time>2019-03-16T11:15:08Z</time>
      </trkpt>
      <trkpt lat="42.0898300" lon="-0.4779550">
        <ele>403.2</ele>
        <time>2019-03-16T11:15:12Z</time>
      </trkpt>
      <trkpt lat="42.0901380" lon="-0.4776330">
        <ele>402.8</ele>
        <time>2019-03-16T11:15:16Z</time>
      </trkpt>
      <trkpt lat="42.0904480" lon="-0.4773550">
        <ele>402.4</ele>
        <time>2019-03-16T11:15:20Z</time>
      </trkpt>
      <trkpt lat="42.0907560" lon="-0.4771000">
        <ele>402.4</ele>
        <time>2019-03-16T11:15:24Z</time>
      </trkpt>
      <trkpt lat="42.0910650" lon="-0.4768650">
        <ele>403.2</ele>
        <time>2019-03-16T11:15:28Z</time>
      </trkpt>
      <trkpt lat="42.0913810" lon="-0.4766600">
        <ele>402.8</ele>
        <time>2019-03-16T11:15:32Z</time>
      </trkpt>
      <trkpt lat="42.0917110" lon="-0.4765130">
        <ele>402.6</ele>
        <time>2019-03-16T11:15:36Z</time>
      </trkpt>
      <trkpt lat="42.0920510" lon="-0.4764130">
        <ele>402.0</ele>
        <time>2019-03-16T11:15:40Z</time>
      </trkpt>
      <trkpt lat="42.0923950" lon="-0.4763160">
        <ele>401.4</ele>
        <time>2019-03-16T11:15:44Z</time>
      </trkpt>
      <trkpt lat="42.0927350" lon="-0.4761930">
        <ele>400.8</ele>
        <time>2019-03-16T11:15:48Z</time>
      </trkpt>
      <trkpt lat="42.0930600" lon="-0.4760050">
        <ele>400.4</ele>
        <time>2019-03-16T11:15:52Z</time>
      </trkpt>
      <trkpt lat="42.0933610" lon="-0.4757530">
        <ele>400.8</ele>
        <time>2019-03-16T11:15:56Z</time>
      </trkpt>
      <trkpt lat="42.0936250" lon="-0.4754330">
        <ele>400.6</ele>
        <time>2019-03-16T11:16:00Z</time>
      </trkpt>
      <trkpt lat="42.0938650" lon="-0.4750760">
        <ele>400.0</ele>
        <time>2019-03-16T11:16:04Z</time>
      </trkpt>
      <trkpt lat="42.0941080" lon="-0.4747160">
        <ele>400.2</ele>
        <time>2019-03-16T11:16:08Z</time>
      </trkpt>
      <trkpt lat="42.0943500" lon="-0.4743560">
        <ele>399.2</ele>
        <time>2019-03-16T11:16:12Z</time>
      </trkpt>
      <trkpt lat="42.0945900" lon="-0.4739980">
        <ele>399.2</ele>
        <time>2019-03-16T11:16:16Z</time>
      </trkpt>
      <trkpt lat="42.0948280" lon="-0.4736300">
        <ele>399.2</ele>
        <time>2019-03-16T11:16:20Z</time>
      </trkpt>
      <trkpt lat="42.0950710" lon="-0.4732660">
        <ele>399.6</ele>
        <time>2019-03-16T11:16:24Z</time>
      </trkpt>
      <trkpt lat="42.0953210" lon="-0.4729060">
        <ele>399.4</ele>
        <time>2019-03-16T11:16:28Z</time>
      </trkpt>
      <trkpt lat="42.0955660" lon="-0.4725330">
        <ele>398.4</ele>
        <time>2019-03-16T11:16:32Z</time>
      </trkpt>
      <trkpt lat="42.0958130" lon="-0.4721650">
        <ele>398.0</ele>
        <time>2019-03-16T11:16:36Z</time>
      </trkpt>
      <trkpt lat="42.0960600" lon="-0.4717950">
        <ele>398.0</ele>
        <time>2019-03-16T11:16:40Z</time>
      </trkpt>
      <trkpt lat="42.0963100" lon="-0.4714280">
        <ele>397.6</ele>
        <time>2019-03-16T11:16:44Z</time>
      </trkpt>
      <trkpt lat="42.0965560" lon="-0.4710560">
        <ele>396.8</ele>
        <time>2019-03-16T11:16:48Z</time>
      </trkpt>
      <trkpt lat="42.0967860" lon="-0.4706780">
        <ele>396.8</ele>
        <time>2019-03-16T11:16:52Z</time>
      </trkpt>
      <trkpt lat="42.0970050" lon="-0.4702950">
        <ele>396.6</ele>
        <time>2019-03-16T11:16:56Z</time>
      </trkpt>
      <trkpt lat="42.0972130" lon="-0.4699210">
        <ele>397.6</ele>
        <time>2019-03-16T11:17:00Z</time>
      </trkpt>
      <trkpt lat="42.0974080" lon="-0.4695460">
        <ele>397.4</ele>
        <time>2019-03-16T11:17:04Z</time>
      </trkpt>
      <trkpt lat="42.0975960" lon="-0.4691650">
        <ele>397.8</ele>
        <time>2019-03-16T11:17:08Z</time>
      </trkpt>
      <trkpt lat="42.0977800" lon="-0.4687850">
        <ele>398.6</ele>
        <time>2019-03-16T11:17:12Z</time>
      </trkpt>
      <trkpt lat="42.0979560" lon="-0.4684100">
        <ele>399.4</ele>
        <time>2019-03-16T11:17:16Z</time>
      </trkpt>
      <trkpt lat="42.0981260" lon="-0.4680400">
        <ele>399.2</ele>
        <time>2019-03-16T11:17:20Z</time>
      </trkpt>
      <trkpt lat="42.0982900" lon="-0.4676710">
        <ele>400.8</ele>
        <time>2019-03-16T11:17:24Z</time>
      </trkpt>
      <trkpt lat="42.0984460" lon="-0.4673000">
        <ele>400.8</ele>
        <time>2019-03-16T11:17:28Z</time>
      </trkpt>
      <trkpt lat="42.0985960" lon="-0.4669280">
        <ele>401.8</ele>
        <time>2019-03-16T11:17:32Z</time>
      </trkpt>
      <trkpt lat="42.0987410" lon="-0.4665600">
        <ele>402.0</ele>
        <time>2019-03-16T11:17:36Z</time>
      </trkpt>
      <trkpt lat="42.0988810" lon="-0.4661900">
        <ele>402.4</ele>
        <time>2019-03-16T11:17:40Z</time>
      </trkpt>
      <trkpt lat="42.0990300" lon="-0.4658230">
        <ele>402.4</ele>
        <time>2019-03-16T11:17:44Z</time>
      </trkpt>
      <trkpt lat="42.0992080" lon="-0.4654780">
        <ele>402.2</ele>
        <time>2019-03-16T11:17:48Z</time>
      </trkpt>
      <trkpt lat="42.0994430" lon="-0.4651860">
        <ele>401.8</ele>
        <time>2019-03-16T11:17:52Z</time>
      </trkpt>
      <trkpt lat="42.0997250" lon="-0.4649730">
        <ele>402.4</ele>
        <time>2019-03-16T11:17:56Z</time>
      </trkpt>
      <trkpt lat="42.1000430" lon="-0.4648480">
        <ele>401.2</ele>
        <time>2019-03-16T11:18:00Z</time>
      </trkpt>
      <trkpt lat="42.1003800" lon="-0.4648210">
        <ele>402.0</ele>
        <time>2019-03-16T11:18:04Z</time>
      </trkpt>
      <trkpt lat="42.1007150" lon="-0.4647810">
        <ele>402.4</ele>
        <time>2019-03-16T11:18:08Z</time>
      </trkpt>
      <trkpt lat="42.1010450" lon="-0.4647660">
        <ele>403.2</ele>
        <time>2019-03-16T11:18:12Z</time>
      </trkpt>
      <trkpt lat="42.1013600" lon="-0.4647210">
        <ele>404.2</ele>
        <time>2019-03-16T11:18:16Z</time>
      </trkpt>
      <trkpt lat="42.1016550" lon="-0.4646210">
        <ele>405.8</ele>
        <time>2019-03-16T11:18:20Z</time>
      </trkpt>
      <trkpt lat="42.1019260" lon="-0.4644650">
        <ele>407.8</ele>
        <time>2019-03-16T11:18:24Z</time>
      </trkpt>
      <trkpt lat="42.1021530" lon="-0.4642350">
        <ele>409.2</ele>
        <time>2019-03-16T11:18:28Z</time>
      </trkpt>
      <trkpt lat="42.1023280" lon="-0.4639530">
        <ele>411.6</ele>
        <time>2019-03-16T11:18:32Z</time>
      </trkpt>
      <trkpt lat="42.1024500" lon="-0.4636480">
        <ele>412.6</ele>
        <time>2019-03-16T11:18:36Z</time>
      </trkpt>
      <trkpt lat="42.1025330" lon="-0.4633700">
        <ele>415.2</ele>
        <time>2019-03-16T11:18:40Z</time>
      </trkpt>
      <trkpt lat="42.1026030" lon="-0.4630980">
        <ele>416.0</ele>
        <time>2019-03-16T11:18:44Z</time>
      </trkpt>
      <trkpt lat="42.1026810" lon="-0.4628350">
        <ele>416.8</ele>
        <time>2019-03-16T11:18:48Z</time>
      </trkpt>
      <trkpt lat="42.1027700" lon="-0.4625850">
        <ele>417.6</ele>
        <time>2019-03-16T11:18:52Z</time>
      </trkpt>
      <trkpt lat="42.1028700" lon="-0.4623410">
        <ele>419.4</ele>
        <time>2019-03-16T11:18:56Z</time>
      </trkpt>
      <trkpt lat="42.1029830" lon="-0.4621080">
        <ele>420.4</ele>
        <time>2019-03-16T11:19:00Z</time>
      </trkpt>
      <trkpt lat="42.1031050" lon="-0.4618760">
        <ele>420.6</ele>
        <time>2019-03-16T11:19:04Z</time>
      </trkpt>
      <trkpt lat="42.1032430" lon="-0.4616560">
        <ele>421.8</ele>
        <time>2019-03-16T11:19:08Z</time>
      </trkpt>
      <trkpt lat="42.1033810" lon="-0.4614350">
        <ele>422.4</ele>
        <time>2019-03-16T11:19:12Z</time>
      </trkpt>
      <trkpt lat="42.1035150" lon="-0.4612050">
        <ele>422.4</ele>
        <time>2019-03-16T11:19:16Z</time>
      </trkpt>
      <trkpt lat="42.1036530" lon="-0.4609780">
        <ele>424.0</ele>
        <time>2019-03-16T11:19:20Z</time>
      </trkpt>
      <trkpt lat="42.1037980" lon="-0.4607530">
        <ele>424.4</ele>
        <time>2019-03-16T11:19:24Z</time>
      </trkpt>
      <trkpt lat="42.1039450" lon="-0.4605310">
        <ele>425.4</ele>
        <time>2019-03-16T11:19:28Z</time>
      </trkpt>
      <trkpt lat="42.1040960" lon="-0.4603130">
        <ele>425.8</ele>
        <time>2019-03-16T11:19:32Z</time>
      </trkpt>
      <trkpt lat="42.1042460" lon="-0.4601030">
        <ele>427.2</ele>
        <time>2019-03-16T11:19:36Z</time>
      </trkpt>
      <trkpt lat="42.1044010" lon="-0.4599030">
        <ele>427.8</ele>
        <time>2019-03-16T11:19:40Z</time>
      </trkpt>
      <trkpt lat="42.1045560" lon="-0.4596880">
        <ele>428.0</ele>
        <time>2019-03-16T11:19:44Z</time>
      </trkpt>
      <trkpt lat="42.1047350" lon="-0.4594780">
        <ele>428.4</ele>
        <time>2019-03-16T11:19:48Z</time>
      </trkpt>
      <trkpt lat="42.1049250" lon="-0.4592660">
        <ele>429.8</ele>
        <time>2019-03-16T11:19:52Z</time>
      </trkpt>
      <trkpt lat="42.1051160" lon="-0.4590460">
        <ele>431.0</ele>
        <time>2019-03-16T11:19:56Z</time>
      </trkpt>
      <trkpt lat="42.1053150" lon="-0.4588210">
        <ele>431.4</ele>
        <time>2019-03-16T11:20:00Z</time>
      </trkpt>
      <trkpt lat="42.1055050" lon="-0.4586000">
        <ele>432.2</ele>
        <time>2019-03-16T11:20:04Z</time>
      </trkpt>
      <trkpt lat="42.1056930" lon="-0.4583750">
        <ele>432.8</ele>
        <time>2019-03-16T11:20:08Z</time>
      </trkpt>
      <trkpt lat="42.1058850" lon="-0.4581460">
        <ele>433.4</ele>
        <time>2019-03-16T11:20:12Z</time>
      </trkpt>
      <trkpt lat="42.1060880" lon="-0.4579210">
        <ele>433.6</ele>
        <time>2019-03-16T11:20:16Z</time>
      </trkpt>
      <trkpt lat="42.1062980" lon="-0.4576900">
        <ele>434.8</ele>
        <time>2019-03-16T11:20:20Z</time>
      </trkpt>
      <trkpt lat="42.1065200" lon="-0.4574610">
        <ele>434.6</ele>
        <time>2019-03-16T11:20:24Z</time>
      </trkpt>
      <trkpt lat="42.1067580" lon="-0.4572280">
        <ele>435.0</ele>
        <time>2019-03-16T11:20:28Z</time>
      </trkpt>
      <trkpt lat="42.1070080" lon="-0.4569960">
        <ele>435.2</ele>
        <time>2019-03-16T11:20:32Z</time>
      </trkpt>
      <trkpt lat="42.1072600" lon="-0.4567530">
        <ele>435.2</ele>
        <time>2019-03-16T11:20:36Z</time>
      </trkpt>
      <trkpt lat="42.1075100" lon="-0.4565150">
        <ele>435.0</ele>
        <time>2019-03-16T11:20:40Z</time>
      </trkpt>
      <trkpt lat="42.1077600" lon="-0.4562730">
        <ele>436.2</ele>
        <time>2019-03-16T11:20:44Z</time>
      </trkpt>
      <trkpt lat="42.1080060" lon="-0.4560160">
        <ele>435.8</ele>
        <time>2019-03-16T11:20:48Z</time>
      </trkpt>
      <trkpt lat="42.1082500" lon="-0.4557530">
        <ele>436.4</ele>
        <time>2019-03-16T11:20:52Z</time>
      </trkpt>
      <trkpt lat="42.1084850" lon="-0.4554810">
        <ele>436.6</ele>
        <time>2019-03-16T11:20:56Z</time>
      </trkpt>
      <trkpt lat="42.1087230" lon="-0.4552030">
        <ele>437.2</ele>
        <time>2019-03-16T11:21:00Z</time>
      </trkpt>
      <trkpt lat="42.1089600" lon="-0.4549110">
        <ele>437.4</ele>
        <time>2019-03-16T11:21:04Z</time>
      </trkpt>
      <trkpt lat="42.1091930" lon="-0.4546050">
        <ele>437.2</ele>
        <time>2019-03-16T11:21:08Z</time>
      </trkpt>
      <trkpt lat="42.1094200" lon="-0.4542860">
        <ele>436.8</ele>
        <time>2019-03-16T11:21:12Z</time>
      </trkpt>
      <trkpt lat="42.1096450" lon="-0.4539650">
        <ele>437.2</ele>
        <time>2019-03-16T11:21:16Z</time>
      </trkpt>
      <trkpt lat="42.1098650" lon="-0.4536360">
        <ele>437.6</ele>
        <time>2019-03-16T11:21:20Z</time>
      </trkpt>
      <trkpt lat="42.1100780" lon="-0.4532950">
        <ele>437.8</ele>
        <time>2019-03-16T11:21:24Z</time>
      </trkpt>
      <trkpt lat="42.1102800" lon="-0.4529500">
        <ele>437.6</ele>
        <time>2019-03-16T11:21:28Z</time>
      </trkpt>
      <trkpt lat="42.1104800" lon="-0.4526150">
        <ele>438.0</ele>
        <time>2019-03-16T11:21:32Z</time>
      </trkpt>
      <trkpt lat="42.1106730" lon="-0.4522830">
        <ele>438.4</ele>
        <time>2019-03-16T11:21:36Z</time>
      </trkpt>
      <trkpt lat="42.1108750" lon="-0.4519680">
        <ele>438.4</ele>
        <time>2019-03-16T11:21:40Z</time>
      </trkpt>
      <trkpt lat="42.1110930" lon="-0.4516730">
        <ele>438.4</ele>
        <time>2019-03-16T11:21:44Z</time>
      </trkpt>
      <trkpt lat="42.1113250" lon="-0.4513930">
        <ele>438.8</ele>
        <time>2019-03-16T11:21:48Z</time>
      </trkpt>
      <trkpt lat="42.1115660" lon="-0.4511150">
        <ele>439.2</ele>
        <time>2019-03-16T11:21:52Z</time>
      </trkpt>
      <trkpt lat="42.1118060" lon="-0.4508430">
        <ele>439.0</ele>
        <time>2019-03-16T11:21:56Z</time>
      </trkpt>
      <trkpt lat="42.1120380" lon="-0.4505630">
        <ele>439.4</ele>
        <time>2019-03-16T11:22:00Z</time>
      </trkpt>
      <trkpt lat="42.1122510" lon="-0.4502650">
        <ele>439.6</ele>
        <time>2019-03-16T11:22:04Z</time>
      </trkpt>
      <trkpt lat="42.1124480" lon="-0.4499600">
        <ele>440.2</ele>
        <time>2019-03-16T11:22:08Z</time>
      </trkpt>
      <trkpt lat="42.1126430" lon="-0.4496460">
        <ele>440.8</ele>
        <time>2019-03-16T11:22:12Z</time>
      </trkpt>
      <trkpt lat="42.1128360" lon="-0.4493410">
        <ele>441.4</ele>
        <time>2019-03-16T11:22:16Z</time>
      </trkpt>
      <trkpt lat="42.1130230" lon="-0.4490450">
        <ele>441.6</ele>
        <time>2019-03-16T11:22:20Z</time>
      </trkpt>
      <trkpt lat="42.1132100" lon="-0.4487480">
        <ele>441.8</ele>
        <time>2019-03-16T11:22:24Z</time>
      </trkpt>
      <trkpt lat="42.1133950" lon="-0.4484500">
        <ele>442.4</ele>
        <time>2019-03-16T11:22:28Z</time>
      </trkpt>
      <trkpt lat="42.1135800" lon="-0.4481510">
        <ele>443.2</ele>
        <time>2019-03-16T11:22:32Z</time>
      </trkpt>
      <trkpt lat="42.1137650" lon="-0.4478480">
        <ele>443.0</ele>
        <time>2019-03-16T11:22:36Z</time>
      </trkpt>
      <trkpt lat="42.1139530" lon="-0.4475460">
        <ele>443.2</ele>
        <time>2019-03-16T11:22:40Z</time>
      </trkpt>
      <trkpt lat="42.1141450" lon="-0.4472450">
        <ele>443.6</ele>
        <time>2019-03-16T11:22:44Z</time>
      </trkpt>
      <trkpt lat="42.1143360" lon="-0.4469360">
        <ele>443.8</ele>
        <time>2019-03-16T11:22:48Z</time>
      </trkpt>
      <trkpt lat="42.1145300" lon="-0.4466310">
        <ele>443.6</ele>
        <time>2019-03-16T11:22:52Z</time>
      </trkpt>
      <trkpt lat="42.1147200" lon="-0.4463200">
        <ele>444.2</ele>
        <time>2019-03-16T11:22:56Z</time>
      </trkpt>
      <trkpt lat="42.1149080" lon="-0.4460150">
        <ele>444.0</ele>
        <time>2019-03-16T11:23:00Z</time>
      </trkpt>
      <trkpt lat="42.1150950" lon="-0.4457100">
        <ele>444.8</ele>
        <time>2019-03-16T11:23:04Z</time>
      </trkpt>
      <trkpt lat="42.1152660" lon="-0.4453980">
        <ele>445.6</ele>
        <time>2019-03-16T11:23:08Z</time>
      </trkpt>
      <trkpt lat="42.1154230" lon="-0.4450730">
        <ele>446.0</ele>
        <time>2019-03-16T11:23:12Z</time>
      </trkpt>
      <trkpt lat="42.1155710" lon="-0.4447360">
        <ele>447.0</ele>
        <time>2019-03-16T11:23:16Z</time>
      </trkpt>
      <trkpt lat="42.1157250" lon="-0.4443960">
        <ele>446.6</ele>
        <time>2019-03-16T11:23:20Z</time>
      </trkpt>
      <trkpt lat="42.1158810" lon="-0.4440650">
        <ele>447.6</ele>
        <time>2019-03-16T11:23:24Z</time>
      </trkpt>
      <trkpt lat="42.1159510" lon="-0.4436880">
        <ele>448.4</ele>
        <time>2019-03-16T11:23:28Z</time>
      </trkpt>
      <trkpt lat="42.1160950" lon="-0.4433380">
        <ele>448.0</ele>
        <time>2019-03-16T11:23:32Z</time>
      </trkpt>
      <trkpt lat="42.1163560" lon="-0.4431080">
        <ele>447.8</ele>
        <time>2019-03-16T11:23:36Z</time>
      </trkpt>
      <trkpt lat="42.1165480" lon="-0.4427660">
        <ele>447.0</ele>
        <time>2019-03-16T11:23:40Z</time>
      </trkpt>
      <trkpt lat="42.1167360" lon="-0.4423830">
        <ele>446.8</ele>
        <time>2019-03-16T11:23:44Z</time>
      </trkpt>
      <trkpt lat="42.1169430" lon="-0.4419800">
        <ele>445.4</ele>
        <time>2019-03-16T11:23:48Z</time>
      </trkpt>
      <trkpt lat="42.1171730" lon="-0.4415850">
        <ele>444.4</ele>
        <time>2019-03-16T11:23:52Z</time>
      </trkpt>
      <trkpt lat="42.1174400" lon="-0.4412230">
        <ele>443.6</ele>
        <time>2019-03-16T11:23:56Z</time>
      </trkpt>
      <trkpt lat="42.1177400" lon="-0.4408830">
        <ele>442.4</ele>
        <time>2019-03-16T11:24:00Z</time>
      </trkpt>
      <trkpt lat="42.1180460" lon="-0.4405380">
        <ele>441.4</ele>
        <time>2019-03-16T11:24:04Z</time>
      </trkpt>
      <trkpt lat="42.1183580" lon="-0.4401910">
        <ele>439.6</ele>
        <time>2019-03-16T11:24:08Z</time>
      </trkpt>
      <trkpt lat="42.1186730" lon="-0.4398350">
        <ele>439.4</ele>
        <time>2019-03-16T11:24:12Z</time>
      </trkpt>
      <trkpt lat="42.1189930" lon="-0.4394700">
        <ele>438.2</ele>
        <time>2019-03-16T11:24:16Z</time>
      </trkpt>
      <trkpt lat="42.1193180" lon="-0.4391060">
        <ele>436.8</ele>
        <time>2019-03-16T11:24:20Z</time>
      </trkpt>
      <trkpt lat="42.1196400" lon="-0.4387460">
        <ele>435.6</ele>
        <time>2019-03-16T11:24:24Z</time>
      </trkpt>
      <trkpt lat="42.1199510" lon="-0.4383960">
        <ele>435.4</ele>
        <time>2019-03-16T11:24:28Z</time>
      </trkpt>
      <trkpt lat="42.1202400" lon="-0.4380460">
        <ele>434.6</ele>
        <time>2019-03-16T11:24:32Z</time>
      </trkpt>
      <trkpt lat="42.1204810" lon="-0.4376630">
        <ele>434.8</ele>
        <time>2019-03-16T11:24:36Z</time>
      </trkpt>
      <trkpt lat="42.1206610" lon="-0.4372600">
        <ele>436.4</ele>
        <time>2019-03-16T11:24:40Z</time>
      </trkpt>
      <trkpt lat="42.1208110" lon="-0.4368660">
        <ele>437.2</ele>
        <time>2019-03-16T11:24:44Z</time>
      </trkpt>
      <trkpt lat="42.1209530" lon="-0.4364860">
        <ele>438.0</ele>
        <time>2019-03-16T11:24:48Z</time>
      </trkpt>
      <trkpt lat="42.1210980" lon="-0.4361130">
        <ele>438.6</ele>
        <time>2019-03-16T11:24:52Z</time>
      </trkpt>
      <trkpt lat="42.1212400" lon="-0.4357380">
        <ele>439.2</ele>
        <time>2019-03-16T11:24:56Z</time>
      </trkpt>
      <trkpt lat="42.1213880" lon="-0.4353750">
        <ele>439.4</ele>
        <time>2019-03-16T11:25:00Z</time>
      </trkpt>
      <trkpt lat="42.1215530" lon="-0.4350210">
        <ele>440.2</ele>
        <time>2019-03-16T11:25:04Z</time>
      </trkpt>
      <trkpt lat="42.1217480" lon="-0.4346800">
        <ele>440.4</ele>
        <time>2019-03-16T11:25:08Z</time>
      </trkpt>
      <trkpt lat="42.1219730" lon="-0.4343510">
        <ele>441.0</ele>
        <time>2019-03-16T11:25:12Z</time>
      </trkpt>
      <trkpt lat="42.1222400" lon="-0.4340830">
        <ele>440.2</ele>
        <time>2019-03-16T11:25:16Z</time>
      </trkpt>
      <trkpt lat="42.1225630" lon="-0.4339980">
        <ele>440.2</ele>
        <time>2019-03-16T11:25:20Z</time>
      </trkpt>
      <trkpt lat="42.1228830" lon="-0.4341180">
        <ele>439.8</ele>
        <time>2019-03-16T11:25:24Z</time>
      </trkpt>
      <trkpt lat="42.1231900" lon="-0.4343150">
        <ele>440.0</ele>
        <time>2019-03-16T11:25:28Z</time>
      </trkpt>
      <trkpt lat="42.1234930" lon="-0.4345060">
        <ele>439.8</ele>
        <time>2019-03-16T11:25:32Z</time>
      </trkpt>
      <trkpt lat="42.1238300" lon="-0.4345600">
        <ele>439.0</ele>
        <time>2019-03-16T11:25:36Z</time>
      </trkpt>
      <trkpt lat="42.1241450" lon="-0.4343760">
        <ele>438.6</ele>
        <time>2019-03-16T11:25:40Z</time>
      </trkpt>
      <trkpt lat="42.1243200" lon="-0.4339650">
        <ele>437.8</ele>
        <time>2019-03-16T11:25:44Z</time>
      </trkpt>
      <trkpt lat="42.1243300" lon="-0.4334610">
        <ele>436.2</ele>
        <time>2019-03-16T11:25:48Z</time>
      </trkpt>
      <trkpt lat="42.1242910" lon="-0.4329400">
        <ele>435.2</ele>
        <time>2019-03-16T11:25:52Z</time>
      </trkpt>
      <trkpt lat="42.1242510" lon="-0.4324380">
        <ele>434.0</ele>
        <time>2019-03-16T11:25:56Z</time>
      </trkpt>
      <trkpt lat="42.1242050" lon="-0.4319550">
        <ele>433.2</ele>
        <time>2019-03-16T11:26:00Z</time>
      </trkpt>
      <trkpt lat="42.1241830" lon="-0.4315000">
        <ele>433.8</ele>
        <time>2019-03-16T11:26:04Z</time>
      </trkpt>
      <trkpt lat="42.1241900" lon="-0.4310710">
        <ele>434.2</ele>
        <time>2019-03-16T11:26:08Z</time>
      </trkpt>
      <trkpt lat="42.1242980" lon="-0.4306530">
        <ele>434.0</ele>
        <time>2019-03-16T11:26:12Z</time>
      </trkpt>
      <trkpt lat="42.1244380" lon="-0.4302430">
        <ele>434.8</ele>
        <time>2019-03-16T11:26:16Z</time>
      </trkpt>
      <trkpt lat="42.1246880" lon="-0.4299400">
        <ele>433.4</ele>
        <time>2019-03-16T11:26:20Z</time>
      </trkpt>
      <trkpt lat="42.1249210" lon="-0.4296160">
        <ele>434.0</ele>
        <time>2019-03-16T11:26:24Z</time>
      </trkpt>
      <trkpt lat="42.1251500" lon="-0.4292900">
        <ele>434.0</ele>
        <time>2019-03-16T11:26:28Z</time>
      </trkpt>
      <trkpt lat="42.1253730" lon="-0.4289650">
        <ele>433.6</ele>
        <time>2019-03-16T11:26:32Z</time>
      </trkpt>
      <trkpt lat="42.1255950" lon="-0.4286410">
        <ele>434.2</ele>
        <time>2019-03-16T11:26:36Z</time>
      </trkpt>
      <trkpt lat="42.1258110" lon="-0.4283250">
        <ele>434.2</ele>
        <time>2019-03-16T11:26:40Z</time>
      </trkpt>
      <trkpt lat="42.1259330" lon="-0.4279460">
        <ele>434.6</ele>
        <time>2019-03-16T11:26:44Z</time>
      </trkpt>
      <trkpt lat="42.1260950" lon="-0.4276230">
        <ele>435.2</ele>
        <time>2019-03-16T11:26:48Z</time>
      </trkpt>
      <trkpt lat="42.1263710" lon="-0.4274930">
        <ele>434.6</ele>
        <time>2019-03-16T11:26:52Z</time>
      </trkpt>
      <trkpt lat="42.1265680" lon="-0.4272060">
        <ele>435.2</ele>
        <time>2019-03-16T11:26:56Z</time>
      </trkpt>
      <trkpt lat="42.1267680" lon="-0.4269180">
        <ele>435.0</ele>
        <time>2019-03-16T11:27:00Z</time>
      </trkpt>
      <trkpt lat="42.1269650" lon="-0.4266230">
        <ele>435.4</ele>
        <time>2019-03-16T11:27:04Z</time>
      </trkpt>
      <trkpt lat="42.1271650" lon="-0.4263400">
        <ele>435.8</ele>
        <time>2019-03-16T11:27:08Z</time>
      </trkpt>
      <trkpt lat="42.1273560" lon="-0.4260550">
        <ele>436.4</ele>
        <time>2019-03-16T11:27:12Z</time>
      </trkpt>
      <trkpt lat="42.1275460" lon="-0.4257800">
        <ele>437.0</ele>
        <time>2019-03-16T11:27:16Z</time>
      </trkpt>
      <trkpt lat="42.1277310" lon="-0.4255050">
        <ele>437.4</ele>
        <time>2019-03-16T11:27:20Z</time>
      </trkpt>
      <trkpt lat="42.1279110" lon="-0.4252310">
        <ele>437.6</ele>
        <time>2019-03-16T11:27:24Z</time>
      </trkpt>
      <trkpt lat="42.1280910" lon="-0.4249630">
        <ele>438.2</ele>
        <time>2019-03-16T11:27:28Z</time>
      </trkpt>
      <trkpt lat="42.1282760" lon="-0.4247080">
        <ele>438.2</ele>
        <time>2019-03-16T11:27:32Z</time>
      </trkpt>
      <trkpt lat="42.1284510" lon="-0.4244530">
        <ele>439.2</ele>
        <time>2019-03-16T11:27:36Z</time>
      </trkpt>
      <trkpt lat="42.1286100" lon="-0.4242180">
        <ele>439.6</ele>
        <time>2019-03-16T11:27:40Z</time>
      </trkpt>
      <trkpt lat="42.1286700" lon="-0.4240030">
        <ele>440.2</ele>
        <time>2019-03-16T11:27:44Z</time>
      </trkpt>
      <trkpt lat="42.1287180" lon="-0.4237460">
        <ele>440.4</ele>
        <time>2019-03-16T11:27:48Z</time>
      </trkpt>
      <trkpt lat="42.1289030" lon="-0.4235730">
        <ele>440.8</ele>
        <time>2019-03-16T11:27:52Z</time>
      </trkpt>
      <trkpt lat="42.1291310" lon="-0.4234500">
        <ele>441.2</ele>
        <time>2019-03-16T11:27:56Z</time>
      </trkpt>
      <trkpt lat="42.1293010" lon="-0.4231950">
        <ele>441.8</ele>
        <time>2019-03-16T11:28:00Z</time>
      </trkpt>
      <trkpt lat="42.1294600" lon="-0.4229110">
        <ele>441.8</ele>
        <time>2019-03-16T11:28:04Z</time>
      </trkpt>
      <trkpt lat="42.1296150" lon="-0.4226110">
        <ele>441.6</ele>
        <time>2019-03-16T11:28:08Z</time>
      </trkpt>
      <trkpt lat="42.1297530" lon="-0.4222900">
        <ele>441.8</ele>
        <time>2019-03-16T11:28:12Z</time>
      </trkpt>
      <trkpt lat="42.1296800" lon="-0.4219850">
        <ele>441.6</ele>
        <time>2019-03-16T11:28:16Z</time>
      </trkpt>
      <trkpt lat="42.1294880" lon="-0.4218210">
        <ele>443.2</ele>
        <time>2019-03-16T11:28:20Z</time>
      </trkpt>
      <trkpt lat="42.1293330" lon="-0.4216960">
        <ele>444.4</ele>
        <time>2019-03-16T11:28:24Z</time>
      </trkpt>
      <trkpt lat="42.1292560" lon="-0.4217250">
        <ele>445.2</ele>
        <time>2019-03-16T11:28:28Z</time>
      </trkpt>
      <trkpt lat="42.1292480" lon="-0.4218300">
        <ele>445.0</ele>
        <time>2019-03-16T11:28:32Z</time>
      </trkpt>
      <trkpt lat="42.1292480" lon="-0.4218300">
        <ele>445.2</ele>
        <time>2019-03-16T11:28:36Z</time>
      </trkpt>
      <trkpt lat="42.1292480" lon="-0.4218300">
        <ele>445.0</ele>
        <time>2019-03-16T11:28:40Z</time>
      </trkpt>
      <trkpt lat="42.1292480" lon="-0.4218300">
        <ele>444.8</ele>
        <time>2019-03-16T11:28:44Z</time>
      </trkpt>
      <trkpt lat="42.1292480" lon="-0.4218300">
        <ele>445.0</ele>
        <time>2019-03-16T11:28:48Z</time>
      </trkpt>
      <trkpt lat="42.1292130" lon="-0.4218410">
        <ele>445.0</ele>
        <time>2019-03-16T11:28:52Z</time>
      </trkpt>
      <trkpt lat="42.1292130" lon="-0.4218410">
        <ele>445.2</ele>
        <time>2019-03-16T11:28:56Z</time>
      </trkpt>
      <trkpt lat="42.1292130" lon="-0.4218410">
        <ele>445.0</ele>
        <time>2019-03-16T11:29:00Z</time>
      </trkpt>
      <trkpt lat="42.1292130" lon="-0.4218410">
        <ele>445.0</ele>
        <time>2019-03-16T11:29:04Z</time>
      </trkpt>
      <trkpt lat="42.1291960" lon="-0.4218380">
        <ele>445.4</ele>
        <time>2019-03-16T11:29:08Z</time>
      </trkpt>
      <trkpt lat="42.1292030" lon="-0.4218480">
        <ele>445.0</ele>
        <time>2019-03-16T11:29:12Z</time>
      </trkpt>
      <trkpt lat="42.1292130" lon="-0.4218680">
        <ele>445.2</ele>
        <time>2019-03-16T11:29:16Z</time>
      </trkpt>
      <trkpt lat="42.1291980" lon="-0.4218680">
        <ele>445.6</ele>
        <time>2019-03-16T11:29:20Z</time>
      </trkpt>
      <trkpt lat="42.1292010" lon="-0.4218460">
        <ele>445.6</ele>
        <time>2019-03-16T11:29:24Z</time>
      </trkpt>
      <trkpt lat="42.1292400" lon="-0.4218210">
        <ele>445.6</ele>
        <time>2019-03-16T11:29:28Z</time>
      </trkpt>
      <trkpt lat="42.1293550" lon="-0.4217510">
        <ele>452.6</ele>
        <time>2019-03-16T11:29:32Z</time>
      </trkpt>
      <trkpt lat="42.1293930" lon="-0.4217630">
        <ele>441.8</ele>
        <time>2019-03-16T11:29:36Z</time>
      </trkpt>
      <trkpt lat="42.1293000" lon="-0.4216710">
        <ele>453.8</ele>
        <time>2019-03-16T11:29:40Z</time>
      </trkpt>
      <trkpt lat="42.1293000" lon="-0.4216710">
        <ele>453.8</ele>
        <time>2019-03-16T11:29:44Z</time>
      </trkpt>
      <trkpt lat="42.1293000" lon="-0.4216710">
        <ele>455.2</ele>
        <time>2019-03-16T11:29:48Z</time>
      </trkpt>
      <trkpt lat="42.1293000" lon="-0.4216710">
        <ele>455.4</ele>
        <time>2019-03-16T11:29:52Z</time>
      </trkpt>
      <trkpt lat="42.1293000" lon="-0.4216710">
        <ele>454.8</ele>
        <time>2019-03-16T11:29:56Z</time>
      </trkpt>
      <trkpt lat="42.1293000" lon="-0.4216710">
        <ele>454.4</ele>
        <time>2019-03-16T11:30:00Z</time>
      </trkpt>
      <trkpt lat="42.1293000" lon="-0.4216710">
        <ele>454.8</ele>
        <time>2019-03-16T11:30:04Z</time>
      </trkpt>
      <trkpt lat="42.1293000" lon="-0.4216710">
        <ele>454.8</ele>
        <time>2019-03-16T11:30:08Z</time>
      </trkpt>
      <trkpt lat="42.1293000" lon="-0.4216710">
        <ele>454.8</ele>
        <time>2019-03-16T11:30:12Z</time>
      </trkpt>
      <trkpt lat="42.1293000" lon="-0.4216710">
        <ele>455.2</ele>
        <time>2019-03-16T11:30:16Z</time>
      </trkpt>
      <trkpt lat="42.1293000" lon="-0.4216710">
        <ele>454.8</ele>
        <time>2019-03-16T11:30:20Z</time>
      </trkpt>
      <trkpt lat="42.1293000" lon="-0.4216710">
        <ele>455.0</ele>
        <time>2019-03-16T11:30:24Z</time>
      </trkpt>
      <trkpt lat="42.1293000" lon="-0.4216710">
        <ele>454.8</ele>
        <time>2019-03-16T11:30:28Z</time>
      </trkpt>
      <trkpt lat="42.1293000" lon="-0.4216710">
        <ele>454.6</ele>
        <time>2019-03-16T11:30:32Z</time>
      </trkpt>
      <trkpt lat="42.1293000" lon="-0.4216710">
        <ele>454.8</ele>
        <time>2019-03-16T11:30:36Z</time>
      </trkpt>
      <trkpt lat="42.1293000" lon="-0.4216710">
        <ele>454.8</ele>
        <time>2019-03-16T11:30:40Z</time>
      </trkpt>
      <trkpt lat="42.1293000" lon="-0.4216710">
        <ele>454.4</ele>
        <time>2019-03-16T11:30:44Z</time>
      </trkpt>
      <trkpt lat="42.1293000" lon="-0.4216710">
        <ele>454.6</ele>
        <time>2019-03-16T11:30:48Z</time>
      </trkpt>
      <trkpt lat="42.1293000" lon="-0.4216710">
        <ele>454.4</ele>
        <time>2019-03-16T11:30:52Z</time>
      </trkpt>
      <trkpt lat="42.1290860" lon="-0.4218960">
        <ele>454.8</ele>
        <time>2019-03-16T11:30:56Z</time>
      </trkpt>
      <trkpt lat="42.1291150" lon="-0.4219100">
        <ele>454.8</ele>
        <time>2019-03-16T11:31:00Z</time>
      </trkpt>
      <trkpt lat="42.1291150" lon="-0.4219100">
        <ele>454.6</ele>
        <time>2019-03-16T11:31:04Z</time>
      </trkpt>
      <trkpt lat="42.1291150" lon="-0.4219100">
        <ele>454.4</ele>
        <time>2019-03-16T11:31:08Z</time>
      </trkpt>
      <trkpt lat="42.1291150" lon="-0.4219100">
        <ele>454.6</ele>
        <time>2019-03-16T11:31:12Z</time>
      </trkpt>
      <trkpt lat="42.1291530" lon="-0.4219600">
        <ele>455.0</ele>
        <time>2019-03-16T11:31:16Z</time>
      </trkpt>
      <trkpt lat="42.1292150" lon="-0.4220000">
        <ele>454.8</ele>
        <time>2019-03-16T11:31:20Z</time>
      </trkpt>
      <trkpt lat="42.1292550" lon="-0.4219730">
        <ele>454.4</ele>
        <time>2019-03-16T11:31:24Z</time>
      </trkpt>
      <trkpt lat="42.1293080" lon="-0.4219400">
        <ele>455.0</ele>
        <time>2019-03-16T11:31:28Z</time>
      </trkpt>
      <trkpt lat="42.1293450" lon="-0.4218950">
        <ele>454.4</ele>
        <time>2019-03-16T11:31:32Z</time>
      </trkpt>
      <trkpt lat="42.1293100" lon="-0.4218310">
        <ele>454.6</ele>
        <time>2019-03-16T11:31:36Z</time>
      </trkpt>
      <trkpt lat="42.1293100" lon="-0.4218310">
        <ele>454.6</ele>
        <time>2019-03-16T11:31:40Z</time>
      </trkpt>
      <trkpt lat="42.1293100" lon="-0.4218310">
        <ele>454.8</ele>
        <time>2019-03-16T11:31:44Z</time>
      </trkpt>
      <trkpt lat="42.1293100" lon="-0.4218310">
        <ele>454.8</ele>
        <time>2019-03-16T11:31:48Z</time>
      </trkpt>
      <trkpt lat="42.1293100" lon="-0.4218310">
        <ele>454.6</ele>
        <time>2019-03-16T11:31:52Z</time>
      </trkpt>
      <trkpt lat="42.1289430" lon="-0.4215580">
        <ele>454.6</ele>
        <time>2019-03-16T11:31:56Z</time>
      </trkpt>
      <trkpt lat="42.1287650" lon="-0.4214610">
        <ele>454.4</ele>
        <time>2019-03-16T11:32:00Z</time>
      </trkpt>
      <trkpt lat="42.1286750" lon="-0.4214310">
        <ele>454.8</ele>
        <time>2019-03-16T11:32:04Z</time>
      </trkpt>
      <trkpt lat="42.1287100" lon="-0.4213610">
        <ele>454.6</ele>
        <time>2019-03-16T11:32:08Z</time>
      </trkpt>
      <trkpt lat="42.1287200" lon="-0.4213680">
        <ele>454.6</ele>
        <time>2019-03-16T11:32:12Z</time>
      </trkpt>
      <trkpt lat="42.1286960" lon="-0.4212830">
        <ele>454.8</ele>
        <time>2019-03-16T11:32:16Z</time>
      </trkpt>
      <trkpt lat="42.1286480" lon="-0.4212860">
        <ele>454.8</ele>
        <time>2019-03-16T11:32:20Z</time>
      </trkpt>
      <trkpt lat="42.1287360" lon="-0.4213600">
        <ele>454.6</ele>
        <time>2019-03-16T11:32:24Z</time>
      </trkpt>
      <trkpt lat="42.1287980" lon="-0.4213710">
        <ele>454.4</ele>
        <time>2019-03-16T11:32:28Z</time>
      </trkpt>
      <trkpt lat="42.1287500" lon="-0.4214630">
        <ele>454.8</ele>
        <time>2019-03-16T11:32:32Z</time>
      </trkpt>
      <trkpt lat="42.1286130" lon="-0.4214560">
        <ele>454.6</ele>
        <time>2019-03-16T11:32:36Z</time>
      </trkpt>
      <trkpt lat="42.1285030" lon="-0.4214210">
        <ele>454.8</ele>
        <time>2019-03-16T11:32:40Z</time>
      </trkpt>
      <trkpt lat="42.1285260" lon="-0.4214860">
        <ele>454.6</ele>
        <time>2019-03-16T11:32:44Z</time>
      </trkpt>
      <trkpt lat="42.1285260" lon="-0.4214860">
        <ele>454.8</ele>
        <time>2019-03-16T11:32:48Z</time>
      </trkpt>
      <trkpt lat="42.1285260" lon="-0.4214860">
        <ele>454.8</ele>
        <time>2019-03-16T11:32:52Z</time>
      </trkpt>
      <trkpt lat="42.1285260" lon="-0.4214860">
        <ele>454.4</ele>
        <time>2019-03-16T11:32:56Z</time>
      </trkpt>
      <trkpt lat="42.1286810" lon="-0.4216330">
        <ele>454.6</ele>
        <time>2019-03-16T11:33:00Z</time>
      </trkpt>
      <trkpt lat="42.1287460" lon="-0.4216430">
        <ele>454.4</ele>
        <time>2019-03-16T11:33:04Z</time>
      </trkpt>
      <trkpt lat="42.1287900" lon="-0.4217080">
        <ele>455.0</ele>
        <time>2019-03-16T11:33:08Z</time>
      </trkpt>
      <trkpt lat="42.1289050" lon="-0.4217900">
        <ele>455.0</ele>
        <time>2019-03-16T11:33:12Z</time>
      </trkpt>
      <trkpt lat="42.1289180" lon="-0.4217750">
        <ele>454.6</ele>
        <time>2019-03-16T11:33:16Z</time>
      </trkpt>
      <trkpt lat="42.1290100" lon="-0.4218080">
        <ele>454.4</ele>
        <time>2019-03-16T11:33:20Z</time>
      </trkpt>
      <trkpt lat="42.1290750" lon="-0.4218310">
        <ele>454.6</ele>
        <time>2019-03-16T11:33:24Z</time>
      </trkpt>
      <trkpt lat="42.1291150" lon="-0.4218130">
        <ele>454.8</ele>
        <time>2019-03-16T11:33:28Z</time>
      </trkpt>
      <trkpt lat="42.1291150" lon="-0.4218130">
        <ele>455.0</ele>
        <time>2019-03-16T11:33:32Z</time>
      </trkpt>
      <trkpt lat="42.1291150" lon="-0.4218130">
        <ele>454.6</ele>
        <time>2019-03-16T11:33:36Z</time>
      </trkpt>
      <trkpt lat="42.1290830" lon="-0.4218650">
        <ele>454.8</ele>
        <time>2019-03-16T11:33:40Z</time>
      </trkpt>
      <trkpt lat="42.1290100" lon="-0.4219060">
        <ele>454.4</ele>
        <time>2019-03-16T11:33:44Z</time>
      </trkpt>
      <trkpt lat="42.1289850" lon="-0.4219330">
        <ele>454.4</ele>
        <time>2019-03-16T11:33:48Z</time>
      </trkpt>
      <trkpt lat="42.1290660" lon="-0.4219130">
        <ele>454.4</ele>
        <time>2019-03-16T11:33:52Z</time>
      </trkpt>
      <trkpt lat="42.1291050" lon="-0.4219260">
        <ele>454.4</ele>
        <time>2019-03-16T11:33:56Z</time>
      </trkpt>
      <trkpt lat="42.1289850" lon="-0.4219160">
        <ele>454.6</ele>
        <time>2019-03-16T11:34:00Z</time>
      </trkpt>
      <trkpt lat="42.1290780" lon="-0.4219000">
        <ele>454.6</ele>
        <time>2019-03-16T11:34:04Z</time>
      </trkpt>
      <trkpt lat="42.1291380" lon="-0.4218980">
        <ele>454.8</ele>
        <time>2019-03-16T11:34:08Z</time>
      </trkpt>
      <trkpt lat="42.1293010" lon="-0.4218750">
        <ele>454.6</ele>
        <time>2019-03-16T11:34:12Z</time>
      </trkpt>
      <trkpt lat="42.1293580" lon="-0.4219160">
        <ele>454.6</ele>
        <time>2019-03-16T11:34:16Z</time>
      </trkpt>
      <trkpt lat="42.1294280" lon="-0.4220100">
        <ele>454.4</ele>
        <time>2019-03-16T11:34:20Z</time>
      </trkpt>
      <trkpt lat="42.1295260" lon="-0.4219980">
        <ele>454.4</ele>
        <time>2019-03-16T11:34:24Z</time>
      </trkpt>
      <trkpt lat="42.1295210" lon="-0.4219830">
        <ele>454.8</ele>
        <time>2019-03-16T11:34:28Z</time>
      </trkpt>
      <trkpt lat="42.1294850" lon="-0.4220080">
        <ele>454.6</ele>
        <time>2019-03-16T11:34:32Z</time>
      </trkpt>
      <trkpt lat="42.1294830" lon="-0.4220500">
        <ele>454.8</ele>
        <time>2019-03-16T11:34:36Z</time>
      </trkpt>
      <trkpt lat="42.1294460" lon="-0.4220930">
        <ele>454.8</ele>
        <time>2019-03-16T11:34:40Z</time>
      </trkpt>
      <trkpt lat="42.1294010" lon="-0.4221610">
        <ele>455.0</ele>
        <time>2019-03-16T11:34:44Z</time>
      </trkpt>
      <trkpt lat="42.1294010" lon="-0.4221610">
        <ele>454.6</ele>
        <time>2019-03-16T11:34:48Z</time>
      </trkpt>
      <trkpt lat="42.1294010" lon="-0.4221610">
        <ele>454.4</ele>
        <time>2019-03-16T11:34:52Z</time>
      </trkpt>
      <trkpt lat="42.1294110" lon="-0.4220530">
        <ele>454.8</ele>
        <time>2019-03-16T11:34:56Z</time>
      </trkpt>
      <trkpt lat="42.1294250" lon="-0.4219500">
        <ele>454.4</ele>
        <time>2019-03-16T11:35:00Z</time>
      </trkpt>
      <trkpt lat="42.1294830" lon="-0.4218750">
        <ele>454.8</ele>
        <time>2019-03-16T11:35:04Z</time>
      </trkpt>
      <trkpt lat="42.1294830" lon="-0.4218750">
        <ele>454.8</ele>
        <time>2019-03-16T11:35:08Z</time>
      </trkpt>
      <trkpt lat="42.1293530" lon="-0.4218130">
        <ele>454.8</ele>
        <time>2019-03-16T11:35:12Z</time>
      </trkpt>
      <trkpt lat="42.1293530" lon="-0.4218130">
        <ele>454.8</ele>
        <time>2019-03-16T11:35:16Z</time>
      </trkpt>
      <trkpt lat="42.1293810" lon="-0.4218280">
        <ele>455.0</ele>
        <time>2019-03-16T11:35:20Z</time>
      </trkpt>
      <trkpt lat="42.1294000" lon="-0.4218380">
        <ele>455.2</ele>
        <time>2019-03-16T11:35:24Z</time>
      </trkpt>
      <trkpt lat="42.1294000" lon="-0.4218380">
        <ele>455.0</ele>
        <time>2019-03-16T11:35:28Z</time>
      </trkpt>
      <trkpt lat="42.1293910" lon="-0.4217910">
        <ele>454.6</ele>
        <time>2019-03-16T11:35:32Z</time>
      </trkpt>
      <trkpt lat="42.1293880" lon="-0.4217500">
        <ele>455.0</ele>
        <time>2019-03-16T11:35:36Z</time>
      </trkpt>
      <trkpt lat="42.1293980" lon="-0.4216960">
        <ele>455.0</ele>
        <time>2019-03-16T11:35:40Z</time>
      </trkpt>
      <trkpt lat="42.1293250" lon="-0.4217310">
        <ele>455.0</ele>
        <time>2019-03-16T11:35:44Z</time>
      </trkpt>
      <trkpt lat="42.1291380" lon="-0.4218110">
        <ele>455.2</ele>
        <time>2019-03-16T11:35:48Z</time>
      </trkpt>
      <trkpt lat="42.1291150" lon="-0.4218280">
        <ele>455.2</ele>
        <time>2019-03-16T11:35:52Z</time>
      </trkpt>
      <trkpt lat="42.1291150" lon="-0.4218280">
        <ele>455.2</ele>
        <time>2019-03-16T11:35:56Z</time>
      </trkpt>
      <trkpt lat="42.1291300" lon="-0.4218880">
        <ele>455.4</ele>
        <time>2019-03-16T11:36:00Z</time>
      </trkpt>
      <trkpt lat="42.1291810" lon="-0.4219360">
        <ele>455.2</ele>
        <time>2019-03-16T11:36:04Z</time>
      </trkpt>
      <trkpt lat="42.1291860" lon="-0.4219500">
        <ele>455.2</ele>
        <time>2019-03-16T11:36:08Z</time>
      </trkpt>
      <trkpt lat="42.1291860" lon="-0.4219210">
        <ele>455.4</ele>
        <time>2019-03-16T11:36:12Z</time>
      </trkpt>
      <trkpt lat="42.1291960" lon="-0.4219310">
        <ele>455.2</ele>
        <time>2019-03-16T11:36:16Z</time>
      </trkpt>
      <trkpt lat="42.1291960" lon="-0.4219310">
        <ele>455.4</ele>
        <time>2019-03-16T11:36:20Z</time>
      </trkpt>
      <trkpt lat="42.1291160" lon="-0.4218950">
        <ele>455.4</ele>
        <time>2019-03-16T11:36:24Z</time>
      </trkpt>
      <trkpt lat="42.1291100" lon="-0.4218860">
        <ele>455.4</ele>
        <time>2019-03-16T11:36:28Z</time>
      </trkpt>
      <trkpt lat="42.1288800" lon="-0.4216080">
        <ele>455.4</ele>
        <time>2019-03-16T11:36:32Z</time>
      </trkpt>
      <trkpt lat="42.1288760" lon="-0.4216150">
        <ele>455.2</ele>
        <time>2019-03-16T11:36:36Z</time>
      </trkpt>
      <trkpt lat="42.1288860" lon="-0.4216100">
        <ele>455.2</ele>
        <time>2019-03-16T11:36:40Z</time>
      </trkpt>
      <trkpt lat="42.1292250" lon="-0.4213280">
        <ele>455.2</ele>
        <time>2019-03-16T11:36:44Z</time>
      </trkpt>
      <trkpt lat="42.1291650" lon="-0.4212560">
        <ele>455.4</ele>
        <time>2019-03-16T11:36:48Z</time>
      </trkpt>
      <trkpt lat="42.1289280" lon="-0.4214200">
        <ele>455.4</ele>
        <time>2019-03-16T11:36:52Z</time>
      </trkpt>
      <trkpt lat="42.1288610" lon="-0.4214250">
        <ele>455.4</ele>
        <time>2019-03-16T11:36:56Z</time>
      </trkpt>
      <trkpt lat="42.1288610" lon="-0.4214250">
        <ele>455.6</ele>
        <time>2019-03-16T11:37:00Z</time>
      </trkpt>
      <trkpt lat="42.1290480" lon="-0.4216160">
        <ele>455.6</ele>
        <time>2019-03-16T11:37:04Z</time>
      </trkpt>
      <trkpt lat="42.1289460" lon="-0.4216950">
        <ele>455.6</ele>
        <time>2019-03-16T11:37:08Z</time>
      </trkpt>
      <trkpt lat="42.1289460" lon="-0.4216950">
        <ele>455.2</ele>
        <time>2019-03-16T11:37:12Z</time>
      </trkpt>
      <trkpt lat="42.1289460" lon="-0.4216950">
        <ele>455.4</ele>
        <time>2019-03-16T11:37:16Z</time>
      </trkpt>
      <trkpt lat="42.1289460" lon="-0.4216950">
        <ele>455.2</ele>
        <time>2019-03-16T11:37:20Z</time>
      </trkpt>
      <trkpt lat="42.1290200" lon="-0.4217650">
        <ele>455.2</ele>
        <time>2019-03-16T11:37:24Z</time>
      </trkpt>
      <trkpt lat="42.1290200" lon="-0.4217650">
        <ele>455.6</ele>
        <time>2019-03-16T11:37:28Z</time>
      </trkpt>
      <trkpt lat="42.1288630" lon="-0.4218650">
        <ele>455.4</ele>
        <time>2019-03-16T11:37:32Z</time>
      </trkpt>
      <trkpt lat="42.1288160" lon="-0.4219230">
        <ele>455.2</ele>
        <time>2019-03-16T11:37:36Z</time>
      </trkpt>
      <trkpt lat="42.1288210" lon="-0.4219530">
        <ele>455.4</ele>
        <time>2019-03-16T11:37:40Z</time>
      </trkpt>
      <trkpt lat="42.1288210" lon="-0.4219530">
        <ele>455.4</ele>
        <time>2019-03-16T11:37:44Z</time>
      </trkpt>
      <trkpt lat="42.1288210" lon="-0.4219530">
        <ele>455.2</ele>
        <time>2019-03-16T11:37:48Z</time>
      </trkpt>
      <trkpt lat="42.1290610" lon="-0.4219330">
        <ele>455.2</ele>
        <time>2019-03-16T11:37:52Z</time>
      </trkpt>
      <trkpt lat="42.1291800" lon="-0.4218960">
        <ele>455.6</ele>
        <time>2019-03-16T11:37:56Z</time>
      </trkpt>
      <trkpt lat="42.1292650" lon="-0.4218760">
        <ele>455.2</ele>
        <time>2019-03-16T11:38:00Z</time>
      </trkpt>
      <trkpt lat="42.1293410" lon="-0.4218510">
        <ele>455.2</ele>
        <time>2019-03-16T11:38:04Z</time>
      </trkpt>
      <trkpt lat="42.1294180" lon="-0.4218210">
        <ele>455.4</ele>
        <time>2019-03-16T11:38:08Z</time>
      </trkpt>
      <trkpt lat="42.1294710" lon="-0.4218210">
        <ele>455.4</ele>
        <time>2019-03-16T11:38:12Z</time>
      </trkpt>
      <trkpt lat="42.1294710" lon="-0.4218210">
        <ele>455.4</ele>
        <time>2019-03-16T11:38:16Z</time>
      </trkpt>
      <trkpt lat="42.1294350" lon="-0.4218180">
        <ele>455.6</ele>
        <time>2019-03-16T11:38:20Z</time>
      </trkpt>
      <trkpt lat="42.1294010" lon="-0.4218280">
        <ele>455.2</ele>
        <time>2019-03-16T11:38:24Z</time>
      </trkpt>
      <trkpt lat="42.1293830" lon="-0.4218600">
        <ele>455.4</ele>
        <time>2019-03-16T11:38:28Z</time>
      </trkpt>
      <trkpt lat="42.1293560" lon="-0.4218800">
        <ele>455.6</ele>
        <time>2019-03-16T11:38:32Z</time>
      </trkpt>
      <trkpt lat="42.1293910" lon="-0.4218950">
        <ele>455.4</ele>
        <time>2019-03-16T11:38:36Z</time>
      </trkpt>
      <trkpt lat="42.1293910" lon="-0.4218950">
        <ele>455.4</ele>
        <time>2019-03-16T11:38:40Z</time>
      </trkpt>
      <trkpt lat="42.1294730" lon="-0.4219030">
        <ele>455.6</ele>
        <time>2019-03-16T11:38:44Z</time>
      </trkpt>
      <trkpt lat="42.1295110" lon="-0.4218960">
        <ele>455.6</ele>
        <time>2019-03-16T11:38:48Z</time>
      </trkpt>
      <trkpt lat="42.1292630" lon="-0.4219960">
        <ele>455.6</ele>
        <time>2019-03-16T11:38:52Z</time>
      </trkpt>
      <trkpt lat="42.1292180" lon="-0.4220030">
        <ele>455.4</ele>
        <time>2019-03-16T11:38:56Z</time>
      </trkpt>
      <trkpt lat="42.1291960" lon="-0.4219960">
        <ele>455.4</ele>
        <time>2019-03-16T11:39:00Z</time>
      </trkpt>
      <trkpt lat="42.1290860" lon="-0.4219980">
        <ele>455.4</ele>
        <time>2019-03-16T11:39:04Z</time>
      </trkpt>
      <trkpt lat="42.1289980" lon="-0.4219810">
        <ele>455.4</ele>
        <time>2019-03-16T11:39:08Z</time>
      </trkpt>
      <trkpt lat="42.1289980" lon="-0.4219810">
        <ele>455.6</ele>
        <time>2019-03-16T11:39:12Z</time>
      </trkpt>
      <trkpt lat="42.1289600" lon="-0.4219750">
        <ele>455.2</ele>
        <time>2019-03-16T11:39:16Z</time>
      </trkpt>
      <trkpt lat="42.1289600" lon="-0.4219750">
        <ele>455.6</ele>
        <time>2019-03-16T11:39:20Z</time>
      </trkpt>
      <trkpt lat="42.1290210" lon="-0.4219110">
        <ele>455.6</ele>
        <time>2019-03-16T11:39:24Z</time>
      </trkpt>
      <trkpt lat="42.1291430" lon="-0.4218780">
        <ele>455.0</ele>
        <time>2019-03-16T11:39:28Z</time>
      </trkpt>
      <trkpt lat="42.1292300" lon="-0.4218610">
        <ele>455.6</ele>
        <time>2019-03-16T11:39:32Z</time>
      </trkpt>
      <trkpt lat="42.1292560" lon="-0.4218800">
        <ele>455.6</ele>
        <time>2019-03-16T11:39:36Z</time>
      </trkpt>
      <trkpt lat="42.1292560" lon="-0.4218800">
        <ele>455.8</ele>
        <time>2019-03-16T11:39:40Z</time>
      </trkpt>
      <trkpt lat="42.1292560" lon="-0.4218800">
        <ele>455.6</ele>
        <time>2019-03-16T11:39:44Z</time>
      </trkpt>
      <trkpt lat="42.1292560" lon="-0.4218800">
        <ele>455.2</ele>
        <time>2019-03-16T11:39:48Z</time>
      </trkpt>
      <trkpt lat="42.1292560" lon="-0.4218800">
        <ele>455.6</ele>
        <time>2019-03-16T11:39:52Z</time>
      </trkpt>
      <trkpt lat="42.1292560" lon="-0.4218800">
        <ele>455.6</ele>
        <time>2019-03-16T11:39:56Z</time>
      </trkpt>
      <trkpt lat="42.1292560" lon="-0.4218800">
        <ele>455.8</ele>
        <time>2019-03-16T11:40:00Z</time>
      </trkpt>
      <trkpt lat="42.1291300" lon="-0.4218430">
        <ele>455.4</ele>
        <time>2019-03-16T11:40:04Z</time>
      </trkpt>
      <trkpt lat="42.1291300" lon="-0.4218050">
        <ele>455.4</ele>
        <time>2019-03-16T11:40:08Z</time>
      </trkpt>
      <trkpt lat="42.1291300" lon="-0.4218050">
        <ele>455.6</ele>
        <time>2019-03-16T11:40:12Z</time>
      </trkpt>
      <trkpt lat="42.1291300" lon="-0.4218050">
        <ele>455.6</ele>
        <time>2019-03-16T11:40:16Z</time>
      </trkpt>
      <trkpt lat="42.1291300" lon="-0.4218050">
        <ele>455.4</ele>
        <time>2019-03-16T11:40:20Z</time>
      </trkpt>
      <trkpt lat="42.1290810" lon="-0.4218550">
        <ele>455.0</ele>
        <time>2019-03-16T11:40:24Z</time>
      </trkpt>
      <trkpt lat="42.1290410" lon="-0.4218750">
        <ele>455.6</ele>
        <time>2019-03-16T11:40:28Z</time>
      </trkpt>
      <trkpt lat="42.1290300" lon="-0.4219250">
        <ele>455.2</ele>
        <time>2019-03-16T11:40:32Z</time>
      </trkpt>
      <trkpt lat="42.1290350" lon="-0.4219680">
        <ele>455.2</ele>
        <time>2019-03-16T11:40:36Z</time>
      </trkpt>
      <trkpt lat="42.1290350" lon="-0.4219680">
        <ele>455.8</ele>
        <time>2019-03-16T11:40:40Z</time>
      </trkpt>
      <trkpt lat="42.1290350" lon="-0.4219680">
        <ele>455.0</ele>
        <time>2019-03-16T11:40:44Z</time>
      </trkpt>
      <trkpt lat="42.1290350" lon="-0.4219680">
        <ele>455.4</ele>
        <time>2019-03-16T11:40:48Z</time>
      </trkpt>
      <trkpt lat="42.1290350" lon="-0.4219680">
        <ele>455.2</ele>
        <time>2019-03-16T11:40:52Z</time>
      </trkpt>
      <trkpt lat="42.1290000" lon="-0.4219030">
        <ele>455.2</ele>
        <time>2019-03-16T11:40:56Z</time>
      </trkpt>
      <trkpt lat="42.1289610" lon="-0.4218980">
        <ele>455.4</ele>
        <time>2019-03-16T11:41:00Z</time>
      </trkpt>
      <trkpt lat="42.1289610" lon="-0.4218980">
        <ele>455.2</ele>
        <time>2019-03-16T11:41:04Z</time>
      </trkpt>
      <trkpt lat="42.1289610" lon="-0.4218980">
        <ele>455.4</ele>
        <time>2019-03-16T11:41:08Z</time>
      </trkpt>
      <trkpt lat="42.1289610" lon="-0.4218980">
        <ele>455.4</ele>
        <time>2019-03-16T11:41:12Z</time>
      </trkpt>
      <trkpt lat="42.1289610" lon="-0.4218980">
        <ele>455.0</ele>
        <time>2019-03-16T11:41:16Z</time>
      </trkpt>
      <trkpt lat="42.1289610" lon="-0.4218980">
        <ele>455.2</ele>
        <time>2019-03-16T11:41:20Z</time>
      </trkpt>
      <trkpt lat="42.1290660" lon="-0.4219610">
        <ele>455.2</ele>
        <time>2019-03-16T11:41:24Z</time>
      </trkpt>
      <trkpt lat="42.1291180" lon="-0.4219380">
        <ele>455.2</ele>
        <time>2019-03-16T11:41:28Z</time>
      </trkpt>
      <trkpt lat="42.1291730" lon="-0.4218660">
        <ele>455.4</ele>
        <time>2019-03-16T11:41:32Z</time>
      </trkpt>
      <trkpt lat="42.1292480" lon="-0.4218060">
        <ele>455.4</ele>
        <time>2019-03-16T11:41:36Z</time>
      </trkpt>
      <trkpt lat="42.1292180" lon="-0.4218530">
        <ele>455.6</ele>
        <time>2019-03-16T11:41:40Z</time>
      </trkpt>
      <trkpt lat="42.1291860" lon="-0.4219200">
        <ele>455.4</ele>
        <time>2019-03-16T11:41:44Z</time>
      </trkpt>
      <trkpt lat="42.1291150" lon="-0.4220330">
        <ele>455.2</ele>
        <time>2019-03-16T11:41:48Z</time>
      </trkpt>
      <trkpt lat="42.1290680" lon="-0.4221000">
        <ele>455.2</ele>
        <time>2019-03-16T11:41:52Z</time>
      </trkpt>
      <trkpt lat="42.1290680" lon="-0.4221000">
        <ele>455.6</ele>
        <time>2019-03-16T11:41:56Z</time>
      </trkpt>
      <trkpt lat="42.1290080" lon="-0.4221050">
        <ele>455.2</ele>
        <time>2019-03-16T11:42:00Z</time>
      </trkpt>
      <trkpt lat="42.1289650" lon="-0.4221100">
        <ele>455.2</ele>
        <time>2019-03-16T11:42:04Z</time>
      </trkpt>
      <trkpt lat="42.1289650" lon="-0.4221100">
        <ele>455.2</ele>
        <time>2019-03-16T11:42:08Z</time>
      </trkpt>
      <trkpt lat="42.1289650" lon="-0.4221100">
        <ele>455.6</ele>
        <time>2019-03-16T11:42:12Z</time>
      </trkpt>
      <trkpt lat="42.1291080" lon="-0.4221860">
        <ele>455.4</ele>
        <time>2019-03-16T11:42:16Z</time>
      </trkpt>
      <trkpt lat="42.1291460" lon="-0.4221700">
        <ele>455.6</ele>
        <time>2019-03-16T11:42:20Z</time>
      </trkpt>
      <trkpt lat="42.1292330" lon="-0.4221350">
        <ele>455.4</ele>
        <time>2019-03-16T11:42:24Z</time>
      </trkpt>
      <trkpt lat="42.1292330" lon="-0.4221350">
        <ele>455.6</ele>
        <time>2019-03-16T11:42:28Z</time>
      </trkpt>
      <trkpt lat="42.1292330" lon="-0.4221350">
        <ele>455.2</ele>
        <time>2019-03-16T11:42:32Z</time>
      </trkpt>
      <trkpt lat="42.1292330" lon="-0.4221350">
        <ele>455.0</ele>
        <time>2019-03-16T11:42:36Z</time>
      </trkpt>
      <trkpt lat="42.1292450" lon="-0.4221760">
        <ele>455.2</ele>
        <time>2019-03-16T11:42:40Z</time>
      </trkpt>
      <trkpt lat="42.1292450" lon="-0.4221760">
        <ele>455.6</ele>
        <time>2019-03-16T11:42:44Z</time>
      </trkpt>
      <trkpt lat="42.1292450" lon="-0.4221760">
        <ele>455.4</ele>
        <time>2019-03-16T11:42:48Z</time>
      </trkpt>
      <trkpt lat="42.1292450" lon="-0.4221760">
        <ele>455.6</ele>
        <time>2019-03-16T11:42:52Z</time>
      </trkpt>
      <trkpt lat="42.1292450" lon="-0.4221760">
        <ele>455.4</ele>
        <time>2019-03-16T11:42:56Z</time>
      </trkpt>
      <trkpt lat="42.1292450" lon="-0.4221760">
        <ele>455.8</ele>
        <time>2019-03-16T11:43:00Z</time>
      </trkpt>
      <trkpt lat="42.1292450" lon="-0.4221760">
        <ele>455.6</ele>
        <time>2019-03-16T11:43:04Z</time>
      </trkpt>
      <trkpt lat="42.1292030" lon="-0.4219400">
        <ele>455.6</ele>
        <time>2019-03-16T11:43:08Z</time>
      </trkpt>
      <trkpt lat="42.1292030" lon="-0.4219400">
        <ele>455.6</ele>
        <time>2019-03-16T11:43:12Z</time>
      </trkpt>
      <trkpt lat="42.1292030" lon="-0.4219400">
        <ele>455.4</ele>
        <time>2019-03-16T11:43:16Z</time>
      </trkpt>
      <trkpt lat="42.1291310" lon="-0.4219710">
        <ele>455.6</ele>
        <time>2019-03-16T11:43:20Z</time>
      </trkpt>
      <trkpt lat="42.1291310" lon="-0.4219710">
        <ele>455.2</ele>
        <time>2019-03-16T11:43:24Z</time>
      </trkpt>
      <trkpt lat="42.1291310" lon="-0.4219710">
        <ele>455.6</ele>
        <time>2019-03-16T11:43:28Z</time>
      </trkpt>
      <trkpt lat="42.1290730" lon="-0.4219680">
        <ele>455.4</ele>
        <time>2019-03-16T11:43:32Z</time>
      </trkpt>
      <trkpt lat="42.1290460" lon="-0.4219960">
        <ele>455.6</ele>
        <time>2019-03-16T11:43:36Z</time>
      </trkpt>
      <trkpt lat="42.1290460" lon="-0.4219960">
        <ele>455.6</ele>
        <time>2019-03-16T11:43:40Z</time>
      </trkpt>
      <trkpt lat="42.1290460" lon="-0.4219960">
        <ele>455.6</ele>
        <time>2019-03-16T11:43:44Z</time>
      </trkpt>
      <trkpt lat="42.1290030" lon="-0.4219930">
        <ele>455.6</ele>
        <time>2019-03-16T11:43:48Z</time>
      </trkpt>
      <trkpt lat="42.1290030" lon="-0.4219930">
        <ele>455.6</ele>
        <time>2019-03-16T11:43:52Z</time>
      </trkpt>
      <trkpt lat="42.1290030" lon="-0.4219930">
        <ele>455.4</ele>
        <time>2019-03-16T11:43:56Z</time>
      </trkpt>
      <trkpt lat="42.1290030" lon="-0.4219930">
        <ele>455.4</ele>
        <time>2019-03-16T11:44:00Z</time>
      </trkpt>
      <trkpt lat="42.1290030" lon="-0.4219930">
        <ele>455.2</ele>
        <time>2019-03-16T11:44:04Z</time>
      </trkpt>
      <trkpt lat="42.1292110" lon="-0.4220010">
        <ele>455.8</ele>
        <time>2019-03-16T11:44:08Z</time>
      </trkpt>
      <trkpt lat="42.1292200" lon="-0.4219980">
        <ele>455.8</ele>
        <time>2019-03-16T11:44:12Z</time>
      </trkpt>
      <trkpt lat="42.1292200" lon="-0.4219980">
        <ele>455.6</ele>
        <time>2019-03-16T11:44:16Z</time>
      </trkpt>
      <trkpt lat="42.1292200" lon="-0.4219980">
        <ele>455.6</ele>
        <time>2019-03-16T11:44:20Z</time>
      </trkpt>
      <trkpt lat="42.1292200" lon="-0.4219980">
        <ele>455.2</ele>
        <time>2019-03-16T11:44:24Z</time>
      </trkpt>
      <trkpt lat="42.1292200" lon="-0.4219980">
        <ele>455.6</ele>
        <time>2019-03-16T11:44:28Z</time>
      </trkpt>
      <trkpt lat="42.1292200" lon="-0.4219980">
        <ele>455.6</ele>
        <time>2019-03-16T11:44:32Z</time>
      </trkpt>
      <trkpt lat="42.1291860" lon="-0.4220650">
        <ele>455.2</ele>
        <time>2019-03-16T11:44:36Z</time>
      </trkpt>
      <trkpt lat="42.1291860" lon="-0.4220650">
        <ele>455.2</ele>
        <time>2019-03-16T11:44:40Z</time>
      </trkpt>
      <trkpt lat="42.1291860" lon="-0.4220650">
        <ele>455.6</ele>
        <time>2019-03-16T11:44:44Z</time>
      </trkpt>
      <trkpt lat="42.1291860" lon="-0.4220650">
        <ele>455.8</ele>
        <time>2019-03-16T11:44:48Z</time>
      </trkpt>
      <trkpt lat="42.1291860" lon="-0.4220650">
        <ele>455.6</ele>
        <time>2019-03-16T11:44:52Z</time>
      </trkpt>
      <trkpt lat="42.1291860" lon="-0.4220650">
        <ele>455.6</ele>
        <time>2019-03-16T11:44:56Z</time>
      </trkpt>
      <trkpt lat="42.1291860" lon="-0.4220650">
        <ele>455.6</ele>
        <time>2019-03-16T11:45:00Z</time>
      </trkpt>
      <trkpt lat="42.1291860" lon="-0.4220650">
        <ele>455.6</ele>
        <time>2019-03-16T11:45:04Z</time>
      </trkpt>
      <trkpt lat="42.1291810" lon="-0.4220410">
        <ele>455.6</ele>
        <time>2019-03-16T11:45:08Z</time>
      </trkpt>
      <trkpt lat="42.1291350" lon="-0.4220560">
        <ele>455.8</ele>
        <time>2019-03-16T11:45:12Z</time>
      </trkpt>
      <trkpt lat="42.1291230" lon="-0.4220560">
        <ele>455.6</ele>
        <time>2019-03-16T11:45:16Z</time>
      </trkpt>
      <trkpt lat="42.1291010" lon="-0.4220550">
        <ele>455.6</ele>
        <time>2019-03-16T11:45:20Z</time>
      </trkpt>
      <trkpt lat="42.1290250" lon="-0.4220930">
        <ele>455.6</ele>
        <time>2019-03-16T11:45:24Z</time>
      </trkpt>
      <trkpt lat="42.1290250" lon="-0.4220930">
        <ele>455.8</ele>
        <time>2019-03-16T11:45:28Z</time>
      </trkpt>
      <trkpt lat="42.1291410" lon="-0.4220150">
        <ele>455.6</ele>
        <time>2019-03-16T11:45:32Z</time>
      </trkpt>
      <trkpt lat="42.1291380" lon="-0.4220110">
        <ele>455.4</ele>
        <time>2019-03-16T11:45:36Z</time>
      </trkpt>
      <trkpt lat="42.1291380" lon="-0.4220110">
        <ele>455.6</ele>
        <time>2019-03-16T11:45:40Z</time>
      </trkpt>
      <trkpt lat="42.1291380" lon="-0.4220110">
        <ele>455.6</ele>
        <time>2019-03-16T11:45:44Z</time>
      </trkpt>
      <trkpt lat="42.1292250" lon="-0.4220060">
        <ele>455.6</ele>
        <time>2019-03-16T11:45:48Z</time>
      </trkpt>
      <trkpt lat="42.1292250" lon="-0.4220060">
        <ele>455.6</ele>
        <time>2019-03-16T11:45:52Z</time>
      </trkpt>
      <trkpt lat="42.1292230" lon="-0.4220580">
        <ele>455.6</ele>
        <time>2019-03-16T11:45:56Z</time>
      </trkpt>
      <trkpt lat="42.1292230" lon="-0.4220580">
        <ele>455.6</ele>
        <time>2019-03-16T11:46:00Z</time>
      </trkpt>
      <trkpt lat="42.1292230" lon="-0.4220580">
        <ele>455.6</ele>
        <time>2019-03-16T11:46:04Z</time>
      </trkpt>
      <trkpt lat="42.1290880" lon="-0.4220360">
        <ele>455.8</ele>
        <time>2019-03-16T11:46:08Z</time>
      </trkpt>
      <trkpt lat="42.1289910" lon="-0.4219680">
        <ele>455.8</ele>
        <time>2019-03-16T11:46:12Z</time>
      </trkpt>
      <trkpt lat="42.1289180" lon="-0.4219660">
        <ele>455.8</ele>
        <time>2019-03-16T11:46:16Z</time>
      </trkpt>
      <trkpt lat="42.1289910" lon="-0.4220200">
        <ele>455.8</ele>
        <time>2019-03-16T11:46:20Z</time>
      </trkpt>
      <trkpt lat="42.1289910" lon="-0.4220200">
        <ele>455.8</ele>
        <time>2019-03-16T11:46:24Z</time>
      </trkpt>
      <trkpt lat="42.1290710" lon="-0.4220210">
        <ele>456.0</ele>
        <time>2019-03-16T11:46:28Z</time>
      </trkpt>
      <trkpt lat="42.1290450" lon="-0.4220510">
        <ele>455.6</ele>
        <time>2019-03-16T11:46:32Z</time>
      </trkpt>
      <trkpt lat="42.1290450" lon="-0.4220510">
        <ele>455.8</ele>
        <time>2019-03-16T11:46:36Z</time>
      </trkpt>
      <trkpt lat="42.1291160" lon="-0.4220730">
        <ele>455.6</ele>
        <time>2019-03-16T11:46:40Z</time>
      </trkpt>
      <trkpt lat="42.1291280" lon="-0.4221050">
        <ele>455.6</ele>
        <time>2019-03-16T11:46:44Z</time>
      </trkpt>
      <trkpt lat="42.1291280" lon="-0.4221050">
        <ele>455.6</ele>
        <time>2019-03-16T11:46:48Z</time>
      </trkpt>
      <trkpt lat="42.1291660" lon="-0.4221430">
        <ele>455.6</ele>
        <time>2019-03-16T11:46:52Z</time>
      </trkpt>
      <trkpt lat="42.1290500" lon="-0.4220180">
        <ele>455.6</ele>
        <time>2019-03-16T11:46:56Z</time>
      </trkpt>
      <trkpt lat="42.1289110" lon="-0.4218960">
        <ele>455.6</ele>
        <time>2019-03-16T11:47:00Z</time>
      </trkpt>
      <trkpt lat="42.1289410" lon="-0.4219280">
        <ele>455.6</ele>
        <time>2019-03-16T11:47:04Z</time>
      </trkpt>
      <trkpt lat="42.1289410" lon="-0.4219310">
        <ele>455.6</ele>
        <time>2019-03-16T11:47:08Z</time>
      </trkpt>
      <trkpt lat="42.1289410" lon="-0.4219310">
        <ele>455.4</ele>
        <time>2019-03-16T11:47:12Z</time>
      </trkpt>
      <trkpt lat="42.1289410" lon="-0.4219310">
        <ele>455.6</ele>
        <time>2019-03-16T11:47:16Z</time>
      </trkpt>
      <trkpt lat="42.1289410" lon="-0.4219310">
        <ele>455.6</ele>
        <time>2019-03-16T11:47:20Z</time>
      </trkpt>
      <trkpt lat="42.1289410" lon="-0.4219310">
        <ele>455.6</ele>
        <time>2019-03-16T11:47:24Z</time>
      </trkpt>
      <trkpt lat="42.1289410" lon="-0.4219310">
        <ele>455.6</ele>
        <time>2019-03-16T11:47:28Z</time>
      </trkpt>
      <trkpt lat="42.1289410" lon="-0.4219310">
        <ele>456.0</ele>
        <time>2019-03-16T11:47:32Z</time>
      </trkpt>
      <trkpt lat="42.1289160" lon="-0.4219500">
        <ele>455.8</ele>
        <time>2019-03-16T11:47:36Z</time>
      </trkpt>
      <trkpt lat="42.1288950" lon="-0.4219060">
        <ele>455.6</ele>
        <time>2019-03-16T11:47:40Z</time>
      </trkpt>
      <trkpt lat="42.1288950" lon="-0.4219060">
        <ele>455.6</ele>
        <time>2019-03-16T11:47:44Z</time>
      </trkpt>
      <trkpt lat="42.1288950" lon="-0.4219060">
        <ele>456.0</ele>
        <time>2019-03-16T11:47:48Z</time>
      </trkpt>
      <trkpt lat="42.1288950" lon="-0.4219060">
        <ele>456.0</ele>
        <time>2019-03-16T11:47:52Z</time>
      </trkpt>
      <trkpt lat="42.1288950" lon="-0.4219060">
        <ele>455.6</ele>
        <time>2019-03-16T11:47:56Z</time>
      </trkpt>
      <trkpt lat="42.1290000" lon="-0.4219750">
        <ele>456.0</ele>
        <time>2019-03-16T11:48:00Z</time>
      </trkpt>
      <trkpt lat="42.1289930" lon="-0.4220130">
        <ele>456.2</ele>
        <time>2019-03-16T11:48:04Z</time>
      </trkpt>
      <trkpt lat="42.1289930" lon="-0.4220130">
        <ele>456.0</ele>
        <time>2019-03-16T11:48:08Z</time>
      </trkpt>
      <trkpt lat="42.1289930" lon="-0.4220130">
        <ele>455.6</ele>
        <time>2019-03-16T11:48:12Z</time>
      </trkpt>
      <trkpt lat="42.1289930" lon="-0.4220130">
        <ele>455.6</ele>
        <time>2019-03-16T11:48:16Z</time>
      </trkpt>
      <trkpt lat="42.1290430" lon="-0.4219500">
        <ele>456.0</ele>
        <time>2019-03-16T11:48:20Z</time>
      </trkpt>
      <trkpt lat="42.1290880" lon="-0.4219500">
        <ele>455.8</ele>
        <time>2019-03-16T11:48:24Z</time>
      </trkpt>
      <trkpt lat="42.1290860" lon="-0.4219280">
        <ele>455.8</ele>
        <time>2019-03-16T11:48:28Z</time>
      </trkpt>
      <trkpt lat="42.1291210" lon="-0.4219180">
        <ele>455.8</ele>
        <time>2019-03-16T11:48:32Z</time>
      </trkpt>
      <trkpt lat="42.1291210" lon="-0.4219180">
        <ele>455.8</ele>
        <time>2019-03-16T11:48:36Z</time>
      </trkpt>
      <trkpt lat="42.1290430" lon="-0.4219100">
        <ele>456.0</ele>
        <time>2019-03-16T11:48:40Z</time>
      </trkpt>
      <trkpt lat="42.1290630" lon="-0.4219480">
        <ele>455.6</ele>
        <time>2019-03-16T11:48:44Z</time>
      </trkpt>
      <trkpt lat="42.1291450" lon="-0.4219460">
        <ele>456.0</ele>
        <time>2019-03-16T11:48:48Z</time>
      </trkpt>
      <trkpt lat="42.1291950" lon="-0.4219100">
        <ele>456.0</ele>
        <time>2019-03-16T11:48:52Z</time>
      </trkpt>
      <trkpt lat="42.1291350" lon="-0.4219580">
        <ele>455.8</ele>
        <time>2019-03-16T11:48:56Z</time>
      </trkpt>
      <trkpt lat="42.1290100" lon="-0.4220280">
        <ele>456.0</ele>
        <time>2019-03-16T11:49:00Z</time>
      </trkpt>
      <trkpt lat="42.1288860" lon="-0.4221130">
        <ele>456.2</ele>
        <time>2019-03-16T11:49:04Z</time>
      </trkpt>
      <trkpt lat="42.1288230" lon="-0.4221310">
        <ele>455.8</ele>
        <time>2019-03-16T11:49:08Z</time>
      </trkpt>
      <trkpt lat="42.1290280" lon="-0.4220510">
        <ele>455.8</ele>
        <time>2019-03-16T11:49:12Z</time>
      </trkpt>
      <trkpt lat="42.1291680" lon="-0.4220780">
        <ele>456.0</ele>
        <time>2019-03-16T11:49:16Z</time>
      </trkpt>
      <trkpt lat="42.1291680" lon="-0.4220780">
        <ele>455.8</ele>
        <time>2019-03-16T11:49:20Z</time>
      </trkpt>
      <trkpt lat="42.1291680" lon="-0.4220530">
        <ele>455.6</ele>
        <time>2019-03-16T11:49:24Z</time>
      </trkpt>
      <trkpt lat="42.1291680" lon="-0.4220530">
        <ele>455.6</ele>
        <time>2019-03-16T11:49:28Z</time>
      </trkpt>
      <trkpt lat="42.1291680" lon="-0.4220530">
        <ele>455.6</ele>
        <time>2019-03-16T11:49:32Z</time>
      </trkpt>
      <trkpt lat="42.1291710" lon="-0.4220310">
        <ele>455.8</ele>
        <time>2019-03-16T11:49:36Z</time>
      </trkpt>
      <trkpt lat="42.1292130" lon="-0.4220210">
        <ele>455.6</ele>
        <time>2019-03-16T11:49:40Z</time>
      </trkpt>
      <trkpt lat="42.1292580" lon="-0.4220200">
        <ele>455.8</ele>
        <time>2019-03-16T11:49:44Z</time>
      </trkpt>
      <trkpt lat="42.1292860" lon="-0.4219850">
        <ele>455.6</ele>
        <time>2019-03-16T11:49:48Z</time>
      </trkpt>
      <trkpt lat="42.1292860" lon="-0.4219850">
        <ele>455.8</ele>
        <time>2019-03-16T11:49:52Z</time>
      </trkpt>
      <trkpt lat="42.1292860" lon="-0.4219850">
        <ele>455.8</ele>
        <time>2019-03-16T11:49:56Z</time>
      </trkpt>
      <trkpt lat="42.1292860" lon="-0.4219850">
        <ele>455.8</ele>
        <time>2019-03-16T11:50:00Z</time>
      </trkpt>
      <trkpt lat="42.1292860" lon="-0.4219850">
        <ele>455.6</ele>
        <time>2019-03-16T11:50:04Z</time>
      </trkpt>
      <trkpt lat="42.1292100" lon="-0.4218400">
        <ele>455.8</ele>
        <time>2019-03-16T11:50:08Z</time>
      </trkpt>
      <trkpt lat="42.1291950" lon="-0.4217850">
        <ele>455.8</ele>
        <time>2019-03-16T11:50:12Z</time>
      </trkpt>
      <trkpt lat="42.1291610" lon="-0.4218500">
        <ele>455.8</ele>
        <time>2019-03-16T11:50:16Z</time>
      </trkpt>
      <trkpt lat="42.1291580" lon="-0.4218880">
        <ele>455.8</ele>
        <time>2019-03-16T11:50:20Z</time>
      </trkpt>
      <trkpt lat="42.1291580" lon="-0.4218880">
        <ele>455.8</ele>
        <time>2019-03-16T11:50:24Z</time>
      </trkpt>
      <trkpt lat="42.1291630" lon="-0.4218810">
        <ele>456.0</ele>
        <time>2019-03-16T11:50:28Z</time>
      </trkpt>
      <trkpt lat="42.1291600" lon="-0.4218910">
        <ele>455.8</ele>
        <time>2019-03-16T11:50:32Z</time>
      </trkpt>
      <trkpt lat="42.1291860" lon="-0.4218800">
        <ele>456.0</ele>
        <time>2019-03-16T11:50:36Z</time>
      </trkpt>
      <trkpt lat="42.1292230" lon="-0.4218680">
        <ele>455.8</ele>
        <time>2019-03-16T11:50:40Z</time>
      </trkpt>
      <trkpt lat="42.1292480" lon="-0.4218730">
        <ele>456.2</ele>
        <time>2019-03-16T11:50:44Z</time>
      </trkpt>
      <trkpt lat="42.1292780" lon="-0.4218200">
        <ele>456.2</ele>
        <time>2019-03-16T11:50:48Z</time>
      </trkpt>
      <trkpt lat="42.1292780" lon="-0.4218200">
        <ele>455.8</ele>
        <time>2019-03-16T11:50:52Z</time>
      </trkpt>
      <trkpt lat="42.1293630" lon="-0.4217000">
        <ele>456.4</ele>
        <time>2019-03-16T11:50:56Z</time>
      </trkpt>
      <trkpt lat="42.1293630" lon="-0.4217000">
        <ele>456.4</ele>
        <time>2019-03-16T11:51:00Z</time>
      </trkpt>
      <trkpt lat="42.1293630" lon="-0.4217000">
        <ele>456.4</ele>
        <time>2019-03-16T11:51:04Z</time>
      </trkpt>
      <trkpt lat="42.1293630" lon="-0.4217000">
        <ele>456.6</ele>
        <time>2019-03-16T11:51:08Z</time>
      </trkpt>
      <trkpt lat="42.1293630" lon="-0.4217000">
        <ele>456.2</ele>
        <time>2019-03-16T11:51:12Z</time>
      </trkpt>
      <trkpt lat="42.1293630" lon="-0.4217000">
        <ele>456.6</ele>
        <time>2019-03-16T11:51:16Z</time>
      </trkpt>
      <trkpt lat="42.1293630" lon="-0.4217000">
        <ele>456.8</ele>
        <time>2019-03-16T11:51:20Z</time>
      </trkpt>
      <trkpt lat="42.1293630" lon="-0.4217000">
        <ele>456.4</ele>
        <time>2019-03-16T11:51:24Z</time>
      </trkpt>
      <trkpt lat="42.1293630" lon="-0.4217000">
        <ele>456.8</ele>
        <time>2019-03-16T11:51:28Z</time>
      </trkpt>
      <trkpt lat="42.1293630" lon="-0.4217000">
        <ele>456.8</ele>
        <time>2019-03-16T11:51:32Z</time>
      </trkpt>
      <trkpt lat="42.1293630" lon="-0.4217000">
        <ele>456.6</ele>
        <time>2019-03-16T11:51:36Z</time>
      </trkpt>
      <trkpt lat="42.1293630" lon="-0.4217000">
        <ele>456.8</ele>
        <time>2019-03-16T11:51:40Z</time>
      </trkpt>
      <trkpt lat="42.1293630" lon="-0.4217000">
        <ele>456.6</ele>
        <time>2019-03-16T11:51:44Z</time>
      </trkpt>
      <trkpt lat="42.1293630" lon="-0.4217000">
        <ele>456.6</ele>
        <time>2019-03-16T11:51:48Z</time>
      </trkpt>
      <trkpt lat="42.1293630" lon="-0.4217000">
        <ele>456.6</ele>
        <time>2019-03-16T11:51:52Z</time>
      </trkpt>
      <trkpt lat="42.1293630" lon="-0.4217000">
        <ele>455.2</ele>
        <time>2019-03-16T11:51:56Z</time>
      </trkpt>
      <trkpt lat="42.1293630" lon="-0.4217000">
        <ele>451.4</ele>
        <time>2019-03-16T11:52:00Z</time>
      </trkpt>
      <trkpt lat="42.1293630" lon="-0.4217000">
        <ele>447.8</ele>
        <time>2019-03-16T11:52:04Z</time>
      </trkpt>
      <trkpt lat="42.1293630" lon="-0.4217000">
        <ele>446.6</ele>
        <time>2019-03-16T11:52:08Z</time>
      </trkpt>
      <trkpt lat="42.1293630" lon="-0.4217000">
        <ele>446.8</ele>
        <time>2019-03-16T11:52:12Z</time>
      </trkpt>
      <trkpt lat="42.1293630" lon="-0.4217000">
        <ele>446.2</ele>
        <time>2019-03-16T11:52:16Z</time>
      </trkpt>
      <trkpt lat="42.1293630" lon="-0.4217000">
        <ele>446.8</ele>
        <time>2019-03-16T11:52:20Z</time>
      </trkpt>
      <trkpt lat="42.1293630" lon="-0.4217000">
        <ele>446.6</ele>
        <time>2019-03-16T11:52:24Z</time>
      </trkpt>
      <trkpt lat="42.1291580" lon="-0.4218160">
        <ele>446.2</ele>
        <time>2019-03-16T11:52:28Z</time>
      </trkpt>
      <trkpt lat="42.1291930" lon="-0.4218010">
        <ele>446.4</ele>
        <time>2019-03-16T11:52:32Z</time>
      </trkpt>
      <trkpt lat="42.1291710" lon="-0.4217850">
        <ele>446.2</ele>
        <time>2019-03-16T11:52:36Z</time>
      </trkpt>
      <trkpt lat="42.1291730" lon="-0.4217600">
        <ele>446.0</ele>
        <time>2019-03-16T11:52:40Z</time>
      </trkpt>
      <trkpt lat="42.1291750" lon="-0.4217050">
        <ele>446.2</ele>
        <time>2019-03-16T11:52:44Z</time>
      </trkpt>
      <trkpt lat="42.1291750" lon="-0.4217050">
        <ele>446.4</ele>
        <time>2019-03-16T11:52:48Z</time>
      </trkpt>
      <trkpt lat="42.1291750" lon="-0.4217050">
        <ele>446.2</ele>
        <time>2019-03-16T11:52:52Z</time>
      </trkpt>
      <trkpt lat="42.1291860" lon="-0.4216800">
        <ele>446.2</ele>
        <time>2019-03-16T11:52:56Z</time>
      </trkpt>
      <trkpt lat="42.1292430" lon="-0.4216180">
        <ele>446.8</ele>
        <time>2019-03-16T11:53:00Z</time>
      </trkpt>
      <trkpt lat="42.1293800" lon="-0.4216760">
        <ele>446.8</ele>
        <time>2019-03-16T11:53:04Z</time>
      </trkpt>
      <trkpt lat="42.1295580" lon="-0.4218460">
        <ele>445.2</ele>
        <time>2019-03-16T11:53:08Z</time>
      </trkpt>
      <trkpt lat="42.1297700" lon="-0.4219780">
        <ele>444.8</ele>
        <time>2019-03-16T11:53:12Z</time>
      </trkpt>
      <trkpt lat="42.1299610" lon="-0.4218560">
        <ele>443.2</ele>
        <time>2019-03-16T11:53:16Z</time>
      </trkpt>
      <trkpt lat="42.1301230" lon="-0.4215430">
        <ele>443.4</ele>
        <time>2019-03-16T11:53:20Z</time>
      </trkpt>
      <trkpt lat="42.1302730" lon="-0.4211960">
        <ele>443.4</ele>
        <time>2019-03-16T11:53:24Z</time>
      </trkpt>
      <trkpt lat="42.1304350" lon="-0.4208680">
        <ele>443.2</ele>
        <time>2019-03-16T11:53:28Z</time>
      </trkpt>
      <trkpt lat="42.1305860" lon="-0.4205410">
        <ele>443.2</ele>
        <time>2019-03-16T11:53:32Z</time>
      </trkpt>
      <trkpt lat="42.1307230" lon="-0.4202080">
        <ele>443.6</ele>
        <time>2019-03-16T11:53:36Z</time>
      </trkpt>
      <trkpt lat="42.1308000" lon="-0.4198450">
        <ele>443.8</ele>
        <time>2019-03-16T11:53:40Z</time>
      </trkpt>
      <trkpt lat="42.1310100" lon="-0.4195860">
        <ele>443.8</ele>
        <time>2019-03-16T11:53:44Z</time>
      </trkpt>
      <trkpt lat="42.1311700" lon="-0.4192680">
        <ele>443.6</ele>
        <time>2019-03-16T11:53:48Z</time>
      </trkpt>
      <trkpt lat="42.1313200" lon="-0.4189480">
        <ele>444.2</ele>
        <time>2019-03-16T11:53:52Z</time>
      </trkpt>
      <trkpt lat="42.1314650" lon="-0.4186310">
        <ele>444.6</ele>
        <time>2019-03-16T11:53:56Z</time>
      </trkpt>
      <trkpt lat="42.1316080" lon="-0.4183180">
        <ele>444.2</ele>
        <time>2019-03-16T11:54:00Z</time>
      </trkpt>
      <trkpt lat="42.1317500" lon="-0.4180160">
        <ele>444.4</ele>
        <time>2019-03-16T11:54:04Z</time>
      </trkpt>
      <trkpt lat="42.1319030" lon="-0.4177130">
        <ele>445.0</ele>
        <time>2019-03-16T11:54:08Z</time>
      </trkpt>
      <trkpt lat="42.1320680" lon="-0.4174180">
        <ele>444.8</ele>
        <time>2019-03-16T11:54:12Z</time>
      </trkpt>
      <trkpt lat="42.1321910" lon="-0.4171400">
        <ele>445.8</ele>
        <time>2019-03-16T11:54:16Z</time>
      </trkpt>
      <trkpt lat="42.1322800" lon="-0.4169210">
        <ele>445.8</ele>
        <time>2019-03-16T11:54:20Z</time>
      </trkpt>
      <trkpt lat="42.1323600" lon="-0.4167550">
        <ele>445.2</ele>
        <time>2019-03-16T11:54:24Z</time>
      </trkpt>
      <trkpt lat="42.1323600" lon="-0.4167550">
        <ele>444.8</ele>
        <time>2019-03-16T11:54:28Z</time>
      </trkpt>
      <trkpt lat="42.1323600" lon="-0.4167550">
        <ele>445.0</ele>
        <time>2019-03-16T11:54:32Z</time>
      </trkpt>
      <trkpt lat="42.1323980" lon="-0.4167110">
        <ele>445.2</ele>
        <time>2019-03-16T11:54:36Z</time>
      </trkpt>
      <trkpt lat="42.1324330" lon="-0.4165850">
        <ele>445.0</ele>
        <time>2019-03-16T11:54:40Z</time>
      </trkpt>
      <trkpt lat="42.1325210" lon="-0.4164310">
        <ele>444.4</ele>
        <time>2019-03-16T11:54:44Z</time>
      </trkpt>
      <trkpt lat="42.1326660" lon="-0.4164100">
        <ele>444.8</ele>
        <time>2019-03-16T11:54:48Z</time>
      </trkpt>
      <trkpt lat="42.1327710" lon="-0.4165200">
        <ele>444.6</ele>
        <time>2019-03-16T11:54:52Z</time>
      </trkpt>
      <trkpt lat="42.1328660" lon="-0.4166710">
        <ele>444.6</ele>
        <time>2019-03-16T11:54:56Z</time>
      </trkpt>
      <trkpt lat="42.1330160" lon="-0.4168460">
        <ele>445.0</ele>
        <time>2019-03-16T11:55:00Z</time>
      </trkpt>
      <trkpt lat="42.1331780" lon="-0.4170100">
        <ele>445.2</ele>
        <time>2019-03-16T11:55:04Z</time>
      </trkpt>
      <trkpt lat="42.1333200" lon="-0.4172080">
        <ele>446.0</ele>
        <time>2019-03-16T11:55:08Z</time>
      </trkpt>
      <trkpt lat="42.1334950" lon="-0.4174230">
        <ele>445.8</ele>
        <time>2019-03-16T11:55:12Z</time>
      </trkpt>
      <trkpt lat="42.1336850" lon="-0.4176430">
        <ele>447.6</ele>
        <time>2019-03-16T11:55:16Z</time>
      </trkpt>
      <trkpt lat="42.1338810" lon="-0.4178680">
        <ele>447.6</ele>
        <time>2019-03-16T11:55:20Z</time>
      </trkpt>
      <trkpt lat="42.1340800" lon="-0.4180910">
        <ele>447.4</ele>
        <time>2019-03-16T11:55:24Z</time>
      </trkpt>
      <trkpt lat="42.1342560" lon="-0.4182850">
        <ele>447.6</ele>
        <time>2019-03-16T11:55:28Z</time>
      </trkpt>
      <trkpt lat="42.1343950" lon="-0.4184180">
        <ele>448.2</ele>
        <time>2019-03-16T11:55:32Z</time>
      </trkpt>
      <trkpt lat="42.1344550" lon="-0.4184400">
        <ele>448.4</ele>
        <time>2019-03-16T11:55:36Z</time>
      </trkpt>
      <trkpt lat="42.1346060" lon="-0.4185410">
        <ele>448.2</ele>
        <time>2019-03-16T11:55:40Z</time>
      </trkpt>
      <trkpt lat="42.1347580" lon="-0.4186750">
        <ele>445.6</ele>
        <time>2019-03-16T11:55:44Z</time>
      </trkpt>
      <trkpt lat="42.1348210" lon="-0.4187680">
        <ele>448.4</ele>
        <time>2019-03-16T11:55:48Z</time>
      </trkpt>
      <trkpt lat="42.1348430" lon="-0.4186910">
        <ele>448.4</ele>
        <time>2019-03-16T11:55:52Z</time>
      </trkpt>
      <trkpt lat="42.1349760" lon="-0.4186780">
        <ele>448.4</ele>
        <time>2019-03-16T11:55:56Z</time>
      </trkpt>
      <trkpt lat="42.1351410" lon="-0.4184710">
        <ele>448.2</ele>
        <time>2019-03-16T11:56:00Z</time>
      </trkpt>
      <trkpt lat="42.1353130" lon="-0.4182230">
        <ele>448.2</ele>
        <time>2019-03-16T11:56:04Z</time>
      </trkpt>
      <trkpt lat="42.1354860" lon="-0.4179560">
        <ele>447.8</ele>
        <time>2019-03-16T11:56:08Z</time>
      </trkpt>
      <trkpt lat="42.1356630" lon="-0.4176850">
        <ele>447.6</ele>
        <time>2019-03-16T11:56:12Z</time>
      </trkpt>
      <trkpt lat="42.1358360" lon="-0.4174060">
        <ele>447.6</ele>
        <time>2019-03-16T11:56:16Z</time>
      </trkpt>
      <trkpt lat="42.1359950" lon="-0.4171400">
        <ele>447.8</ele>
        <time>2019-03-16T11:56:20Z</time>
      </trkpt>
      <trkpt lat="42.1361710" lon="-0.4168860">
        <ele>448.2</ele>
        <time>2019-03-16T11:56:24Z</time>
      </trkpt>
      <trkpt lat="42.1363210" lon="-0.4166280">
        <ele>448.2</ele>
        <time>2019-03-16T11:56:28Z</time>
      </trkpt>
      <trkpt lat="42.1364650" lon="-0.4164050">
        <ele>448.2</ele>
        <time>2019-03-16T11:56:32Z</time>
      </trkpt>
      <trkpt lat="42.1366100" lon="-0.4161600">
        <ele>448.0</ele>
        <time>2019-03-16T11:56:36Z</time>
      </trkpt>
      <trkpt lat="42.1367750" lon="-0.4159860">
        <ele>448.2</ele>
        <time>2019-03-16T11:56:40Z</time>
      </trkpt>
      <trkpt lat="42.1368430" lon="-0.4158010">
        <ele>448.8</ele>
        <time>2019-03-16T11:56:44Z</time>
      </trkpt>
      <trkpt lat="42.1368900" lon="-0.4157210">
        <ele>448.8</ele>
        <time>2019-03-16T11:56:48Z</time>
      </trkpt>
      <trkpt lat="42.1370010" lon="-0.4157500">
        <ele>449.0</ele>
        <time>2019-03-16T11:56:52Z</time>
      </trkpt>
      <trkpt lat="42.1371310" lon="-0.4158810">
        <ele>448.8</ele>
        <time>2019-03-16T11:56:56Z</time>
      </trkpt>
      <trkpt lat="42.1372860" lon="-0.4160230">
        <ele>449.0</ele>
        <time>2019-03-16T11:57:00Z</time>
      </trkpt>
      <trkpt lat="42.1374300" lon="-0.4161500">
        <ele>449.2</ele>
        <time>2019-03-16T11:57:04Z</time>
      </trkpt>
      <trkpt lat="42.1375810" lon="-0.4163260">
        <ele>449.0</ele>
        <time>2019-03-16T11:57:08Z</time>
      </trkpt>
      <trkpt lat="42.1377280" lon="-0.4164550">
        <ele>450.2</ele>
        <time>2019-03-16T11:57:12Z</time>
      </trkpt>
      <trkpt lat="42.1379050" lon="-0.4165980">
        <ele>449.6</ele>
        <time>2019-03-16T11:57:16Z</time>
      </trkpt>
      <trkpt lat="42.1381000" lon="-0.4168050">
        <ele>449.8</ele>
        <time>2019-03-16T11:57:20Z</time>
      </trkpt>
      <trkpt lat="42.1382960" lon="-0.4170180">
        <ele>450.0</ele>
        <time>2019-03-16T11:57:24Z</time>
      </trkpt>
      <trkpt lat="42.1385030" lon="-0.4172330">
        <ele>450.6</ele>
        <time>2019-03-16T11:57:28Z</time>
      </trkpt>
      <trkpt lat="42.1387060" lon="-0.4174730">
        <ele>450.8</ele>
        <time>2019-03-16T11:57:32Z</time>
      </trkpt>
      <trkpt lat="42.1389050" lon="-0.4176860">
        <ele>451.8</ele>
        <time>2019-03-16T11:57:36Z</time>
      </trkpt>
      <trkpt lat="42.1391150" lon="-0.4179080">
        <ele>452.2</ele>
        <time>2019-03-16T11:57:40Z</time>
      </trkpt>
      <trkpt lat="42.1393160" lon="-0.4181510">
        <ele>452.4</ele>
        <time>2019-03-16T11:57:44Z</time>
      </trkpt>
      <trkpt lat="42.1395200" lon="-0.4183760">
        <ele>452.8</ele>
        <time>2019-03-16T11:57:48Z</time>
      </trkpt>
      <trkpt lat="42.1397300" lon="-0.4185960">
        <ele>453.0</ele>
        <time>2019-03-16T11:57:52Z</time>
      </trkpt>
      <trkpt lat="42.1399750" lon="-0.4186200">
        <ele>454.2</ele>
        <time>2019-03-16T11:57:56Z</time>
      </trkpt>
      <trkpt lat="42.1401080" lon="-0.4186250">
        <ele>454.2</ele>
        <time>2019-03-16T11:58:00Z</time>
      </trkpt>
      <trkpt lat="42.1402000" lon="-0.4186550">
        <ele>453.4</ele>
        <time>2019-03-16T11:58:04Z</time>
      </trkpt>
      <trkpt lat="42.1404200" lon="-0.4186780">
        <ele>454.4</ele>
        <time>2019-03-16T11:58:08Z</time>
      </trkpt>
      <trkpt lat="42.1406760" lon="-0.4186660">
        <ele>454.6</ele>
        <time>2019-03-16T11:58:12Z</time>
      </trkpt>
      <trkpt lat="42.1409510" lon="-0.4186450">
        <ele>454.8</ele>
        <time>2019-03-16T11:58:16Z</time>
      </trkpt>
      <trkpt lat="42.1412230" lon="-0.4186160">
        <ele>454.2</ele>
        <time>2019-03-16T11:58:20Z</time>
      </trkpt>
      <trkpt lat="42.1415000" lon="-0.4185960">
        <ele>454.8</ele>
        <time>2019-03-16T11:58:24Z</time>
      </trkpt>
      <trkpt lat="42.1417760" lon="-0.4185630">
        <ele>455.2</ele>
        <time>2019-03-16T11:58:28Z</time>
      </trkpt>
      <trkpt lat="42.1420610" lon="-0.4185230">
        <ele>455.6</ele>
        <time>2019-03-16T11:58:32Z</time>
      </trkpt>
      <trkpt lat="42.1423460" lon="-0.4184880">
        <ele>456.0</ele>
        <time>2019-03-16T11:58:36Z</time>
      </trkpt>
      <trkpt lat="42.1426330" lon="-0.4184630">
        <ele>456.0</ele>
        <time>2019-03-16T11:58:40Z</time>
      </trkpt>
      <trkpt lat="42.1428950" lon="-0.4184180">
        <ele>457.0</ele>
        <time>2019-03-16T11:58:44Z</time>
      </trkpt>
      <trkpt lat="42.1430950" lon="-0.4182080">
        <ele>457.6</ele>
        <time>2019-03-16T11:58:48Z</time>
      </trkpt>
      <trkpt lat="42.1432500" lon="-0.4179080">
        <ele>457.2</ele>
        <time>2019-03-16T11:58:52Z</time>
      </trkpt>
      <trkpt lat="42.1434510" lon="-0.4176500">
        <ele>457.8</ele>
        <time>2019-03-16T11:58:56Z</time>
      </trkpt>
      <trkpt lat="42.1436460" lon="-0.4173710">
        <ele>457.6</ele>
        <time>2019-03-16T11:59:00Z</time>
      </trkpt>
      <trkpt lat="42.1438280" lon="-0.4170850">
        <ele>458.2</ele>
        <time>2019-03-16T11:59:04Z</time>
      </trkpt>
      <trkpt lat="42.1439910" lon="-0.4168180">
        <ele>458.2</ele>
        <time>2019-03-16T11:59:08Z</time>
      </trkpt>
      <trkpt lat="42.1441730" lon="-0.4165380">
        <ele>458.4</ele>
        <time>2019-03-16T11:59:12Z</time>
      </trkpt>
      <trkpt lat="42.1443400" lon="-0.4162460">
        <ele>458.6</ele>
        <time>2019-03-16T11:59:16Z</time>
      </trkpt>
      <trkpt lat="42.1445280" lon="-0.4160030">
        <ele>458.0</ele>
        <time>2019-03-16T11:59:20Z</time>
      </trkpt>
      <trkpt lat="42.1446800" lon="-0.4162360">
        <ele>459.4</ele>
        <time>2019-03-16T11:59:24Z</time>
      </trkpt>
      <trkpt lat="42.1447460" lon="-0.4165780">
        <ele>458.8</ele>
        <time>2019-03-16T11:59:28Z</time>
      </trkpt>
      <trkpt lat="42.1448810" lon="-0.4168910">
        <ele>458.4</ele>
        <time>2019-03-16T11:59:32Z</time>
      </trkpt>
      <trkpt lat="42.1450200" lon="-0.4172060">
        <ele>458.8</ele>
        <time>2019-03-16T11:59:36Z</time>
      </trkpt>
      <trkpt lat="42.1451580" lon="-0.4175360">
        <ele>458.8</ele>
        <time>2019-03-16T11:59:40Z</time>
      </trkpt>
      <trkpt lat="42.1453050" lon="-0.4178760">
        <ele>459.2</ele>
        <time>2019-03-16T11:59:44Z</time>
      </trkpt>
      <trkpt lat="42.1454560" lon="-0.4182330">
        <ele>459.2</ele>
        <time>2019-03-16T11:59:48Z</time>
      </trkpt>
      <trkpt lat="42.1456100" lon="-0.4185910">
        <ele>458.8</ele>
        <time>2019-03-16T11:59:52Z</time>
      </trkpt>
      <trkpt lat="42.1457610" lon="-0.4189500">
        <ele>460.0</ele>
        <time>2019-03-16T11:59:56Z</time>
      </trkpt>
      <trkpt lat="42.1459160" lon="-0.4193060">
        <ele>459.8</ele>
        <time>2019-03-16T12:00:00Z</time>
      </trkpt>
      <trkpt lat="42.1460700" lon="-0.4196580">
        <ele>460.8</ele>
        <time>2019-03-16T12:00:04Z</time>
      </trkpt>
      <trkpt lat="42.1462180" lon="-0.4200050">
        <ele>460.8</ele>
        <time>2019-03-16T12:00:08Z</time>
      </trkpt>
      <trkpt lat="42.1463610" lon="-0.4203400">
        <ele>460.2</ele>
        <time>2019-03-16T12:00:12Z</time>
      </trkpt>
      <trkpt lat="42.1465010" lon="-0.4206750">
        <ele>460.6</ele>
        <time>2019-03-16T12:00:16Z</time>
      </trkpt>
      <trkpt lat="42.1466450" lon="-0.4210110">
        <ele>461.0</ele>
        <time>2019-03-16T12:00:20Z</time>
      </trkpt>
      <trkpt lat="42.1467900" lon="-0.4213500">
        <ele>461.8</ele>
        <time>2019-03-16T12:00:24Z</time>
      </trkpt>
      <trkpt lat="42.1469380" lon="-0.4216980">
        <ele>461.8</ele>
        <time>2019-03-16T12:00:28Z</time>
      </trkpt>
      <trkpt lat="42.1470830" lon="-0.4220500">
        <ele>462.2</ele>
        <time>2019-03-16T12:00:32Z</time>
      </trkpt>
      <trkpt lat="42.1472350" lon="-0.4223930">
        <ele>462.4</ele>
        <time>2019-03-16T12:00:36Z</time>
      </trkpt>
      <trkpt lat="42.1473800" lon="-0.4227400">
        <ele>462.6</ele>
        <time>2019-03-16T12:00:40Z</time>
      </trkpt>
      <trkpt lat="42.1475210" lon="-0.4230730">
        <ele>463.6</ele>
        <time>2019-03-16T12:00:44Z</time>
      </trkpt>
      <trkpt lat="42.1476600" lon="-0.4233960">
        <ele>464.0</ele>
        <time>2019-03-16T12:00:48Z</time>
      </trkpt>
      <trkpt lat="42.1478030" lon="-0.4237210">
        <ele>463.6</ele>
        <time>2019-03-16T12:00:52Z</time>
      </trkpt>
      <trkpt lat="42.1480230" lon="-0.4239600">
        <ele>464.2</ele>
        <time>2019-03-16T12:00:56Z</time>
      </trkpt>
      <trkpt lat="42.1480860" lon="-0.4243330">
        <ele>464.0</ele>
        <time>2019-03-16T12:01:00Z</time>
      </trkpt>
      <trkpt lat="42.1482030" lon="-0.4246910">
        <ele>465.2</ele>
        <time>2019-03-16T12:01:04Z</time>
      </trkpt>
      <trkpt lat="42.1483500" lon="-0.4250310">
        <ele>464.8</ele>
        <time>2019-03-16T12:01:08Z</time>
      </trkpt>
      <trkpt lat="42.1484980" lon="-0.4253730">
        <ele>465.4</ele>
        <time>2019-03-16T12:01:12Z</time>
      </trkpt>
      <trkpt lat="42.1486530" lon="-0.4257180">
        <ele>465.2</ele>
        <time>2019-03-16T12:01:16Z</time>
      </trkpt>
      <trkpt lat="42.1488160" lon="-0.4260580">
        <ele>465.2</ele>
        <time>2019-03-16T12:01:20Z</time>
      </trkpt>
      <trkpt lat="42.1489680" lon="-0.4263980">
        <ele>465.8</ele>
        <time>2019-03-16T12:01:24Z</time>
      </trkpt>
      <trkpt lat="42.1491110" lon="-0.4266750">
        <ele>466.0</ele>
        <time>2019-03-16T12:01:28Z</time>
      </trkpt>
      <trkpt lat="42.1492500" lon="-0.4270500">
        <ele>466.2</ele>
        <time>2019-03-16T12:01:32Z</time>
      </trkpt>
      <trkpt lat="42.1493900" lon="-0.4274060">
        <ele>466.2</ele>
        <time>2019-03-16T12:01:36Z</time>
      </trkpt>
      <trkpt lat="42.1495350" lon="-0.4277460">
        <ele>466.4</ele>
        <time>2019-03-16T12:01:40Z</time>
      </trkpt>
      <trkpt lat="42.1496730" lon="-0.4280850">
        <ele>467.0</ele>
        <time>2019-03-16T12:01:44Z</time>
      </trkpt>
      <trkpt lat="42.1498150" lon="-0.4284200">
        <ele>467.0</ele>
        <time>2019-03-16T12:01:48Z</time>
      </trkpt>
      <trkpt lat="42.1499550" lon="-0.4287660">
        <ele>467.0</ele>
        <time>2019-03-16T12:01:52Z</time>
      </trkpt>
      <trkpt lat="42.1501100" lon="-0.4291060">
        <ele>468.0</ele>
        <time>2019-03-16T12:01:56Z</time>
      </trkpt>
      <trkpt lat="42.1502680" lon="-0.4294580">
        <ele>467.8</ele>
        <time>2019-03-16T12:02:00Z</time>
      </trkpt>
      <trkpt lat="42.1504200" lon="-0.4298200">
        <ele>468.4</ele>
        <time>2019-03-16T12:02:04Z</time>
      </trkpt>
      <trkpt lat="42.1505680" lon="-0.4301780">
        <ele>468.0</ele>
        <time>2019-03-16T12:02:08Z</time>
      </trkpt>
      <trkpt lat="42.1507160" lon="-0.4305330">
        <ele>468.2</ele>
        <time>2019-03-16T12:02:12Z</time>
      </trkpt>
      <trkpt lat="42.1508610" lon="-0.4308850">
        <ele>468.8</ele>
        <time>2019-03-16T12:02:16Z</time>
      </trkpt>
      <trkpt lat="42.1510060" lon="-0.4312360">
        <ele>468.8</ele>
        <time>2019-03-16T12:02:20Z</time>
      </trkpt>
      <trkpt lat="42.1511450" lon="-0.4315900">
        <ele>469.2</ele>
        <time>2019-03-16T12:02:24Z</time>
      </trkpt>
      <trkpt lat="42.1512800" lon="-0.4319360">
        <ele>469.6</ele>
        <time>2019-03-16T12:02:28Z</time>
      </trkpt>
      <trkpt lat="42.1514160" lon="-0.4322760">
        <ele>469.8</ele>
        <time>2019-03-16T12:02:32Z</time>
      </trkpt>
      <trkpt lat="42.1515600" lon="-0.4326150">
        <ele>470.0</ele>
        <time>2019-03-16T12:02:36Z</time>
      </trkpt>
      <trkpt lat="42.1517000" lon="-0.4329500">
        <ele>470.8</ele>
        <time>2019-03-16T12:02:40Z</time>
      </trkpt>
      <trkpt lat="42.1518410" lon="-0.4332810">
        <ele>470.2</ele>
        <time>2019-03-16T12:02:44Z</time>
      </trkpt>
      <trkpt lat="42.1519810" lon="-0.4336110">
        <ele>470.6</ele>
        <time>2019-03-16T12:02:48Z</time>
      </trkpt>
      <trkpt lat="42.1521210" lon="-0.4339400">
        <ele>471.2</ele>
        <time>2019-03-16T12:02:52Z</time>
      </trkpt>
      <trkpt lat="42.1522560" lon="-0.4342630">
        <ele>471.6</ele>
        <time>2019-03-16T12:02:56Z</time>
      </trkpt>
      <trkpt lat="42.1523950" lon="-0.4345830">
        <ele>471.2</ele>
        <time>2019-03-16T12:03:00Z</time>
      </trkpt>
      <trkpt lat="42.1525330" lon="-0.4349060">
        <ele>472.0</ele>
        <time>2019-03-16T12:03:04Z</time>
      </trkpt>
      <trkpt lat="42.1526610" lon="-0.4352130">
        <ele>473.2</ele>
        <time>2019-03-16T12:03:08Z</time>
      </trkpt>
      <trkpt lat="42.1527810" lon="-0.4355000">
        <ele>473.6</ele>
        <time>2019-03-16T12:03:12Z</time>
      </trkpt>
      <trkpt lat="42.1528980" lon="-0.4357760">
        <ele>473.6</ele>
        <time>2019-03-16T12:03:16Z</time>
      </trkpt>
      <trkpt lat="42.1530110" lon="-0.4360480">
        <ele>474.4</ele>
        <time>2019-03-16T12:03:20Z</time>
      </trkpt>
      <trkpt lat="42.1531280" lon="-0.4363160">
        <ele>475.2</ele>
        <time>2019-03-16T12:03:24Z</time>
      </trkpt>
      <trkpt lat="42.1532430" lon="-0.4365910">
        <ele>475.8</ele>
        <time>2019-03-16T12:03:28Z</time>
      </trkpt>
      <trkpt lat="42.1533560" lon="-0.4368650">
        <ele>476.6</ele>
        <time>2019-03-16T12:03:32Z</time>
      </trkpt>
      <trkpt lat="42.1534710" lon="-0.4371360">
        <ele>477.8</ele>
        <time>2019-03-16T12:03:36Z</time>
      </trkpt>
      <trkpt lat="42.1535930" lon="-0.4374080">
        <ele>477.8</ele>
        <time>2019-03-16T12:03:40Z</time>
      </trkpt>
      <trkpt lat="42.1537130" lon="-0.4376730">
        <ele>479.4</ele>
        <time>2019-03-16T12:03:44Z</time>
      </trkpt>
      <trkpt lat="42.1538400" lon="-0.4379280">
        <ele>479.4</ele>
        <time>2019-03-16T12:03:48Z</time>
      </trkpt>
      <trkpt lat="42.1539680" lon="-0.4381810">
        <ele>479.2</ele>
        <time>2019-03-16T12:03:52Z</time>
      </trkpt>
      <trkpt lat="42.1541030" lon="-0.4384280">
        <ele>480.6</ele>
        <time>2019-03-16T12:03:56Z</time>
      </trkpt>
      <trkpt lat="42.1542430" lon="-0.4386750">
        <ele>483.0</ele>
        <time>2019-03-16T12:04:00Z</time>
      </trkpt>
      <trkpt lat="42.1543900" lon="-0.4389150">
        <ele>483.0</ele>
        <time>2019-03-16T12:04:04Z</time>
      </trkpt>
      <trkpt lat="42.1545330" lon="-0.4391510">
        <ele>483.6</ele>
        <time>2019-03-16T12:04:08Z</time>
      </trkpt>
      <trkpt lat="42.1546780" lon="-0.4393860">
        <ele>485.0</ele>
        <time>2019-03-16T12:04:12Z</time>
      </trkpt>
      <trkpt lat="42.1548250" lon="-0.4396180">
        <ele>485.6</ele>
        <time>2019-03-16T12:04:16Z</time>
      </trkpt>
      <trkpt lat="42.1549750" lon="-0.4398550">
        <ele>485.8</ele>
        <time>2019-03-16T12:04:20Z</time>
      </trkpt>
      <trkpt lat="42.1551230" lon="-0.4400880">
        <ele>486.8</ele>
        <time>2019-03-16T12:04:24Z</time>
      </trkpt>
      <trkpt lat="42.1552730" lon="-0.4403230">
        <ele>486.6</ele>
        <time>2019-03-16T12:04:28Z</time>
      </trkpt>
      <trkpt lat="42.1554200" lon="-0.4405580">
        <ele>488.2</ele>
        <time>2019-03-16T12:04:32Z</time>
      </trkpt>
      <trkpt lat="42.1555680" lon="-0.4407860">
        <ele>488.8</ele>
        <time>2019-03-16T12:04:36Z</time>
      </trkpt>
      <trkpt lat="42.1557130" lon="-0.4410150">
        <ele>490.2</ele>
        <time>2019-03-16T12:04:40Z</time>
      </trkpt>
      <trkpt lat="42.1558600" lon="-0.4412450">
        <ele>490.0</ele>
        <time>2019-03-16T12:04:44Z</time>
      </trkpt>
      <trkpt lat="42.1560110" lon="-0.4414760">
        <ele>490.6</ele>
        <time>2019-03-16T12:04:48Z</time>
      </trkpt>
      <trkpt lat="42.1561630" lon="-0.4417180">
        <ele>491.0</ele>
        <time>2019-03-16T12:04:52Z</time>
      </trkpt>
      <trkpt lat="42.1563250" lon="-0.4419730">
        <ele>492.0</ele>
        <time>2019-03-16T12:04:56Z</time>
      </trkpt>
      <trkpt lat="42.1564950" lon="-0.4422400">
        <ele>492.0</ele>
        <time>2019-03-16T12:05:00Z</time>
      </trkpt>
      <trkpt lat="42.1566700" lon="-0.4425110">
        <ele>493.2</ele>
        <time>2019-03-16T12:05:04Z</time>
      </trkpt>
      <trkpt lat="42.1568480" lon="-0.4427960">
        <ele>492.6</ele>
        <time>2019-03-16T12:05:08Z</time>
      </trkpt>
      <trkpt lat="42.1570300" lon="-0.4430980">
        <ele>492.4</ele>
        <time>2019-03-16T12:05:12Z</time>
      </trkpt>
      <trkpt lat="42.1572160" lon="-0.4434100">
        <ele>491.6</ele>
        <time>2019-03-16T12:05:16Z</time>
      </trkpt>
      <trkpt lat="42.1574010" lon="-0.4437410">
        <ele>493.2</ele>
        <time>2019-03-16T12:05:20Z</time>
      </trkpt>
      <trkpt lat="42.1575950" lon="-0.4440910">
        <ele>492.2</ele>
        <time>2019-03-16T12:05:24Z</time>
      </trkpt>
      <trkpt lat="42.1577950" lon="-0.4444750">
        <ele>491.8</ele>
        <time>2019-03-16T12:05:28Z</time>
      </trkpt>
      <trkpt lat="42.1580010" lon="-0.4448780">
        <ele>491.8</ele>
        <time>2019-03-16T12:05:32Z</time>
      </trkpt>
      <trkpt lat="42.1582050" lon="-0.4453030">
        <ele>490.6</ele>
        <time>2019-03-16T12:05:36Z</time>
      </trkpt>
      <trkpt lat="42.1584030" lon="-0.4457250">
        <ele>491.0</ele>
        <time>2019-03-16T12:05:40Z</time>
      </trkpt>
      <trkpt lat="42.1585900" lon="-0.4461460">
        <ele>489.8</ele>
        <time>2019-03-16T12:05:44Z</time>
      </trkpt>
      <trkpt lat="42.1587730" lon="-0.4465660">
        <ele>490.0</ele>
        <time>2019-03-16T12:05:48Z</time>
      </trkpt>
      <trkpt lat="42.1589550" lon="-0.4469760">
        <ele>490.6</ele>
        <time>2019-03-16T12:05:52Z</time>
      </trkpt>
      <trkpt lat="42.1591280" lon="-0.4473780">
        <ele>490.2</ele>
        <time>2019-03-16T12:05:56Z</time>
      </trkpt>
      <trkpt lat="42.1593030" lon="-0.4477680">
        <ele>489.6</ele>
        <time>2019-03-16T12:06:00Z</time>
      </trkpt>
      <trkpt lat="42.1594700" lon="-0.4481580">
        <ele>489.6</ele>
        <time>2019-03-16T12:06:04Z</time>
      </trkpt>
      <trkpt lat="42.1596410" lon="-0.4485460">
        <ele>490.0</ele>
        <time>2019-03-16T12:06:08Z</time>
      </trkpt>
      <trkpt lat="42.1598110" lon="-0.4489360">
        <ele>490.6</ele>
        <time>2019-03-16T12:06:12Z</time>
      </trkpt>
      <trkpt lat="42.1599850" lon="-0.4493260">
        <ele>490.4</ele>
        <time>2019-03-16T12:06:16Z</time>
      </trkpt>
      <trkpt lat="42.1601550" lon="-0.4497200">
        <ele>490.4</ele>
        <time>2019-03-16T12:06:20Z</time>
      </trkpt>
      <trkpt lat="42.1603280" lon="-0.4501100">
        <ele>491.6</ele>
        <time>2019-03-16T12:06:24Z</time>
      </trkpt>
      <trkpt lat="42.1604960" lon="-0.4504960">
        <ele>490.8</ele>
        <time>2019-03-16T12:06:28Z</time>
      </trkpt>
      <trkpt lat="42.1606630" lon="-0.4508750">
        <ele>490.4</ele>
        <time>2019-03-16T12:06:32Z</time>
      </trkpt>
      <trkpt lat="42.1608250" lon="-0.4512510">
        <ele>490.8</ele>
        <time>2019-03-16T12:06:36Z</time>
      </trkpt>
      <trkpt lat="42.1609880" lon="-0.4516250">
        <ele>491.0</ele>
        <time>2019-03-16T12:06:40Z</time>
      </trkpt>
      <trkpt lat="42.1611500" lon="-0.4519950">
        <ele>490.4</ele>
        <time>2019-03-16T12:06:44Z</time>
      </trkpt>
      <trkpt lat="42.1613110" lon="-0.4523630">
        <ele>490.8</ele>
        <time>2019-03-16T12:06:48Z</time>
      </trkpt>
      <trkpt lat="42.1614680" lon="-0.4527310">
        <ele>491.0</ele>
        <time>2019-03-16T12:06:52Z</time>
      </trkpt>
      <trkpt lat="42.1616400" lon="-0.4530910">
        <ele>490.8</ele>
        <time>2019-03-16T12:06:56Z</time>
      </trkpt>
      <trkpt lat="42.1618060" lon="-0.4534560">
        <ele>491.0</ele>
        <time>2019-03-16T12:07:00Z</time>
      </trkpt>
      <trkpt lat="42.1619730" lon="-0.4538200">
        <ele>490.6</ele>
        <time>2019-03-16T12:07:04Z</time>
      </trkpt>
      <trkpt lat="42.1622030" lon="-0.4540780">
        <ele>492.0</ele>
        <time>2019-03-16T12:07:08Z</time>
      </trkpt>
      <trkpt lat="42.1624980" lon="-0.4539850">
        <ele>492.6</ele>
        <time>2019-03-16T12:07:12Z</time>
      </trkpt>
      <trkpt lat="42.1627780" lon="-0.4538050">
        <ele>492.4</ele>
        <time>2019-03-16T12:07:16Z</time>
      </trkpt>
      <trkpt lat="42.1630700" lon="-0.4536600">
        <ele>493.2</ele>
        <time>2019-03-16T12:07:20Z</time>
      </trkpt>
      <trkpt lat="42.1633700" lon="-0.4535450">
        <ele>493.4</ele>
        <time>2019-03-16T12:07:24Z</time>
      </trkpt>
      <trkpt lat="42.1636680" lon="-0.4534350">
        <ele>494.2</ele>
        <time>2019-03-16T12:07:28Z</time>
      </trkpt>
      <trkpt lat="42.1639600" lon="-0.4533410">
        <ele>495.0</ele>
        <time>2019-03-16T12:07:32Z</time>
      </trkpt>
      <trkpt lat="42.1642550" lon="-0.4532750">
        <ele>495.4</ele>
        <time>2019-03-16T12:07:36Z</time>
      </trkpt>
      <trkpt lat="42.1645530" lon="-0.4532200">
        <ele>495.6</ele>
        <time>2019-03-16T12:07:40Z</time>
      </trkpt>
      <trkpt lat="42.1648400" lon="-0.4531230">
        <ele>496.2</ele>
        <time>2019-03-16T12:07:44Z</time>
      </trkpt>
      <trkpt lat="42.1651080" lon="-0.4529880">
        <ele>496.8</ele>
        <time>2019-03-16T12:07:48Z</time>
      </trkpt>
      <trkpt lat="42.1653560" lon="-0.4528550">
        <ele>497.8</ele>
        <time>2019-03-16T12:07:52Z</time>
      </trkpt>
      <trkpt lat="42.1655950" lon="-0.4527310">
        <ele>499.0</ele>
        <time>2019-03-16T12:07:56Z</time>
      </trkpt>
      <trkpt lat="42.1658260" lon="-0.4526230">
        <ele>499.8</ele>
        <time>2019-03-16T12:08:00Z</time>
      </trkpt>
      <trkpt lat="42.1660530" lon="-0.4525310">
        <ele>501.8</ele>
        <time>2019-03-16T12:08:04Z</time>
      </trkpt>
      <trkpt lat="42.1662810" lon="-0.4524350">
        <ele>502.6</ele>
        <time>2019-03-16T12:08:08Z</time>
      </trkpt>
      <trkpt lat="42.1665280" lon="-0.4523900">
        <ele>503.0</ele>
        <time>2019-03-16T12:08:12Z</time>
      </trkpt>
      <trkpt lat="42.1667910" lon="-0.4523400">
        <ele>504.0</ele>
        <time>2019-03-16T12:08:16Z</time>
      </trkpt>
      <trkpt lat="42.1670580" lon="-0.4522760">
        <ele>504.2</ele>
        <time>2019-03-16T12:08:20Z</time>
      </trkpt>
      <trkpt lat="42.1673260" lon="-0.4522260">
        <ele>504.4</ele>
        <time>2019-03-16T12:08:24Z</time>
      </trkpt>
      <trkpt lat="42.1675950" lon="-0.4521780">
        <ele>504.8</ele>
        <time>2019-03-16T12:08:28Z</time>
      </trkpt>
      <trkpt lat="42.1678660" lon="-0.4521750">
        <ele>504.0</ele>
        <time>2019-03-16T12:08:32Z</time>
      </trkpt>
      <trkpt lat="42.1681360" lon="-0.4521260">
        <ele>504.6</ele>
        <time>2019-03-16T12:08:36Z</time>
      </trkpt>
      <trkpt lat="42.1683680" lon="-0.4522610">
        <ele>504.8</ele>
        <time>2019-03-16T12:08:40Z</time>
      </trkpt>
      <trkpt lat="42.1685800" lon="-0.4525280">
        <ele>505.2</ele>
        <time>2019-03-16T12:08:44Z</time>
      </trkpt>
      <trkpt lat="42.1688450" lon="-0.4527160">
        <ele>504.8</ele>
        <time>2019-03-16T12:08:48Z</time>
      </trkpt>
      <trkpt lat="42.1691300" lon="-0.4528360">
        <ele>508.0</ele>
        <time>2019-03-16T12:08:52Z</time>
      </trkpt>
      <trkpt lat="42.1694310" lon="-0.4528280">
        <ele>504.2</ele>
        <time>2019-03-16T12:08:56Z</time>
      </trkpt>
      <trkpt lat="42.1697360" lon="-0.4527950">
        <ele>505.0</ele>
        <time>2019-03-16T12:09:00Z</time>
      </trkpt>
      <trkpt lat="42.1700410" lon="-0.4527700">
        <ele>504.8</ele>
        <time>2019-03-16T12:09:04Z</time>
      </trkpt>
      <trkpt lat="42.1703260" lon="-0.4526750">
        <ele>505.0</ele>
        <time>2019-03-16T12:09:08Z</time>
      </trkpt>
      <trkpt lat="42.1706060" lon="-0.4526060">
        <ele>505.0</ele>
        <time>2019-03-16T12:09:12Z</time>
      </trkpt>
      <trkpt lat="42.1708810" lon="-0.4525160">
        <ele>505.2</ele>
        <time>2019-03-16T12:09:16Z</time>
      </trkpt>
      <trkpt lat="42.1711280" lon="-0.4523860">
        <ele>505.8</ele>
        <time>2019-03-16T12:09:20Z</time>
      </trkpt>
      <trkpt lat="42.1713400" lon="-0.4522780">
        <ele>506.0</ele>
        <time>2019-03-16T12:09:24Z</time>
      </trkpt>
      <trkpt lat="42.1714760" lon="-0.4525330">
        <ele>505.6</ele>
        <time>2019-03-16T12:09:28Z</time>
      </trkpt>
      <trkpt lat="42.1716600" lon="-0.4527130">
        <ele>505.4</ele>
        <time>2019-03-16T12:09:32Z</time>
      </trkpt>
      <trkpt lat="42.1718380" lon="-0.4528880">
        <ele>506.0</ele>
        <time>2019-03-16T12:09:36Z</time>
      </trkpt>
      <trkpt lat="42.1720110" lon="-0.4530430">
        <ele>505.8</ele>
        <time>2019-03-16T12:09:40Z</time>
      </trkpt>
      <trkpt lat="42.1721510" lon="-0.4531980">
        <ele>506.4</ele>
        <time>2019-03-16T12:09:44Z</time>
      </trkpt>
      <trkpt lat="42.1722710" lon="-0.4532810">
        <ele>506.4</ele>
        <time>2019-03-16T12:09:48Z</time>
      </trkpt>
      <trkpt lat="42.1722960" lon="-0.4532900">
        <ele>505.8</ele>
        <time>2019-03-16T12:09:52Z</time>
      </trkpt>
      <trkpt lat="42.1722960" lon="-0.4532900">
        <ele>505.2</ele>
        <time>2019-03-16T12:09:56Z</time>
      </trkpt>
      <trkpt lat="42.1722980" lon="-0.4532700">
        <ele>506.0</ele>
        <time>2019-03-16T12:10:00Z</time>
      </trkpt>
      <trkpt lat="42.1722980" lon="-0.4532700">
        <ele>505.4</ele>
        <time>2019-03-16T12:10:04Z</time>
      </trkpt>
      <trkpt lat="42.1708360" lon="-0.4525750">
        <ele>491.6</ele>
        <time>2019-03-16T08:34:18Z</time>
      </trkpt>
      <trkpt lat="42.1708360" lon="-0.4525750">
        <ele>491.6</ele>
        <time>2019-03-16T08:34:22Z</time>
      </trkpt>
      <trkpt lat="42.1708360" lon="-0.4525750">
        <ele>491.6</ele>
        <time>2019-03-16T08:34:26Z</time>
      </trkpt>
      <trkpt lat="42.1706030" lon="-0.4526510">
        <ele>490.8</ele>
        <time>2019-03-16T08:34:30Z</time>
      </trkpt>
      <trkpt lat="42.1703530" lon="-0.4527250">
        <ele>491.4</ele>
        <time>2019-03-16T08:34:34Z</time>
      </trkpt>
      <trkpt lat="42.1701010" lon="-0.4528030">
        <ele>490.8</ele>
        <time>2019-03-16T08:34:38Z</time>
      </trkpt>
      <trkpt lat="42.1698360" lon="-0.4528460">
        <ele>490.8</ele>
        <time>2019-03-16T08:34:42Z</time>
      </trkpt>
      <trkpt lat="42.1695710" lon="-0.4528660">
        <ele>490.6</ele>
        <time>2019-03-16T08:34:46Z</time>
      </trkpt>
      <trkpt lat="42.1693010" lon="-0.4528930">
        <ele>489.6</ele>
        <time>2019-03-16T08:34:50Z</time>
      </trkpt>
      <trkpt lat="42.1690260" lon="-0.4528800">
        <ele>490.2</ele>
        <time>2019-03-16T08:34:54Z</time>
      </trkpt>
      <trkpt lat="42.1687730" lon="-0.4527210">
        <ele>490.2</ele>
        <time>2019-03-16T08:34:58Z</time>
      </trkpt>
      <trkpt lat="42.1685310" lon="-0.4525410">
        <ele>490.8</ele>
        <time>2019-03-16T08:35:02Z</time>
      </trkpt>
      <trkpt lat="42.1682730" lon="-0.4524330">
        <ele>492.0</ele>
        <time>2019-03-16T08:35:06Z</time>
      </trkpt>
      <trkpt lat="42.1680080" lon="-0.4523000">
        <ele>491.8</ele>
        <time>2019-03-16T08:35:10Z</time>
      </trkpt>
      <trkpt lat="42.1677230" lon="-0.4522160">
        <ele>492.0</ele>
        <time>2019-03-16T08:35:14Z</time>
      </trkpt>
      <trkpt lat="42.1674330" lon="-0.4522530">
        <ele>491.2</ele>
        <time>2019-03-16T08:35:18Z</time>
      </trkpt>
      <trkpt lat="42.1671350" lon="-0.4523130">
        <ele>490.0</ele>
        <time>2019-03-16T08:35:22Z</time>
      </trkpt>
      <trkpt lat="42.1668300" lon="-0.4523750">
        <ele>489.2</ele>
        <time>2019-03-16T08:35:26Z</time>
      </trkpt>
      <trkpt lat="42.1665230" lon="-0.4524350">
        <ele>488.4</ele>
        <time>2019-03-16T08:35:30Z</time>
      </trkpt>
      <trkpt lat="42.1662150" lon="-0.4525100">
        <ele>488.4</ele>
        <time>2019-03-16T08:35:34Z</time>
      </trkpt>
      <trkpt lat="42.1658910" lon="-0.4526430">
        <ele>486.8</ele>
        <time>2019-03-16T08:35:38Z</time>
      </trkpt>
      <trkpt lat="42.1655510" lon="-0.4528200">
        <ele>484.8</ele>
        <time>2019-03-16T08:35:42Z</time>
      </trkpt>
      <trkpt lat="42.1652000" lon="-0.4530050">
        <ele>483.2</ele>
        <time>2019-03-16T08:35:46Z</time>
      </trkpt>
      <trkpt lat="42.1648500" lon="-0.4531800">
        <ele>481.6</ele>
        <time>2019-03-16T08:35:50Z</time>
      </trkpt>
      <trkpt lat="42.1645030" lon="-0.4532780">
        <ele>481.6</ele>
        <time>2019-03-16T08:35:54Z</time>
      </trkpt>
      <trkpt lat="42.1641530" lon="-0.4533410">
        <ele>480.0</ele>
        <time>2019-03-16T08:35:58Z</time>
      </trkpt>
      <trkpt lat="42.1638080" lon="-0.4534410">
        <ele>480.0</ele>
        <time>2019-03-16T08:36:02Z</time>
      </trkpt>
      <trkpt lat="42.1634700" lon="-0.4535650">
        <ele>479.2</ele>
        <time>2019-03-16T08:36:06Z</time>
      </trkpt>
      <trkpt lat="42.1631380" lon="-0.4536910">
        <ele>477.4</ele>
        <time>2019-03-16T08:36:10Z</time>
      </trkpt>
      <trkpt lat="42.1628280" lon="-0.4538350">
        <ele>477.6</ele>
        <time>2019-03-16T08:36:14Z</time>
      </trkpt>
      <trkpt lat="42.1625460" lon="-0.4540210">
        <ele>477.0</ele>
        <time>2019-03-16T08:36:18Z</time>
      </trkpt>
      <trkpt lat="42.1622950" lon="-0.4542160">
        <ele>477.2</ele>
        <time>2019-03-16T08:36:22Z</time>
      </trkpt>
      <trkpt lat="42.1622800" lon="-0.4545660">
        <ele>477.4</ele>
        <time>2019-03-16T08:36:26Z</time>
      </trkpt>
      <trkpt lat="42.1624230" lon="-0.4549060">
        <ele>476.6</ele>
        <time>2019-03-16T08:36:30Z</time>
      </trkpt>
      <trkpt lat="42.1625800" lon="-0.4552450">
        <ele>477.4</ele>
        <time>2019-03-16T08:36:34Z</time>
      </trkpt>
      <trkpt lat="42.1627260" lon="-0.4555950">
        <ele>477.0</ele>
        <time>2019-03-16T08:36:38Z</time>
      </trkpt>
      <trkpt lat="42.1628810" lon="-0.4559480">
        <ele>477.0</ele>
        <time>2019-03-16T08:36:42Z</time>
      </trkpt>
      <trkpt lat="42.1630400" lon="-0.4563100">
        <ele>476.8</ele>
        <time>2019-03-16T08:36:46Z</time>
      </trkpt>
      <trkpt lat="42.1631960" lon="-0.4566710">
        <ele>476.8</ele>
        <time>2019-03-16T08:36:50Z</time>
      </trkpt>
      <trkpt lat="42.1633560" lon="-0.4570380">
        <ele>476.6</ele>
        <time>2019-03-16T08:36:54Z</time>
      </trkpt>
      <trkpt lat="42.1635160" lon="-0.4574030">
        <ele>476.4</ele>
        <time>2019-03-16T08:36:58Z</time>
      </trkpt>
      <trkpt lat="42.1636700" lon="-0.4577560">
        <ele>477.2</ele>
        <time>2019-03-16T08:37:02Z</time>
      </trkpt>
      <trkpt lat="42.1638300" lon="-0.4581080">
        <ele>476.0</ele>
        <time>2019-03-16T08:37:06Z</time>
      </trkpt>
      <trkpt lat="42.1639880" lon="-0.4584610">
        <ele>477.2</ele>
        <time>2019-03-16T08:37:10Z</time>
      </trkpt>
      <trkpt lat="42.1641510" lon="-0.4588250">
        <ele>476.6</ele>
        <time>2019-03-16T08:37:14Z</time>
      </trkpt>
      <trkpt lat="42.1643150" lon="-0.4591850">
        <ele>477.4</ele>
        <time>2019-03-16T08:37:18Z</time>
      </trkpt>
      <trkpt lat="42.1644800" lon="-0.4595450">
        <ele>478.0</ele>
        <time>2019-03-16T08:37:22Z</time>
      </trkpt>
      <trkpt lat="42.1646460" lon="-0.4599060">
        <ele>477.2</ele>
        <time>2019-03-16T08:37:26Z</time>
      </trkpt>
      <trkpt lat="42.1648150" lon="-0.4602730">
        <ele>477.2</ele>
        <time>2019-03-16T08:37:30Z</time>
      </trkpt>
      <trkpt lat="42.1649880" lon="-0.4606410">
        <ele>476.8</ele>
        <time>2019-03-16T08:37:34Z</time>
      </trkpt>
      <trkpt lat="42.1651580" lon="-0.4610010">
        <ele>477.4</ele>
        <time>2019-03-16T08:37:38Z</time>
      </trkpt>
      <trkpt lat="42.1653260" lon="-0.4613600">
        <ele>477.2</ele>
        <time>2019-03-16T08:37:42Z</time>
      </trkpt>
      <trkpt lat="42.1654960" lon="-0.4617180">
        <ele>477.0</ele>
        <time>2019-03-16T08:37:46Z</time>
      </trkpt>
      <trkpt lat="42.1656630" lon="-0.4620880">
        <ele>477.0</ele>
        <time>2019-03-16T08:37:50Z</time>
      </trkpt>
      <trkpt lat="42.1658350" lon="-0.4624650">
        <ele>476.6</ele>
        <time>2019-03-16T08:37:54Z</time>
      </trkpt>
      <trkpt lat="42.1660050" lon="-0.4628360">
        <ele>476.8</ele>
        <time>2019-03-16T08:37:58Z</time>
      </trkpt>
      <trkpt lat="42.1661660" lon="-0.4632030">
        <ele>477.2</ele>
        <time>2019-03-16T08:38:02Z</time>
      </trkpt>
      <trkpt lat="42.1663330" lon="-0.4635730">
        <ele>476.6</ele>
        <time>2019-03-16T08:38:06Z</time>
      </trkpt>
      <trkpt lat="42.1665010" lon="-0.4639480">
        <ele>476.2</ele>
        <time>2019-03-16T08:38:10Z</time>
      </trkpt>
      <trkpt lat="42.1666700" lon="-0.4643200">
        <ele>476.8</ele>
        <time>2019-03-16T08:38:14Z</time>
      </trkpt>
      <trkpt lat="42.1668380" lon="-0.4646960">
        <ele>476.4</ele>
        <time>2019-03-16T08:38:18Z</time>
      </trkpt>
      <trkpt lat="42.1670080" lon="-0.4650800">
        <ele>476.6</ele>
        <time>2019-03-16T08:38:22Z</time>
      </trkpt>
      <trkpt lat="42.1671750" lon="-0.4654600">
        <ele>475.8</ele>
        <time>2019-03-16T08:38:26Z</time>
      </trkpt>
      <trkpt lat="42.1673430" lon="-0.4658330">
        <ele>476.4</ele>
        <time>2019-03-16T08:38:30Z</time>
      </trkpt>
      <trkpt lat="42.1675110" lon="-0.4662130">
        <ele>476.0</ele>
        <time>2019-03-16T08:38:34Z</time>
      </trkpt>
      <trkpt lat="42.1676780" lon="-0.4665900">
        <ele>476.2</ele>
        <time>2019-03-16T08:38:38Z</time>
      </trkpt>
      <trkpt lat="42.1678410" lon="-0.4669550">
        <ele>476.8</ele>
        <time>2019-03-16T08:38:42Z</time>
      </trkpt>
      <trkpt lat="42.1680000" lon="-0.4673100">
        <ele>476.8</ele>
        <time>2019-03-16T08:38:46Z</time>
      </trkpt>
      <trkpt lat="42.1681550" lon="-0.4676560">
        <ele>476.2</ele>
        <time>2019-03-16T08:38:50Z</time>
      </trkpt>
      <trkpt lat="42.1683110" lon="-0.4680060">
        <ele>476.2</ele>
        <time>2019-03-16T08:38:54Z</time>
      </trkpt>
      <trkpt lat="42.1684710" lon="-0.4683630">
        <ele>476.2</ele>
        <time>2019-03-16T08:38:58Z</time>
      </trkpt>
      <trkpt lat="42.1686310" lon="-0.4687200">
        <ele>476.2</ele>
        <time>2019-03-16T08:39:02Z</time>
      </trkpt>
      <trkpt lat="42.1687860" lon="-0.4690700">
        <ele>477.0</ele>
        <time>2019-03-16T08:39:06Z</time>
      </trkpt>
      <trkpt lat="42.1689410" lon="-0.4694160">
        <ele>477.0</ele>
        <time>2019-03-16T08:39:10Z</time>
      </trkpt>
      <trkpt lat="42.1690910" lon="-0.4697560">
        <ele>477.6</ele>
        <time>2019-03-16T08:39:14Z</time>
      </trkpt>
      <trkpt lat="42.1692430" lon="-0.4700960">
        <ele>477.8</ele>
        <time>2019-03-16T08:39:18Z</time>
      </trkpt>
      <trkpt lat="42.1693950" lon="-0.4704330">
        <ele>478.6</ele>
        <time>2019-03-16T08:39:22Z</time>
      </trkpt>
      <trkpt lat="42.1695450" lon="-0.4707700">
        <ele>478.8</ele>
        <time>2019-03-16T08:39:26Z</time>
      </trkpt>
      <trkpt lat="42.1696930" lon="-0.4711050">
        <ele>479.4</ele>
        <time>2019-03-16T08:39:30Z</time>
      </trkpt>
      <trkpt lat="42.1698410" lon="-0.4714380">
        <ele>480.2</ele>
        <time>2019-03-16T08:39:34Z</time>
      </trkpt>
      <trkpt lat="42.1699930" lon="-0.4717710">
        <ele>480.6</ele>
        <time>2019-03-16T08:39:38Z</time>
      </trkpt>
      <trkpt lat="42.1701410" lon="-0.4721010">
        <ele>481.0</ele>
        <time>2019-03-16T08:39:42Z</time>
      </trkpt>
      <trkpt lat="42.1702860" lon="-0.4724280">
        <ele>481.2</ele>
        <time>2019-03-16T08:39:46Z</time>
      </trkpt>
      <trkpt lat="42.1704330" lon="-0.4727600">
        <ele>482.8</ele>
        <time>2019-03-16T08:39:50Z</time>
      </trkpt>
      <trkpt lat="42.1705850" lon="-0.4730980">
        <ele>483.0</ele>
        <time>2019-03-16T08:39:54Z</time>
      </trkpt>
      <trkpt lat="42.1707380" lon="-0.4734360">
        <ele>483.2</ele>
        <time>2019-03-16T08:39:58Z</time>
      </trkpt>
      <trkpt lat="42.1708900" lon="-0.4737760">
        <ele>483.6</ele>
        <time>2019-03-16T08:40:02Z</time>
      </trkpt>
      <trkpt lat="42.1710410" lon="-0.4741160">
        <ele>484.0</ele>
        <time>2019-03-16T08:40:06Z</time>
      </trkpt>
      <trkpt lat="42.1711930" lon="-0.4744560">
        <ele>484.4</ele>
        <time>2019-03-16T08:40:10Z</time>
      </trkpt>
      <trkpt lat="42.1713410" lon="-0.4747950">
        <ele>485.0</ele>
        <time>2019-03-16T08:40:14Z</time>
      </trkpt>
      <trkpt lat="42.1714950" lon="-0.4751330">
        <ele>485.2</ele>
        <time>2019-03-16T08:40:18Z</time>
      </trkpt>
      <trkpt lat="42.1716450" lon="-0.4754700">
        <ele>485.6</ele>
        <time>2019-03-16T08:40:22Z</time>
      </trkpt>
      <trkpt lat="42.1717930" lon="-0.4758060">
        <ele>486.4</ele>
        <time>2019-03-16T08:40:26Z</time>
      </trkpt>
      <trkpt lat="42.1719430" lon="-0.4761460">
        <ele>486.0</ele>
        <time>2019-03-16T08:40:30Z</time>
      </trkpt>
      <trkpt lat="42.1720930" lon="-0.4764810">
        <ele>486.6</ele>
        <time>2019-03-16T08:40:34Z</time>
      </trkpt>
      <trkpt lat="42.1722380" lon="-0.4768080">
        <ele>486.8</ele>
        <time>2019-03-16T08:40:38Z</time>
      </trkpt>
      <trkpt lat="42.1723850" lon="-0.4771250">
        <ele>487.2</ele>
        <time>2019-03-16T08:40:42Z</time>
      </trkpt>
      <trkpt lat="42.1725260" lon="-0.4774500">
        <ele>487.4</ele>
        <time>2019-03-16T08:40:46Z</time>
      </trkpt>
      <trkpt lat="42.1726700" lon="-0.4777750">
        <ele>489.0</ele>
        <time>2019-03-16T08:40:50Z</time>
      </trkpt>
      <trkpt lat="42.1728160" lon="-0.4780960">
        <ele>489.4</ele>
        <time>2019-03-16T08:40:54Z</time>
      </trkpt>
      <trkpt lat="42.1729550" lon="-0.4784200">
        <ele>490.2</ele>
        <time>2019-03-16T08:40:58Z</time>
      </trkpt>
      <trkpt lat="42.1730980" lon="-0.4787360">
        <ele>491.2</ele>
        <time>2019-03-16T08:41:02Z</time>
      </trkpt>
      <trkpt lat="42.1732350" lon="-0.4790600">
        <ele>492.2</ele>
        <time>2019-03-16T08:41:06Z</time>
      </trkpt>
      <trkpt lat="42.1733810" lon="-0.4793760">
        <ele>493.2</ele>
        <time>2019-03-16T08:41:10Z</time>
      </trkpt>
      <trkpt lat="42.1735280" lon="-0.4796960">
        <ele>492.8</ele>
        <time>2019-03-16T08:41:14Z</time>
      </trkpt>
      <trkpt lat="42.1736750" lon="-0.4800230">
        <ele>492.6</ele>
        <time>2019-03-16T08:41:18Z</time>
      </trkpt>
      <trkpt lat="42.1738250" lon="-0.4803560">
        <ele>493.6</ele>
        <time>2019-03-16T08:41:22Z</time>
      </trkpt>
      <trkpt lat="42.1739780" lon="-0.4807030">
        <ele>493.8</ele>
        <time>2019-03-16T08:41:26Z</time>
      </trkpt>
      <trkpt lat="42.1741350" lon="-0.4810560">
        <ele>493.8</ele>
        <time>2019-03-16T08:41:30Z</time>
      </trkpt>
      <trkpt lat="42.1742960" lon="-0.4814210">
        <ele>493.4</ele>
        <time>2019-03-16T08:41:34Z</time>
      </trkpt>
      <trkpt lat="42.1744650" lon="-0.4818010">
        <ele>493.0</ele>
        <time>2019-03-16T08:41:38Z</time>
      </trkpt>
      <trkpt lat="42.1746380" lon="-0.4821910">
        <ele>492.8</ele>
        <time>2019-03-16T08:41:42Z</time>
      </trkpt>
      <trkpt lat="42.1748110" lon="-0.4825830">
        <ele>492.6</ele>
        <time>2019-03-16T08:41:46Z</time>
      </trkpt>
      <trkpt lat="42.1749830" lon="-0.4829730">
        <ele>492.4</ele>
        <time>2019-03-16T08:41:50Z</time>
      </trkpt>
      <trkpt lat="42.1751580" lon="-0.4833650">
        <ele>492.8</ele>
        <time>2019-03-16T08:41:54Z</time>
      </trkpt>
      <trkpt lat="42.1753360" lon="-0.4837580">
        <ele>492.6</ele>
        <time>2019-03-16T08:41:58Z</time>
      </trkpt>
      <trkpt lat="42.1755130" lon="-0.4841550">
        <ele>492.0</ele>
        <time>2019-03-16T08:42:02Z</time>
      </trkpt>
      <trkpt lat="42.1756850" lon="-0.4845510">
        <ele>492.6</ele>
        <time>2019-03-16T08:42:06Z</time>
      </trkpt>
      <trkpt lat="42.1758630" lon="-0.4849410">
        <ele>492.2</ele>
        <time>2019-03-16T08:42:10Z</time>
      </trkpt>
      <trkpt lat="42.1760380" lon="-0.4853330">
        <ele>492.2</ele>
        <time>2019-03-16T08:42:14Z</time>
      </trkpt>
      <trkpt lat="42.1762110" lon="-0.4857180">
        <ele>492.6</ele>
        <time>2019-03-16T08:42:18Z</time>
      </trkpt>
      <trkpt lat="42.1763780" lon="-0.4860950">
        <ele>493.0</ele>
        <time>2019-03-16T08:42:22Z</time>
      </trkpt>
      <trkpt lat="42.1765430" lon="-0.4864650">
        <ele>492.4</ele>
        <time>2019-03-16T08:42:26Z</time>
      </trkpt>
      <trkpt lat="42.1767080" lon="-0.4868310">
        <ele>493.0</ele>
        <time>2019-03-16T08:42:30Z</time>
      </trkpt>
      <trkpt lat="42.1768700" lon="-0.4871960">
        <ele>493.6</ele>
        <time>2019-03-16T08:42:34Z</time>
      </trkpt>
      <trkpt lat="42.1770300" lon="-0.4875500">
        <ele>493.4</ele>
        <time>2019-03-16T08:42:38Z</time>
      </trkpt>
      <trkpt lat="42.1771850" lon="-0.4878980">
        <ele>495.2</ele>
        <time>2019-03-16T08:42:42Z</time>
      </trkpt>
      <trkpt lat="42.1773400" lon="-0.4882480">
        <ele>495.2</ele>
        <time>2019-03-16T08:42:46Z</time>
      </trkpt>
      <trkpt lat="42.1775000" lon="-0.4885980">
        <ele>495.4</ele>
        <time>2019-03-16T08:42:50Z</time>
      </trkpt>
      <trkpt lat="42.1776560" lon="-0.4889510">
        <ele>497.0</ele>
        <time>2019-03-16T08:42:54Z</time>
      </trkpt>
      <trkpt lat="42.1778130" lon="-0.4893060">
        <ele>497.8</ele>
        <time>2019-03-16T08:42:58Z</time>
      </trkpt>
      <trkpt lat="42.1779710" lon="-0.4896630">
        <ele>497.2</ele>
        <time>2019-03-16T08:43:02Z</time>
      </trkpt>
      <trkpt lat="42.1781260" lon="-0.4900160">
        <ele>498.0</ele>
        <time>2019-03-16T08:43:06Z</time>
      </trkpt>
      <trkpt lat="42.1782810" lon="-0.4903660">
        <ele>497.8</ele>
        <time>2019-03-16T08:43:10Z</time>
      </trkpt>
      <trkpt lat="42.1784350" lon="-0.4907110">
        <ele>498.4</ele>
        <time>2019-03-16T08:43:14Z</time>
      </trkpt>
      <trkpt lat="42.1785900" lon="-0.4910530">
        <ele>498.8</ele>
        <time>2019-03-16T08:43:18Z</time>
      </trkpt>
      <trkpt lat="42.1787400" lon="-0.4913900">
        <ele>499.6</ele>
        <time>2019-03-16T08:43:22Z</time>
      </trkpt>
      <trkpt lat="42.1788880" lon="-0.4917280">
        <ele>500.2</ele>
        <time>2019-03-16T08:43:26Z</time>
      </trkpt>
      <trkpt lat="42.1790380" lon="-0.4920610">
        <ele>500.6</ele>
        <time>2019-03-16T08:43:30Z</time>
      </trkpt>
      <trkpt lat="42.1791900" lon="-0.4923980">
        <ele>501.0</ele>
        <time>2019-03-16T08:43:34Z</time>
      </trkpt>
      <trkpt lat="42.1793400" lon="-0.4927410">
        <ele>501.2</ele>
        <time>2019-03-16T08:43:38Z</time>
      </trkpt>
      <trkpt lat="42.1794960" lon="-0.4930830">
        <ele>502.4</ele>
        <time>2019-03-16T08:43:42Z</time>
      </trkpt>
      <trkpt lat="42.1796460" lon="-0.4934200">
        <ele>502.8</ele>
        <time>2019-03-16T08:43:46Z</time>
      </trkpt>
      <trkpt lat="42.1797980" lon="-0.4937600">
        <ele>503.0</ele>
        <time>2019-03-16T08:43:50Z</time>
      </trkpt>
      <trkpt lat="42.1799480" lon="-0.4940980">
        <ele>503.2</ele>
        <time>2019-03-16T08:43:54Z</time>
      </trkpt>
      <trkpt lat="42.1800980" lon="-0.4944360">
        <ele>503.6</ele>
        <time>2019-03-16T08:43:58Z</time>
      </trkpt>
      <trkpt lat="42.1802480" lon="-0.4947710">
        <ele>504.6</ele>
        <time>2019-03-16T08:44:02Z</time>
      </trkpt>
      <trkpt lat="42.1804000" lon="-0.4951130">
        <ele>505.2</ele>
        <time>2019-03-16T08:44:06Z</time>
      </trkpt>
      <trkpt lat="42.1805560" lon="-0.4954600">
        <ele>505.0</ele>
        <time>2019-03-16T08:44:10Z</time>
      </trkpt>
      <trkpt lat="42.1807130" lon="-0.4958010">
        <ele>505.4</ele>
        <time>2019-03-16T08:44:14Z</time>
      </trkpt>
      <trkpt lat="42.1808860" lon="-0.4961480">
        <ele>505.0</ele>
        <time>2019-03-16T08:44:18Z</time>
      </trkpt>
      <trkpt lat="42.1810750" lon="-0.4964860">
        <ele>504.8</ele>
        <time>2019-03-16T08:44:22Z</time>
      </trkpt>
      <trkpt lat="42.1812800" lon="-0.4968260">
        <ele>504.8</ele>
        <time>2019-03-16T08:44:26Z</time>
      </trkpt>
      <trkpt lat="42.1814960" lon="-0.4971850">
        <ele>503.8</ele>
        <time>2019-03-16T08:44:30Z</time>
      </trkpt>
      <trkpt lat="42.1817200" lon="-0.4975550">
        <ele>503.2</ele>
        <time>2019-03-16T08:44:34Z</time>
      </trkpt>
      <trkpt lat="42.1819510" lon="-0.4979280">
        <ele>502.2</ele>
        <time>2019-03-16T08:44:38Z</time>
      </trkpt>
      <trkpt lat="42.1821850" lon="-0.4983080">
        <ele>502.4</ele>
        <time>2019-03-16T08:44:42Z</time>
      </trkpt>
      <trkpt lat="42.1824200" lon="-0.4986950">
        <ele>502.2</ele>
        <time>2019-03-16T08:44:46Z</time>
      </trkpt>
      <trkpt lat="42.1826550" lon="-0.4990680">
        <ele>502.8</ele>
        <time>2019-03-16T08:44:50Z</time>
      </trkpt>
      <trkpt lat="42.1828780" lon="-0.4994360">
        <ele>502.4</ele>
        <time>2019-03-16T08:44:54Z</time>
      </trkpt>
      <trkpt lat="42.1830960" lon="-0.4997860">
        <ele>502.2</ele>
        <time>2019-03-16T08:44:58Z</time>
      </trkpt>
      <trkpt lat="42.1833080" lon="-0.5001330">
        <ele>502.2</ele>
        <time>2019-03-16T08:45:02Z</time>
      </trkpt>
      <trkpt lat="42.1835200" lon="-0.5004730">
        <ele>502.6</ele>
        <time>2019-03-16T08:45:06Z</time>
      </trkpt>
      <trkpt lat="42.1837280" lon="-0.5008160">
        <ele>502.4</ele>
        <time>2019-03-16T08:45:10Z</time>
      </trkpt>
      <trkpt lat="42.1839380" lon="-0.5011580">
        <ele>502.0</ele>
        <time>2019-03-16T08:45:14Z</time>
      </trkpt>
      <trkpt lat="42.1841500" lon="-0.5015030">
        <ele>501.8</ele>
        <time>2019-03-16T08:45:18Z</time>
      </trkpt>
      <trkpt lat="42.1843650" lon="-0.5018560">
        <ele>501.2</ele>
        <time>2019-03-16T08:45:22Z</time>
      </trkpt>
      <trkpt lat="42.1845880" lon="-0.5022130">
        <ele>500.4</ele>
        <time>2019-03-16T08:45:26Z</time>
      </trkpt>
      <trkpt lat="42.1848100" lon="-0.5025710">
        <ele>500.4</ele>
        <time>2019-03-16T08:45:30Z</time>
      </trkpt>
      <trkpt lat="42.1850310" lon="-0.5029330">
        <ele>500.0</ele>
        <time>2019-03-16T08:45:34Z</time>
      </trkpt>
      <trkpt lat="42.1852580" lon="-0.5032930">
        <ele>499.8</ele>
        <time>2019-03-16T08:45:38Z</time>
      </trkpt>
      <trkpt lat="42.1854810" lon="-0.5036580">
        <ele>498.6</ele>
        <time>2019-03-16T08:45:42Z</time>
      </trkpt>
      <trkpt lat="42.1857060" lon="-0.5040230">
        <ele>499.2</ele>
        <time>2019-03-16T08:45:46Z</time>
      </trkpt>
      <trkpt lat="42.1859300" lon="-0.5043950">
        <ele>498.0</ele>
        <time>2019-03-16T08:45:50Z</time>
      </trkpt>
      <trkpt lat="42.1861560" lon="-0.5047610">
        <ele>497.8</ele>
        <time>2019-03-16T08:45:54Z</time>
      </trkpt>
      <trkpt lat="42.1863800" lon="-0.5051200">
        <ele>497.8</ele>
        <time>2019-03-16T08:45:58Z</time>
      </trkpt>
      <trkpt lat="42.1865980" lon="-0.5054730">
        <ele>497.2</ele>
        <time>2019-03-16T08:46:02Z</time>
      </trkpt>
      <trkpt lat="42.1868110" lon="-0.5058200">
        <ele>497.4</ele>
        <time>2019-03-16T08:46:06Z</time>
      </trkpt>
      <trkpt lat="42.1870180" lon="-0.5061530">
        <ele>497.6</ele>
        <time>2019-03-16T08:46:10Z</time>
      </trkpt>
      <trkpt lat="42.1872200" lon="-0.5064810">
        <ele>497.2</ele>
        <time>2019-03-16T08:46:14Z</time>
      </trkpt>
      <trkpt lat="42.1874210" lon="-0.5068060">
        <ele>496.8</ele>
        <time>2019-03-16T08:46:18Z</time>
      </trkpt>
      <trkpt lat="42.1876180" lon="-0.5071260">
        <ele>497.0</ele>
        <time>2019-03-16T08:46:22Z</time>
      </trkpt>
      <trkpt lat="42.1878110" lon="-0.5074410">
        <ele>497.4</ele>
        <time>2019-03-16T08:46:26Z</time>
      </trkpt>
      <trkpt lat="42.1880050" lon="-0.5077530">
        <ele>497.0</ele>
        <time>2019-03-16T08:46:30Z</time>
      </trkpt>
      <trkpt lat="42.1881910" lon="-0.5080610">
        <ele>496.8</ele>
        <time>2019-03-16T08:46:34Z</time>
      </trkpt>
      <trkpt lat="42.1883730" lon="-0.5083580">
        <ele>498.0</ele>
        <time>2019-03-16T08:46:38Z</time>
      </trkpt>
      <trkpt lat="42.1885460" lon="-0.5086410">
        <ele>498.4</ele>
        <time>2019-03-16T08:46:42Z</time>
      </trkpt>
      <trkpt lat="42.1887160" lon="-0.5089110">
        <ele>499.0</ele>
        <time>2019-03-16T08:46:46Z</time>
      </trkpt>
      <trkpt lat="42.1888800" lon="-0.5091730">
        <ele>499.8</ele>
        <time>2019-03-16T08:46:50Z</time>
      </trkpt>
      <trkpt lat="42.1890400" lon="-0.5094350">
        <ele>501.0</ele>
        <time>2019-03-16T08:46:54Z</time>
      </trkpt>
      <trkpt lat="42.1891980" lon="-0.5096950">
        <ele>501.2</ele>
        <time>2019-03-16T08:46:58Z</time>
      </trkpt>
      <trkpt lat="42.1893550" lon="-0.5099480">
        <ele>502.2</ele>
        <time>2019-03-16T08:47:02Z</time>
      </trkpt>
      <trkpt lat="42.1895100" lon="-0.5102050">
        <ele>502.8</ele>
        <time>2019-03-16T08:47:06Z</time>
      </trkpt>
      <trkpt lat="42.1896680" lon="-0.5104610">
        <ele>503.2</ele>
        <time>2019-03-16T08:47:10Z</time>
      </trkpt>
      <trkpt lat="42.1898350" lon="-0.5107210">
        <ele>503.4</ele>
        <time>2019-03-16T08:47:14Z</time>
      </trkpt>
      <trkpt lat="42.1899980" lon="-0.5109950">
        <ele>503.6</ele>
        <time>2019-03-16T08:47:18Z</time>
      </trkpt>
      <trkpt lat="42.1901660" lon="-0.5112660">
        <ele>503.4</ele>
        <time>2019-03-16T08:47:22Z</time>
      </trkpt>
      <trkpt lat="42.1903330" lon="-0.5115460">
        <ele>503.8</ele>
        <time>2019-03-16T08:47:26Z</time>
      </trkpt>
      <trkpt lat="42.1905100" lon="-0.5118280">
        <ele>504.2</ele>
        <time>2019-03-16T08:47:30Z</time>
      </trkpt>
      <trkpt lat="42.1906860" lon="-0.5121100">
        <ele>504.6</ele>
        <time>2019-03-16T08:47:34Z</time>
      </trkpt>
      <trkpt lat="42.1908660" lon="-0.5124030">
        <ele>503.4</ele>
        <time>2019-03-16T08:47:38Z</time>
      </trkpt>
      <trkpt lat="42.1910530" lon="-0.5127080">
        <ele>504.2</ele>
        <time>2019-03-16T08:47:42Z</time>
      </trkpt>
      <trkpt lat="42.1912450" lon="-0.5130200">
        <ele>502.8</ele>
        <time>2019-03-16T08:47:46Z</time>
      </trkpt>
      <trkpt lat="42.1914400" lon="-0.5133400">
        <ele>502.8</ele>
        <time>2019-03-16T08:47:50Z</time>
      </trkpt>
      <trkpt lat="42.1916510" lon="-0.5136760">
        <ele>501.2</ele>
        <time>2019-03-16T08:47:54Z</time>
      </trkpt>
      <trkpt lat="42.1918710" lon="-0.5140330">
        <ele>499.8</ele>
        <time>2019-03-16T08:47:58Z</time>
      </trkpt>
      <trkpt lat="42.1921080" lon="-0.5144150">
        <ele>498.6</ele>
        <time>2019-03-16T08:48:02Z</time>
      </trkpt>
      <trkpt lat="42.1923580" lon="-0.5148200">
        <ele>496.8</ele>
        <time>2019-03-16T08:48:06Z</time>
      </trkpt>
      <trkpt lat="42.1926210" lon="-0.5152450">
        <ele>495.6</ele>
        <time>2019-03-16T08:48:10Z</time>
      </trkpt>
      <trkpt lat="42.1928930" lon="-0.5156860">
        <ele>493.8</ele>
        <time>2019-03-16T08:48:14Z</time>
      </trkpt>
      <trkpt lat="42.1931700" lon="-0.5161400">
        <ele>493.2</ele>
        <time>2019-03-16T08:48:18Z</time>
      </trkpt>
      <trkpt lat="42.1934480" lon="-0.5165910">
        <ele>492.4</ele>
        <time>2019-03-16T08:48:22Z</time>
      </trkpt>
      <trkpt lat="42.1937250" lon="-0.5170430">
        <ele>491.6</ele>
        <time>2019-03-16T08:48:26Z</time>
      </trkpt>
      <trkpt lat="42.1940030" lon="-0.5174960">
        <ele>490.4</ele>
        <time>2019-03-16T08:48:30Z</time>
      </trkpt>
      <trkpt lat="42.1942860" lon="-0.5179510">
        <ele>489.4</ele>
        <time>2019-03-16T08:48:34Z</time>
      </trkpt>
      <trkpt lat="42.1945700" lon="-0.5184080">
        <ele>488.4</ele>
        <time>2019-03-16T08:48:38Z</time>
      </trkpt>
      <trkpt lat="42.1948500" lon="-0.5188710">
        <ele>488.4</ele>
        <time>2019-03-16T08:48:42Z</time>
      </trkpt>
      <trkpt lat="42.1951350" lon="-0.5193300">
        <ele>486.6</ele>
        <time>2019-03-16T08:48:46Z</time>
      </trkpt>
      <trkpt lat="42.1954230" lon="-0.5198030">
        <ele>486.2</ele>
        <time>2019-03-16T08:48:50Z</time>
      </trkpt>
      <trkpt lat="42.1957150" lon="-0.5202730">
        <ele>485.6</ele>
        <time>2019-03-16T08:48:54Z</time>
      </trkpt>
      <trkpt lat="42.1960000" lon="-0.5207450">
        <ele>484.0</ele>
        <time>2019-03-16T08:48:58Z</time>
      </trkpt>
      <trkpt lat="42.1962880" lon="-0.5212080">
        <ele>483.6</ele>
        <time>2019-03-16T08:49:02Z</time>
      </trkpt>
      <trkpt lat="42.1965730" lon="-0.5216710">
        <ele>481.4</ele>
        <time>2019-03-16T08:49:06Z</time>
      </trkpt>
      <trkpt lat="42.1968580" lon="-0.5221350">
        <ele>481.0</ele>
        <time>2019-03-16T08:49:10Z</time>
      </trkpt>
      <trkpt lat="42.1971410" lon="-0.5225910">
        <ele>480.2</ele>
        <time>2019-03-16T08:49:14Z</time>
      </trkpt>
      <trkpt lat="42.1974210" lon="-0.5230480">
        <ele>479.6</ele>
        <time>2019-03-16T08:49:18Z</time>
      </trkpt>
      <trkpt lat="42.1976960" lon="-0.5234900">
        <ele>478.2</ele>
        <time>2019-03-16T08:49:22Z</time>
      </trkpt>
      <trkpt lat="42.1979650" lon="-0.5239280">
        <ele>477.8</ele>
        <time>2019-03-16T08:49:26Z</time>
      </trkpt>
      <trkpt lat="42.1982330" lon="-0.5243580">
        <ele>476.8</ele>
        <time>2019-03-16T08:49:30Z</time>
      </trkpt>
      <trkpt lat="42.1984980" lon="-0.5247910">
        <ele>476.0</ele>
        <time>2019-03-16T08:49:34Z</time>
      </trkpt>
      <trkpt lat="42.1987610" lon="-0.5252200">
        <ele>474.8</ele>
        <time>2019-03-16T08:49:38Z</time>
      </trkpt>
      <trkpt lat="42.1990250" lon="-0.5256500">
        <ele>474.4</ele>
        <time>2019-03-16T08:49:42Z</time>
      </trkpt>
      <trkpt lat="42.1992860" lon="-0.5260780">
        <ele>472.6</ele>
        <time>2019-03-16T08:49:46Z</time>
      </trkpt>
      <trkpt lat="42.1995500" lon="-0.5265000">
        <ele>472.2</ele>
        <time>2019-03-16T08:49:50Z</time>
      </trkpt>
      <trkpt lat="42.1998080" lon="-0.5269180">
        <ele>471.6</ele>
        <time>2019-03-16T08:49:54Z</time>
      </trkpt>
      <trkpt lat="42.2000650" lon="-0.5273330">
        <ele>470.4</ele>
        <time>2019-03-16T08:49:58Z</time>
      </trkpt>
      <trkpt lat="42.2003180" lon="-0.5277430">
        <ele>470.2</ele>
        <time>2019-03-16T08:50:02Z</time>
      </trkpt>
      <trkpt lat="42.2005650" lon="-0.5281480">
        <ele>469.0</ele>
        <time>2019-03-16T08:50:06Z</time>
      </trkpt>
      <trkpt lat="42.2008050" lon="-0.5285310">
        <ele>469.2</ele>
        <time>2019-03-16T08:50:10Z</time>
      </trkpt>
      <trkpt lat="42.2010350" lon="-0.5289000">
        <ele>468.6</ele>
        <time>2019-03-16T08:50:14Z</time>
      </trkpt>
      <trkpt lat="42.2012510" lon="-0.5292610">
        <ele>469.2</ele>
        <time>2019-03-16T08:50:18Z</time>
      </trkpt>
      <trkpt lat="42.2014700" lon="-0.5296130">
        <ele>469.2</ele>
        <time>2019-03-16T08:50:22Z</time>
      </trkpt>
      <trkpt lat="42.2016830" lon="-0.5299630">
        <ele>469.2</ele>
        <time>2019-03-16T08:50:26Z</time>
      </trkpt>
      <trkpt lat="42.2018950" lon="-0.5303060">
        <ele>469.2</ele>
        <time>2019-03-16T08:50:30Z</time>
      </trkpt>
      <trkpt lat="42.2021060" lon="-0.5306530">
        <ele>469.0</ele>
        <time>2019-03-16T08:50:34Z</time>
      </trkpt>
      <trkpt lat="42.2023150" lon="-0.5309950">
        <ele>469.4</ele>
        <time>2019-03-16T08:50:38Z</time>
      </trkpt>
      <trkpt lat="42.2025260" lon="-0.5313360">
        <ele>469.2</ele>
        <time>2019-03-16T08:50:42Z</time>
      </trkpt>
      <trkpt lat="42.2027360" lon="-0.5316680">
        <ele>468.8</ele>
        <time>2019-03-16T08:50:46Z</time>
      </trkpt>
      <trkpt lat="42.2029450" lon="-0.5320060">
        <ele>469.6</ele>
        <time>2019-03-16T08:50:50Z</time>
      </trkpt>
      <trkpt lat="42.2031550" lon="-0.5323480">
        <ele>469.4</ele>
        <time>2019-03-16T08:50:54Z</time>
      </trkpt>
      <trkpt lat="42.2033650" lon="-0.5326930">
        <ele>469.0</ele>
        <time>2019-03-16T08:50:58Z</time>
      </trkpt>
      <trkpt lat="42.2035750" lon="-0.5330380">
        <ele>469.4</ele>
        <time>2019-03-16T08:51:02Z</time>
      </trkpt>
      <trkpt lat="42.2037850" lon="-0.5333760">
        <ele>469.2</ele>
        <time>2019-03-16T08:51:06Z</time>
      </trkpt>
      <trkpt lat="42.2039910" lon="-0.5337060">
        <ele>469.0</ele>
        <time>2019-03-16T08:51:10Z</time>
      </trkpt>
      <trkpt lat="42.2041910" lon="-0.5340360">
        <ele>469.4</ele>
        <time>2019-03-16T08:51:14Z</time>
      </trkpt>
      <trkpt lat="42.2043930" lon="-0.5343660">
        <ele>468.8</ele>
        <time>2019-03-16T08:51:18Z</time>
      </trkpt>
      <trkpt lat="42.2045960" lon="-0.5346960">
        <ele>468.8</ele>
        <time>2019-03-16T08:51:22Z</time>
      </trkpt>
      <trkpt lat="42.2048030" lon="-0.5350260">
        <ele>469.6</ele>
        <time>2019-03-16T08:51:26Z</time>
      </trkpt>
      <trkpt lat="42.2050080" lon="-0.5353610">
        <ele>469.2</ele>
        <time>2019-03-16T08:51:30Z</time>
      </trkpt>
      <trkpt lat="42.2052110" lon="-0.5356960">
        <ele>469.2</ele>
        <time>2019-03-16T08:51:34Z</time>
      </trkpt>
      <trkpt lat="42.2054160" lon="-0.5360250">
        <ele>468.6</ele>
        <time>2019-03-16T08:51:38Z</time>
      </trkpt>
      <trkpt lat="42.2056160" lon="-0.5363530">
        <ele>469.0</ele>
        <time>2019-03-16T08:51:42Z</time>
      </trkpt>
      <trkpt lat="42.2058150" lon="-0.5366800">
        <ele>468.8</ele>
        <time>2019-03-16T08:51:46Z</time>
      </trkpt>
      <trkpt lat="42.2060160" lon="-0.5370010">
        <ele>469.2</ele>
        <time>2019-03-16T08:51:50Z</time>
      </trkpt>
      <trkpt lat="42.2062150" lon="-0.5373230">
        <ele>470.0</ele>
        <time>2019-03-16T08:51:54Z</time>
      </trkpt>
      <trkpt lat="42.2064100" lon="-0.5376450">
        <ele>469.6</ele>
        <time>2019-03-16T08:51:58Z</time>
      </trkpt>
      <trkpt lat="42.2066030" lon="-0.5379580">
        <ele>469.8</ele>
        <time>2019-03-16T08:52:02Z</time>
      </trkpt>
      <trkpt lat="42.2068000" lon="-0.5382630">
        <ele>470.0</ele>
        <time>2019-03-16T08:52:06Z</time>
      </trkpt>
      <trkpt lat="42.2069880" lon="-0.5385730">
        <ele>470.0</ele>
        <time>2019-03-16T08:52:10Z</time>
      </trkpt>
      <trkpt lat="42.2071800" lon="-0.5388880">
        <ele>470.8</ele>
        <time>2019-03-16T08:52:14Z</time>
      </trkpt>
      <trkpt lat="42.2073680" lon="-0.5392110">
        <ele>470.6</ele>
        <time>2019-03-16T08:52:18Z</time>
      </trkpt>
      <trkpt lat="42.2075630" lon="-0.5395350">
        <ele>471.2</ele>
        <time>2019-03-16T08:52:22Z</time>
      </trkpt>
      <trkpt lat="42.2077510" lon="-0.5398660">
        <ele>471.4</ele>
        <time>2019-03-16T08:52:26Z</time>
      </trkpt>
      <trkpt lat="42.2079400" lon="-0.5401980">
        <ele>471.6</ele>
        <time>2019-03-16T08:52:30Z</time>
      </trkpt>
      <trkpt lat="42.2081230" lon="-0.5405330">
        <ele>472.2</ele>
        <time>2019-03-16T08:52:34Z</time>
      </trkpt>
      <trkpt lat="42.2083110" lon="-0.5408560">
        <ele>471.6</ele>
        <time>2019-03-16T08:52:38Z</time>
      </trkpt>
      <trkpt lat="42.2084900" lon="-0.5411910">
        <ele>472.2</ele>
        <time>2019-03-16T08:52:42Z</time>
      </trkpt>
      <trkpt lat="42.2086710" lon="-0.5415310">
        <ele>472.6</ele>
        <time>2019-03-16T08:52:46Z</time>
      </trkpt>
      <trkpt lat="42.2088610" lon="-0.5418760">
        <ele>472.4</ele>
        <time>2019-03-16T08:52:50Z</time>
      </trkpt>
      <trkpt lat="42.2090430" lon="-0.5422330">
        <ele>472.4</ele>
        <time>2019-03-16T08:52:54Z</time>
      </trkpt>
      <trkpt lat="42.2092260" lon="-0.5425830">
        <ele>472.6</ele>
        <time>2019-03-16T08:52:58Z</time>
      </trkpt>
      <trkpt lat="42.2094050" lon="-0.5429360">
        <ele>473.0</ele>
        <time>2019-03-16T08:53:02Z</time>
      </trkpt>
      <trkpt lat="42.2095850" lon="-0.5432910">
        <ele>472.6</ele>
        <time>2019-03-16T08:53:06Z</time>
      </trkpt>
      <trkpt lat="42.2097560" lon="-0.5436500">
        <ele>472.4</ele>
        <time>2019-03-16T08:53:10Z</time>
      </trkpt>
      <trkpt lat="42.2099300" lon="-0.5440060">
        <ele>472.4</ele>
        <time>2019-03-16T08:53:14Z</time>
      </trkpt>
      <trkpt lat="42.2100980" lon="-0.5443630">
        <ele>473.0</ele>
        <time>2019-03-16T08:53:18Z</time>
      </trkpt>
      <trkpt lat="42.2102630" lon="-0.5447100">
        <ele>472.6</ele>
        <time>2019-03-16T08:53:22Z</time>
      </trkpt>
      <trkpt lat="42.2104280" lon="-0.5450600">
        <ele>472.8</ele>
        <time>2019-03-16T08:53:26Z</time>
      </trkpt>
      <trkpt lat="42.2105910" lon="-0.5454080">
        <ele>473.6</ele>
        <time>2019-03-16T08:53:30Z</time>
      </trkpt>
      <trkpt lat="42.2107460" lon="-0.5457650">
        <ele>474.0</ele>
        <time>2019-03-16T08:53:34Z</time>
      </trkpt>
      <trkpt lat="42.2109110" lon="-0.5461250">
        <ele>473.8</ele>
        <time>2019-03-16T08:53:38Z</time>
      </trkpt>
      <trkpt lat="42.2110850" lon="-0.5464900">
        <ele>473.2</ele>
        <time>2019-03-16T08:53:42Z</time>
      </trkpt>
      <trkpt lat="42.2112460" lon="-0.5468830">
        <ele>472.4</ele>
        <time>2019-03-16T08:53:46Z</time>
      </trkpt>
      <trkpt lat="42.2114180" lon="-0.5472750">
        <ele>472.4</ele>
        <time>2019-03-16T08:53:50Z</time>
      </trkpt>
      <trkpt lat="42.2115850" lon="-0.5476650">
        <ele>472.4</ele>
        <time>2019-03-16T08:53:54Z</time>
      </trkpt>
      <trkpt lat="42.2117510" lon="-0.5480560">
        <ele>471.8</ele>
        <time>2019-03-16T08:53:58Z</time>
      </trkpt>
      <trkpt lat="42.2119200" lon="-0.5484510">
        <ele>471.2</ele>
        <time>2019-03-16T08:54:02Z</time>
      </trkpt>
      <trkpt lat="42.2120910" lon="-0.5488480">
        <ele>471.2</ele>
        <time>2019-03-16T08:54:06Z</time>
      </trkpt>
      <trkpt lat="42.2122610" lon="-0.5492450">
        <ele>470.6</ele>
        <time>2019-03-16T08:54:10Z</time>
      </trkpt>
      <trkpt lat="42.2124310" lon="-0.5496400">
        <ele>470.0</ele>
        <time>2019-03-16T08:54:14Z</time>
      </trkpt>
      <trkpt lat="42.2126030" lon="-0.5500350">
        <ele>469.4</ele>
        <time>2019-03-16T08:54:18Z</time>
      </trkpt>
      <trkpt lat="42.2127730" lon="-0.5504310">
        <ele>469.4</ele>
        <time>2019-03-16T08:54:22Z</time>
      </trkpt>
      <trkpt lat="42.2129430" lon="-0.5508300">
        <ele>469.0</ele>
        <time>2019-03-16T08:54:26Z</time>
      </trkpt>
      <trkpt lat="42.2131050" lon="-0.5512280">
        <ele>469.2</ele>
        <time>2019-03-16T08:54:30Z</time>
      </trkpt>
      <trkpt lat="42.2132700" lon="-0.5516130">
        <ele>469.6</ele>
        <time>2019-03-16T08:54:34Z</time>
      </trkpt>
      <trkpt lat="42.2134360" lon="-0.5519880">
        <ele>469.2</ele>
        <time>2019-03-16T08:54:38Z</time>
      </trkpt>
      <trkpt lat="42.2135930" lon="-0.5523560">
        <ele>469.6</ele>
        <time>2019-03-16T08:54:42Z</time>
      </trkpt>
      <trkpt lat="42.2137450" lon="-0.5527210">
        <ele>469.4</ele>
        <time>2019-03-16T08:54:46Z</time>
      </trkpt>
      <trkpt lat="42.2139050" lon="-0.5530650">
        <ele>469.6</ele>
        <time>2019-03-16T08:54:50Z</time>
      </trkpt>
      <trkpt lat="42.2140360" lon="-0.5533950">
        <ele>470.0</ele>
        <time>2019-03-16T08:54:54Z</time>
      </trkpt>
      <trkpt lat="42.2141450" lon="-0.5537450">
        <ele>469.8</ele>
        <time>2019-03-16T08:54:58Z</time>
      </trkpt>
      <trkpt lat="42.2142710" lon="-0.5540910">
        <ele>469.8</ele>
        <time>2019-03-16T08:55:02Z</time>
      </trkpt>
      <trkpt lat="42.2143830" lon="-0.5544360">
        <ele>470.0</ele>
        <time>2019-03-16T08:55:06Z</time>
      </trkpt>
      <trkpt lat="42.2141980" lon="-0.5546330">
        <ele>470.0</ele>
        <time>2019-03-16T08:55:10Z</time>
      </trkpt>
      <trkpt lat="42.2139010" lon="-0.5546830">
        <ele>469.8</ele>
        <time>2019-03-16T08:55:14Z</time>
      </trkpt>
      <trkpt lat="42.2135980" lon="-0.5547610">
        <ele>469.6</ele>
        <time>2019-03-16T08:55:18Z</time>
      </trkpt>
      <trkpt lat="42.2132880" lon="-0.5548350">
        <ele>469.2</ele>
        <time>2019-03-16T08:55:22Z</time>
      </trkpt>
      <trkpt lat="42.2129730" lon="-0.5549080">
        <ele>468.2</ele>
        <time>2019-03-16T08:55:26Z</time>
      </trkpt>
      <trkpt lat="42.2126530" lon="-0.5549860">
        <ele>467.4</ele>
        <time>2019-03-16T08:55:30Z</time>
      </trkpt>
      <trkpt lat="42.2123300" lon="-0.5550650">
        <ele>467.0</ele>
        <time>2019-03-16T08:55:34Z</time>
      </trkpt>
      <trkpt lat="42.2120030" lon="-0.5551400">
        <ele>466.8</ele>
        <time>2019-03-16T08:55:38Z</time>
      </trkpt>
      <trkpt lat="42.2116810" lon="-0.5552430">
        <ele>466.6</ele>
        <time>2019-03-16T08:55:42Z</time>
      </trkpt>
      <trkpt lat="42.2113550" lon="-0.5553410">
        <ele>466.2</ele>
        <time>2019-03-16T08:55:46Z</time>
      </trkpt>
      <trkpt lat="42.2110260" lon="-0.5554200">
        <ele>465.8</ele>
        <time>2019-03-16T08:55:50Z</time>
      </trkpt>
      <trkpt lat="42.2107030" lon="-0.5555010">
        <ele>465.4</ele>
        <time>2019-03-16T08:55:54Z</time>
      </trkpt>
      <trkpt lat="42.2103830" lon="-0.5555780">
        <ele>465.6</ele>
        <time>2019-03-16T08:55:58Z</time>
      </trkpt>
      <trkpt lat="42.2100610" lon="-0.5556550">
        <ele>465.6</ele>
        <time>2019-03-16T08:56:02Z</time>
      </trkpt>
      <trkpt lat="42.2097500" lon="-0.5557330">
        <ele>464.8</ele>
        <time>2019-03-16T08:56:06Z</time>
      </trkpt>
      <trkpt lat="42.2094460" lon="-0.5558100">
        <ele>465.2</ele>
        <time>2019-03-16T08:56:10Z</time>
      </trkpt>
      <trkpt lat="42.2091460" lon="-0.5558800">
        <ele>464.6</ele>
        <time>2019-03-16T08:56:14Z</time>
      </trkpt>
      <trkpt lat="42.2088450" lon="-0.5559550">
        <ele>464.0</ele>
        <time>2019-03-16T08:56:18Z</time>
      </trkpt>
      <trkpt lat="42.2085380" lon="-0.5560130">
        <ele>463.6</ele>
        <time>2019-03-16T08:56:22Z</time>
      </trkpt>
      <trkpt lat="42.2082280" lon="-0.5560710">
        <ele>463.6</ele>
        <time>2019-03-16T08:56:26Z</time>
      </trkpt>
      <trkpt lat="42.2079200" lon="-0.5561260">
        <ele>463.4</ele>
        <time>2019-03-16T08:56:30Z</time>
      </trkpt>
      <trkpt lat="42.2076080" lon="-0.5561710">
        <ele>463.0</ele>
        <time>2019-03-16T08:56:34Z</time>
      </trkpt>
      <trkpt lat="42.2072910" lon="-0.5562010">
        <ele>463.0</ele>
        <time>2019-03-16T08:56:38Z</time>
      </trkpt>
      <trkpt lat="42.2069830" lon="-0.5562260">
        <ele>463.4</ele>
        <time>2019-03-16T08:56:42Z</time>
      </trkpt>
      <trkpt lat="42.2066850" lon="-0.5562530">
        <ele>463.8</ele>
        <time>2019-03-16T08:56:46Z</time>
      </trkpt>
      <trkpt lat="42.2063810" lon="-0.5562810">
        <ele>464.2</ele>
        <time>2019-03-16T08:56:50Z</time>
      </trkpt>
      <trkpt lat="42.2060750" lon="-0.5563150">
        <ele>465.2</ele>
        <time>2019-03-16T08:56:54Z</time>
      </trkpt>
      <trkpt lat="42.2057700" lon="-0.5563600">
        <ele>467.2</ele>
        <time>2019-03-16T08:56:58Z</time>
      </trkpt>
      <trkpt lat="42.2054700" lon="-0.5564250">
        <ele>468.6</ele>
        <time>2019-03-16T08:57:02Z</time>
      </trkpt>
      <trkpt lat="42.2051680" lon="-0.5564910">
        <ele>469.2</ele>
        <time>2019-03-16T08:57:06Z</time>
      </trkpt>
      <trkpt lat="42.2048630" lon="-0.5565760">
        <ele>469.8</ele>
        <time>2019-03-16T08:57:10Z</time>
      </trkpt>
      <trkpt lat="42.2045500" lon="-0.5566600">
        <ele>469.8</ele>
        <time>2019-03-16T08:57:14Z</time>
      </trkpt>
      <trkpt lat="42.2042250" lon="-0.5567460">
        <ele>470.0</ele>
        <time>2019-03-16T08:57:18Z</time>
      </trkpt>
      <trkpt lat="42.2038830" lon="-0.5568380">
        <ele>469.0</ele>
        <time>2019-03-16T08:57:22Z</time>
      </trkpt>
      <trkpt lat="42.2035310" lon="-0.5569350">
        <ele>467.6</ele>
        <time>2019-03-16T08:57:26Z</time>
      </trkpt>
      <trkpt lat="42.2031660" lon="-0.5570460">
        <ele>466.2</ele>
        <time>2019-03-16T08:57:30Z</time>
      </trkpt>
      <trkpt lat="42.2027900" lon="-0.5572050">
        <ele>464.2</ele>
        <time>2019-03-16T08:57:34Z</time>
      </trkpt>
      <trkpt lat="42.2024150" lon="-0.5574150">
        <ele>462.8</ele>
        <time>2019-03-16T08:57:38Z</time>
      </trkpt>
      <trkpt lat="42.2020400" lon="-0.5576800">
        <ele>460.6</ele>
        <time>2019-03-16T08:57:42Z</time>
      </trkpt>
      <trkpt lat="42.2016880" lon="-0.5579900">
        <ele>460.0</ele>
        <time>2019-03-16T08:57:46Z</time>
      </trkpt>
      <trkpt lat="42.2013600" lon="-0.5583150">
        <ele>459.6</ele>
        <time>2019-03-16T08:57:50Z</time>
      </trkpt>
      <trkpt lat="42.2010530" lon="-0.5586360">
        <ele>459.4</ele>
        <time>2019-03-16T08:57:54Z</time>
      </trkpt>
      <trkpt lat="42.2007500" lon="-0.5589360">
        <ele>459.2</ele>
        <time>2019-03-16T08:57:58Z</time>
      </trkpt>
      <trkpt lat="42.2004550" lon="-0.5592400">
        <ele>459.0</ele>
        <time>2019-03-16T08:58:02Z</time>
      </trkpt>
      <trkpt lat="42.2001560" lon="-0.5595380">
        <ele>458.6</ele>
        <time>2019-03-16T08:58:06Z</time>
      </trkpt>
      <trkpt lat="42.1998550" lon="-0.5598410">
        <ele>457.6</ele>
        <time>2019-03-16T08:58:10Z</time>
      </trkpt>
      <trkpt lat="42.1995450" lon="-0.5601510">
        <ele>457.0</ele>
        <time>2019-03-16T08:58:14Z</time>
      </trkpt>
      <trkpt lat="42.1992300" lon="-0.5604700">
        <ele>455.6</ele>
        <time>2019-03-16T08:58:18Z</time>
      </trkpt>
      <trkpt lat="42.1989150" lon="-0.5607880">
        <ele>454.0</ele>
        <time>2019-03-16T08:58:22Z</time>
      </trkpt>
      <trkpt lat="42.1986050" lon="-0.5611010">
        <ele>453.8</ele>
        <time>2019-03-16T08:58:26Z</time>
      </trkpt>
      <trkpt lat="42.1982980" lon="-0.5614130">
        <ele>453.2</ele>
        <time>2019-03-16T08:58:30Z</time>
      </trkpt>
      <trkpt lat="42.1979910" lon="-0.5617200">
        <ele>452.4</ele>
        <time>2019-03-16T08:58:34Z</time>
      </trkpt>
      <trkpt lat="42.1976950" lon="-0.5620200">
        <ele>451.6</ele>
        <time>2019-03-16T08:58:38Z</time>
      </trkpt>
      <trkpt lat="42.1974080" lon="-0.5623110">
        <ele>451.2</ele>
        <time>2019-03-16T08:58:42Z</time>
      </trkpt>
      <trkpt lat="42.1971280" lon="-0.5625910">
        <ele>451.2</ele>
        <time>2019-03-16T08:58:46Z</time>
      </trkpt>
      <trkpt lat="42.1968550" lon="-0.5628680">
        <ele>451.0</ele>
        <time>2019-03-16T08:58:50Z</time>
      </trkpt>
      <trkpt lat="42.1965930" lon="-0.5631310">
        <ele>450.6</ele>
        <time>2019-03-16T08:58:54Z</time>
      </trkpt>
      <trkpt lat="42.1963310" lon="-0.5633910">
        <ele>450.4</ele>
        <time>2019-03-16T08:58:58Z</time>
      </trkpt>
      <trkpt lat="42.1960650" lon="-0.5636460">
        <ele>450.6</ele>
        <time>2019-03-16T08:59:02Z</time>
      </trkpt>
      <trkpt lat="42.1958100" lon="-0.5639110">
        <ele>451.4</ele>
        <time>2019-03-16T08:59:06Z</time>
      </trkpt>
      <trkpt lat="42.1955460" lon="-0.5641480">
        <ele>450.6</ele>
        <time>2019-03-16T08:59:10Z</time>
      </trkpt>
      <trkpt lat="42.1953010" lon="-0.5644260">
        <ele>450.6</ele>
        <time>2019-03-16T08:59:14Z</time>
      </trkpt>
      <trkpt lat="42.1950430" lon="-0.5646850">
        <ele>450.6</ele>
        <time>2019-03-16T08:59:18Z</time>
      </trkpt>
      <trkpt lat="42.1947880" lon="-0.5649530">
        <ele>449.8</ele>
        <time>2019-03-16T08:59:22Z</time>
      </trkpt>
      <trkpt lat="42.1945230" lon="-0.5652150">
        <ele>449.8</ele>
        <time>2019-03-16T08:59:26Z</time>
      </trkpt>
      <trkpt lat="42.1942630" lon="-0.5654850">
        <ele>450.0</ele>
        <time>2019-03-16T08:59:30Z</time>
      </trkpt>
      <trkpt lat="42.1939960" lon="-0.5657500">
        <ele>449.0</ele>
        <time>2019-03-16T08:59:34Z</time>
      </trkpt>
      <trkpt lat="42.1937300" lon="-0.5660200">
        <ele>449.2</ele>
        <time>2019-03-16T08:59:38Z</time>
      </trkpt>
      <trkpt lat="42.1934610" lon="-0.5662910">
        <ele>448.6</ele>
        <time>2019-03-16T08:59:42Z</time>
      </trkpt>
      <trkpt lat="42.1931960" lon="-0.5665650">
        <ele>448.2</ele>
        <time>2019-03-16T08:59:46Z</time>
      </trkpt>
      <trkpt lat="42.1929300" lon="-0.5668310">
        <ele>448.8</ele>
        <time>2019-03-16T08:59:50Z</time>
      </trkpt>
      <trkpt lat="42.1926680" lon="-0.5670960">
        <ele>447.8</ele>
        <time>2019-03-16T08:59:54Z</time>
      </trkpt>
      <trkpt lat="42.1924080" lon="-0.5673580">
        <ele>447.8</ele>
        <time>2019-03-16T08:59:58Z</time>
      </trkpt>
      <trkpt lat="42.1921500" lon="-0.5676210">
        <ele>448.0</ele>
        <time>2019-03-16T09:00:02Z</time>
      </trkpt>
      <trkpt lat="42.1918950" lon="-0.5678780">
        <ele>448.2</ele>
        <time>2019-03-16T09:00:06Z</time>
      </trkpt>
      <trkpt lat="42.1916400" lon="-0.5681350">
        <ele>448.4</ele>
        <time>2019-03-16T09:00:10Z</time>
      </trkpt>
      <trkpt lat="42.1913850" lon="-0.5683850">
        <ele>448.6</ele>
        <time>2019-03-16T09:00:14Z</time>
      </trkpt>
      <trkpt lat="42.1911350" lon="-0.5686400">
        <ele>449.8</ele>
        <time>2019-03-16T09:00:18Z</time>
      </trkpt>
      <trkpt lat="42.1908830" lon="-0.5688930">
        <ele>450.4</ele>
        <time>2019-03-16T09:00:22Z</time>
      </trkpt>
      <trkpt lat="42.1906350" lon="-0.5691480">
        <ele>450.6</ele>
        <time>2019-03-16T09:00:26Z</time>
      </trkpt>
      <trkpt lat="42.1903880" lon="-0.5693980">
        <ele>451.0</ele>
        <time>2019-03-16T09:00:30Z</time>
      </trkpt>
      <trkpt lat="42.1901400" lon="-0.5696500">
        <ele>451.4</ele>
        <time>2019-03-16T09:00:34Z</time>
      </trkpt>
      <trkpt lat="42.1898850" lon="-0.5699050">
        <ele>451.4</ele>
        <time>2019-03-16T09:00:38Z</time>
      </trkpt>
      <trkpt lat="42.1896280" lon="-0.5701630">
        <ele>451.2</ele>
        <time>2019-03-16T09:00:42Z</time>
      </trkpt>
      <trkpt lat="42.1893660" lon="-0.5704260">
        <ele>451.4</ele>
        <time>2019-03-16T09:00:46Z</time>
      </trkpt>
      <trkpt lat="42.1891050" lon="-0.5706930">
        <ele>451.0</ele>
        <time>2019-03-16T09:00:50Z</time>
      </trkpt>
      <trkpt lat="42.1888430" lon="-0.5709600">
        <ele>450.0</ele>
        <time>2019-03-16T09:00:54Z</time>
      </trkpt>
      <trkpt lat="42.1885780" lon="-0.5712200">
        <ele>450.2</ele>
        <time>2019-03-16T09:00:58Z</time>
      </trkpt>
      <trkpt lat="42.1883160" lon="-0.5714860">
        <ele>450.2</ele>
        <time>2019-03-16T09:01:02Z</time>
      </trkpt>
      <trkpt lat="42.1880510" lon="-0.5717550">
        <ele>450.2</ele>
        <time>2019-03-16T09:01:06Z</time>
      </trkpt>
      <trkpt lat="42.1877900" lon="-0.5720180">
        <ele>450.0</ele>
        <time>2019-03-16T09:01:10Z</time>
      </trkpt>
      <trkpt lat="42.1875300" lon="-0.5722800">
        <ele>450.0</ele>
        <time>2019-03-16T09:01:14Z</time>
      </trkpt>
      <trkpt lat="42.1872660" lon="-0.5725450">
        <ele>448.8</ele>
        <time>2019-03-16T09:01:18Z</time>
      </trkpt>
      <trkpt lat="42.1870030" lon="-0.5728150">
        <ele>449.2</ele>
        <time>2019-03-16T09:01:22Z</time>
      </trkpt>
      <trkpt lat="42.1867350" lon="-0.5730830">
        <ele>448.8</ele>
        <time>2019-03-16T09:01:26Z</time>
      </trkpt>
      <trkpt lat="42.1864650" lon="-0.5733560">
        <ele>448.6</ele>
        <time>2019-03-16T09:01:30Z</time>
      </trkpt>
      <trkpt lat="42.1861950" lon="-0.5736250">
        <ele>448.4</ele>
        <time>2019-03-16T09:01:34Z</time>
      </trkpt>
      <trkpt lat="42.1859280" lon="-0.5738960">
        <ele>448.2</ele>
        <time>2019-03-16T09:01:38Z</time>
      </trkpt>
      <trkpt lat="42.1856630" lon="-0.5741630">
        <ele>447.8</ele>
        <time>2019-03-16T09:01:42Z</time>
      </trkpt>
      <trkpt lat="42.1854010" lon="-0.5744260">
        <ele>448.2</ele>
        <time>2019-03-16T09:01:46Z</time>
      </trkpt>
      <trkpt lat="42.1851430" lon="-0.5746850">
        <ele>448.2</ele>
        <time>2019-03-16T09:01:50Z</time>
      </trkpt>
      <trkpt lat="42.1848850" lon="-0.5749430">
        <ele>447.6</ele>
        <time>2019-03-16T09:01:54Z</time>
      </trkpt>
      <trkpt lat="42.1846260" lon="-0.5752110">
        <ele>447.6</ele>
        <time>2019-03-16T09:01:58Z</time>
      </trkpt>
      <trkpt lat="42.1843680" lon="-0.5754730">
        <ele>447.0</ele>
        <time>2019-03-16T09:02:02Z</time>
      </trkpt>
      <trkpt lat="42.1841000" lon="-0.5757100">
        <ele>447.6</ele>
        <time>2019-03-16T09:02:06Z</time>
      </trkpt>
      <trkpt lat="42.1838510" lon="-0.5759910">
        <ele>448.0</ele>
        <time>2019-03-16T09:02:10Z</time>
      </trkpt>
      <trkpt lat="42.1835930" lon="-0.5762550">
        <ele>447.6</ele>
        <time>2019-03-16T09:02:14Z</time>
      </trkpt>
      <trkpt lat="42.1833350" lon="-0.5765180">
        <ele>448.2</ele>
        <time>2019-03-16T09:02:18Z</time>
      </trkpt>
      <trkpt lat="42.1830760" lon="-0.5767800">
        <ele>447.6</ele>
        <time>2019-03-16T09:02:22Z</time>
      </trkpt>
      <trkpt lat="42.1828150" lon="-0.5770400">
        <ele>448.0</ele>
        <time>2019-03-16T09:02:26Z</time>
      </trkpt>
      <trkpt lat="42.1825530" lon="-0.5773050">
        <ele>448.2</ele>
        <time>2019-03-16T09:02:30Z</time>
      </trkpt>
      <trkpt lat="42.1822880" lon="-0.5775700">
        <ele>448.4</ele>
        <time>2019-03-16T09:02:34Z</time>
      </trkpt>
      <trkpt lat="42.1820250" lon="-0.5778400">
        <ele>448.4</ele>
        <time>2019-03-16T09:02:38Z</time>
      </trkpt>
      <trkpt lat="42.1817600" lon="-0.5781010">
        <ele>448.2</ele>
        <time>2019-03-16T09:02:42Z</time>
      </trkpt>
      <trkpt lat="42.1814860" lon="-0.5783480">
        <ele>448.0</ele>
        <time>2019-03-16T09:02:46Z</time>
      </trkpt>
      <trkpt lat="42.1811930" lon="-0.5785760">
        <ele>447.4</ele>
        <time>2019-03-16T09:02:50Z</time>
      </trkpt>
      <trkpt lat="42.1808880" lon="-0.5787960">
        <ele>447.2</ele>
        <time>2019-03-16T09:02:54Z</time>
      </trkpt>
      <trkpt lat="42.1805730" lon="-0.5790100">
        <ele>446.8</ele>
        <time>2019-03-16T09:02:58Z</time>
      </trkpt>
      <trkpt lat="42.1802580" lon="-0.5792400">
        <ele>446.4</ele>
        <time>2019-03-16T09:03:02Z</time>
      </trkpt>
      <trkpt lat="42.1799360" lon="-0.5794700">
        <ele>445.2</ele>
        <time>2019-03-16T09:03:06Z</time>
      </trkpt>
      <trkpt lat="42.1796010" lon="-0.5797050">
        <ele>444.2</ele>
        <time>2019-03-16T09:03:10Z</time>
      </trkpt>
      <trkpt lat="42.1792610" lon="-0.5799480">
        <ele>442.8</ele>
        <time>2019-03-16T09:03:14Z</time>
      </trkpt>
      <trkpt lat="42.1789410" lon="-0.5802510">
        <ele>442.8</ele>
        <time>2019-03-16T09:03:18Z</time>
      </trkpt>
      <trkpt lat="42.1786680" lon="-0.5806400">
        <ele>441.2</ele>
        <time>2019-03-16T09:03:22Z</time>
      </trkpt>
      <trkpt lat="42.1784380" lon="-0.5810830">
        <ele>440.8</ele>
        <time>2019-03-16T09:03:26Z</time>
      </trkpt>
      <trkpt lat="42.1782130" lon="-0.5815310">
        <ele>440.2</ele>
        <time>2019-03-16T09:03:30Z</time>
      </trkpt>
      <trkpt lat="42.1779780" lon="-0.5819780">
        <ele>438.6</ele>
        <time>2019-03-16T09:03:34Z</time>
      </trkpt>
      <trkpt lat="42.1776950" lon="-0.5823660">
        <ele>438.4</ele>
        <time>2019-03-16T09:03:38Z</time>
      </trkpt>
      <trkpt lat="42.1773530" lon="-0.5826660">
        <ele>437.6</ele>
        <time>2019-03-16T09:03:42Z</time>
      </trkpt>
      <trkpt lat="42.1769830" lon="-0.5828960">
        <ele>436.6</ele>
        <time>2019-03-16T09:03:46Z</time>
      </trkpt>
      <trkpt lat="42.1766160" lon="-0.5831180">
        <ele>436.0</ele>
        <time>2019-03-16T09:03:50Z</time>
      </trkpt>
      <trkpt lat="42.1762560" lon="-0.5833250">
        <ele>435.8</ele>
        <time>2019-03-16T09:03:54Z</time>
      </trkpt>
      <trkpt lat="42.1759010" lon="-0.5835450">
        <ele>435.4</ele>
        <time>2019-03-16T09:03:58Z</time>
      </trkpt>
      <trkpt lat="42.1755750" lon="-0.5838460">
        <ele>434.6</ele>
        <time>2019-03-16T09:04:02Z</time>
      </trkpt>
      <trkpt lat="42.1752980" lon="-0.5842350">
        <ele>433.8</ele>
        <time>2019-03-16T09:04:06Z</time>
      </trkpt>
      <trkpt lat="42.1750530" lon="-0.5846660">
        <ele>433.6</ele>
        <time>2019-03-16T09:04:10Z</time>
      </trkpt>
      <trkpt lat="42.1747950" lon="-0.5850880">
        <ele>432.8</ele>
        <time>2019-03-16T09:04:14Z</time>
      </trkpt>
      <trkpt lat="42.1744960" lon="-0.5854760">
        <ele>431.4</ele>
        <time>2019-03-16T09:04:18Z</time>
      </trkpt>
      <trkpt lat="42.1741680" lon="-0.5858480">
        <ele>429.2</ele>
        <time>2019-03-16T09:04:22Z</time>
      </trkpt>
      <trkpt lat="42.1738350" lon="-0.5862300">
        <ele>427.8</ele>
        <time>2019-03-16T09:04:26Z</time>
      </trkpt>
      <trkpt lat="42.1734930" lon="-0.5866110">
        <ele>426.0</ele>
        <time>2019-03-16T09:04:30Z</time>
      </trkpt>
      <trkpt lat="42.1731530" lon="-0.5869810">
        <ele>425.2</ele>
        <time>2019-03-16T09:04:34Z</time>
      </trkpt>
      <trkpt lat="42.1728260" lon="-0.5873400">
        <ele>425.6</ele>
        <time>2019-03-16T09:04:38Z</time>
      </trkpt>
      <trkpt lat="42.1725080" lon="-0.5876710">
        <ele>425.4</ele>
        <time>2019-03-16T09:04:42Z</time>
      </trkpt>
      <trkpt lat="42.1722050" lon="-0.5880010">
        <ele>424.2</ele>
        <time>2019-03-16T09:04:46Z</time>
      </trkpt>
      <trkpt lat="42.1719100" lon="-0.5883350">
        <ele>424.2</ele>
        <time>2019-03-16T09:04:50Z</time>
      </trkpt>
      <trkpt lat="42.1716210" lon="-0.5886650">
        <ele>424.8</ele>
        <time>2019-03-16T09:04:54Z</time>
      </trkpt>
      <trkpt lat="42.1713330" lon="-0.5889860">
        <ele>426.0</ele>
        <time>2019-03-16T09:04:58Z</time>
      </trkpt>
      <trkpt lat="42.1710550" lon="-0.5893000">
        <ele>426.6</ele>
        <time>2019-03-16T09:05:02Z</time>
      </trkpt>
      <trkpt lat="42.1707900" lon="-0.5896050">
        <ele>428.2</ele>
        <time>2019-03-16T09:05:06Z</time>
      </trkpt>
      <trkpt lat="42.1705450" lon="-0.5899100">
        <ele>428.8</ele>
        <time>2019-03-16T09:05:10Z</time>
      </trkpt>
      <trkpt lat="42.1703480" lon="-0.5902560">
        <ele>430.0</ele>
        <time>2019-03-16T09:05:14Z</time>
      </trkpt>
      <trkpt lat="42.1701760" lon="-0.5906210">
        <ele>429.2</ele>
        <time>2019-03-16T09:05:18Z</time>
      </trkpt>
      <trkpt lat="42.1700110" lon="-0.5909860">
        <ele>429.0</ele>
        <time>2019-03-16T09:05:22Z</time>
      </trkpt>
      <trkpt lat="42.1698460" lon="-0.5913550">
        <ele>429.4</ele>
        <time>2019-03-16T09:05:26Z</time>
      </trkpt>
      <trkpt lat="42.1696710" lon="-0.5917160">
        <ele>429.2</ele>
        <time>2019-03-16T09:05:30Z</time>
      </trkpt>
      <trkpt lat="42.1695030" lon="-0.5920860">
        <ele>429.2</ele>
        <time>2019-03-16T09:05:34Z</time>
      </trkpt>
      <trkpt lat="42.1693330" lon="-0.5924610">
        <ele>429.2</ele>
        <time>2019-03-16T09:05:38Z</time>
      </trkpt>
      <trkpt lat="42.1691580" lon="-0.5928330">
        <ele>429.2</ele>
        <time>2019-03-16T09:05:42Z</time>
      </trkpt>
      <trkpt lat="42.1689850" lon="-0.5932080">
        <ele>428.8</ele>
        <time>2019-03-16T09:05:46Z</time>
      </trkpt>
      <trkpt lat="42.1688110" lon="-0.5935810">
        <ele>429.0</ele>
        <time>2019-03-16T09:05:50Z</time>
      </trkpt>
      <trkpt lat="42.1686400" lon="-0.5939550">
        <ele>427.8</ele>
        <time>2019-03-16T09:05:54Z</time>
      </trkpt>
      <trkpt lat="42.1684850" lon="-0.5943660">
        <ele>428.2</ele>
        <time>2019-03-16T09:05:58Z</time>
      </trkpt>
      <trkpt lat="42.1683950" lon="-0.5948430">
        <ele>426.2</ele>
        <time>2019-03-16T09:06:02Z</time>
      </trkpt>
      <trkpt lat="42.1683180" lon="-0.5953510">
        <ele>425.4</ele>
        <time>2019-03-16T09:06:06Z</time>
      </trkpt>
      <trkpt lat="42.1682280" lon="-0.5958810">
        <ele>423.4</ele>
        <time>2019-03-16T09:06:10Z</time>
      </trkpt>
      <trkpt lat="42.1681450" lon="-0.5964300">
        <ele>422.6</ele>
        <time>2019-03-16T09:06:14Z</time>
      </trkpt>
      <trkpt lat="42.1680560" lon="-0.5969830">
        <ele>421.6</ele>
        <time>2019-03-16T09:06:18Z</time>
      </trkpt>
      <trkpt lat="42.1679580" lon="-0.5975400">
        <ele>420.6</ele>
        <time>2019-03-16T09:06:22Z</time>
      </trkpt>
      <trkpt lat="42.1678750" lon="-0.5980960">
        <ele>419.4</ele>
        <time>2019-03-16T09:06:26Z</time>
      </trkpt>
      <trkpt lat="42.1677950" lon="-0.5986460">
        <ele>418.6</ele>
        <time>2019-03-16T09:06:30Z</time>
      </trkpt>
      <trkpt lat="42.1677000" lon="-0.5991880">
        <ele>417.4</ele>
        <time>2019-03-16T09:06:34Z</time>
      </trkpt>
      <trkpt lat="42.1676130" lon="-0.5997330">
        <ele>416.8</ele>
        <time>2019-03-16T09:06:38Z</time>
      </trkpt>
      <trkpt lat="42.1675300" lon="-0.6002810">
        <ele>415.6</ele>
        <time>2019-03-16T09:06:42Z</time>
      </trkpt>
      <trkpt lat="42.1674410" lon="-0.6008260">
        <ele>415.6</ele>
        <time>2019-03-16T09:06:46Z</time>
      </trkpt>
      <trkpt lat="42.1673580" lon="-0.6013760">
        <ele>414.6</ele>
        <time>2019-03-16T09:06:50Z</time>
      </trkpt>
      <trkpt lat="42.1672730" lon="-0.6019310">
        <ele>414.0</ele>
        <time>2019-03-16T09:06:54Z</time>
      </trkpt>
      <trkpt lat="42.1671850" lon="-0.6024800">
        <ele>413.8</ele>
        <time>2019-03-16T09:06:58Z</time>
      </trkpt>
      <trkpt lat="42.1670980" lon="-0.6030180">
        <ele>413.0</ele>
        <time>2019-03-16T09:07:02Z</time>
      </trkpt>
      <trkpt lat="42.1670080" lon="-0.6035480">
        <ele>412.6</ele>
        <time>2019-03-16T09:07:06Z</time>
      </trkpt>
      <trkpt lat="42.1669180" lon="-0.6040750">
        <ele>413.4</ele>
        <time>2019-03-16T09:07:10Z</time>
      </trkpt>
      <trkpt lat="42.1668400" lon="-0.6045660">
        <ele>414.8</ele>
        <time>2019-03-16T09:07:14Z</time>
      </trkpt>
      <trkpt lat="42.1667630" lon="-0.6050430">
        <ele>414.2</ele>
        <time>2019-03-16T09:07:18Z</time>
      </trkpt>
      <trkpt lat="42.1666800" lon="-0.6055730">
        <ele>412.8</ele>
        <time>2019-03-16T09:07:22Z</time>
      </trkpt>
      <trkpt lat="42.1666010" lon="-0.6061130">
        <ele>412.8</ele>
        <time>2019-03-16T09:07:26Z</time>
      </trkpt>
      <trkpt lat="42.1665150" lon="-0.6066310">
        <ele>413.2</ele>
        <time>2019-03-16T09:07:30Z</time>
      </trkpt>
      <trkpt lat="42.1664360" lon="-0.6071500">
        <ele>413.0</ele>
        <time>2019-03-16T09:07:34Z</time>
      </trkpt>
      <trkpt lat="42.1663560" lon="-0.6076550">
        <ele>413.6</ele>
        <time>2019-03-16T09:07:38Z</time>
      </trkpt>
      <trkpt lat="42.1662810" lon="-0.6081380">
        <ele>413.4</ele>
        <time>2019-03-16T09:07:42Z</time>
      </trkpt>
      <trkpt lat="42.1662100" lon="-0.6085800">
        <ele>415.4</ele>
        <time>2019-03-16T09:07:46Z</time>
      </trkpt>
      <trkpt lat="42.1661450" lon="-0.6090080">
        <ele>416.6</ele>
        <time>2019-03-16T09:07:50Z</time>
      </trkpt>
      <trkpt lat="42.1660710" lon="-0.6094410">
        <ele>417.6</ele>
        <time>2019-03-16T09:07:54Z</time>
      </trkpt>
      <trkpt lat="42.1659980" lon="-0.6098650">
        <ele>418.0</ele>
        <time>2019-03-16T09:07:58Z</time>
      </trkpt>
      <trkpt lat="42.1659260" lon="-0.6102810">
        <ele>419.8</ele>
        <time>2019-03-16T09:08:02Z</time>
      </trkpt>
      <trkpt lat="42.1658650" lon="-0.6107050">
        <ele>420.8</ele>
        <time>2019-03-16T09:08:06Z</time>
      </trkpt>
      <trkpt lat="42.1658030" lon="-0.6111300">
        <ele>421.6</ele>
        <time>2019-03-16T09:08:10Z</time>
      </trkpt>
      <trkpt lat="42.1657410" lon="-0.6115450">
        <ele>422.8</ele>
        <time>2019-03-16T09:08:14Z</time>
      </trkpt>
      <trkpt lat="42.1656750" lon="-0.6119360">
        <ele>424.2</ele>
        <time>2019-03-16T09:08:18Z</time>
      </trkpt>
      <trkpt lat="42.1656180" lon="-0.6123200">
        <ele>424.2</ele>
        <time>2019-03-16T09:08:22Z</time>
      </trkpt>
      <trkpt lat="42.1655600" lon="-0.6126960">
        <ele>424.8</ele>
        <time>2019-03-16T09:08:26Z</time>
      </trkpt>
      <trkpt lat="42.1654980" lon="-0.6130680">
        <ele>426.0</ele>
        <time>2019-03-16T09:08:30Z</time>
      </trkpt>
      <trkpt lat="42.1654310" lon="-0.6134580">
        <ele>425.2</ele>
        <time>2019-03-16T09:08:34Z</time>
      </trkpt>
      <trkpt lat="42.1653710" lon="-0.6138600">
        <ele>425.4</ele>
        <time>2019-03-16T09:08:38Z</time>
      </trkpt>
      <trkpt lat="42.1653080" lon="-0.6142680">
        <ele>425.2</ele>
        <time>2019-03-16T09:08:42Z</time>
      </trkpt>
      <trkpt lat="42.1652410" lon="-0.6146850">
        <ele>425.0</ele>
        <time>2019-03-16T09:08:46Z</time>
      </trkpt>
      <trkpt lat="42.1651730" lon="-0.6151030">
        <ele>424.8</ele>
        <time>2019-03-16T09:08:50Z</time>
      </trkpt>
      <trkpt lat="42.1651110" lon="-0.6155280">
        <ele>424.8</ele>
        <time>2019-03-16T09:08:54Z</time>
      </trkpt>
      <trkpt lat="42.1650480" lon="-0.6159530">
        <ele>424.8</ele>
        <time>2019-03-16T09:08:58Z</time>
      </trkpt>
      <trkpt lat="42.1649800" lon="-0.6163810">
        <ele>425.4</ele>
        <time>2019-03-16T09:09:02Z</time>
      </trkpt>
      <trkpt lat="42.1649100" lon="-0.6168060">
        <ele>425.8</ele>
        <time>2019-03-16T09:09:06Z</time>
      </trkpt>
      <trkpt lat="42.1648460" lon="-0.6172350">
        <ele>424.8</ele>
        <time>2019-03-16T09:09:10Z</time>
      </trkpt>
      <trkpt lat="42.1647780" lon="-0.6176650">
        <ele>424.4</ele>
        <time>2019-03-16T09:09:14Z</time>
      </trkpt>
      <trkpt lat="42.1647110" lon="-0.6180960">
        <ele>425.2</ele>
        <time>2019-03-16T09:09:18Z</time>
      </trkpt>
      <trkpt lat="42.1646460" lon="-0.6185280">
        <ele>425.0</ele>
        <time>2019-03-16T09:09:22Z</time>
      </trkpt>
      <trkpt lat="42.1645650" lon="-0.6189510">
        <ele>425.4</ele>
        <time>2019-03-16T09:09:26Z</time>
      </trkpt>
      <trkpt lat="42.1645130" lon="-0.6193800">
        <ele>425.6</ele>
        <time>2019-03-16T09:09:30Z</time>
      </trkpt>
      <trkpt lat="42.1644460" lon="-0.6198050">
        <ele>426.0</ele>
        <time>2019-03-16T09:09:34Z</time>
      </trkpt>
      <trkpt lat="42.1643800" lon="-0.6202280">
        <ele>425.4</ele>
        <time>2019-03-16T09:09:38Z</time>
      </trkpt>
      <trkpt lat="42.1643180" lon="-0.6206550">
        <ele>426.0</ele>
        <time>2019-03-16T09:09:42Z</time>
      </trkpt>
      <trkpt lat="42.1642510" lon="-0.6210860">
        <ele>426.6</ele>
        <time>2019-03-16T09:09:46Z</time>
      </trkpt>
      <trkpt lat="42.1641880" lon="-0.6215210">
        <ele>426.8</ele>
        <time>2019-03-16T09:09:50Z</time>
      </trkpt>
      <trkpt lat="42.1641160" lon="-0.6219500">
        <ele>427.0</ele>
        <time>2019-03-16T09:09:54Z</time>
      </trkpt>
      <trkpt lat="42.1640510" lon="-0.6223760">
        <ele>426.8</ele>
        <time>2019-03-16T09:09:58Z</time>
      </trkpt>
      <trkpt lat="42.1639830" lon="-0.6228050">
        <ele>426.0</ele>
        <time>2019-03-16T09:10:02Z</time>
      </trkpt>
      <trkpt lat="42.1639160" lon="-0.6232400">
        <ele>426.4</ele>
        <time>2019-03-16T09:10:06Z</time>
      </trkpt>
      <trkpt lat="42.1638450" lon="-0.6236830">
        <ele>426.2</ele>
        <time>2019-03-16T09:10:10Z</time>
      </trkpt>
      <trkpt lat="42.1637780" lon="-0.6241260">
        <ele>426.0</ele>
        <time>2019-03-16T09:10:14Z</time>
      </trkpt>
      <trkpt lat="42.1637060" lon="-0.6245700">
        <ele>425.8</ele>
        <time>2019-03-16T09:10:18Z</time>
      </trkpt>
      <trkpt lat="42.1636360" lon="-0.6250250">
        <ele>425.4</ele>
        <time>2019-03-16T09:10:22Z</time>
      </trkpt>
      <trkpt lat="42.1635700" lon="-0.6254810">
        <ele>425.0</ele>
        <time>2019-03-16T09:10:26Z</time>
      </trkpt>
      <trkpt lat="42.1634960" lon="-0.6259400">
        <ele>424.2</ele>
        <time>2019-03-16T09:10:30Z</time>
      </trkpt>
      <trkpt lat="42.1634330" lon="-0.6263960">
        <ele>425.0</ele>
        <time>2019-03-16T09:10:34Z</time>
      </trkpt>
      <trkpt lat="42.1633310" lon="-0.6268310">
        <ele>424.8</ele>
        <time>2019-03-16T09:10:38Z</time>
      </trkpt>
      <trkpt lat="42.1631600" lon="-0.6272260">
        <ele>425.6</ele>
        <time>2019-03-16T09:10:42Z</time>
      </trkpt>
      <trkpt lat="42.1629710" lon="-0.6276050">
        <ele>424.6</ele>
        <time>2019-03-16T09:10:46Z</time>
      </trkpt>
      <trkpt lat="42.1627710" lon="-0.6279830">
        <ele>424.8</ele>
        <time>2019-03-16T09:10:50Z</time>
      </trkpt>
      <trkpt lat="42.1625630" lon="-0.6283780">
        <ele>423.2</ele>
        <time>2019-03-16T09:10:54Z</time>
      </trkpt>
      <trkpt lat="42.1623510" lon="-0.6287780">
        <ele>422.6</ele>
        <time>2019-03-16T09:10:58Z</time>
      </trkpt>
      <trkpt lat="42.1621330" lon="-0.6291760">
        <ele>422.2</ele>
        <time>2019-03-16T09:11:02Z</time>
      </trkpt>
      <trkpt lat="42.1619200" lon="-0.6295760">
        <ele>421.8</ele>
        <time>2019-03-16T09:11:06Z</time>
      </trkpt>
      <trkpt lat="42.1617080" lon="-0.6299680">
        <ele>422.4</ele>
        <time>2019-03-16T09:11:10Z</time>
      </trkpt>
      <trkpt lat="42.1615060" lon="-0.6303580">
        <ele>422.4</ele>
        <time>2019-03-16T09:11:14Z</time>
      </trkpt>
      <trkpt lat="42.1612980" lon="-0.6307400">
        <ele>421.6</ele>
        <time>2019-03-16T09:11:18Z</time>
      </trkpt>
      <trkpt lat="42.1610900" lon="-0.6311200">
        <ele>421.6</ele>
        <time>2019-03-16T09:11:22Z</time>
      </trkpt>
      <trkpt lat="42.1608850" lon="-0.6315080">
        <ele>420.6</ele>
        <time>2019-03-16T09:11:26Z</time>
      </trkpt>
      <trkpt lat="42.1606780" lon="-0.6318930">
        <ele>421.0</ele>
        <time>2019-03-16T09:11:30Z</time>
      </trkpt>
      <trkpt lat="42.1604710" lon="-0.6322830">
        <ele>419.6</ele>
        <time>2019-03-16T09:11:34Z</time>
      </trkpt>
      <trkpt lat="42.1602610" lon="-0.6326750">
        <ele>420.0</ele>
        <time>2019-03-16T09:11:38Z</time>
      </trkpt>
      <trkpt lat="42.1600510" lon="-0.6330650">
        <ele>419.4</ele>
        <time>2019-03-16T09:11:42Z</time>
      </trkpt>
      <trkpt lat="42.1598400" lon="-0.6334500">
        <ele>419.0</ele>
        <time>2019-03-16T09:11:46Z</time>
      </trkpt>
      <trkpt lat="42.1596350" lon="-0.6338400">
        <ele>419.4</ele>
        <time>2019-03-16T09:11:50Z</time>
      </trkpt>
      <trkpt lat="42.1594280" lon="-0.6342250">
        <ele>418.6</ele>
        <time>2019-03-16T09:11:54Z</time>
      </trkpt>
      <trkpt lat="42.1592210" lon="-0.6346150">
        <ele>417.4</ele>
        <time>2019-03-16T09:11:58Z</time>
      </trkpt>
      <trkpt lat="42.1590130" lon="-0.6349980">
        <ele>417.6</ele>
        <time>2019-03-16T09:12:02Z</time>
      </trkpt>
      <trkpt lat="42.1588150" lon="-0.6353880">
        <ele>416.8</ele>
        <time>2019-03-16T09:12:06Z</time>
      </trkpt>
      <trkpt lat="42.1585510" lon="-0.6357400">
        <ele>414.4</ele>
        <time>2019-03-16T09:12:10Z</time>
      </trkpt>
      <trkpt lat="42.1581560" lon="-0.6359100">
        <ele>411.8</ele>
        <time>2019-03-16T09:12:14Z</time>
      </trkpt>
      <trkpt lat="42.1577210" lon="-0.6360330">
        <ele>410.2</ele>
        <time>2019-03-16T09:12:18Z</time>
      </trkpt>
      <trkpt lat="42.1572710" lon="-0.6361580">
        <ele>408.4</ele>
        <time>2019-03-16T09:12:22Z</time>
      </trkpt>
      <trkpt lat="42.1568110" lon="-0.6362900">
        <ele>406.4</ele>
        <time>2019-03-16T09:12:26Z</time>
      </trkpt>
      <trkpt lat="42.1563460" lon="-0.6364200">
        <ele>405.2</ele>
        <time>2019-03-16T09:12:30Z</time>
      </trkpt>
      <trkpt lat="42.1558760" lon="-0.6365480">
        <ele>401.8</ele>
        <time>2019-03-16T09:12:34Z</time>
      </trkpt>
      <trkpt lat="42.1554010" lon="-0.6366430">
        <ele>399.0</ele>
        <time>2019-03-16T09:12:38Z</time>
      </trkpt>
      <trkpt lat="42.1549180" lon="-0.6365110">
        <ele>398.4</ele>
        <time>2019-03-16T09:12:42Z</time>
      </trkpt>
      <trkpt lat="42.1544450" lon="-0.6362730">
        <ele>394.6</ele>
        <time>2019-03-16T09:12:46Z</time>
      </trkpt>
      <trkpt lat="42.1539500" lon="-0.6361360">
        <ele>392.2</ele>
        <time>2019-03-16T09:12:50Z</time>
      </trkpt>
      <trkpt lat="42.1534380" lon="-0.6361250">
        <ele>390.2</ele>
        <time>2019-03-16T09:12:54Z</time>
      </trkpt>
      <trkpt lat="42.1529560" lon="-0.6361100">
        <ele>390.4</ele>
        <time>2019-03-16T09:12:58Z</time>
      </trkpt>
      <trkpt lat="42.1525060" lon="-0.6361000">
        <ele>389.4</ele>
        <time>2019-03-16T09:13:02Z</time>
      </trkpt>
      <trkpt lat="42.1520700" lon="-0.6360830">
        <ele>389.2</ele>
        <time>2019-03-16T09:13:06Z</time>
      </trkpt>
      <trkpt lat="42.1516560" lon="-0.6360650">
        <ele>389.2</ele>
        <time>2019-03-16T09:13:10Z</time>
      </trkpt>
      <trkpt lat="42.1512680" lon="-0.6360550">
        <ele>390.0</ele>
        <time>2019-03-16T09:13:14Z</time>
      </trkpt>
      <trkpt lat="42.1509010" lon="-0.6360460">
        <ele>390.0</ele>
        <time>2019-03-16T09:13:18Z</time>
      </trkpt>
      <trkpt lat="42.1505480" lon="-0.6360410">
        <ele>391.0</ele>
        <time>2019-03-16T09:13:22Z</time>
      </trkpt>
      <trkpt lat="42.1502100" lon="-0.6360350">
        <ele>391.8</ele>
        <time>2019-03-16T09:13:26Z</time>
      </trkpt>
      <trkpt lat="42.1498830" lon="-0.6360310">
        <ele>391.8</ele>
        <time>2019-03-16T09:13:30Z</time>
      </trkpt>
      <trkpt lat="42.1495610" lon="-0.6360160">
        <ele>391.0</ele>
        <time>2019-03-16T09:13:34Z</time>
      </trkpt>
      <trkpt lat="42.1492450" lon="-0.6360160">
        <ele>390.8</ele>
        <time>2019-03-16T09:13:38Z</time>
      </trkpt>
      <trkpt lat="42.1489350" lon="-0.6360450">
        <ele>392.8</ele>
        <time>2019-03-16T09:13:42Z</time>
      </trkpt>
      <trkpt lat="42.1487510" lon="-0.6363530">
        <ele>392.6</ele>
        <time>2019-03-16T09:13:46Z</time>
      </trkpt>
      <trkpt lat="42.1486860" lon="-0.6367430">
        <ele>393.4</ele>
        <time>2019-03-16T09:13:50Z</time>
      </trkpt>
      <trkpt lat="42.1486160" lon="-0.6371150">
        <ele>394.4</ele>
        <time>2019-03-16T09:13:54Z</time>
      </trkpt>
      <trkpt lat="42.1484710" lon="-0.6374330">
        <ele>394.8</ele>
        <time>2019-03-16T09:13:58Z</time>
      </trkpt>
      <trkpt lat="42.1482860" lon="-0.6377100">
        <ele>396.0</ele>
        <time>2019-03-16T09:14:02Z</time>
      </trkpt>
      <trkpt lat="42.1480480" lon="-0.6378880">
        <ele>396.0</ele>
        <time>2019-03-16T09:14:06Z</time>
      </trkpt>
      <trkpt lat="42.1477800" lon="-0.6379530">
        <ele>397.6</ele>
        <time>2019-03-16T09:14:10Z</time>
      </trkpt>
      <trkpt lat="42.1475160" lon="-0.6380050">
        <ele>399.2</ele>
        <time>2019-03-16T09:14:14Z</time>
      </trkpt>
      <trkpt lat="42.1472610" lon="-0.6380560">
        <ele>400.2</ele>
        <time>2019-03-16T09:14:18Z</time>
      </trkpt>
      <trkpt lat="42.1470180" lon="-0.6380960">
        <ele>401.6</ele>
        <time>2019-03-16T09:14:22Z</time>
      </trkpt>
      <trkpt lat="42.1467750" lon="-0.6381160">
        <ele>402.2</ele>
        <time>2019-03-16T09:14:26Z</time>
      </trkpt>
      <trkpt lat="42.1465310" lon="-0.6380760">
        <ele>402.6</ele>
        <time>2019-03-16T09:14:30Z</time>
      </trkpt>
      <trkpt lat="42.1462760" lon="-0.6380050">
        <ele>403.0</ele>
        <time>2019-03-16T09:14:34Z</time>
      </trkpt>
      <trkpt lat="42.1460210" lon="-0.6380160">
        <ele>403.2</ele>
        <time>2019-03-16T09:14:38Z</time>
      </trkpt>
      <trkpt lat="42.1458230" lon="-0.6382160">
        <ele>404.2</ele>
        <time>2019-03-16T09:14:42Z</time>
      </trkpt>
      <trkpt lat="42.1456800" lon="-0.6384780">
        <ele>406.2</ele>
        <time>2019-03-16T09:14:46Z</time>
      </trkpt>
      <trkpt lat="42.1455050" lon="-0.6386810">
        <ele>406.8</ele>
        <time>2019-03-16T09:14:50Z</time>
      </trkpt>
      <trkpt lat="42.1453130" lon="-0.6388460">
        <ele>408.0</ele>
        <time>2019-03-16T09:14:54Z</time>
      </trkpt>
      <trkpt lat="42.1451080" lon="-0.6389550">
        <ele>408.6</ele>
        <time>2019-03-16T09:14:58Z</time>
      </trkpt>
      <trkpt lat="42.1448850" lon="-0.6389110">
        <ele>409.6</ele>
        <time>2019-03-16T09:15:02Z</time>
      </trkpt>
      <trkpt lat="42.1446630" lon="-0.6387950">
        <ele>410.4</ele>
        <time>2019-03-16T09:15:06Z</time>
      </trkpt>
      <trkpt lat="42.1444450" lon="-0.6386760">
        <ele>411.6</ele>
        <time>2019-03-16T09:15:10Z</time>
      </trkpt>
      <trkpt lat="42.1442430" lon="-0.6385250">
        <ele>413.0</ele>
        <time>2019-03-16T09:15:14Z</time>
      </trkpt>
      <trkpt lat="42.1440410" lon="-0.6383450">
        <ele>413.8</ele>
        <time>2019-03-16T09:15:18Z</time>
      </trkpt>
      <trkpt lat="42.1438230" lon="-0.6382050">
        <ele>414.2</ele>
        <time>2019-03-16T09:15:22Z</time>
      </trkpt>
      <trkpt lat="42.1435910" lon="-0.6381150">
        <ele>414.0</ele>
        <time>2019-03-16T09:15:26Z</time>
      </trkpt>
      <trkpt lat="42.1433410" lon="-0.6380310">
        <ele>413.6</ele>
        <time>2019-03-16T09:15:30Z</time>
      </trkpt>
      <trkpt lat="42.1430730" lon="-0.6379400">
        <ele>415.8</ele>
        <time>2019-03-16T09:15:34Z</time>
      </trkpt>
      <trkpt lat="42.1427830" lon="-0.6378460">
        <ele>413.0</ele>
        <time>2019-03-16T09:15:38Z</time>
      </trkpt>
      <trkpt lat="42.1424830" lon="-0.6377430">
        <ele>411.8</ele>
        <time>2019-03-16T09:15:42Z</time>
      </trkpt>
      <trkpt lat="42.1421710" lon="-0.6376330">
        <ele>411.0</ele>
        <time>2019-03-16T09:15:46Z</time>
      </trkpt>
      <trkpt lat="42.1418450" lon="-0.6375260">
        <ele>410.6</ele>
        <time>2019-03-16T09:15:50Z</time>
      </trkpt>
      <trkpt lat="42.1415060" lon="-0.6374130">
        <ele>409.2</ele>
        <time>2019-03-16T09:15:54Z</time>
      </trkpt>
      <trkpt lat="42.1411600" lon="-0.6372980">
        <ele>410.2</ele>
        <time>2019-03-16T09:15:58Z</time>
      </trkpt>
      <trkpt lat="42.1408130" lon="-0.6371850">
        <ele>409.0</ele>
        <time>2019-03-16T09:16:02Z</time>
      </trkpt>
      <trkpt lat="42.1404630" lon="-0.6370680">
        <ele>407.8</ele>
        <time>2019-03-16T09:16:06Z</time>
      </trkpt>
      <trkpt lat="42.1401100" lon="-0.6369460">
        <ele>407.0</ele>
        <time>2019-03-16T09:16:10Z</time>
      </trkpt>
      <trkpt lat="42.1397510" lon="-0.6368310">
        <ele>406.2</ele>
        <time>2019-03-16T09:16:14Z</time>
      </trkpt>
      <trkpt lat="42.1393880" lon="-0.6367100">
        <ele>405.0</ele>
        <time>2019-03-16T09:16:18Z</time>
      </trkpt>
      <trkpt lat="42.1390100" lon="-0.6365860">
        <ele>403.4</ele>
        <time>2019-03-16T09:16:22Z</time>
      </trkpt>
      <trkpt lat="42.1386280" lon="-0.6364650">
        <ele>402.6</ele>
        <time>2019-03-16T09:16:26Z</time>
      </trkpt>
      <trkpt lat="42.1382480" lon="-0.6363380">
        <ele>401.6</ele>
        <time>2019-03-16T09:16:30Z</time>
      </trkpt>
      <trkpt lat="42.1378710" lon="-0.6362130">
        <ele>401.6</ele>
        <time>2019-03-16T09:16:34Z</time>
      </trkpt>
      <trkpt lat="42.1375100" lon="-0.6360950">
        <ele>400.8</ele>
        <time>2019-03-16T09:16:38Z</time>
      </trkpt>
      <trkpt lat="42.1371610" lon="-0.6359760">
        <ele>401.8</ele>
        <time>2019-03-16T09:16:42Z</time>
      </trkpt>
      <trkpt lat="42.1368210" lon="-0.6358600">
        <ele>401.6</ele>
        <time>2019-03-16T09:16:46Z</time>
      </trkpt>
      <trkpt lat="42.1364850" lon="-0.6357530">
        <ele>401.6</ele>
        <time>2019-03-16T09:16:50Z</time>
      </trkpt>
      <trkpt lat="42.1361550" lon="-0.6356400">
        <ele>401.4</ele>
        <time>2019-03-16T09:16:54Z</time>
      </trkpt>
      <trkpt lat="42.1358350" lon="-0.6355360">
        <ele>402.0</ele>
        <time>2019-03-16T09:16:58Z</time>
      </trkpt>
      <trkpt lat="42.1355350" lon="-0.6354400">
        <ele>402.6</ele>
        <time>2019-03-16T09:17:02Z</time>
      </trkpt>
      <trkpt lat="42.1352510" lon="-0.6353480">
        <ele>402.8</ele>
        <time>2019-03-16T09:17:06Z</time>
      </trkpt>
      <trkpt lat="42.1349800" lon="-0.6352600">
        <ele>404.2</ele>
        <time>2019-03-16T09:17:10Z</time>
      </trkpt>
      <trkpt lat="42.1347150" lon="-0.6351710">
        <ele>404.6</ele>
        <time>2019-03-16T09:17:14Z</time>
      </trkpt>
      <trkpt lat="42.1344550" lon="-0.6350860">
        <ele>404.8</ele>
        <time>2019-03-16T09:17:18Z</time>
      </trkpt>
      <trkpt lat="42.1342000" lon="-0.6350050">
        <ele>405.4</ele>
        <time>2019-03-16T09:17:22Z</time>
      </trkpt>
      <trkpt lat="42.1339610" lon="-0.6349260">
        <ele>406.2</ele>
        <time>2019-03-16T09:17:26Z</time>
      </trkpt>
      <trkpt lat="42.1337350" lon="-0.6348480">
        <ele>407.0</ele>
        <time>2019-03-16T09:17:30Z</time>
      </trkpt>
      <trkpt lat="42.1335110" lon="-0.6347710">
        <ele>407.2</ele>
        <time>2019-03-16T09:17:34Z</time>
      </trkpt>
      <trkpt lat="42.1333110" lon="-0.6347080">
        <ele>409.4</ele>
        <time>2019-03-16T09:17:38Z</time>
      </trkpt>
      <trkpt lat="42.1331380" lon="-0.6346510">
        <ele>410.6</ele>
        <time>2019-03-16T09:17:42Z</time>
      </trkpt>
      <trkpt lat="42.1329660" lon="-0.6345900">
        <ele>411.6</ele>
        <time>2019-03-16T09:17:46Z</time>
      </trkpt>
      <trkpt lat="42.1327980" lon="-0.6345280">
        <ele>412.0</ele>
        <time>2019-03-16T09:17:50Z</time>
      </trkpt>
      <trkpt lat="42.1326300" lon="-0.6344850">
        <ele>413.4</ele>
        <time>2019-03-16T09:17:54Z</time>
      </trkpt>
      <trkpt lat="42.1324660" lon="-0.6345330">
        <ele>414.6</ele>
        <time>2019-03-16T09:17:58Z</time>
      </trkpt>
      <trkpt lat="42.1323150" lon="-0.6346500">
        <ele>415.2</ele>
        <time>2019-03-16T09:18:02Z</time>
      </trkpt>
      <trkpt lat="42.1321910" lon="-0.6348260">
        <ele>416.4</ele>
        <time>2019-03-16T09:18:06Z</time>
      </trkpt>
      <trkpt lat="42.1320730" lon="-0.6350150">
        <ele>417.4</ele>
        <time>2019-03-16T09:18:10Z</time>
      </trkpt>
      <trkpt lat="42.1319460" lon="-0.6352250">
        <ele>417.2</ele>
        <time>2019-03-16T09:18:14Z</time>
      </trkpt>
      <trkpt lat="42.1317880" lon="-0.6354710">
        <ele>417.6</ele>
        <time>2019-03-16T09:18:18Z</time>
      </trkpt>
      <trkpt lat="42.1316000" lon="-0.6357450">
        <ele>417.0</ele>
        <time>2019-03-16T09:18:22Z</time>
      </trkpt>
      <trkpt lat="42.1314010" lon="-0.6360510">
        <ele>415.8</ele>
        <time>2019-03-16T09:18:26Z</time>
      </trkpt>
      <trkpt lat="42.1311780" lon="-0.6363950">
        <ele>412.4</ele>
        <time>2019-03-16T09:18:30Z</time>
      </trkpt>
      <trkpt lat="42.1308500" lon="-0.6366450">
        <ele>408.8</ele>
        <time>2019-03-16T09:18:34Z</time>
      </trkpt>
      <trkpt lat="42.1304250" lon="-0.6365230">
        <ele>404.8</ele>
        <time>2019-03-16T09:18:38Z</time>
      </trkpt>
      <trkpt lat="42.1299650" lon="-0.6365200">
        <ele>401.2</ele>
        <time>2019-03-16T09:18:42Z</time>
      </trkpt>
      <trkpt lat="42.1295400" lon="-0.6368680">
        <ele>397.2</ele>
        <time>2019-03-16T09:18:46Z</time>
      </trkpt>
      <trkpt lat="42.1291080" lon="-0.6372080">
        <ele>394.6</ele>
        <time>2019-03-16T09:18:50Z</time>
      </trkpt>
      <trkpt lat="42.1286400" lon="-0.6371000">
        <ele>394.4</ele>
        <time>2019-03-16T09:18:54Z</time>
      </trkpt>
      <trkpt lat="42.1282310" lon="-0.6368660">
        <ele>395.2</ele>
        <time>2019-03-16T09:18:58Z</time>
      </trkpt>
      <trkpt lat="42.1278600" lon="-0.6366600">
        <ele>397.8</ele>
        <time>2019-03-16T09:19:02Z</time>
      </trkpt>
      <trkpt lat="42.1275350" lon="-0.6364700">
        <ele>399.6</ele>
        <time>2019-03-16T09:19:06Z</time>
      </trkpt>
      <trkpt lat="42.1272580" lon="-0.6362460">
        <ele>399.6</ele>
        <time>2019-03-16T09:19:10Z</time>
      </trkpt>
      <trkpt lat="42.1270760" lon="-0.6359130">
        <ele>401.4</ele>
        <time>2019-03-16T09:19:14Z</time>
      </trkpt>
      <trkpt lat="42.1269550" lon="-0.6355300">
        <ele>402.2</ele>
        <time>2019-03-16T09:19:18Z</time>
      </trkpt>
      <trkpt lat="42.1268310" lon="-0.6351600">
        <ele>404.0</ele>
        <time>2019-03-16T09:19:22Z</time>
      </trkpt>
      <trkpt lat="42.1266900" lon="-0.6348500">
        <ele>405.4</ele>
        <time>2019-03-16T09:19:26Z</time>
      </trkpt>
      <trkpt lat="42.1264880" lon="-0.6346060">
        <ele>405.4</ele>
        <time>2019-03-16T09:19:30Z</time>
      </trkpt>
      <trkpt lat="42.1262410" lon="-0.6344130">
        <ele>405.4</ele>
        <time>2019-03-16T09:19:34Z</time>
      </trkpt>
      <trkpt lat="42.1259930" lon="-0.6342110">
        <ele>405.6</ele>
        <time>2019-03-16T09:19:38Z</time>
      </trkpt>
      <trkpt lat="42.1257410" lon="-0.6340010">
        <ele>404.6</ele>
        <time>2019-03-16T09:19:42Z</time>
      </trkpt>
      <trkpt lat="42.1254830" lon="-0.6337950">
        <ele>405.0</ele>
        <time>2019-03-16T09:19:46Z</time>
      </trkpt>
      <trkpt lat="42.1252230" lon="-0.6335900">
        <ele>405.6</ele>
        <time>2019-03-16T09:19:50Z</time>
      </trkpt>
      <trkpt lat="42.1249580" lon="-0.6333800">
        <ele>405.4</ele>
        <time>2019-03-16T09:19:54Z</time>
      </trkpt>
      <trkpt lat="42.1246950" lon="-0.6331460">
        <ele>404.0</ele>
        <time>2019-03-16T09:19:58Z</time>
      </trkpt>
      <trkpt lat="42.1244080" lon="-0.6329250">
        <ele>401.6</ele>
        <time>2019-03-16T09:20:02Z</time>
      </trkpt>
      <trkpt lat="42.1241060" lon="-0.6326830">
        <ele>402.0</ele>
        <time>2019-03-16T09:20:06Z</time>
      </trkpt>
      <trkpt lat="42.1237760" lon="-0.6325100">
        <ele>401.0</ele>
        <time>2019-03-16T09:20:10Z</time>
      </trkpt>
      <trkpt lat="42.1234430" lon="-0.6326730">
        <ele>401.2</ele>
        <time>2019-03-16T09:20:14Z</time>
      </trkpt>
      <trkpt lat="42.1232000" lon="-0.6330230">
        <ele>400.4</ele>
        <time>2019-03-16T09:20:18Z</time>
      </trkpt>
      <trkpt lat="42.1229810" lon="-0.6333950">
        <ele>400.8</ele>
        <time>2019-03-16T09:20:22Z</time>
      </trkpt>
      <trkpt lat="42.1227650" lon="-0.6337650">
        <ele>401.4</ele>
        <time>2019-03-16T09:20:26Z</time>
      </trkpt>
      <trkpt lat="42.1225000" lon="-0.6340700">
        <ele>399.8</ele>
        <time>2019-03-16T09:20:30Z</time>
      </trkpt>
      <trkpt lat="42.1221450" lon="-0.6341360">
        <ele>399.8</ele>
        <time>2019-03-16T09:20:34Z</time>
      </trkpt>
      <trkpt lat="42.1217810" lon="-0.6341650">
        <ele>399.4</ele>
        <time>2019-03-16T09:20:38Z</time>
      </trkpt>
      <trkpt lat="42.1214160" lon="-0.6341830">
        <ele>398.4</ele>
        <time>2019-03-16T09:20:42Z</time>
      </trkpt>
      <trkpt lat="42.1210600" lon="-0.6342230">
        <ele>398.2</ele>
        <time>2019-03-16T09:20:46Z</time>
      </trkpt>
      <trkpt lat="42.1207350" lon="-0.6343500">
        <ele>400.8</ele>
        <time>2019-03-16T09:20:50Z</time>
      </trkpt>
      <trkpt lat="42.1204560" lon="-0.6345260">
        <ele>401.6</ele>
        <time>2019-03-16T09:20:54Z</time>
      </trkpt>
      <trkpt lat="42.1202000" lon="-0.6346830">
        <ele>403.2</ele>
        <time>2019-03-16T09:20:58Z</time>
      </trkpt>
      <trkpt lat="42.1199650" lon="-0.6348310">
        <ele>403.8</ele>
        <time>2019-03-16T09:21:02Z</time>
      </trkpt>
      <trkpt lat="42.1197610" lon="-0.6350400">
        <ele>404.2</ele>
        <time>2019-03-16T09:21:06Z</time>
      </trkpt>
      <trkpt lat="42.1196510" lon="-0.6353650">
        <ele>404.4</ele>
        <time>2019-03-16T09:21:10Z</time>
      </trkpt>
      <trkpt lat="42.1195930" lon="-0.6357310">
        <ele>404.4</ele>
        <time>2019-03-16T09:21:14Z</time>
      </trkpt>
      <trkpt lat="42.1195360" lon="-0.6361050">
        <ele>403.8</ele>
        <time>2019-03-16T09:21:18Z</time>
      </trkpt>
      <trkpt lat="42.1194760" lon="-0.6364850">
        <ele>403.8</ele>
        <time>2019-03-16T09:21:22Z</time>
      </trkpt>
      <trkpt lat="42.1194210" lon="-0.6368700">
        <ele>404.0</ele>
        <time>2019-03-16T09:21:26Z</time>
      </trkpt>
      <trkpt lat="42.1193530" lon="-0.6372560">
        <ele>403.8</ele>
        <time>2019-03-16T09:21:30Z</time>
      </trkpt>
      <trkpt lat="42.1192880" lon="-0.6376750">
        <ele>402.4</ele>
        <time>2019-03-16T09:21:34Z</time>
      </trkpt>
      <trkpt lat="42.1192130" lon="-0.6381550">
        <ele>399.4</ele>
        <time>2019-03-16T09:21:38Z</time>
      </trkpt>
      <trkpt lat="42.1191260" lon="-0.6386910">
        <ele>396.8</ele>
        <time>2019-03-16T09:21:42Z</time>
      </trkpt>
      <trkpt lat="42.1190330" lon="-0.6392550">
        <ele>396.0</ele>
        <time>2019-03-16T09:21:46Z</time>
      </trkpt>
      <trkpt lat="42.1189460" lon="-0.6398060">
        <ele>395.2</ele>
        <time>2019-03-16T09:21:50Z</time>
      </trkpt>
      <trkpt lat="42.1188610" lon="-0.6403310">
        <ele>395.2</ele>
        <time>2019-03-16T09:21:54Z</time>
      </trkpt>
      <trkpt lat="42.1187780" lon="-0.6408310">
        <ele>394.2</ele>
        <time>2019-03-16T09:21:58Z</time>
      </trkpt>
      <trkpt lat="42.1187030" lon="-0.6413130">
        <ele>394.8</ele>
        <time>2019-03-16T09:22:02Z</time>
      </trkpt>
      <trkpt lat="42.1186700" lon="-0.6417810">
        <ele>395.8</ele>
        <time>2019-03-16T09:22:06Z</time>
      </trkpt>
      <trkpt lat="42.1187750" lon="-0.6422210">
        <ele>395.6</ele>
        <time>2019-03-16T09:22:10Z</time>
      </trkpt>
      <trkpt lat="42.1189210" lon="-0.6426380">
        <ele>395.2</ele>
        <time>2019-03-16T09:22:14Z</time>
      </trkpt>
      <trkpt lat="42.1190630" lon="-0.6430560">
        <ele>394.4</ele>
        <time>2019-03-16T09:22:18Z</time>
      </trkpt>
      <trkpt lat="42.1192130" lon="-0.6434800">
        <ele>394.4</ele>
        <time>2019-03-16T09:22:22Z</time>
      </trkpt>
      <trkpt lat="42.1193350" lon="-0.6439160">
        <ele>395.2</ele>
        <time>2019-03-16T09:22:26Z</time>
      </trkpt>
      <trkpt lat="42.1193630" lon="-0.6443780">
        <ele>394.4</ele>
        <time>2019-03-16T09:22:30Z</time>
      </trkpt>
      <trkpt lat="42.1193500" lon="-0.6448330">
        <ele>394.4</ele>
        <time>2019-03-16T09:22:34Z</time>
      </trkpt>
      <trkpt lat="42.1193410" lon="-0.6452830">
        <ele>395.0</ele>
        <time>2019-03-16T09:22:38Z</time>
      </trkpt>
      <trkpt lat="42.1193360" lon="-0.6457350">
        <ele>394.4</ele>
        <time>2019-03-16T09:22:42Z</time>
      </trkpt>
      <trkpt lat="42.1193260" lon="-0.6461800">
        <ele>394.8</ele>
        <time>2019-03-16T09:22:46Z</time>
      </trkpt>
      <trkpt lat="42.1193000" lon="-0.6466210">
        <ele>394.8</ele>
        <time>2019-03-16T09:22:50Z</time>
      </trkpt>
      <trkpt lat="42.1191460" lon="-0.6470150">
        <ele>394.4</ele>
        <time>2019-03-16T09:22:54Z</time>
      </trkpt>
      <trkpt lat="42.1189360" lon="-0.6473730">
        <ele>394.2</ele>
        <time>2019-03-16T09:22:58Z</time>
      </trkpt>
      <trkpt lat="42.1186350" lon="-0.6475930">
        <ele>394.6</ele>
        <time>2019-03-16T09:23:02Z</time>
      </trkpt>
      <trkpt lat="42.1183000" lon="-0.6477210">
        <ele>394.2</ele>
        <time>2019-03-16T09:23:06Z</time>
      </trkpt>
      <trkpt lat="42.1179650" lon="-0.6478700">
        <ele>393.8</ele>
        <time>2019-03-16T09:23:10Z</time>
      </trkpt>
      <trkpt lat="42.1176280" lon="-0.6480100">
        <ele>393.4</ele>
        <time>2019-03-16T09:23:14Z</time>
      </trkpt>
      <trkpt lat="42.1172910" lon="-0.6481450">
        <ele>393.8</ele>
        <time>2019-03-16T09:23:18Z</time>
      </trkpt>
      <trkpt lat="42.1169560" lon="-0.6482860">
        <ele>393.8</ele>
        <time>2019-03-16T09:23:22Z</time>
      </trkpt>
      <trkpt lat="42.1166230" lon="-0.6484280">
        <ele>393.0</ele>
        <time>2019-03-16T09:23:26Z</time>
      </trkpt>
      <trkpt lat="42.1162760" lon="-0.6485780">
        <ele>391.6</ele>
        <time>2019-03-16T09:23:30Z</time>
      </trkpt>
      <trkpt lat="42.1159110" lon="-0.6487260">
        <ele>391.0</ele>
        <time>2019-03-16T09:23:34Z</time>
      </trkpt>
      <trkpt lat="42.1155460" lon="-0.6488810">
        <ele>392.0</ele>
        <time>2019-03-16T09:23:38Z</time>
      </trkpt>
      <trkpt lat="42.1151930" lon="-0.6490300">
        <ele>391.4</ele>
        <time>2019-03-16T09:23:42Z</time>
      </trkpt>
      <trkpt lat="42.1148510" lon="-0.6491780">
        <ele>392.4</ele>
        <time>2019-03-16T09:23:46Z</time>
      </trkpt>
      <trkpt lat="42.1145280" lon="-0.6493180">
        <ele>392.0</ele>
        <time>2019-03-16T09:23:50Z</time>
      </trkpt>
      <trkpt lat="42.1142160" lon="-0.6494480">
        <ele>392.6</ele>
        <time>2019-03-16T09:23:54Z</time>
      </trkpt>
      <trkpt lat="42.1139200" lon="-0.6495750">
        <ele>393.8</ele>
        <time>2019-03-16T09:23:58Z</time>
      </trkpt>
      <trkpt lat="42.1136960" lon="-0.6497760">
        <ele>395.6</ele>
        <time>2019-03-16T09:24:02Z</time>
      </trkpt>
      <trkpt lat="42.1135880" lon="-0.6500750">
        <ele>395.2</ele>
        <time>2019-03-16T09:24:06Z</time>
      </trkpt>
      <trkpt lat="42.1135310" lon="-0.6504150">
        <ele>395.4</ele>
        <time>2019-03-16T09:24:10Z</time>
      </trkpt>
      <trkpt lat="42.1134760" lon="-0.6507810">
        <ele>394.2</ele>
        <time>2019-03-16T09:24:14Z</time>
      </trkpt>
      <trkpt lat="42.1134080" lon="-0.6511930">
        <ele>392.4</ele>
        <time>2019-03-16T09:24:18Z</time>
      </trkpt>
      <trkpt lat="42.1133310" lon="-0.6516530">
        <ele>391.4</ele>
        <time>2019-03-16T09:24:22Z</time>
      </trkpt>
      <trkpt lat="42.1132330" lon="-0.6520910">
        <ele>393.0</ele>
        <time>2019-03-16T09:24:26Z</time>
      </trkpt>
      <trkpt lat="42.1129780" lon="-0.6523650">
        <ele>391.8</ele>
        <time>2019-03-16T09:24:30Z</time>
      </trkpt>
      <trkpt lat="42.1126400" lon="-0.6524600">
        <ele>393.0</ele>
        <time>2019-03-16T09:24:34Z</time>
      </trkpt>
      <trkpt lat="42.1123000" lon="-0.6525300">
        <ele>392.4</ele>
        <time>2019-03-16T09:24:38Z</time>
      </trkpt>
      <trkpt lat="42.1119580" lon="-0.6526100">
        <ele>392.6</ele>
        <time>2019-03-16T09:24:42Z</time>
      </trkpt>
      <trkpt lat="42.1116160" lon="-0.6526810">
        <ele>392.2</ele>
        <time>2019-03-16T09:24:46Z</time>
      </trkpt>
      <trkpt lat="42.1112780" lon="-0.6527650">
        <ele>392.2</ele>
        <time>2019-03-16T09:24:50Z</time>
      </trkpt>
      <trkpt lat="42.1109330" lon="-0.6528450">
        <ele>392.0</ele>
        <time>2019-03-16T09:24:54Z</time>
      </trkpt>
      <trkpt lat="42.1105810" lon="-0.6529210">
        <ele>391.8</ele>
        <time>2019-03-16T09:24:58Z</time>
      </trkpt>
      <trkpt lat="42.1102300" lon="-0.6530010">
        <ele>392.6</ele>
        <time>2019-03-16T09:25:02Z</time>
      </trkpt>
      <trkpt lat="42.1098780" lon="-0.6530800">
        <ele>392.6</ele>
        <time>2019-03-16T09:25:06Z</time>
      </trkpt>
      <trkpt lat="42.1095310" lon="-0.6531630">
        <ele>392.0</ele>
        <time>2019-03-16T09:25:10Z</time>
      </trkpt>
      <trkpt lat="42.1092460" lon="-0.6534100">
        <ele>392.6</ele>
        <time>2019-03-16T09:25:14Z</time>
      </trkpt>
      <trkpt lat="42.1091400" lon="-0.6538400">
        <ele>392.8</ele>
        <time>2019-03-16T09:25:18Z</time>
      </trkpt>
      <trkpt lat="42.1091400" lon="-0.6542980">
        <ele>392.4</ele>
        <time>2019-03-16T09:25:22Z</time>
      </trkpt>
      <trkpt lat="42.1091380" lon="-0.6547580">
        <ele>392.2</ele>
        <time>2019-03-16T09:25:26Z</time>
      </trkpt>
      <trkpt lat="42.1091330" lon="-0.6552430">
        <ele>391.0</ele>
        <time>2019-03-16T09:25:30Z</time>
      </trkpt>
      <trkpt lat="42.1091110" lon="-0.6557310">
        <ele>389.8</ele>
        <time>2019-03-16T09:25:34Z</time>
      </trkpt>
      <trkpt lat="42.1089900" lon="-0.6561650">
        <ele>390.2</ele>
        <time>2019-03-16T09:25:38Z</time>
      </trkpt>
      <trkpt lat="42.1087150" lon="-0.6564160">
        <ele>389.6</ele>
        <time>2019-03-16T09:25:42Z</time>
      </trkpt>
      <trkpt lat="42.1083860" lon="-0.6563400">
        <ele>388.8</ele>
        <time>2019-03-16T09:25:46Z</time>
      </trkpt>
      <trkpt lat="42.1081100" lon="-0.6560310">
        <ele>387.0</ele>
        <time>2019-03-16T09:25:50Z</time>
      </trkpt>
      <trkpt lat="42.1077410" lon="-0.6557760">
        <ele>383.8</ele>
        <time>2019-03-16T09:25:54Z</time>
      </trkpt>
      <trkpt lat="42.1072880" lon="-0.6557510">
        <ele>381.8</ele>
        <time>2019-03-16T09:25:58Z</time>
      </trkpt>
      <trkpt lat="42.1069580" lon="-0.6561650">
        <ele>381.2</ele>
        <time>2019-03-16T09:26:02Z</time>
      </trkpt>
      <trkpt lat="42.1067030" lon="-0.6566480">
        <ele>381.2</ele>
        <time>2019-03-16T09:26:06Z</time>
      </trkpt>
      <trkpt lat="42.1064530" lon="-0.6571130">
        <ele>381.0</ele>
        <time>2019-03-16T09:26:10Z</time>
      </trkpt>
      <trkpt lat="42.1062150" lon="-0.6575630">
        <ele>381.8</ele>
        <time>2019-03-16T09:26:14Z</time>
      </trkpt>
      <trkpt lat="42.1059500" lon="-0.6579660">
        <ele>380.0</ele>
        <time>2019-03-16T09:26:18Z</time>
      </trkpt>
      <trkpt lat="42.1056230" lon="-0.6582880">
        <ele>379.6</ele>
        <time>2019-03-16T09:26:22Z</time>
      </trkpt>
      <trkpt lat="42.1053210" lon="-0.6586780">
        <ele>378.0</ele>
        <time>2019-03-16T09:26:26Z</time>
      </trkpt>
      <trkpt lat="42.1049980" lon="-0.6590560">
        <ele>378.6</ele>
        <time>2019-03-16T09:26:30Z</time>
      </trkpt>
      <trkpt lat="42.1046550" lon="-0.6594060">
        <ele>377.2</ele>
        <time>2019-03-16T09:26:34Z</time>
      </trkpt>
      <trkpt lat="42.1043010" lon="-0.6597550">
        <ele>375.0</ele>
        <time>2019-03-16T09:26:38Z</time>
      </trkpt>
      <trkpt lat="42.1039410" lon="-0.6600700">
        <ele>374.6</ele>
        <time>2019-03-16T09:26:42Z</time>
      </trkpt>
      <trkpt lat="42.1035950" lon="-0.6603860">
        <ele>374.8</ele>
        <time>2019-03-16T09:26:46Z</time>
      </trkpt>
      <trkpt lat="42.1032560" lon="-0.6606910">
        <ele>373.6</ele>
        <time>2019-03-16T09:26:50Z</time>
      </trkpt>
      <trkpt lat="42.1029310" lon="-0.6609900">
        <ele>373.8</ele>
        <time>2019-03-16T09:26:54Z</time>
      </trkpt>
      <trkpt lat="42.1026250" lon="-0.6612780">
        <ele>374.0</ele>
        <time>2019-03-16T09:26:58Z</time>
      </trkpt>
      <trkpt lat="42.1023300" lon="-0.6615550">
        <ele>375.2</ele>
        <time>2019-03-16T09:27:02Z</time>
      </trkpt>
      <trkpt lat="42.1020380" lon="-0.6618300">
        <ele>375.6</ele>
        <time>2019-03-16T09:27:06Z</time>
      </trkpt>
      <trkpt lat="42.1017550" lon="-0.6621530">
        <ele>374.4</ele>
        <time>2019-03-16T09:27:10Z</time>
      </trkpt>
      <trkpt lat="42.1014660" lon="-0.6624980">
        <ele>374.0</ele>
        <time>2019-03-16T09:27:14Z</time>
      </trkpt>
      <trkpt lat="42.1011760" lon="-0.6628500">
        <ele>374.0</ele>
        <time>2019-03-16T09:27:18Z</time>
      </trkpt>
      <trkpt lat="42.1008850" lon="-0.6632000">
        <ele>372.4</ele>
        <time>2019-03-16T09:27:22Z</time>
      </trkpt>
      <trkpt lat="42.1005860" lon="-0.6635510">
        <ele>372.2</ele>
        <time>2019-03-16T09:27:26Z</time>
      </trkpt>
      <trkpt lat="42.1002910" lon="-0.6639110">
        <ele>371.0</ele>
        <time>2019-03-16T09:27:30Z</time>
      </trkpt>
      <trkpt lat="42.0999900" lon="-0.6642710">
        <ele>370.2</ele>
        <time>2019-03-16T09:27:34Z</time>
      </trkpt>
      <trkpt lat="42.0996880" lon="-0.6646330">
        <ele>369.8</ele>
        <time>2019-03-16T09:27:38Z</time>
      </trkpt>
      <trkpt lat="42.0993850" lon="-0.6649960">
        <ele>370.2</ele>
        <time>2019-03-16T09:27:42Z</time>
      </trkpt>
      <trkpt lat="42.0990760" lon="-0.6653510">
        <ele>368.4</ele>
        <time>2019-03-16T09:27:46Z</time>
      </trkpt>
      <trkpt lat="42.0987830" lon="-0.6657250">
        <ele>367.6</ele>
        <time>2019-03-16T09:27:50Z</time>
      </trkpt>
      <trkpt lat="42.0985880" lon="-0.6661710">
        <ele>367.6</ele>
        <time>2019-03-16T09:27:54Z</time>
      </trkpt>
      <trkpt lat="42.0984850" lon="-0.6665530">
        <ele>367.6</ele>
        <time>2019-03-16T09:27:58Z</time>
      </trkpt>
      <trkpt lat="42.0985610" lon="-0.6668410">
        <ele>366.2</ele>
        <time>2019-03-16T09:28:02Z</time>
      </trkpt>
      <trkpt lat="42.0988350" lon="-0.6669680">
        <ele>363.6</ele>
        <time>2019-03-16T09:28:06Z</time>
      </trkpt>
      <trkpt lat="42.0991560" lon="-0.6670330">
        <ele>363.4</ele>
        <time>2019-03-16T09:28:10Z</time>
      </trkpt>
      <trkpt lat="42.0994680" lon="-0.6670880">
        <ele>363.0</ele>
        <time>2019-03-16T09:28:14Z</time>
      </trkpt>
      <trkpt lat="42.0997850" lon="-0.6671500">
        <ele>362.4</ele>
        <time>2019-03-16T09:28:18Z</time>
      </trkpt>
      <trkpt lat="42.1000830" lon="-0.6672260">
        <ele>362.6</ele>
        <time>2019-03-16T09:28:22Z</time>
      </trkpt>
      <trkpt lat="42.1003660" lon="-0.6673300">
        <ele>362.4</ele>
        <time>2019-03-16T09:28:26Z</time>
      </trkpt>
      <trkpt lat="42.1006930" lon="-0.6674230">
        <ele>362.6</ele>
        <time>2019-03-16T09:28:30Z</time>
      </trkpt>
      <trkpt lat="42.1010310" lon="-0.6675050">
        <ele>363.0</ele>
        <time>2019-03-16T09:28:34Z</time>
      </trkpt>
      <trkpt lat="42.1013450" lon="-0.6675350">
        <ele>362.6</ele>
        <time>2019-03-16T09:28:38Z</time>
      </trkpt>
      <trkpt lat="42.1016530" lon="-0.6674680">
        <ele>362.8</ele>
        <time>2019-03-16T09:28:42Z</time>
      </trkpt>
      <trkpt lat="42.1019530" lon="-0.6675130">
        <ele>362.2</ele>
        <time>2019-03-16T09:28:46Z</time>
      </trkpt>
      <trkpt lat="42.1021710" lon="-0.6678280">
        <ele>361.6</ele>
        <time>2019-03-16T09:28:50Z</time>
      </trkpt>
      <trkpt lat="42.1023600" lon="-0.6682060">
        <ele>360.6</ele>
        <time>2019-03-16T09:28:54Z</time>
      </trkpt>
      <trkpt lat="42.1025410" lon="-0.6685900">
        <ele>359.6</ele>
        <time>2019-03-16T09:28:58Z</time>
      </trkpt>
      <trkpt lat="42.1027210" lon="-0.6689630">
        <ele>359.8</ele>
        <time>2019-03-16T09:29:02Z</time>
      </trkpt>
      <trkpt lat="42.1028960" lon="-0.6693300">
        <ele>360.4</ele>
        <time>2019-03-16T09:29:06Z</time>
      </trkpt>
      <trkpt lat="42.1030600" lon="-0.6696760">
        <ele>360.6</ele>
        <time>2019-03-16T09:29:10Z</time>
      </trkpt>
      <trkpt lat="42.1032110" lon="-0.6700130">
        <ele>360.8</ele>
        <time>2019-03-16T09:29:14Z</time>
      </trkpt>
      <trkpt lat="42.1033380" lon="-0.6703000">
        <ele>362.2</ele>
        <time>2019-03-16T09:29:18Z</time>
      </trkpt>
      <trkpt lat="42.1034380" lon="-0.6704980">
        <ele>363.8</ele>
        <time>2019-03-16T09:29:22Z</time>
      </trkpt>
      <trkpt lat="42.1035060" lon="-0.6706480">
        <ele>364.8</ele>
        <time>2019-03-16T09:29:26Z</time>
      </trkpt>
      <trkpt lat="42.1035110" lon="-0.6708330">
        <ele>365.2</ele>
        <time>2019-03-16T09:29:30Z</time>
      </trkpt>
      <trkpt lat="42.1034750" lon="-0.6710550">
        <ele>366.0</ele>
        <time>2019-03-16T09:29:34Z</time>
      </trkpt>
      <trkpt lat="42.1033810" lon="-0.6712660">
        <ele>367.4</ele>
        <time>2019-03-16T09:29:38Z</time>
      </trkpt>
      <trkpt lat="42.1032460" lon="-0.6714480">
        <ele>367.8</ele>
        <time>2019-03-16T09:29:42Z</time>
      </trkpt>
      <trkpt lat="42.1032060" lon="-0.6717110">
        <ele>369.8</ele>
        <time>2019-03-16T09:29:46Z</time>
      </trkpt>
      <trkpt lat="42.1032780" lon="-0.6719260">
        <ele>371.4</ele>
        <time>2019-03-16T09:29:50Z</time>
      </trkpt>
      <trkpt lat="42.1033960" lon="-0.6720750">
        <ele>372.6</ele>
        <time>2019-03-16T09:29:54Z</time>
      </trkpt>
      <trkpt lat="42.1035580" lon="-0.6721080">
        <ele>374.2</ele>
        <time>2019-03-16T09:29:58Z</time>
      </trkpt>
      <trkpt lat="42.1037230" lon="-0.6720850">
        <ele>374.2</ele>
        <time>2019-03-16T09:30:02Z</time>
      </trkpt>
      <trkpt lat="42.1038850" lon="-0.6720410">
        <ele>376.0</ele>
        <time>2019-03-16T09:30:06Z</time>
      </trkpt>
      <trkpt lat="42.1040600" lon="-0.6720160">
        <ele>377.4</ele>
        <time>2019-03-16T09:30:10Z</time>
      </trkpt>
      <trkpt lat="42.1042330" lon="-0.6719780">
        <ele>378.2</ele>
        <time>2019-03-16T09:30:14Z</time>
      </trkpt>
      <trkpt lat="42.1044110" lon="-0.6719160">
        <ele>378.6</ele>
        <time>2019-03-16T09:30:18Z</time>
      </trkpt>
      <trkpt lat="42.1046050" lon="-0.6718430">
        <ele>378.4</ele>
        <time>2019-03-16T09:30:22Z</time>
      </trkpt>
      <trkpt lat="42.1048130" lon="-0.6717580">
        <ele>378.2</ele>
        <time>2019-03-16T09:30:26Z</time>
      </trkpt>
      <trkpt lat="42.1050300" lon="-0.6716710">
        <ele>378.6</ele>
        <time>2019-03-16T09:30:30Z</time>
      </trkpt>
      <trkpt lat="42.1052480" lon="-0.6715800">
        <ele>379.2</ele>
        <time>2019-03-16T09:30:34Z</time>
      </trkpt>
      <trkpt lat="42.1054660" lon="-0.6714980">
        <ele>378.8</ele>
        <time>2019-03-16T09:30:38Z</time>
      </trkpt>
      <trkpt lat="42.1056860" lon="-0.6714010">
        <ele>379.4</ele>
        <time>2019-03-16T09:30:42Z</time>
      </trkpt>
      <trkpt lat="42.1059100" lon="-0.6713110">
        <ele>379.6</ele>
        <time>2019-03-16T09:30:46Z</time>
      </trkpt>
      <trkpt lat="42.1061350" lon="-0.6712260">
        <ele>379.2</ele>
        <time>2019-03-16T09:30:50Z</time>
      </trkpt>
      <trkpt lat="42.1063580" lon="-0.6711330">
        <ele>379.4</ele>
        <time>2019-03-16T09:30:54Z</time>
      </trkpt>
      <trkpt lat="42.1065780" lon="-0.6710500">
        <ele>380.2</ele>
        <time>2019-03-16T09:30:58Z</time>
      </trkpt>
      <trkpt lat="42.1067780" lon="-0.6709580">
        <ele>381.2</ele>
        <time>2019-03-16T09:31:02Z</time>
      </trkpt>
      <trkpt lat="42.1069260" lon="-0.6708910">
        <ele>381.6</ele>
        <time>2019-03-16T09:31:06Z</time>
      </trkpt>
      <trkpt lat="42.1069780" lon="-0.6708850">
        <ele>381.6</ele>
        <time>2019-03-16T09:31:10Z</time>
      </trkpt>
      <trkpt lat="42.1068680" lon="-0.6709280">
        <ele>381.4</ele>
        <time>2019-03-16T09:31:14Z</time>
      </trkpt>
      <trkpt lat="42.1066580" lon="-0.6710230">
        <ele>380.6</ele>
        <time>2019-03-16T09:31:18Z</time>
      </trkpt>
      <trkpt lat="42.1064130" lon="-0.6711260">
        <ele>380.0</ele>
        <time>2019-03-16T09:31:22Z</time>
      </trkpt>
      <trkpt lat="42.1061710" lon="-0.6712280">
        <ele>379.8</ele>
        <time>2019-03-16T09:31:26Z</time>
      </trkpt>
      <trkpt lat="42.1059280" lon="-0.6713160">
        <ele>379.6</ele>
        <time>2019-03-16T09:31:30Z</time>
      </trkpt>
      <trkpt lat="42.1056860" lon="-0.6714080">
        <ele>379.6</ele>
        <time>2019-03-16T09:31:34Z</time>
      </trkpt>
      <trkpt lat="42.1054480" lon="-0.6715110">
        <ele>379.6</ele>
        <time>2019-03-16T09:31:38Z</time>
      </trkpt>
      <trkpt lat="42.1052210" lon="-0.6716010">
        <ele>379.6</ele>
        <time>2019-03-16T09:31:42Z</time>
      </trkpt>
      <trkpt lat="42.1049950" lon="-0.6716780">
        <ele>379.2</ele>
        <time>2019-03-16T09:31:46Z</time>
      </trkpt>
      <trkpt lat="42.1047750" lon="-0.6717760">
        <ele>378.8</ele>
        <time>2019-03-16T09:31:50Z</time>
      </trkpt>
      <trkpt lat="42.1045460" lon="-0.6718760">
        <ele>379.2</ele>
        <time>2019-03-16T09:31:54Z</time>
      </trkpt>
      <trkpt lat="42.1043030" lon="-0.6719580">
        <ele>378.2</ele>
        <time>2019-03-16T09:31:58Z</time>
      </trkpt>
      <trkpt lat="42.1040280" lon="-0.6720260">
        <ele>376.6</ele>
        <time>2019-03-16T09:32:02Z</time>
      </trkpt>
      <trkpt lat="42.1037350" lon="-0.6721080">
        <ele>374.2</ele>
        <time>2019-03-16T09:32:06Z</time>
      </trkpt>
      <trkpt lat="42.1034680" lon="-0.6721410">
        <ele>373.2</ele>
        <time>2019-03-16T09:32:10Z</time>
      </trkpt>
      <trkpt lat="42.1031980" lon="-0.6719430">
        <ele>370.0</ele>
        <time>2019-03-16T09:32:14Z</time>
      </trkpt>
      <trkpt lat="42.1032260" lon="-0.6714700">
        <ele>367.6</ele>
        <time>2019-03-16T09:32:18Z</time>
      </trkpt>
      <trkpt lat="42.1034450" lon="-0.6711080">
        <ele>365.6</ele>
        <time>2019-03-16T09:32:22Z</time>
      </trkpt>
      <trkpt lat="42.1034750" lon="-0.6707780">
        <ele>364.6</ele>
        <time>2019-03-16T09:32:26Z</time>
      </trkpt>
      <trkpt lat="42.1034050" lon="-0.6706860">
        <ele>364.6</ele>
        <time>2019-03-16T09:32:30Z</time>
      </trkpt>
      <trkpt lat="42.1034560" lon="-0.6705860">
        <ele>364.2</ele>
        <time>2019-03-16T09:32:34Z</time>
      </trkpt>
      <trkpt lat="42.1034880" lon="-0.6705450">
        <ele>364.4</ele>
        <time>2019-03-16T09:32:38Z</time>
      </trkpt>
      <trkpt lat="42.1035600" lon="-0.6706200">
        <ele>364.4</ele>
        <time>2019-03-16T09:32:42Z</time>
      </trkpt>
      <trkpt lat="42.1036810" lon="-0.6706130">
        <ele>365.6</ele>
        <time>2019-03-16T09:32:46Z</time>
      </trkpt>
      <trkpt lat="42.1038310" lon="-0.6706210">
        <ele>365.4</ele>
        <time>2019-03-16T09:32:50Z</time>
      </trkpt>
      <trkpt lat="42.1039780" lon="-0.6706330">
        <ele>366.4</ele>
        <time>2019-03-16T09:32:54Z</time>
      </trkpt>
      <trkpt lat="42.1041410" lon="-0.6706310">
        <ele>367.6</ele>
        <time>2019-03-16T09:32:58Z</time>
      </trkpt>
      <trkpt lat="42.1043180" lon="-0.6706630">
        <ele>368.2</ele>
        <time>2019-03-16T09:33:02Z</time>
      </trkpt>
      <trkpt lat="42.1044900" lon="-0.6706260">
        <ele>367.8</ele>
        <time>2019-03-16T09:33:06Z</time>
      </trkpt>
      <trkpt lat="42.1046930" lon="-0.6705410">
        <ele>367.2</ele>
        <time>2019-03-16T09:33:10Z</time>
      </trkpt>
      <trkpt lat="42.1048750" lon="-0.6704550">
        <ele>367.6</ele>
        <time>2019-03-16T09:33:14Z</time>
      </trkpt>
      <trkpt lat="42.1048050" lon="-0.6705130">
        <ele>367.4</ele>
        <time>2019-03-16T09:33:18Z</time>
      </trkpt>
      <trkpt lat="42.1046160" lon="-0.6705950">
        <ele>367.6</ele>
        <time>2019-03-16T09:33:22Z</time>
      </trkpt>
      <trkpt lat="42.1044260" lon="-0.6706530">
        <ele>367.6</ele>
        <time>2019-03-16T09:33:26Z</time>
      </trkpt>
      <trkpt lat="42.1042210" lon="-0.6706580">
        <ele>366.4</ele>
        <time>2019-03-16T09:33:30Z</time>
      </trkpt>
      <trkpt lat="42.1039850" lon="-0.6706460">
        <ele>366.0</ele>
        <time>2019-03-16T09:33:34Z</time>
      </trkpt>
      <trkpt lat="42.1037230" lon="-0.6706310">
        <ele>365.0</ele>
        <time>2019-03-16T09:33:38Z</time>
      </trkpt>
      <trkpt lat="42.1034930" lon="-0.6705880">
        <ele>364.2</ele>
        <time>2019-03-16T09:33:42Z</time>
      </trkpt>
      <trkpt lat="42.1033550" lon="-0.6706550">
        <ele>363.6</ele>
        <time>2019-03-16T09:33:46Z</time>
      </trkpt>
      <trkpt lat="42.1032650" lon="-0.6707560">
        <ele>364.2</ele>
        <time>2019-03-16T09:33:50Z</time>
      </trkpt>
      <trkpt lat="42.1031350" lon="-0.6708030">
        <ele>364.4</ele>
        <time>2019-03-16T09:33:54Z</time>
      </trkpt>
      <trkpt lat="42.1029980" lon="-0.6708760">
        <ele>363.4</ele>
        <time>2019-03-16T09:33:58Z</time>
      </trkpt>
      <trkpt lat="42.1028580" lon="-0.6709780">
        <ele>363.8</ele>
        <time>2019-03-16T09:34:02Z</time>
      </trkpt>
      <trkpt lat="42.1027080" lon="-0.6710750">
        <ele>364.4</ele>
        <time>2019-03-16T09:34:06Z</time>
      </trkpt>
      <trkpt lat="42.1025400" lon="-0.6711510">
        <ele>364.6</ele>
        <time>2019-03-16T09:34:10Z</time>
      </trkpt>
      <trkpt lat="42.1023760" lon="-0.6712250">
        <ele>364.8</ele>
        <time>2019-03-16T09:34:14Z</time>
      </trkpt>
      <trkpt lat="42.1022250" lon="-0.6712810">
        <ele>365.8</ele>
        <time>2019-03-16T09:34:18Z</time>
      </trkpt>
      <trkpt lat="42.1021130" lon="-0.6713450">
        <ele>366.6</ele>
        <time>2019-03-16T09:34:22Z</time>
      </trkpt>
      <trkpt lat="42.1019750" lon="-0.6714030">
        <ele>367.4</ele>
        <time>2019-03-16T09:34:26Z</time>
      </trkpt>
      <trkpt lat="42.1018080" lon="-0.6714630">
        <ele>368.0</ele>
        <time>2019-03-16T09:34:30Z</time>
      </trkpt>
      <trkpt lat="42.1016500" lon="-0.6715900">
        <ele>366.8</ele>
        <time>2019-03-16T09:34:34Z</time>
      </trkpt>
      <trkpt lat="42.1015030" lon="-0.6717160">
        <ele>367.0</ele>
        <time>2019-03-16T09:34:38Z</time>
      </trkpt>
      <trkpt lat="42.1013460" lon="-0.6718380">
        <ele>368.0</ele>
        <time>2019-03-16T09:34:42Z</time>
      </trkpt>
      <trkpt lat="42.1011710" lon="-0.6719560">
        <ele>368.4</ele>
        <time>2019-03-16T09:34:46Z</time>
      </trkpt>
      <trkpt lat="42.1010150" lon="-0.6720830">
        <ele>368.2</ele>
        <time>2019-03-16T09:34:50Z</time>
      </trkpt>
      <trkpt lat="42.1008260" lon="-0.6721900">
        <ele>368.6</ele>
        <time>2019-03-16T09:34:54Z</time>
      </trkpt>
      <trkpt lat="42.1006300" lon="-0.6722980">
        <ele>367.6</ele>
        <time>2019-03-16T09:34:58Z</time>
      </trkpt>
      <trkpt lat="42.1004260" lon="-0.6724110">
        <ele>367.0</ele>
        <time>2019-03-16T09:35:02Z</time>
      </trkpt>
      <trkpt lat="42.1002280" lon="-0.6725500">
        <ele>367.0</ele>
        <time>2019-03-16T09:35:06Z</time>
      </trkpt>
      <trkpt lat="42.1000550" lon="-0.6727060">
        <ele>366.6</ele>
        <time>2019-03-16T09:35:10Z</time>
      </trkpt>
      <trkpt lat="42.0999060" lon="-0.6728280">
        <ele>367.4</ele>
        <time>2019-03-16T09:35:14Z</time>
      </trkpt>
      <trkpt lat="42.0997200" lon="-0.6729650">
        <ele>366.0</ele>
        <time>2019-03-16T09:35:18Z</time>
      </trkpt>
      <trkpt lat="42.0995060" lon="-0.6731080">
        <ele>366.2</ele>
        <time>2019-03-16T09:35:22Z</time>
      </trkpt>
      <trkpt lat="42.0992880" lon="-0.6732330">
        <ele>366.0</ele>
        <time>2019-03-16T09:35:26Z</time>
      </trkpt>
      <trkpt lat="42.0990810" lon="-0.6733500">
        <ele>366.4</ele>
        <time>2019-03-16T09:35:30Z</time>
      </trkpt>
      <trkpt lat="42.0988810" lon="-0.6734700">
        <ele>365.8</ele>
        <time>2019-03-16T09:35:34Z</time>
      </trkpt>
      <trkpt lat="42.0986880" lon="-0.6735930">
        <ele>363.8</ele>
        <time>2019-03-16T09:35:38Z</time>
      </trkpt>
      <trkpt lat="42.0984950" lon="-0.6737150">
        <ele>364.2</ele>
        <time>2019-03-16T09:35:42Z</time>
      </trkpt>
      <trkpt lat="42.0983280" lon="-0.6738500">
        <ele>363.6</ele>
        <time>2019-03-16T09:35:46Z</time>
      </trkpt>
      <trkpt lat="42.0982410" lon="-0.6740480">
        <ele>363.2</ele>
        <time>2019-03-16T09:35:50Z</time>
      </trkpt>
      <trkpt lat="42.0982250" lon="-0.6743430">
        <ele>362.0</ele>
        <time>2019-03-16T09:35:54Z</time>
      </trkpt>
      <trkpt lat="42.0982300" lon="-0.6747380">
        <ele>361.8</ele>
        <time>2019-03-16T09:35:58Z</time>
      </trkpt>
      <trkpt lat="42.0982350" lon="-0.6751960">
        <ele>358.6</ele>
        <time>2019-03-16T09:36:02Z</time>
      </trkpt>
      <trkpt lat="42.0982380" lon="-0.6756630">
        <ele>358.8</ele>
        <time>2019-03-16T09:36:06Z</time>
      </trkpt>
      <trkpt lat="42.0982500" lon="-0.6761380">
        <ele>357.6</ele>
        <time>2019-03-16T09:36:10Z</time>
      </trkpt>
      <trkpt lat="42.0982480" lon="-0.6765860">
        <ele>357.4</ele>
        <time>2019-03-16T09:36:14Z</time>
      </trkpt>
      <trkpt lat="42.0982510" lon="-0.6770260">
        <ele>357.6</ele>
        <time>2019-03-16T09:36:18Z</time>
      </trkpt>
      <trkpt lat="42.0982580" lon="-0.6774650">
        <ele>358.8</ele>
        <time>2019-03-16T09:36:22Z</time>
      </trkpt>
      <trkpt lat="42.0982610" lon="-0.6778880">
        <ele>358.4</ele>
        <time>2019-03-16T09:36:26Z</time>
      </trkpt>
      <trkpt lat="42.0982710" lon="-0.6783050">
        <ele>359.4</ele>
        <time>2019-03-16T09:36:30Z</time>
      </trkpt>
      <trkpt lat="42.0982780" lon="-0.6787280">
        <ele>358.2</ele>
        <time>2019-03-16T09:36:34Z</time>
      </trkpt>
      <trkpt lat="42.0982830" lon="-0.6791450">
        <ele>358.4</ele>
        <time>2019-03-16T09:36:38Z</time>
      </trkpt>
      <trkpt lat="42.0982880" lon="-0.6795500">
        <ele>358.4</ele>
        <time>2019-03-16T09:36:42Z</time>
      </trkpt>
      <trkpt lat="42.0982950" lon="-0.6799380">
        <ele>360.0</ele>
        <time>2019-03-16T09:36:46Z</time>
      </trkpt>
      <trkpt lat="42.0982930" lon="-0.6803150">
        <ele>361.0</ele>
        <time>2019-03-16T09:36:50Z</time>
      </trkpt>
      <trkpt lat="42.0982930" lon="-0.6806850">
        <ele>361.2</ele>
        <time>2019-03-16T09:36:54Z</time>
      </trkpt>
      <trkpt lat="42.0983080" lon="-0.6810580">
        <ele>361.2</ele>
        <time>2019-03-16T09:36:58Z</time>
      </trkpt>
      <trkpt lat="42.0983450" lon="-0.6814280">
        <ele>361.8</ele>
        <time>2019-03-16T09:37:02Z</time>
      </trkpt>
      <trkpt lat="42.0983880" lon="-0.6818000">
        <ele>362.8</ele>
        <time>2019-03-16T09:37:06Z</time>
      </trkpt>
      <trkpt lat="42.0984330" lon="-0.6821660">
        <ele>362.4</ele>
        <time>2019-03-16T09:37:10Z</time>
      </trkpt>
      <trkpt lat="42.0985100" lon="-0.6825150">
        <ele>363.6</ele>
        <time>2019-03-16T09:37:14Z</time>
      </trkpt>
      <trkpt lat="42.0986560" lon="-0.6828250">
        <ele>363.2</ele>
        <time>2019-03-16T09:37:18Z</time>
      </trkpt>
      <trkpt lat="42.0988180" lon="-0.6831130">
        <ele>364.0</ele>
        <time>2019-03-16T09:37:22Z</time>
      </trkpt>
      <trkpt lat="42.0989500" lon="-0.6834200">
        <ele>364.2</ele>
        <time>2019-03-16T09:37:26Z</time>
      </trkpt>
      <trkpt lat="42.0990410" lon="-0.6837700">
        <ele>364.8</ele>
        <time>2019-03-16T09:37:30Z</time>
      </trkpt>
      <trkpt lat="42.0991130" lon="-0.6841400">
        <ele>365.0</ele>
        <time>2019-03-16T09:37:34Z</time>
      </trkpt>
      <trkpt lat="42.0991860" lon="-0.6845110">
        <ele>364.6</ele>
        <time>2019-03-16T09:37:38Z</time>
      </trkpt>
      <trkpt lat="42.0992580" lon="-0.6848950">
        <ele>364.6</ele>
        <time>2019-03-16T09:37:42Z</time>
      </trkpt>
      <trkpt lat="42.0993350" lon="-0.6852680">
        <ele>364.8</ele>
        <time>2019-03-16T09:37:46Z</time>
      </trkpt>
      <trkpt lat="42.0994100" lon="-0.6856460">
        <ele>365.0</ele>
        <time>2019-03-16T09:37:50Z</time>
      </trkpt>
      <trkpt lat="42.0994900" lon="-0.6860280">
        <ele>365.4</ele>
        <time>2019-03-16T09:37:54Z</time>
      </trkpt>
      <trkpt lat="42.0995680" lon="-0.6864050">
        <ele>364.6</ele>
        <time>2019-03-16T09:37:58Z</time>
      </trkpt>
      <trkpt lat="42.0996360" lon="-0.6867830">
        <ele>364.4</ele>
        <time>2019-03-16T09:38:02Z</time>
      </trkpt>
      <trkpt lat="42.0997110" lon="-0.6871560">
        <ele>365.4</ele>
        <time>2019-03-16T09:38:06Z</time>
      </trkpt>
      <trkpt lat="42.0997860" lon="-0.6875200">
        <ele>365.8</ele>
        <time>2019-03-16T09:38:10Z</time>
      </trkpt>
      <trkpt lat="42.0998560" lon="-0.6878910">
        <ele>365.2</ele>
        <time>2019-03-16T09:38:14Z</time>
      </trkpt>
      <trkpt lat="42.0999280" lon="-0.6882660">
        <ele>365.8</ele>
        <time>2019-03-16T09:38:18Z</time>
      </trkpt>
      <trkpt lat="42.1000080" lon="-0.6886300">
        <ele>367.6</ele>
        <time>2019-03-16T09:38:22Z</time>
      </trkpt>
      <trkpt lat="42.1000730" lon="-0.6890080">
        <ele>366.6</ele>
        <time>2019-03-16T09:38:26Z</time>
      </trkpt>
      <trkpt lat="42.1001460" lon="-0.6893910">
        <ele>367.0</ele>
        <time>2019-03-16T09:38:30Z</time>
      </trkpt>
      <trkpt lat="42.1002360" lon="-0.6897760">
        <ele>366.4</ele>
        <time>2019-03-16T09:38:34Z</time>
      </trkpt>
      <trkpt lat="42.1002900" lon="-0.6901660">
        <ele>367.6</ele>
        <time>2019-03-16T09:38:38Z</time>
      </trkpt>
      <trkpt lat="42.1002500" lon="-0.6905400">
        <ele>367.8</ele>
        <time>2019-03-16T09:38:42Z</time>
      </trkpt>
      <trkpt lat="42.1001510" lon="-0.6908910">
        <ele>369.4</ele>
        <time>2019-03-16T09:38:46Z</time>
      </trkpt>
      <trkpt lat="42.1000550" lon="-0.6912230">
        <ele>369.4</ele>
        <time>2019-03-16T09:38:50Z</time>
      </trkpt>
      <trkpt lat="42.0999610" lon="-0.6915380">
        <ele>370.2</ele>
        <time>2019-03-16T09:38:54Z</time>
      </trkpt>
      <trkpt lat="42.0998800" lon="-0.6918280">
        <ele>370.6</ele>
        <time>2019-03-16T09:38:58Z</time>
      </trkpt>
      <trkpt lat="42.0997960" lon="-0.6921630">
        <ele>371.2</ele>
        <time>2019-03-16T09:39:02Z</time>
      </trkpt>
      <trkpt lat="42.0997010" lon="-0.6924930">
        <ele>372.0</ele>
        <time>2019-03-16T09:39:06Z</time>
      </trkpt>
      <trkpt lat="42.0996050" lon="-0.6928130">
        <ele>371.4</ele>
        <time>2019-03-16T09:39:10Z</time>
      </trkpt>
      <trkpt lat="42.0995230" lon="-0.6931350">
        <ele>373.0</ele>
        <time>2019-03-16T09:39:14Z</time>
      </trkpt>
      <trkpt lat="42.0994830" lon="-0.6934680">
        <ele>374.0</ele>
        <time>2019-03-16T09:39:18Z</time>
      </trkpt>
      <trkpt lat="42.0994810" lon="-0.6938060">
        <ele>373.8</ele>
        <time>2019-03-16T09:39:22Z</time>
      </trkpt>
      <trkpt lat="42.0994960" lon="-0.6941450">
        <ele>374.0</ele>
        <time>2019-03-16T09:39:26Z</time>
      </trkpt>
      <trkpt lat="42.0995110" lon="-0.6944710">
        <ele>375.2</ele>
        <time>2019-03-16T09:39:30Z</time>
      </trkpt>
      <trkpt lat="42.0995330" lon="-0.6948010">
        <ele>375.4</ele>
        <time>2019-03-16T09:39:34Z</time>
      </trkpt>
      <trkpt lat="42.0995500" lon="-0.6951400">
        <ele>376.8</ele>
        <time>2019-03-16T09:39:38Z</time>
      </trkpt>
      <trkpt lat="42.0995610" lon="-0.6954430">
        <ele>376.6</ele>
        <time>2019-03-16T09:39:42Z</time>
      </trkpt>
      <trkpt lat="42.0995510" lon="-0.6956580">
        <ele>377.0</ele>
        <time>2019-03-16T09:39:46Z</time>
      </trkpt>
      <trkpt lat="42.0995710" lon="-0.6958160">
        <ele>377.2</ele>
        <time>2019-03-16T09:39:50Z</time>
      </trkpt>
      <trkpt lat="42.0996130" lon="-0.6960800">
        <ele>377.8</ele>
        <time>2019-03-16T09:39:54Z</time>
      </trkpt>
      <trkpt lat="42.0996850" lon="-0.6963760">
        <ele>378.2</ele>
        <time>2019-03-16T09:39:58Z</time>
      </trkpt>
      <trkpt lat="42.0997930" lon="-0.6966760">
        <ele>378.8</ele>
        <time>2019-03-16T09:40:02Z</time>
      </trkpt>
      <trkpt lat="42.0999110" lon="-0.6969530">
        <ele>379.4</ele>
        <time>2019-03-16T09:40:06Z</time>
      </trkpt>
      <trkpt lat="42.0999430" lon="-0.6970810">
        <ele>379.8</ele>
        <time>2019-03-16T09:40:10Z</time>
      </trkpt>
      <trkpt lat="42.0998800" lon="-0.6969200">
        <ele>379.4</ele>
        <time>2019-03-16T09:40:14Z</time>
      </trkpt>
      <trkpt lat="42.0997580" lon="-0.6966310">
        <ele>378.6</ele>
        <time>2019-03-16T09:40:18Z</time>
      </trkpt>
      <trkpt lat="42.0996350" lon="-0.6962930">
        <ele>377.8</ele>
        <time>2019-03-16T09:40:22Z</time>
      </trkpt>
      <trkpt lat="42.0995610" lon="-0.6959130">
        <ele>377.4</ele>
        <time>2019-03-16T09:40:26Z</time>
      </trkpt>
      <trkpt lat="42.0995210" lon="-0.6955280">
        <ele>376.8</ele>
        <time>2019-03-16T09:40:30Z</time>
      </trkpt>
      <trkpt lat="42.0996400" lon="-0.6952880">
        <ele>376.4</ele>
        <time>2019-03-16T09:40:34Z</time>
      </trkpt>
      <trkpt lat="42.0998400" lon="-0.6953250">
        <ele>377.4</ele>
        <time>2019-03-16T09:40:38Z</time>
      </trkpt>
      <trkpt lat="42.0999880" lon="-0.6953650">
        <ele>378.8</ele>
        <time>2019-03-16T09:40:42Z</time>
      </trkpt>
      <trkpt lat="42.1001280" lon="-0.6954060">
        <ele>379.6</ele>
        <time>2019-03-16T09:40:46Z</time>
      </trkpt>
      <trkpt lat="42.1002860" lon="-0.6954560">
        <ele>381.8</ele>
        <time>2019-03-16T09:40:50Z</time>
      </trkpt>
      <trkpt lat="42.1004410" lon="-0.6954830">
        <ele>383.2</ele>
        <time>2019-03-16T09:40:54Z</time>
      </trkpt>
      <trkpt lat="42.1005960" lon="-0.6955400">
        <ele>384.8</ele>
        <time>2019-03-16T09:40:58Z</time>
      </trkpt>
      <trkpt lat="42.1007400" lon="-0.6955750">
        <ele>386.0</ele>
        <time>2019-03-16T09:41:02Z</time>
      </trkpt>
      <trkpt lat="42.1009010" lon="-0.6955850">
        <ele>387.6</ele>
        <time>2019-03-16T09:41:06Z</time>
      </trkpt>
      <trkpt lat="42.1010310" lon="-0.6955150">
        <ele>388.6</ele>
        <time>2019-03-16T09:41:10Z</time>
      </trkpt>
      <trkpt lat="42.1011600" lon="-0.6953880">
        <ele>390.4</ele>
        <time>2019-03-16T09:41:14Z</time>
      </trkpt>
      <trkpt lat="42.1012430" lon="-0.6953080">
        <ele>390.2</ele>
        <time>2019-03-16T09:41:18Z</time>
      </trkpt>
      <trkpt lat="42.1013310" lon="-0.6953510">
        <ele>390.0</ele>
        <time>2019-03-16T09:41:22Z</time>
      </trkpt>
      <trkpt lat="42.1014060" lon="-0.6954180">
        <ele>390.6</ele>
        <time>2019-03-16T09:41:26Z</time>
      </trkpt>
      <trkpt lat="42.1014560" lon="-0.6954850">
        <ele>390.2</ele>
        <time>2019-03-16T09:41:30Z</time>
      </trkpt>
      <trkpt lat="42.1015000" lon="-0.6955760">
        <ele>390.8</ele>
        <time>2019-03-16T09:41:34Z</time>
      </trkpt>
      <trkpt lat="42.1014880" lon="-0.6956500">
        <ele>390.4</ele>
        <time>2019-03-16T09:41:38Z</time>
      </trkpt>
      <trkpt lat="42.1014350" lon="-0.6956000">
        <ele>390.8</ele>
        <time>2019-03-16T09:41:42Z</time>
      </trkpt>
      <trkpt lat="42.1014150" lon="-0.6954780">
        <ele>390.4</ele>
        <time>2019-03-16T09:41:46Z</time>
      </trkpt>
      <trkpt lat="42.1013430" lon="-0.6953700">
        <ele>390.2</ele>
        <time>2019-03-16T09:41:50Z</time>
      </trkpt>
      <trkpt lat="42.1012760" lon="-0.6952710">
        <ele>390.4</ele>
        <time>2019-03-16T09:41:54Z</time>
      </trkpt>
      <trkpt lat="42.1012630" lon="-0.6952060">
        <ele>391.2</ele>
        <time>2019-03-16T09:41:58Z</time>
      </trkpt>
      <trkpt lat="42.1012730" lon="-0.6951600">
        <ele>391.4</ele>
        <time>2019-03-16T09:42:02Z</time>
      </trkpt>
      <trkpt lat="42.1012660" lon="-0.6950700">
        <ele>391.4</ele>
        <time>2019-03-16T09:42:06Z</time>
      </trkpt>
      <trkpt lat="42.1012910" lon="-0.6948730">
        <ele>391.2</ele>
        <time>2019-03-16T09:42:10Z</time>
      </trkpt>
      <trkpt lat="42.1013380" lon="-0.6946150">
        <ele>391.2</ele>
        <time>2019-03-16T09:42:14Z</time>
      </trkpt>
      <trkpt lat="42.1013780" lon="-0.6943010">
        <ele>391.4</ele>
        <time>2019-03-16T09:42:18Z</time>
      </trkpt>
      <trkpt lat="42.1014200" lon="-0.6939750">
        <ele>391.2</ele>
        <time>2019-03-16T09:42:22Z</time>
      </trkpt>
      <trkpt lat="42.1014600" lon="-0.6936380">
        <ele>390.8</ele>
        <time>2019-03-16T09:42:26Z</time>
      </trkpt>
      <trkpt lat="42.1015010" lon="-0.6933000">
        <ele>390.6</ele>
        <time>2019-03-16T09:42:30Z</time>
      </trkpt>
      <trkpt lat="42.1015510" lon="-0.6929630">
        <ele>390.8</ele>
        <time>2019-03-16T09:42:34Z</time>
      </trkpt>
      <trkpt lat="42.1016160" lon="-0.6926280">
        <ele>391.0</ele>
        <time>2019-03-16T09:42:38Z</time>
      </trkpt>
      <trkpt lat="42.1016480" lon="-0.6922860">
        <ele>390.6</ele>
        <time>2019-03-16T09:42:42Z</time>
      </trkpt>
      <trkpt lat="42.1016660" lon="-0.6919850">
        <ele>391.0</ele>
        <time>2019-03-16T09:42:46Z</time>
      </trkpt>
    </trkseg>
  </trk>
</gpx>
